<?xml version="1.0" encoding="UTF-8" standalone="no" ?>
<gpx xmlns="http://www.topografix.com/GPX/1/1" xmlns:xsi="http://www.w3.org/2001/XMLSchema-instance" xsi:schemaLocation="http://www.topografix.com/GPX/1/1 http://www.topografix.com/GPX/1/1/gpx.xsd" version="1.1" creator="VisuGPX - https://www.visugpx.com">
  <metadata>
    <name>Champagnat Cyclisme sur route</name>
  </metadata>
  <trk>
    <name><![CDATA[Champagnat Cyclisme sur route_1]]></name>
    <trkseg>
      <trkpt lat="46.48274" lon="5.36841">
        <ele>267.6</ele>
        <time>2022-03-12T10:59:17Z</time>
      </trkpt>
      <trkpt lat="46.48265" lon="5.3683">
        <ele>266.6</ele>
        <time>2022-03-12T10:59:18Z</time>
      </trkpt>
      <trkpt lat="46.48256" lon="5.36819">
        <ele>265.8</ele>
        <time>2022-03-12T10:59:19Z</time>
      </trkpt>
      <trkpt lat="46.48245" lon="5.3681">
        <ele>264.2</ele>
        <time>2022-03-12T10:59:20Z</time>
      </trkpt>
      <trkpt lat="46.48224" lon="5.36792">
        <ele>262.8</ele>
        <time>2022-03-12T10:59:22Z</time>
      </trkpt>
      <trkpt lat="46.48203" lon="5.36776">
        <ele>261.6</ele>
        <time>2022-03-12T10:59:24Z</time>
      </trkpt>
      <trkpt lat="46.48182" lon="5.36758">
        <ele>260.4</ele>
        <time>2022-03-12T10:59:26Z</time>
      </trkpt>
      <trkpt lat="46.48161" lon="5.36741">
        <ele>259</ele>
        <time>2022-03-12T10:59:28Z</time>
      </trkpt>
      <trkpt lat="46.48141" lon="5.36724">
        <ele>257.8</ele>
        <time>2022-03-12T10:59:30Z</time>
      </trkpt>
      <trkpt lat="46.48131" lon="5.36718">
        <ele>256.6</ele>
        <time>2022-03-12T10:59:31Z</time>
      </trkpt>
      <trkpt lat="46.48123" lon="5.36711">
        <ele>255.6</ele>
        <time>2022-03-12T10:59:32Z</time>
      </trkpt>
      <trkpt lat="46.48116" lon="5.36705">
        <ele>254.8</ele>
        <time>2022-03-12T10:59:33Z</time>
      </trkpt>
      <trkpt lat="46.4811" lon="5.36698">
        <ele>254.2</ele>
        <time>2022-03-12T10:59:34Z</time>
      </trkpt>
      <trkpt lat="46.48107" lon="5.36689">
        <ele>253.6</ele>
        <time>2022-03-12T10:59:35Z</time>
      </trkpt>
      <trkpt lat="46.48108" lon="5.3668">
        <ele>253</ele>
        <time>2022-03-12T10:59:36Z</time>
      </trkpt>
      <trkpt lat="46.48112" lon="5.36672">
        <ele>252.4</ele>
        <time>2022-03-12T10:59:37Z</time>
      </trkpt>
      <trkpt lat="46.48118" lon="5.36665">
        <ele>251.8</ele>
        <time>2022-03-12T10:59:38Z</time>
      </trkpt>
      <trkpt lat="46.48125" lon="5.36659">
        <ele>251</ele>
        <time>2022-03-12T10:59:39Z</time>
      </trkpt>
      <trkpt lat="46.48133" lon="5.36653">
        <ele>250.6</ele>
        <time>2022-03-12T10:59:40Z</time>
      </trkpt>
      <trkpt lat="46.48142" lon="5.36648">
        <ele>249.8</ele>
        <time>2022-03-12T10:59:41Z</time>
      </trkpt>
      <trkpt lat="46.4815" lon="5.3664">
        <ele>249.6</ele>
        <time>2022-03-12T10:59:42Z</time>
      </trkpt>
      <trkpt lat="46.48161" lon="5.36629">
        <ele>249</ele>
        <time>2022-03-12T10:59:44Z</time>
      </trkpt>
      <trkpt lat="46.48177" lon="5.36615">
        <ele>248.8</ele>
        <time>2022-03-12T10:59:46Z</time>
      </trkpt>
      <trkpt lat="46.48193" lon="5.36608">
        <ele>248.4</ele>
        <time>2022-03-12T10:59:48Z</time>
      </trkpt>
      <trkpt lat="46.48207" lon="5.36604">
        <ele>248.4</ele>
        <time>2022-03-12T10:59:50Z</time>
      </trkpt>
      <trkpt lat="46.48219" lon="5.3659">
        <ele>248.4</ele>
        <time>2022-03-12T10:59:52Z</time>
      </trkpt>
      <trkpt lat="46.48227" lon="5.36563">
        <ele>247.8</ele>
        <time>2022-03-12T10:59:55Z</time>
      </trkpt>
      <trkpt lat="46.48232" lon="5.36556">
        <ele>247.8</ele>
        <time>2022-03-12T10:59:56Z</time>
      </trkpt>
      <trkpt lat="46.48244" lon="5.36544">
        <ele>247.2</ele>
        <time>2022-03-12T10:59:58Z</time>
      </trkpt>
      <trkpt lat="46.48279" lon="5.36505">
        <ele>246.6</ele>
        <time>2022-03-12T11:00:04Z</time>
      </trkpt>
      <trkpt lat="46.48304" lon="5.36477">
        <ele>245.6</ele>
        <time>2022-03-12T11:00:08Z</time>
      </trkpt>
      <trkpt lat="46.48334" lon="5.36444">
        <ele>244.4</ele>
        <time>2022-03-12T11:00:13Z</time>
      </trkpt>
      <trkpt lat="46.48353" lon="5.36423">
        <ele>244</ele>
        <time>2022-03-12T11:00:16Z</time>
      </trkpt>
      <trkpt lat="46.48366" lon="5.36409">
        <ele>243.6</ele>
        <time>2022-03-12T11:00:18Z</time>
      </trkpt>
      <trkpt lat="46.48378" lon="5.36395">
        <ele>243.2</ele>
        <time>2022-03-12T11:00:20Z</time>
      </trkpt>
      <trkpt lat="46.48403" lon="5.36368">
        <ele>242</ele>
        <time>2022-03-12T11:00:24Z</time>
      </trkpt>
      <trkpt lat="46.4841" lon="5.36363">
        <ele>241.6</ele>
        <time>2022-03-12T11:00:25Z</time>
      </trkpt>
      <trkpt lat="46.48431" lon="5.36353">
        <ele>241</ele>
        <time>2022-03-12T11:00:28Z</time>
      </trkpt>
      <trkpt lat="46.48446" lon="5.36349">
        <ele>241</ele>
        <time>2022-03-12T11:00:30Z</time>
      </trkpt>
      <trkpt lat="46.48502" lon="5.36341">
        <ele>241</ele>
        <time>2022-03-12T11:00:38Z</time>
      </trkpt>
      <trkpt lat="46.48515" lon="5.36338">
        <ele>241</ele>
        <time>2022-03-12T11:00:40Z</time>
      </trkpt>
      <trkpt lat="46.4857" lon="5.36329">
        <ele>240.6</ele>
        <time>2022-03-12T11:00:48Z</time>
      </trkpt>
      <trkpt lat="46.48585" lon="5.36327">
        <ele>240.6</ele>
        <time>2022-03-12T11:00:50Z</time>
      </trkpt>
      <trkpt lat="46.486" lon="5.36324">
        <ele>239.8</ele>
        <time>2022-03-12T11:00:52Z</time>
      </trkpt>
      <trkpt lat="46.48608" lon="5.36323">
        <ele>239.6</ele>
        <time>2022-03-12T11:00:53Z</time>
      </trkpt>
      <trkpt lat="46.48623" lon="5.36314">
        <ele>239</ele>
        <time>2022-03-12T11:00:55Z</time>
      </trkpt>
      <trkpt lat="46.48629" lon="5.36306">
        <ele>238.6</ele>
        <time>2022-03-12T11:00:56Z</time>
      </trkpt>
      <trkpt lat="46.48633" lon="5.36296">
        <ele>238.4</ele>
        <time>2022-03-12T11:00:57Z</time>
      </trkpt>
      <trkpt lat="46.48635" lon="5.36285">
        <ele>238.2</ele>
        <time>2022-03-12T11:00:58Z</time>
      </trkpt>
      <trkpt lat="46.48639" lon="5.36259">
        <ele>237.4</ele>
        <time>2022-03-12T11:01:00Z</time>
      </trkpt>
      <trkpt lat="46.48643" lon="5.3622">
        <ele>236</ele>
        <time>2022-03-12T11:01:03Z</time>
      </trkpt>
      <trkpt lat="46.48645" lon="5.36181">
        <ele>235</ele>
        <time>2022-03-12T11:01:06Z</time>
      </trkpt>
      <trkpt lat="46.48649" lon="5.36144">
        <ele>234.4</ele>
        <time>2022-03-12T11:01:09Z</time>
      </trkpt>
      <trkpt lat="46.48654" lon="5.3612">
        <ele>233.8</ele>
        <time>2022-03-12T11:01:11Z</time>
      </trkpt>
      <trkpt lat="46.48669" lon="5.36055">
        <ele>233.4</ele>
        <time>2022-03-12T11:01:17Z</time>
      </trkpt>
      <trkpt lat="46.48677" lon="5.3601">
        <ele>233.8</ele>
        <time>2022-03-12T11:01:22Z</time>
      </trkpt>
      <trkpt lat="46.4868" lon="5.35994">
        <ele>234</ele>
        <time>2022-03-12T11:01:24Z</time>
      </trkpt>
      <trkpt lat="46.48682" lon="5.35977">
        <ele>234.2</ele>
        <time>2022-03-12T11:01:26Z</time>
      </trkpt>
      <trkpt lat="46.48685" lon="5.35959">
        <ele>234.6</ele>
        <time>2022-03-12T11:01:28Z</time>
      </trkpt>
      <trkpt lat="46.48691" lon="5.35918">
        <ele>234.8</ele>
        <time>2022-03-12T11:01:32Z</time>
      </trkpt>
      <trkpt lat="46.48694" lon="5.35909">
        <ele>234.8</ele>
        <time>2022-03-12T11:01:33Z</time>
      </trkpt>
      <trkpt lat="46.48708" lon="5.3587">
        <ele>234.6</ele>
        <time>2022-03-12T11:01:38Z</time>
      </trkpt>
      <trkpt lat="46.48728" lon="5.35821">
        <ele>233.6</ele>
        <time>2022-03-12T11:01:42Z</time>
      </trkpt>
      <trkpt lat="46.48739" lon="5.35794">
        <ele>233.2</ele>
        <time>2022-03-12T11:01:45Z</time>
      </trkpt>
      <trkpt lat="46.48747" lon="5.35777">
        <ele>232.8</ele>
        <time>2022-03-12T11:01:47Z</time>
      </trkpt>
      <trkpt lat="46.48766" lon="5.35732">
        <ele>232.2</ele>
        <time>2022-03-12T11:01:52Z</time>
      </trkpt>
      <trkpt lat="46.48783" lon="5.35696">
        <ele>231.8</ele>
        <time>2022-03-12T11:01:56Z</time>
      </trkpt>
      <trkpt lat="46.48805" lon="5.35645">
        <ele>231.6</ele>
        <time>2022-03-12T11:02:02Z</time>
      </trkpt>
      <trkpt lat="46.48828" lon="5.35595">
        <ele>231.6</ele>
        <time>2022-03-12T11:02:08Z</time>
      </trkpt>
      <trkpt lat="46.48852" lon="5.3554">
        <ele>231.8</ele>
        <time>2022-03-12T11:02:15Z</time>
      </trkpt>
      <trkpt lat="46.48881" lon="5.35474">
        <ele>231.8</ele>
        <time>2022-03-12T11:02:23Z</time>
      </trkpt>
      <trkpt lat="46.48907" lon="5.35415">
        <ele>232</ele>
        <time>2022-03-12T11:02:30Z</time>
      </trkpt>
      <trkpt lat="46.48934" lon="5.35351">
        <ele>231</ele>
        <time>2022-03-12T11:02:37Z</time>
      </trkpt>
      <trkpt lat="46.48947" lon="5.35324">
        <ele>230.8</ele>
        <time>2022-03-12T11:02:40Z</time>
      </trkpt>
      <trkpt lat="46.48973" lon="5.35266">
        <ele>230.6</ele>
        <time>2022-03-12T11:02:47Z</time>
      </trkpt>
      <trkpt lat="46.48989" lon="5.3523">
        <ele>230.6</ele>
        <time>2022-03-12T11:02:52Z</time>
      </trkpt>
      <trkpt lat="46.48992" lon="5.35223">
        <ele>230.8</ele>
        <time>2022-03-12T11:02:53Z</time>
      </trkpt>
      <trkpt lat="46.49001" lon="5.35203">
        <ele>231</ele>
        <time>2022-03-12T11:02:56Z</time>
      </trkpt>
      <trkpt lat="46.49019" lon="5.35166">
        <ele>231.6</ele>
        <time>2022-03-12T11:03:02Z</time>
      </trkpt>
      <trkpt lat="46.49024" lon="5.35154">
        <ele>231.8</ele>
        <time>2022-03-12T11:03:04Z</time>
      </trkpt>
      <trkpt lat="46.49035" lon="5.35124">
        <ele>232.2</ele>
        <time>2022-03-12T11:03:08Z</time>
      </trkpt>
      <trkpt lat="46.4904" lon="5.35107">
        <ele>232.2</ele>
        <time>2022-03-12T11:03:10Z</time>
      </trkpt>
      <trkpt lat="46.49054" lon="5.35044">
        <ele>232.2</ele>
        <time>2022-03-12T11:03:17Z</time>
      </trkpt>
      <trkpt lat="46.49066" lon="5.3498">
        <ele>231.8</ele>
        <time>2022-03-12T11:03:23Z</time>
      </trkpt>
      <trkpt lat="46.49077" lon="5.34925">
        <ele>230.6</ele>
        <time>2022-03-12T11:03:28Z</time>
      </trkpt>
      <trkpt lat="46.49083" lon="5.34891">
        <ele>229.8</ele>
        <time>2022-03-12T11:03:31Z</time>
      </trkpt>
      <trkpt lat="46.49088" lon="5.34869">
        <ele>229.6</ele>
        <time>2022-03-12T11:03:33Z</time>
      </trkpt>
      <trkpt lat="46.491" lon="5.34801">
        <ele>228.6</ele>
        <time>2022-03-12T11:03:39Z</time>
      </trkpt>
      <trkpt lat="46.49102" lon="5.3479">
        <ele>228.4</ele>
        <time>2022-03-12T11:03:40Z</time>
      </trkpt>
      <trkpt lat="46.49113" lon="5.34734">
        <ele>227.4</ele>
        <time>2022-03-12T11:03:45Z</time>
      </trkpt>
      <trkpt lat="46.49121" lon="5.34689">
        <ele>226.6</ele>
        <time>2022-03-12T11:03:49Z</time>
      </trkpt>
      <trkpt lat="46.49124" lon="5.34667">
        <ele>226.4</ele>
        <time>2022-03-12T11:03:51Z</time>
      </trkpt>
      <trkpt lat="46.49135" lon="5.34618">
        <ele>226</ele>
        <time>2022-03-12T11:03:56Z</time>
      </trkpt>
      <trkpt lat="46.49145" lon="5.34565">
        <ele>226.2</ele>
        <time>2022-03-12T11:04:02Z</time>
      </trkpt>
      <trkpt lat="46.49158" lon="5.345">
        <ele>226.4</ele>
        <time>2022-03-12T11:04:08Z</time>
      </trkpt>
      <trkpt lat="46.49171" lon="5.34436">
        <ele>225.8</ele>
        <time>2022-03-12T11:04:14Z</time>
      </trkpt>
      <trkpt lat="46.49182" lon="5.3438">
        <ele>225.8</ele>
        <time>2022-03-12T11:04:20Z</time>
      </trkpt>
      <trkpt lat="46.49189" lon="5.34344">
        <ele>226.4</ele>
        <time>2022-03-12T11:04:25Z</time>
      </trkpt>
      <trkpt lat="46.49197" lon="5.343">
        <ele>226.8</ele>
        <time>2022-03-12T11:04:30Z</time>
      </trkpt>
      <trkpt lat="46.49209" lon="5.34237">
        <ele>226.8</ele>
        <time>2022-03-12T11:04:36Z</time>
      </trkpt>
      <trkpt lat="46.49222" lon="5.34164">
        <ele>226.2</ele>
        <time>2022-03-12T11:04:43Z</time>
      </trkpt>
      <trkpt lat="46.49233" lon="5.34112">
        <ele>226.2</ele>
        <time>2022-03-12T11:04:49Z</time>
      </trkpt>
      <trkpt lat="46.49239" lon="5.3407">
        <ele>227</ele>
        <time>2022-03-12T11:04:55Z</time>
      </trkpt>
      <trkpt lat="46.49242" lon="5.34057">
        <ele>227.6</ele>
        <time>2022-03-12T11:04:57Z</time>
      </trkpt>
      <trkpt lat="46.4925" lon="5.3402">
        <ele>228.2</ele>
        <time>2022-03-12T11:05:02Z</time>
      </trkpt>
      <trkpt lat="46.49253" lon="5.34003">
        <ele>228.6</ele>
        <time>2022-03-12T11:05:04Z</time>
      </trkpt>
      <trkpt lat="46.49263" lon="5.33959">
        <ele>229</ele>
        <time>2022-03-12T11:05:09Z</time>
      </trkpt>
      <trkpt lat="46.49276" lon="5.33886">
        <ele>229</ele>
        <time>2022-03-12T11:05:17Z</time>
      </trkpt>
      <trkpt lat="46.49281" lon="5.33861">
        <ele>229</ele>
        <time>2022-03-12T11:05:20Z</time>
      </trkpt>
      <trkpt lat="46.49287" lon="5.33834">
        <ele>229</ele>
        <time>2022-03-12T11:05:23Z</time>
      </trkpt>
      <trkpt lat="46.493" lon="5.33764">
        <ele>228.6</ele>
        <time>2022-03-12T11:05:31Z</time>
      </trkpt>
      <trkpt lat="46.49307" lon="5.33695">
        <ele>228</ele>
        <time>2022-03-12T11:05:38Z</time>
      </trkpt>
      <trkpt lat="46.4931" lon="5.3362">
        <ele>227.2</ele>
        <time>2022-03-12T11:05:45Z</time>
      </trkpt>
      <trkpt lat="46.4932" lon="5.33569">
        <ele>226.8</ele>
        <time>2022-03-12T11:05:50Z</time>
      </trkpt>
      <trkpt lat="46.49321" lon="5.33559">
        <ele>226.8</ele>
        <time>2022-03-12T11:05:51Z</time>
      </trkpt>
      <trkpt lat="46.49322" lon="5.33529">
        <ele>226.6</ele>
        <time>2022-03-12T11:05:54Z</time>
      </trkpt>
      <trkpt lat="46.49312" lon="5.3345">
        <ele>226.6</ele>
        <time>2022-03-12T11:06:02Z</time>
      </trkpt>
      <trkpt lat="46.4931" lon="5.3344">
        <ele>226.6</ele>
        <time>2022-03-12T11:06:03Z</time>
      </trkpt>
      <trkpt lat="46.49294" lon="5.33358">
        <ele>226.4</ele>
        <time>2022-03-12T11:06:11Z</time>
      </trkpt>
      <trkpt lat="46.49289" lon="5.33336">
        <ele>226</ele>
        <time>2022-03-12T11:06:13Z</time>
      </trkpt>
      <trkpt lat="46.4928" lon="5.33281">
        <ele>225.2</ele>
        <time>2022-03-12T11:06:18Z</time>
      </trkpt>
      <trkpt lat="46.49273" lon="5.3325">
        <ele>224.6</ele>
        <time>2022-03-12T11:06:21Z</time>
      </trkpt>
      <trkpt lat="46.49263" lon="5.33219">
        <ele>224.4</ele>
        <time>2022-03-12T11:06:24Z</time>
      </trkpt>
      <trkpt lat="46.49253" lon="5.33201">
        <ele>224.2</ele>
        <time>2022-03-12T11:06:26Z</time>
      </trkpt>
      <trkpt lat="46.49241" lon="5.33187">
        <ele>224</ele>
        <time>2022-03-12T11:06:28Z</time>
      </trkpt>
      <trkpt lat="46.49234" lon="5.33181">
        <ele>223.8</ele>
        <time>2022-03-12T11:06:29Z</time>
      </trkpt>
      <trkpt lat="46.49198" lon="5.33154">
        <ele>222.8</ele>
        <time>2022-03-12T11:06:34Z</time>
      </trkpt>
      <trkpt lat="46.49191" lon="5.33147">
        <ele>222.6</ele>
        <time>2022-03-12T11:06:35Z</time>
      </trkpt>
      <trkpt lat="46.49165" lon="5.33119">
        <ele>222.2</ele>
        <time>2022-03-12T11:06:39Z</time>
      </trkpt>
      <trkpt lat="46.4916" lon="5.3311">
        <ele>222</ele>
        <time>2022-03-12T11:06:40Z</time>
      </trkpt>
      <trkpt lat="46.49146" lon="5.33072">
        <ele>221.8</ele>
        <time>2022-03-12T11:06:44Z</time>
      </trkpt>
      <trkpt lat="46.49139" lon="5.33043">
        <ele>221.8</ele>
        <time>2022-03-12T11:06:47Z</time>
      </trkpt>
      <trkpt lat="46.49135" lon="5.33012">
        <ele>221.6</ele>
        <time>2022-03-12T11:06:50Z</time>
      </trkpt>
      <trkpt lat="46.49127" lon="5.32933">
        <ele>221</ele>
        <time>2022-03-12T11:06:57Z</time>
      </trkpt>
      <trkpt lat="46.49127" lon="5.32911">
        <ele>220.8</ele>
        <time>2022-03-12T11:06:59Z</time>
      </trkpt>
      <trkpt lat="46.49128" lon="5.329">
        <ele>220.6</ele>
        <time>2022-03-12T11:07:00Z</time>
      </trkpt>
      <trkpt lat="46.49132" lon="5.32881">
        <ele>220.6</ele>
        <time>2022-03-12T11:07:02Z</time>
      </trkpt>
      <trkpt lat="46.49143" lon="5.32841">
        <ele>220.2</ele>
        <time>2022-03-12T11:07:06Z</time>
      </trkpt>
      <trkpt lat="46.49144" lon="5.32831">
        <ele>220.2</ele>
        <time>2022-03-12T11:07:07Z</time>
      </trkpt>
      <trkpt lat="46.49146" lon="5.32821">
        <ele>220.2</ele>
        <time>2022-03-12T11:07:08Z</time>
      </trkpt>
      <trkpt lat="46.49146" lon="5.32802">
        <ele>220.2</ele>
        <time>2022-03-12T11:07:10Z</time>
      </trkpt>
      <trkpt lat="46.49145" lon="5.32792">
        <ele>220.2</ele>
        <time>2022-03-12T11:07:11Z</time>
      </trkpt>
      <trkpt lat="46.49136" lon="5.32737">
        <ele>220.2</ele>
        <time>2022-03-12T11:07:17Z</time>
      </trkpt>
      <trkpt lat="46.4913" lon="5.32719">
        <ele>220.6</ele>
        <time>2022-03-12T11:07:19Z</time>
      </trkpt>
      <trkpt lat="46.4912" lon="5.32703">
        <ele>220.6</ele>
        <time>2022-03-12T11:07:21Z</time>
      </trkpt>
      <trkpt lat="46.49108" lon="5.32696">
        <ele>220.6</ele>
        <time>2022-03-12T11:07:23Z</time>
      </trkpt>
      <trkpt lat="46.49101" lon="5.32695">
        <ele>220.2</ele>
        <time>2022-03-12T11:07:24Z</time>
      </trkpt>
      <trkpt lat="46.49094" lon="5.32696">
        <ele>220.2</ele>
        <time>2022-03-12T11:07:25Z</time>
      </trkpt>
      <trkpt lat="46.4907" lon="5.32701">
        <ele>219.8</ele>
        <time>2022-03-12T11:07:28Z</time>
      </trkpt>
      <trkpt lat="46.49034" lon="5.32707">
        <ele>218.6</ele>
        <time>2022-03-12T11:07:32Z</time>
      </trkpt>
      <trkpt lat="46.49016" lon="5.3271">
        <ele>217.4</ele>
        <time>2022-03-12T11:07:34Z</time>
      </trkpt>
      <trkpt lat="46.48976" lon="5.32709">
        <ele>215.8</ele>
        <time>2022-03-12T11:07:38Z</time>
      </trkpt>
      <trkpt lat="46.48966" lon="5.32705">
        <ele>215.4</ele>
        <time>2022-03-12T11:07:39Z</time>
      </trkpt>
      <trkpt lat="46.48957" lon="5.32699">
        <ele>214.8</ele>
        <time>2022-03-12T11:07:40Z</time>
      </trkpt>
      <trkpt lat="46.48949" lon="5.32692">
        <ele>214.8</ele>
        <time>2022-03-12T11:07:41Z</time>
      </trkpt>
      <trkpt lat="46.4894" lon="5.32682">
        <ele>213.8</ele>
        <time>2022-03-12T11:07:42Z</time>
      </trkpt>
      <trkpt lat="46.48924" lon="5.32658">
        <ele>212.4</ele>
        <time>2022-03-12T11:07:44Z</time>
      </trkpt>
      <trkpt lat="46.48918" lon="5.32644">
        <ele>211.6</ele>
        <time>2022-03-12T11:07:45Z</time>
      </trkpt>
      <trkpt lat="46.48913" lon="5.3263">
        <ele>211.2</ele>
        <time>2022-03-12T11:07:46Z</time>
      </trkpt>
      <trkpt lat="46.48916" lon="5.32602">
        <ele>210.8</ele>
        <time>2022-03-12T11:07:48Z</time>
      </trkpt>
      <trkpt lat="46.48926" lon="5.32589">
        <ele>209.6</ele>
        <time>2022-03-12T11:07:49Z</time>
      </trkpt>
      <trkpt lat="46.48935" lon="5.32578">
        <ele>208.2</ele>
        <time>2022-03-12T11:07:50Z</time>
      </trkpt>
      <trkpt lat="46.48949" lon="5.32551">
        <ele>207.4</ele>
        <time>2022-03-12T11:07:52Z</time>
      </trkpt>
      <trkpt lat="46.48951" lon="5.32537">
        <ele>206.6</ele>
        <time>2022-03-12T11:07:53Z</time>
      </trkpt>
      <trkpt lat="46.48951" lon="5.3252">
        <ele>205.8</ele>
        <time>2022-03-12T11:07:54Z</time>
      </trkpt>
      <trkpt lat="46.4895" lon="5.32509">
        <ele>205.6</ele>
        <time>2022-03-12T11:07:55Z</time>
      </trkpt>
      <trkpt lat="46.48943" lon="5.32485">
        <ele>205</ele>
        <time>2022-03-12T11:07:57Z</time>
      </trkpt>
      <trkpt lat="46.4894" lon="5.32474">
        <ele>204.4</ele>
        <time>2022-03-12T11:07:58Z</time>
      </trkpt>
      <trkpt lat="46.48926" lon="5.32417">
        <ele>203.4</ele>
        <time>2022-03-12T11:08:03Z</time>
      </trkpt>
      <trkpt lat="46.4891" lon="5.32364">
        <ele>203</ele>
        <time>2022-03-12T11:08:08Z</time>
      </trkpt>
      <trkpt lat="46.48903" lon="5.32343">
        <ele>203</ele>
        <time>2022-03-12T11:08:10Z</time>
      </trkpt>
      <trkpt lat="46.48895" lon="5.32327">
        <ele>203</ele>
        <time>2022-03-12T11:08:12Z</time>
      </trkpt>
      <trkpt lat="46.48877" lon="5.32297">
        <ele>204</ele>
        <time>2022-03-12T11:08:17Z</time>
      </trkpt>
      <trkpt lat="46.4887" lon="5.32287">
        <ele>204.8</ele>
        <time>2022-03-12T11:08:19Z</time>
      </trkpt>
      <trkpt lat="46.48858" lon="5.32269">
        <ele>205.8</ele>
        <time>2022-03-12T11:08:23Z</time>
      </trkpt>
      <trkpt lat="46.48852" lon="5.32261">
        <ele>206.4</ele>
        <time>2022-03-12T11:08:25Z</time>
      </trkpt>
      <trkpt lat="46.4885" lon="5.32257">
        <ele>207</ele>
        <time>2022-03-12T11:08:26Z</time>
      </trkpt>
      <trkpt lat="46.48841" lon="5.32244">
        <ele>208.2</ele>
        <time>2022-03-12T11:08:29Z</time>
      </trkpt>
      <trkpt lat="46.48836" lon="5.32233">
        <ele>208.8</ele>
        <time>2022-03-12T11:08:31Z</time>
      </trkpt>
      <trkpt lat="46.48834" lon="5.32226">
        <ele>208.8</ele>
        <time>2022-03-12T11:08:32Z</time>
      </trkpt>
      <trkpt lat="46.48833" lon="5.3222">
        <ele>209.6</ele>
        <time>2022-03-12T11:08:33Z</time>
      </trkpt>
      <trkpt lat="46.48828" lon="5.32188">
        <ele>209.8</ele>
        <time>2022-03-12T11:08:37Z</time>
      </trkpt>
      <trkpt lat="46.48825" lon="5.32148">
        <ele>209.8</ele>
        <time>2022-03-12T11:08:41Z</time>
      </trkpt>
      <trkpt lat="46.48826" lon="5.32129">
        <ele>209.6</ele>
        <time>2022-03-12T11:08:43Z</time>
      </trkpt>
      <trkpt lat="46.48834" lon="5.32089">
        <ele>208.4</ele>
        <time>2022-03-12T11:08:47Z</time>
      </trkpt>
      <trkpt lat="46.48838" lon="5.32068">
        <ele>208</ele>
        <time>2022-03-12T11:08:49Z</time>
      </trkpt>
      <trkpt lat="46.48845" lon="5.32027">
        <ele>207.4</ele>
        <time>2022-03-12T11:08:53Z</time>
      </trkpt>
      <trkpt lat="46.4885" lon="5.31974">
        <ele>207</ele>
        <time>2022-03-12T11:08:58Z</time>
      </trkpt>
      <trkpt lat="46.48846" lon="5.31918">
        <ele>206.4</ele>
        <time>2022-03-12T11:09:03Z</time>
      </trkpt>
      <trkpt lat="46.48843" lon="5.31894">
        <ele>206.2</ele>
        <time>2022-03-12T11:09:05Z</time>
      </trkpt>
      <trkpt lat="46.48842" lon="5.31883">
        <ele>206</ele>
        <time>2022-03-12T11:09:06Z</time>
      </trkpt>
      <trkpt lat="46.48839" lon="5.31874">
        <ele>205.6</ele>
        <time>2022-03-12T11:09:07Z</time>
      </trkpt>
      <trkpt lat="46.48834" lon="5.31865">
        <ele>205.6</ele>
        <time>2022-03-12T11:09:08Z</time>
      </trkpt>
      <trkpt lat="46.48828" lon="5.31858">
        <ele>205.4</ele>
        <time>2022-03-12T11:09:09Z</time>
      </trkpt>
      <trkpt lat="46.48821" lon="5.31854">
        <ele>205</ele>
        <time>2022-03-12T11:09:10Z</time>
      </trkpt>
      <trkpt lat="46.48815" lon="5.31851">
        <ele>205</ele>
        <time>2022-03-12T11:09:11Z</time>
      </trkpt>
      <trkpt lat="46.488" lon="5.31843">
        <ele>204.6</ele>
        <time>2022-03-12T11:09:13Z</time>
      </trkpt>
      <trkpt lat="46.48788" lon="5.3183">
        <ele>204.4</ele>
        <time>2022-03-12T11:09:15Z</time>
      </trkpt>
      <trkpt lat="46.48786" lon="5.31822">
        <ele>204.2</ele>
        <time>2022-03-12T11:09:16Z</time>
      </trkpt>
      <trkpt lat="46.48783" lon="5.3181">
        <ele>204.2</ele>
        <time>2022-03-12T11:09:17Z</time>
      </trkpt>
      <trkpt lat="46.48781" lon="5.31754">
        <ele>204</ele>
        <time>2022-03-12T11:09:23Z</time>
      </trkpt>
      <trkpt lat="46.48779" lon="5.31735">
        <ele>204</ele>
        <time>2022-03-12T11:09:25Z</time>
      </trkpt>
      <trkpt lat="46.48774" lon="5.31718">
        <ele>204</ele>
        <time>2022-03-12T11:09:27Z</time>
      </trkpt>
      <trkpt lat="46.4877" lon="5.3171">
        <ele>204</ele>
        <time>2022-03-12T11:09:28Z</time>
      </trkpt>
      <trkpt lat="46.48763" lon="5.317">
        <ele>204.2</ele>
        <time>2022-03-12T11:09:30Z</time>
      </trkpt>
      <trkpt lat="46.48754" lon="5.31688">
        <ele>204.2</ele>
        <time>2022-03-12T11:09:32Z</time>
      </trkpt>
      <trkpt lat="46.48749" lon="5.31682">
        <ele>204.2</ele>
        <time>2022-03-12T11:09:33Z</time>
      </trkpt>
      <trkpt lat="46.48719" lon="5.31643">
        <ele>205.2</ele>
        <time>2022-03-12T11:09:40Z</time>
      </trkpt>
      <trkpt lat="46.48715" lon="5.31637">
        <ele>205.2</ele>
        <time>2022-03-12T11:09:41Z</time>
      </trkpt>
      <trkpt lat="46.48673" lon="5.31584">
        <ele>205.4</ele>
        <time>2022-03-12T11:09:50Z</time>
      </trkpt>
      <trkpt lat="46.48642" lon="5.31543">
        <ele>205.4</ele>
        <time>2022-03-12T11:09:57Z</time>
      </trkpt>
      <trkpt lat="46.48638" lon="5.31538">
        <ele>205.2</ele>
        <time>2022-03-12T11:09:58Z</time>
      </trkpt>
      <trkpt lat="46.48627" lon="5.3152">
        <ele>205.2</ele>
        <time>2022-03-12T11:10:01Z</time>
      </trkpt>
      <trkpt lat="46.48623" lon="5.31512">
        <ele>205.2</ele>
        <time>2022-03-12T11:10:02Z</time>
      </trkpt>
      <trkpt lat="46.48619" lon="5.31504">
        <ele>205.2</ele>
        <time>2022-03-12T11:10:03Z</time>
      </trkpt>
      <trkpt lat="46.48614" lon="5.31472">
        <ele>205.2</ele>
        <time>2022-03-12T11:10:06Z</time>
      </trkpt>
      <trkpt lat="46.48613" lon="5.31444">
        <ele>205.2</ele>
        <time>2022-03-12T11:10:09Z</time>
      </trkpt>
      <trkpt lat="46.48608" lon="5.31425">
        <ele>205.2</ele>
        <time>2022-03-12T11:10:11Z</time>
      </trkpt>
      <trkpt lat="46.48602" lon="5.31413">
        <ele>205.2</ele>
        <time>2022-03-12T11:10:13Z</time>
      </trkpt>
      <trkpt lat="46.48594" lon="5.31402">
        <ele>205.4</ele>
        <time>2022-03-12T11:10:15Z</time>
      </trkpt>
      <trkpt lat="46.48574" lon="5.31382">
        <ele>206.2</ele>
        <time>2022-03-12T11:10:20Z</time>
      </trkpt>
      <trkpt lat="46.48571" lon="5.31378">
        <ele>206.4</ele>
        <time>2022-03-12T11:10:21Z</time>
      </trkpt>
      <trkpt lat="46.48565" lon="5.31364">
        <ele>207</ele>
        <time>2022-03-12T11:10:24Z</time>
      </trkpt>
      <trkpt lat="46.48563" lon="5.31358">
        <ele>207.4</ele>
        <time>2022-03-12T11:10:25Z</time>
      </trkpt>
      <trkpt lat="46.48561" lon="5.31353">
        <ele>207.6</ele>
        <time>2022-03-12T11:10:26Z</time>
      </trkpt>
      <trkpt lat="46.48558" lon="5.31331">
        <ele>208.8</ele>
        <time>2022-03-12T11:10:30Z</time>
      </trkpt>
      <trkpt lat="46.48558" lon="5.3132">
        <ele>209.2</ele>
        <time>2022-03-12T11:10:32Z</time>
      </trkpt>
      <trkpt lat="46.48556" lon="5.31295">
        <ele>210</ele>
        <time>2022-03-12T11:10:36Z</time>
      </trkpt>
      <trkpt lat="46.48554" lon="5.31269">
        <ele>210.6</ele>
        <time>2022-03-12T11:10:40Z</time>
      </trkpt>
      <trkpt lat="46.48554" lon="5.31255">
        <ele>210.8</ele>
        <time>2022-03-12T11:10:42Z</time>
      </trkpt>
      <trkpt lat="46.48554" lon="5.31249">
        <ele>211</ele>
        <time>2022-03-12T11:10:43Z</time>
      </trkpt>
      <trkpt lat="46.48556" lon="5.31241">
        <ele>211</ele>
        <time>2022-03-12T11:10:44Z</time>
      </trkpt>
      <trkpt lat="46.48558" lon="5.31235">
        <ele>211.2</ele>
        <time>2022-03-12T11:10:45Z</time>
      </trkpt>
      <trkpt lat="46.48574" lon="5.31198">
        <ele>212</ele>
        <time>2022-03-12T11:10:52Z</time>
      </trkpt>
      <trkpt lat="46.48577" lon="5.31192">
        <ele>212.2</ele>
        <time>2022-03-12T11:10:53Z</time>
      </trkpt>
      <trkpt lat="46.48592" lon="5.31161">
        <ele>213.2</ele>
        <time>2022-03-12T11:10:59Z</time>
      </trkpt>
      <trkpt lat="46.48597" lon="5.31152">
        <ele>213.4</ele>
        <time>2022-03-12T11:11:01Z</time>
      </trkpt>
      <trkpt lat="46.48608" lon="5.31126">
        <ele>214.2</ele>
        <time>2022-03-12T11:11:06Z</time>
      </trkpt>
      <trkpt lat="46.48618" lon="5.31107">
        <ele>214.6</ele>
        <time>2022-03-12T11:11:10Z</time>
      </trkpt>
      <trkpt lat="46.4863" lon="5.31081">
        <ele>215.2</ele>
        <time>2022-03-12T11:11:15Z</time>
      </trkpt>
      <trkpt lat="46.48648" lon="5.31045">
        <ele>216.2</ele>
        <time>2022-03-12T11:11:22Z</time>
      </trkpt>
      <trkpt lat="46.4865" lon="5.3104">
        <ele>216.4</ele>
        <time>2022-03-12T11:11:23Z</time>
      </trkpt>
      <trkpt lat="46.48671" lon="5.30995">
        <ele>217.4</ele>
        <time>2022-03-12T11:11:32Z</time>
      </trkpt>
      <trkpt lat="46.48677" lon="5.30985">
        <ele>217.6</ele>
        <time>2022-03-12T11:11:34Z</time>
      </trkpt>
      <trkpt lat="46.48698" lon="5.30942">
        <ele>217.8</ele>
        <time>2022-03-12T11:11:41Z</time>
      </trkpt>
      <trkpt lat="46.4872" lon="5.30909">
        <ele>217.4</ele>
        <time>2022-03-12T11:11:46Z</time>
      </trkpt>
      <trkpt lat="46.48724" lon="5.3089">
        <ele>217</ele>
        <time>2022-03-12T11:11:48Z</time>
      </trkpt>
      <trkpt lat="46.48723" lon="5.3088">
        <ele>217</ele>
        <time>2022-03-12T11:11:49Z</time>
      </trkpt>
      <trkpt lat="46.48721" lon="5.3087">
        <ele>216.6</ele>
        <time>2022-03-12T11:11:50Z</time>
      </trkpt>
      <trkpt lat="46.48717" lon="5.30862">
        <ele>216.4</ele>
        <time>2022-03-12T11:11:51Z</time>
      </trkpt>
      <trkpt lat="46.48713" lon="5.30856">
        <ele>215.8</ele>
        <time>2022-03-12T11:11:52Z</time>
      </trkpt>
      <trkpt lat="46.48701" lon="5.30844">
        <ele>215.4</ele>
        <time>2022-03-12T11:11:54Z</time>
      </trkpt>
      <trkpt lat="46.48689" lon="5.30835">
        <ele>214.8</ele>
        <time>2022-03-12T11:11:56Z</time>
      </trkpt>
      <trkpt lat="46.48661" lon="5.30818">
        <ele>214.2</ele>
        <time>2022-03-12T11:12:00Z</time>
      </trkpt>
      <trkpt lat="46.48632" lon="5.30799">
        <ele>213.4</ele>
        <time>2022-03-12T11:12:04Z</time>
      </trkpt>
      <trkpt lat="46.48619" lon="5.30789">
        <ele>213</ele>
        <time>2022-03-12T11:12:06Z</time>
      </trkpt>
      <trkpt lat="46.486" lon="5.30773">
        <ele>213</ele>
        <time>2022-03-12T11:12:09Z</time>
      </trkpt>
      <trkpt lat="46.48573" lon="5.30748">
        <ele>213</ele>
        <time>2022-03-12T11:12:14Z</time>
      </trkpt>
      <trkpt lat="46.48568" lon="5.30742">
        <ele>213.2</ele>
        <time>2022-03-12T11:12:15Z</time>
      </trkpt>
      <trkpt lat="46.48562" lon="5.30731">
        <ele>213.4</ele>
        <time>2022-03-12T11:12:17Z</time>
      </trkpt>
      <trkpt lat="46.48559" lon="5.30724">
        <ele>213.8</ele>
        <time>2022-03-12T11:12:18Z</time>
      </trkpt>
      <trkpt lat="46.48554" lon="5.3071">
        <ele>214</ele>
        <time>2022-03-12T11:12:20Z</time>
      </trkpt>
      <trkpt lat="46.48552" lon="5.30705">
        <ele>214</ele>
        <time>2022-03-12T11:12:21Z</time>
      </trkpt>
      <trkpt lat="46.4855" lon="5.30697">
        <ele>214.2</ele>
        <time>2022-03-12T11:12:22Z</time>
      </trkpt>
      <trkpt lat="46.48549" lon="5.30691">
        <ele>214.2</ele>
        <time>2022-03-12T11:12:23Z</time>
      </trkpt>
      <trkpt lat="46.48547" lon="5.30666">
        <ele>215.4</ele>
        <time>2022-03-12T11:12:27Z</time>
      </trkpt>
      <trkpt lat="46.48551" lon="5.30627">
        <ele>216.2</ele>
        <time>2022-03-12T11:12:33Z</time>
      </trkpt>
      <trkpt lat="46.48551" lon="5.30621">
        <ele>216.4</ele>
        <time>2022-03-12T11:12:34Z</time>
      </trkpt>
      <trkpt lat="46.48554" lon="5.30596">
        <ele>217.4</ele>
        <time>2022-03-12T11:12:38Z</time>
      </trkpt>
      <trkpt lat="46.48555" lon="5.3059">
        <ele>217.4</ele>
        <time>2022-03-12T11:12:39Z</time>
      </trkpt>
      <trkpt lat="46.48556" lon="5.30571">
        <ele>218.4</ele>
        <time>2022-03-12T11:12:42Z</time>
      </trkpt>
      <trkpt lat="46.48558" lon="5.30545">
        <ele>219.4</ele>
        <time>2022-03-12T11:12:46Z</time>
      </trkpt>
      <trkpt lat="46.4856" lon="5.30539">
        <ele>219.6</ele>
        <time>2022-03-12T11:12:47Z</time>
      </trkpt>
      <trkpt lat="46.48562" lon="5.30525">
        <ele>219.8</ele>
        <time>2022-03-12T11:12:49Z</time>
      </trkpt>
      <trkpt lat="46.48563" lon="5.30512">
        <ele>220</ele>
        <time>2022-03-12T11:12:51Z</time>
      </trkpt>
      <trkpt lat="46.4856" lon="5.305">
        <ele>220.6</ele>
        <time>2022-03-12T11:12:53Z</time>
      </trkpt>
      <trkpt lat="46.48556" lon="5.30496">
        <ele>220.6</ele>
        <time>2022-03-12T11:12:54Z</time>
      </trkpt>
      <trkpt lat="46.48553" lon="5.30495">
        <ele>220.6</ele>
        <time>2022-03-12T11:12:55Z</time>
      </trkpt>
      <trkpt lat="46.48548" lon="5.30496">
        <ele>220.6</ele>
        <time>2022-03-12T11:12:56Z</time>
      </trkpt>
      <trkpt lat="46.48543" lon="5.30499">
        <ele>220.8</ele>
        <time>2022-03-12T11:12:57Z</time>
      </trkpt>
      <trkpt lat="46.48523" lon="5.30513">
        <ele>221</ele>
        <time>2022-03-12T11:13:01Z</time>
      </trkpt>
      <trkpt lat="46.48488" lon="5.30542">
        <ele>221.4</ele>
        <time>2022-03-12T11:13:08Z</time>
      </trkpt>
      <trkpt lat="46.48483" lon="5.30547">
        <ele>221.6</ele>
        <time>2022-03-12T11:13:09Z</time>
      </trkpt>
      <trkpt lat="46.48451" lon="5.30578">
        <ele>221.6</ele>
        <time>2022-03-12T11:13:15Z</time>
      </trkpt>
      <trkpt lat="46.4841" lon="5.30616">
        <ele>221</ele>
        <time>2022-03-12T11:13:22Z</time>
      </trkpt>
      <trkpt lat="46.48362" lon="5.30664">
        <ele>220.8</ele>
        <time>2022-03-12T11:13:30Z</time>
      </trkpt>
      <trkpt lat="46.48329" lon="5.3069">
        <ele>220.6</ele>
        <time>2022-03-12T11:13:35Z</time>
      </trkpt>
      <trkpt lat="46.48322" lon="5.30694">
        <ele>220.2</ele>
        <time>2022-03-12T11:13:36Z</time>
      </trkpt>
      <trkpt lat="46.48316" lon="5.30696">
        <ele>220.2</ele>
        <time>2022-03-12T11:13:37Z</time>
      </trkpt>
      <trkpt lat="46.48286" lon="5.30698">
        <ele>220</ele>
        <time>2022-03-12T11:13:41Z</time>
      </trkpt>
      <trkpt lat="46.48246" lon="5.30687">
        <ele>220</ele>
        <time>2022-03-12T11:13:47Z</time>
      </trkpt>
      <trkpt lat="46.48221" lon="5.30685">
        <ele>220.6</ele>
        <time>2022-03-12T11:13:51Z</time>
      </trkpt>
      <trkpt lat="46.48214" lon="5.30686">
        <ele>220.6</ele>
        <time>2022-03-12T11:13:52Z</time>
      </trkpt>
      <trkpt lat="46.48203" lon="5.3069">
        <ele>220.8</ele>
        <time>2022-03-12T11:13:54Z</time>
      </trkpt>
      <trkpt lat="46.48186" lon="5.30698">
        <ele>221.2</ele>
        <time>2022-03-12T11:13:57Z</time>
      </trkpt>
      <trkpt lat="46.4818" lon="5.307">
        <ele>221.4</ele>
        <time>2022-03-12T11:13:58Z</time>
      </trkpt>
      <trkpt lat="46.48176" lon="5.30702">
        <ele>221.6</ele>
        <time>2022-03-12T11:13:59Z</time>
      </trkpt>
      <trkpt lat="46.48154" lon="5.30714">
        <ele>222.4</ele>
        <time>2022-03-12T11:14:03Z</time>
      </trkpt>
      <trkpt lat="46.48144" lon="5.3072">
        <ele>222.6</ele>
        <time>2022-03-12T11:14:05Z</time>
      </trkpt>
      <trkpt lat="46.48123" lon="5.30733">
        <ele>223.4</ele>
        <time>2022-03-12T11:14:09Z</time>
      </trkpt>
      <trkpt lat="46.48091" lon="5.3075">
        <ele>224.4</ele>
        <time>2022-03-12T11:14:15Z</time>
      </trkpt>
      <trkpt lat="46.4807" lon="5.30761">
        <ele>224.4</ele>
        <time>2022-03-12T11:14:19Z</time>
      </trkpt>
      <trkpt lat="46.48046" lon="5.30774">
        <ele>224.8</ele>
        <time>2022-03-12T11:14:23Z</time>
      </trkpt>
      <trkpt lat="46.48001" lon="5.30798">
        <ele>224.2</ele>
        <time>2022-03-12T11:14:30Z</time>
      </trkpt>
      <trkpt lat="46.47965" lon="5.30815">
        <ele>223.4</ele>
        <time>2022-03-12T11:14:35Z</time>
      </trkpt>
      <trkpt lat="46.47949" lon="5.30818">
        <ele>223.2</ele>
        <time>2022-03-12T11:14:37Z</time>
      </trkpt>
      <trkpt lat="46.47942" lon="5.30818">
        <ele>222.8</ele>
        <time>2022-03-12T11:14:38Z</time>
      </trkpt>
      <trkpt lat="46.47922" lon="5.30815">
        <ele>222.8</ele>
        <time>2022-03-12T11:14:41Z</time>
      </trkpt>
      <trkpt lat="46.47916" lon="5.30813">
        <ele>222.8</ele>
        <time>2022-03-12T11:14:42Z</time>
      </trkpt>
      <trkpt lat="46.47896" lon="5.30805">
        <ele>223.2</ele>
        <time>2022-03-12T11:14:46Z</time>
      </trkpt>
      <trkpt lat="46.47876" lon="5.30799">
        <ele>224.8</ele>
        <time>2022-03-12T11:14:50Z</time>
      </trkpt>
      <trkpt lat="46.47867" lon="5.30797">
        <ele>226</ele>
        <time>2022-03-12T11:14:52Z</time>
      </trkpt>
      <trkpt lat="46.47862" lon="5.30797">
        <ele>226.2</ele>
        <time>2022-03-12T11:14:53Z</time>
      </trkpt>
      <trkpt lat="46.47853" lon="5.30798">
        <ele>226.8</ele>
        <time>2022-03-12T11:14:55Z</time>
      </trkpt>
      <trkpt lat="46.47848" lon="5.30799">
        <ele>227.2</ele>
        <time>2022-03-12T11:14:56Z</time>
      </trkpt>
      <trkpt lat="46.47844" lon="5.308">
        <ele>227.4</ele>
        <time>2022-03-12T11:14:57Z</time>
      </trkpt>
      <trkpt lat="46.47836" lon="5.30805">
        <ele>228</ele>
        <time>2022-03-12T11:14:59Z</time>
      </trkpt>
      <trkpt lat="46.47832" lon="5.30808">
        <ele>228.4</ele>
        <time>2022-03-12T11:15:00Z</time>
      </trkpt>
      <trkpt lat="46.47817" lon="5.30823">
        <ele>229.4</ele>
        <time>2022-03-12T11:15:04Z</time>
      </trkpt>
      <trkpt lat="46.47813" lon="5.30828">
        <ele>229.6</ele>
        <time>2022-03-12T11:15:05Z</time>
      </trkpt>
      <trkpt lat="46.47796" lon="5.30855">
        <ele>230.6</ele>
        <time>2022-03-12T11:15:10Z</time>
      </trkpt>
      <trkpt lat="46.47789" lon="5.30866">
        <ele>231</ele>
        <time>2022-03-12T11:15:12Z</time>
      </trkpt>
      <trkpt lat="46.47781" lon="5.30878">
        <ele>231.2</ele>
        <time>2022-03-12T11:15:14Z</time>
      </trkpt>
      <trkpt lat="46.47766" lon="5.30893">
        <ele>231.2</ele>
        <time>2022-03-12T11:15:17Z</time>
      </trkpt>
      <trkpt lat="46.47761" lon="5.30897">
        <ele>231.2</ele>
        <time>2022-03-12T11:15:18Z</time>
      </trkpt>
      <trkpt lat="46.47747" lon="5.30903">
        <ele>231</ele>
        <time>2022-03-12T11:15:20Z</time>
      </trkpt>
      <trkpt lat="46.47731" lon="5.30906">
        <ele>230.8</ele>
        <time>2022-03-12T11:15:22Z</time>
      </trkpt>
      <trkpt lat="46.47714" lon="5.30903">
        <ele>230.2</ele>
        <time>2022-03-12T11:15:24Z</time>
      </trkpt>
      <trkpt lat="46.47697" lon="5.30897">
        <ele>229.6</ele>
        <time>2022-03-12T11:15:26Z</time>
      </trkpt>
      <trkpt lat="46.47688" lon="5.30894">
        <ele>229.4</ele>
        <time>2022-03-12T11:15:27Z</time>
      </trkpt>
      <trkpt lat="46.47661" lon="5.30888">
        <ele>227.6</ele>
        <time>2022-03-12T11:15:30Z</time>
      </trkpt>
      <trkpt lat="46.47652" lon="5.30889">
        <ele>227</ele>
        <time>2022-03-12T11:15:31Z</time>
      </trkpt>
      <trkpt lat="46.47625" lon="5.30898">
        <ele>226.4</ele>
        <time>2022-03-12T11:15:34Z</time>
      </trkpt>
      <trkpt lat="46.47607" lon="5.30906">
        <ele>226.2</ele>
        <time>2022-03-12T11:15:36Z</time>
      </trkpt>
      <trkpt lat="46.47579" lon="5.30917">
        <ele>225.6</ele>
        <time>2022-03-12T11:15:39Z</time>
      </trkpt>
      <trkpt lat="46.47535" lon="5.30941">
        <ele>224.2</ele>
        <time>2022-03-12T11:15:44Z</time>
      </trkpt>
      <trkpt lat="46.47493" lon="5.30969">
        <ele>223</ele>
        <time>2022-03-12T11:15:49Z</time>
      </trkpt>
      <trkpt lat="46.47446" lon="5.31">
        <ele>222.4</ele>
        <time>2022-03-12T11:15:55Z</time>
      </trkpt>
      <trkpt lat="46.47407" lon="5.31025">
        <ele>222.6</ele>
        <time>2022-03-12T11:16:01Z</time>
      </trkpt>
      <trkpt lat="46.4737" lon="5.31048">
        <ele>224</ele>
        <time>2022-03-12T11:16:08Z</time>
      </trkpt>
      <trkpt lat="46.47365" lon="5.31052">
        <ele>224.2</ele>
        <time>2022-03-12T11:16:09Z</time>
      </trkpt>
      <trkpt lat="46.47341" lon="5.31067">
        <ele>225.4</ele>
        <time>2022-03-12T11:16:14Z</time>
      </trkpt>
      <trkpt lat="46.47337" lon="5.3107">
        <ele>225.6</ele>
        <time>2022-03-12T11:16:15Z</time>
      </trkpt>
      <trkpt lat="46.47332" lon="5.31075">
        <ele>226</ele>
        <time>2022-03-12T11:16:16Z</time>
      </trkpt>
      <trkpt lat="46.4732" lon="5.3109">
        <ele>226.4</ele>
        <time>2022-03-12T11:16:19Z</time>
      </trkpt>
      <trkpt lat="46.47315" lon="5.31096">
        <ele>226.6</ele>
        <time>2022-03-12T11:16:20Z</time>
      </trkpt>
      <trkpt lat="46.47308" lon="5.31109">
        <ele>226.8</ele>
        <time>2022-03-12T11:16:22Z</time>
      </trkpt>
      <trkpt lat="46.473" lon="5.31124">
        <ele>226.8</ele>
        <time>2022-03-12T11:16:24Z</time>
      </trkpt>
      <trkpt lat="46.47296" lon="5.3113">
        <ele>227</ele>
        <time>2022-03-12T11:16:25Z</time>
      </trkpt>
      <trkpt lat="46.47269" lon="5.31166">
        <ele>227.4</ele>
        <time>2022-03-12T11:16:31Z</time>
      </trkpt>
      <trkpt lat="46.47265" lon="5.31172">
        <ele>227.6</ele>
        <time>2022-03-12T11:16:32Z</time>
      </trkpt>
      <trkpt lat="46.47254" lon="5.31192">
        <ele>228</ele>
        <time>2022-03-12T11:16:35Z</time>
      </trkpt>
      <trkpt lat="46.47247" lon="5.31203">
        <ele>228.2</ele>
        <time>2022-03-12T11:16:37Z</time>
      </trkpt>
      <trkpt lat="46.47244" lon="5.31207">
        <ele>228.4</ele>
        <time>2022-03-12T11:16:38Z</time>
      </trkpt>
      <trkpt lat="46.4723" lon="5.31219">
        <ele>228.6</ele>
        <time>2022-03-12T11:16:41Z</time>
      </trkpt>
      <trkpt lat="46.47225" lon="5.31227">
        <ele>228.8</ele>
        <time>2022-03-12T11:16:43Z</time>
      </trkpt>
      <trkpt lat="46.47202" lon="5.31261">
        <ele>229</ele>
        <time>2022-03-12T11:16:48Z</time>
      </trkpt>
      <trkpt lat="46.47182" lon="5.31299">
        <ele>229.2</ele>
        <time>2022-03-12T11:16:55Z</time>
      </trkpt>
      <trkpt lat="46.47173" lon="5.31316">
        <ele>229.4</ele>
        <time>2022-03-12T11:16:58Z</time>
      </trkpt>
      <trkpt lat="46.47155" lon="5.31341">
        <ele>229.6</ele>
        <time>2022-03-12T11:17:03Z</time>
      </trkpt>
      <trkpt lat="46.47144" lon="5.31358">
        <ele>229.8</ele>
        <time>2022-03-12T11:17:06Z</time>
      </trkpt>
      <trkpt lat="46.47129" lon="5.31379">
        <ele>229.8</ele>
        <time>2022-03-12T11:17:09Z</time>
      </trkpt>
      <trkpt lat="46.47096" lon="5.31424">
        <ele>229.8</ele>
        <time>2022-03-12T11:17:16Z</time>
      </trkpt>
      <trkpt lat="46.47073" lon="5.31451">
        <ele>230</ele>
        <time>2022-03-12T11:17:21Z</time>
      </trkpt>
      <trkpt lat="46.47046" lon="5.31488">
        <ele>230</ele>
        <time>2022-03-12T11:17:27Z</time>
      </trkpt>
      <trkpt lat="46.47022" lon="5.31516">
        <ele>230.4</ele>
        <time>2022-03-12T11:17:32Z</time>
      </trkpt>
      <trkpt lat="46.47008" lon="5.31532">
        <ele>230.4</ele>
        <time>2022-03-12T11:17:35Z</time>
      </trkpt>
      <trkpt lat="46.46983" lon="5.31562">
        <ele>230.6</ele>
        <time>2022-03-12T11:17:41Z</time>
      </trkpt>
      <trkpt lat="46.46972" lon="5.31577">
        <ele>230.8</ele>
        <time>2022-03-12T11:17:44Z</time>
      </trkpt>
      <trkpt lat="46.46967" lon="5.31583">
        <ele>230.8</ele>
        <time>2022-03-12T11:17:45Z</time>
      </trkpt>
      <trkpt lat="46.46939" lon="5.31617">
        <ele>231.2</ele>
        <time>2022-03-12T11:17:51Z</time>
      </trkpt>
      <trkpt lat="46.46935" lon="5.31623">
        <ele>231.2</ele>
        <time>2022-03-12T11:17:52Z</time>
      </trkpt>
      <trkpt lat="46.46912" lon="5.31653">
        <ele>231.2</ele>
        <time>2022-03-12T11:17:57Z</time>
      </trkpt>
      <trkpt lat="46.46908" lon="5.31659">
        <ele>231.2</ele>
        <time>2022-03-12T11:17:58Z</time>
      </trkpt>
      <trkpt lat="46.46871" lon="5.31708">
        <ele>231.4</ele>
        <time>2022-03-12T11:18:06Z</time>
      </trkpt>
      <trkpt lat="46.46854" lon="5.31729">
        <ele>231.2</ele>
        <time>2022-03-12T11:18:09Z</time>
      </trkpt>
      <trkpt lat="46.46836" lon="5.31748">
        <ele>230.8</ele>
        <time>2022-03-12T11:18:12Z</time>
      </trkpt>
      <trkpt lat="46.46794" lon="5.31799">
        <ele>230.4</ele>
        <time>2022-03-12T11:18:20Z</time>
      </trkpt>
      <trkpt lat="46.46787" lon="5.31807">
        <ele>230.2</ele>
        <time>2022-03-12T11:18:21Z</time>
      </trkpt>
      <trkpt lat="46.46751" lon="5.3185">
        <ele>230</ele>
        <time>2022-03-12T11:18:28Z</time>
      </trkpt>
      <trkpt lat="46.46709" lon="5.31886">
        <ele>230.2</ele>
        <time>2022-03-12T11:18:35Z</time>
      </trkpt>
      <trkpt lat="46.4666" lon="5.31926">
        <ele>230.2</ele>
        <time>2022-03-12T11:18:44Z</time>
      </trkpt>
      <trkpt lat="46.46654" lon="5.31931">
        <ele>230.2</ele>
        <time>2022-03-12T11:18:45Z</time>
      </trkpt>
      <trkpt lat="46.46627" lon="5.31966">
        <ele>230.4</ele>
        <time>2022-03-12T11:18:51Z</time>
      </trkpt>
      <trkpt lat="46.46595" lon="5.32023">
        <ele>231.4</ele>
        <time>2022-03-12T11:18:59Z</time>
      </trkpt>
      <trkpt lat="46.46558" lon="5.3209">
        <ele>231.2</ele>
        <time>2022-03-12T11:19:08Z</time>
      </trkpt>
      <trkpt lat="46.46519" lon="5.32155">
        <ele>231.4</ele>
        <time>2022-03-12T11:19:17Z</time>
      </trkpt>
      <trkpt lat="46.46515" lon="5.32162">
        <ele>231.4</ele>
        <time>2022-03-12T11:19:18Z</time>
      </trkpt>
      <trkpt lat="46.46503" lon="5.32182">
        <ele>231.4</ele>
        <time>2022-03-12T11:19:21Z</time>
      </trkpt>
      <trkpt lat="46.46488" lon="5.32208">
        <ele>231.6</ele>
        <time>2022-03-12T11:19:25Z</time>
      </trkpt>
      <trkpt lat="46.46484" lon="5.32216">
        <ele>231.6</ele>
        <time>2022-03-12T11:19:26Z</time>
      </trkpt>
      <trkpt lat="46.46458" lon="5.32265">
        <ele>232</ele>
        <time>2022-03-12T11:19:33Z</time>
      </trkpt>
      <trkpt lat="46.4643" lon="5.32316">
        <ele>232</ele>
        <time>2022-03-12T11:19:40Z</time>
      </trkpt>
      <trkpt lat="46.46398" lon="5.3238">
        <ele>231.8</ele>
        <time>2022-03-12T11:19:49Z</time>
      </trkpt>
      <trkpt lat="46.4639" lon="5.32395">
        <ele>232</ele>
        <time>2022-03-12T11:19:51Z</time>
      </trkpt>
      <trkpt lat="46.4637" lon="5.3245">
        <ele>232.4</ele>
        <time>2022-03-12T11:19:58Z</time>
      </trkpt>
      <trkpt lat="46.46339" lon="5.32525">
        <ele>232.4</ele>
        <time>2022-03-12T11:20:07Z</time>
      </trkpt>
      <trkpt lat="46.46322" lon="5.32586">
        <ele>232.2</ele>
        <time>2022-03-12T11:20:14Z</time>
      </trkpt>
      <trkpt lat="46.46318" lon="5.32653">
        <ele>231.8</ele>
        <time>2022-03-12T11:20:21Z</time>
      </trkpt>
      <trkpt lat="46.4632" lon="5.32711">
        <ele>231.6</ele>
        <time>2022-03-12T11:20:27Z</time>
      </trkpt>
      <trkpt lat="46.46318" lon="5.32756">
        <ele>231.6</ele>
        <time>2022-03-12T11:20:32Z</time>
      </trkpt>
      <trkpt lat="46.46317" lon="5.32765">
        <ele>231.6</ele>
        <time>2022-03-12T11:20:33Z</time>
      </trkpt>
      <trkpt lat="46.4631" lon="5.3279">
        <ele>231.8</ele>
        <time>2022-03-12T11:20:36Z</time>
      </trkpt>
      <trkpt lat="46.46303" lon="5.32803">
        <ele>231.8</ele>
        <time>2022-03-12T11:20:38Z</time>
      </trkpt>
      <trkpt lat="46.46269" lon="5.3285">
        <ele>232</ele>
        <time>2022-03-12T11:20:45Z</time>
      </trkpt>
      <trkpt lat="46.46233" lon="5.32901">
        <ele>231.8</ele>
        <time>2022-03-12T11:20:52Z</time>
      </trkpt>
      <trkpt lat="46.46198" lon="5.32948">
        <ele>231.6</ele>
        <time>2022-03-12T11:20:59Z</time>
      </trkpt>
      <trkpt lat="46.46163" lon="5.32973">
        <ele>231.4</ele>
        <time>2022-03-12T11:21:05Z</time>
      </trkpt>
      <trkpt lat="46.46118" lon="5.33002">
        <ele>232</ele>
        <time>2022-03-12T11:21:13Z</time>
      </trkpt>
      <trkpt lat="46.46079" lon="5.33027">
        <ele>232.8</ele>
        <time>2022-03-12T11:21:20Z</time>
      </trkpt>
      <trkpt lat="46.46044" lon="5.3306">
        <ele>233.2</ele>
        <time>2022-03-12T11:21:27Z</time>
      </trkpt>
      <trkpt lat="46.45994" lon="5.33107">
        <ele>233.6</ele>
        <time>2022-03-12T11:21:36Z</time>
      </trkpt>
      <trkpt lat="46.45983" lon="5.33119">
        <ele>233.8</ele>
        <time>2022-03-12T11:21:38Z</time>
      </trkpt>
      <trkpt lat="46.45947" lon="5.33157">
        <ele>234</ele>
        <time>2022-03-12T11:21:45Z</time>
      </trkpt>
      <trkpt lat="46.45901" lon="5.33204">
        <ele>234.6</ele>
        <time>2022-03-12T11:21:54Z</time>
      </trkpt>
      <trkpt lat="46.45877" lon="5.33231">
        <ele>234.8</ele>
        <time>2022-03-12T11:21:59Z</time>
      </trkpt>
      <trkpt lat="46.45855" lon="5.3326">
        <ele>235</ele>
        <time>2022-03-12T11:22:04Z</time>
      </trkpt>
      <trkpt lat="46.4583" lon="5.33307">
        <ele>235.6</ele>
        <time>2022-03-12T11:22:11Z</time>
      </trkpt>
      <trkpt lat="46.45815" lon="5.33334">
        <ele>235.8</ele>
        <time>2022-03-12T11:22:15Z</time>
      </trkpt>
      <trkpt lat="46.45794" lon="5.33378">
        <ele>235.8</ele>
        <time>2022-03-12T11:22:21Z</time>
      </trkpt>
      <trkpt lat="46.45781" lon="5.33408">
        <ele>236</ele>
        <time>2022-03-12T11:22:25Z</time>
      </trkpt>
      <trkpt lat="46.45775" lon="5.33423">
        <ele>236</ele>
        <time>2022-03-12T11:22:27Z</time>
      </trkpt>
      <trkpt lat="46.45756" lon="5.33467">
        <ele>236.8</ele>
        <time>2022-03-12T11:22:33Z</time>
      </trkpt>
      <trkpt lat="46.45753" lon="5.33475">
        <ele>236.8</ele>
        <time>2022-03-12T11:22:34Z</time>
      </trkpt>
      <trkpt lat="46.45728" lon="5.33536">
        <ele>237.6</ele>
        <time>2022-03-12T11:22:42Z</time>
      </trkpt>
      <trkpt lat="46.45718" lon="5.33557">
        <ele>237.8</ele>
        <time>2022-03-12T11:22:45Z</time>
      </trkpt>
      <trkpt lat="46.45703" lon="5.33588">
        <ele>238.4</ele>
        <time>2022-03-12T11:22:50Z</time>
      </trkpt>
      <trkpt lat="46.45695" lon="5.33606">
        <ele>238.8</ele>
        <time>2022-03-12T11:22:53Z</time>
      </trkpt>
      <trkpt lat="46.45683" lon="5.33632">
        <ele>240</ele>
        <time>2022-03-12T11:22:57Z</time>
      </trkpt>
      <trkpt lat="46.45681" lon="5.33638">
        <ele>240.2</ele>
        <time>2022-03-12T11:22:58Z</time>
      </trkpt>
      <trkpt lat="46.45658" lon="5.33696">
        <ele>241</ele>
        <time>2022-03-12T11:23:07Z</time>
      </trkpt>
      <trkpt lat="46.45655" lon="5.33703">
        <ele>241</ele>
        <time>2022-03-12T11:23:08Z</time>
      </trkpt>
      <trkpt lat="46.45631" lon="5.3376">
        <ele>242</ele>
        <time>2022-03-12T11:23:17Z</time>
      </trkpt>
      <trkpt lat="46.45629" lon="5.33766">
        <ele>242</ele>
        <time>2022-03-12T11:23:18Z</time>
      </trkpt>
      <trkpt lat="46.45613" lon="5.33808">
        <ele>243.2</ele>
        <time>2022-03-12T11:23:25Z</time>
      </trkpt>
      <trkpt lat="46.4561" lon="5.33814">
        <ele>243.2</ele>
        <time>2022-03-12T11:23:26Z</time>
      </trkpt>
      <trkpt lat="46.45595" lon="5.33848">
        <ele>244.2</ele>
        <time>2022-03-12T11:23:32Z</time>
      </trkpt>
      <trkpt lat="46.45593" lon="5.33854">
        <ele>244.4</ele>
        <time>2022-03-12T11:23:33Z</time>
      </trkpt>
      <trkpt lat="46.45579" lon="5.33886">
        <ele>245.4</ele>
        <time>2022-03-12T11:23:39Z</time>
      </trkpt>
      <trkpt lat="46.45574" lon="5.33895">
        <ele>245.8</ele>
        <time>2022-03-12T11:23:41Z</time>
      </trkpt>
      <trkpt lat="46.45572" lon="5.339">
        <ele>245.8</ele>
        <time>2022-03-12T11:23:42Z</time>
      </trkpt>
      <trkpt lat="46.45556" lon="5.33933">
        <ele>246.4</ele>
        <time>2022-03-12T11:23:48Z</time>
      </trkpt>
      <trkpt lat="46.45544" lon="5.33957">
        <ele>247.4</ele>
        <time>2022-03-12T11:23:53Z</time>
      </trkpt>
      <trkpt lat="46.45541" lon="5.33961">
        <ele>247.6</ele>
        <time>2022-03-12T11:23:54Z</time>
      </trkpt>
      <trkpt lat="46.45526" lon="5.33983">
        <ele>248.8</ele>
        <time>2022-03-12T11:23:59Z</time>
      </trkpt>
      <trkpt lat="46.45523" lon="5.33988">
        <ele>249</ele>
        <time>2022-03-12T11:24:00Z</time>
      </trkpt>
      <trkpt lat="46.45501" lon="5.34007">
        <ele>249.8</ele>
        <time>2022-03-12T11:24:06Z</time>
      </trkpt>
      <trkpt lat="46.45498" lon="5.3401">
        <ele>250.2</ele>
        <time>2022-03-12T11:24:07Z</time>
      </trkpt>
      <trkpt lat="46.45483" lon="5.34021">
        <ele>251.2</ele>
        <time>2022-03-12T11:24:11Z</time>
      </trkpt>
      <trkpt lat="46.45473" lon="5.34025">
        <ele>251.8</ele>
        <time>2022-03-12T11:24:14Z</time>
      </trkpt>
      <trkpt lat="46.45465" lon="5.34029">
        <ele>252.2</ele>
        <time>2022-03-12T11:24:17Z</time>
      </trkpt>
      <trkpt lat="46.4546" lon="5.34032">
        <ele>252.6</ele>
        <time>2022-03-12T11:24:19Z</time>
      </trkpt>
      <trkpt lat="46.4545" lon="5.34035">
        <ele>253.4</ele>
        <time>2022-03-12T11:24:23Z</time>
      </trkpt>
      <trkpt lat="46.45443" lon="5.34037">
        <ele>253.6</ele>
        <time>2022-03-12T11:24:25Z</time>
      </trkpt>
      <trkpt lat="46.45427" lon="5.3404">
        <ele>254.2</ele>
        <time>2022-03-12T11:24:29Z</time>
      </trkpt>
      <trkpt lat="46.45418" lon="5.34043">
        <ele>254.4</ele>
        <time>2022-03-12T11:24:31Z</time>
      </trkpt>
      <trkpt lat="46.45389" lon="5.34049">
        <ele>255.6</ele>
        <time>2022-03-12T11:24:36Z</time>
      </trkpt>
      <trkpt lat="46.4536" lon="5.34057">
        <ele>256.2</ele>
        <time>2022-03-12T11:24:42Z</time>
      </trkpt>
      <trkpt lat="46.45346" lon="5.34061">
        <ele>256.6</ele>
        <time>2022-03-12T11:24:45Z</time>
      </trkpt>
      <trkpt lat="46.45337" lon="5.34062">
        <ele>256.8</ele>
        <time>2022-03-12T11:24:47Z</time>
      </trkpt>
      <trkpt lat="46.45302" lon="5.34068">
        <ele>257.6</ele>
        <time>2022-03-12T11:24:55Z</time>
      </trkpt>
      <trkpt lat="46.45262" lon="5.34077">
        <ele>258.2</ele>
        <time>2022-03-12T11:25:03Z</time>
      </trkpt>
      <trkpt lat="46.45232" lon="5.34083">
        <ele>258.8</ele>
        <time>2022-03-12T11:25:09Z</time>
      </trkpt>
      <trkpt lat="46.45216" lon="5.34085">
        <ele>259</ele>
        <time>2022-03-12T11:25:12Z</time>
      </trkpt>
      <trkpt lat="46.45193" lon="5.34091">
        <ele>259.8</ele>
        <time>2022-03-12T11:25:17Z</time>
      </trkpt>
      <trkpt lat="46.45164" lon="5.34096">
        <ele>260.8</ele>
        <time>2022-03-12T11:25:23Z</time>
      </trkpt>
      <trkpt lat="46.45119" lon="5.34105">
        <ele>261.8</ele>
        <time>2022-03-12T11:25:32Z</time>
      </trkpt>
      <trkpt lat="46.45073" lon="5.34114">
        <ele>261.6</ele>
        <time>2022-03-12T11:25:40Z</time>
      </trkpt>
      <trkpt lat="46.45032" lon="5.34118">
        <ele>261.4</ele>
        <time>2022-03-12T11:25:46Z</time>
      </trkpt>
      <trkpt lat="46.44986" lon="5.34113">
        <ele>260</ele>
        <time>2022-03-12T11:25:52Z</time>
      </trkpt>
      <trkpt lat="46.44945" lon="5.34101">
        <ele>258.4</ele>
        <time>2022-03-12T11:25:57Z</time>
      </trkpt>
      <trkpt lat="46.44928" lon="5.34096">
        <ele>257.8</ele>
        <time>2022-03-12T11:25:59Z</time>
      </trkpt>
      <trkpt lat="46.4491" lon="5.34092">
        <ele>257</ele>
        <time>2022-03-12T11:26:01Z</time>
      </trkpt>
      <trkpt lat="46.44883" lon="5.34087">
        <ele>255.8</ele>
        <time>2022-03-12T11:26:04Z</time>
      </trkpt>
      <trkpt lat="46.44873" lon="5.34087">
        <ele>255.6</ele>
        <time>2022-03-12T11:26:05Z</time>
      </trkpt>
      <trkpt lat="46.44855" lon="5.34092">
        <ele>255</ele>
        <time>2022-03-12T11:26:07Z</time>
      </trkpt>
      <trkpt lat="46.44846" lon="5.34097">
        <ele>254.6</ele>
        <time>2022-03-12T11:26:08Z</time>
      </trkpt>
      <trkpt lat="46.44837" lon="5.34103">
        <ele>254.6</ele>
        <time>2022-03-12T11:26:09Z</time>
      </trkpt>
      <trkpt lat="46.44822" lon="5.34118">
        <ele>253.2</ele>
        <time>2022-03-12T11:26:11Z</time>
      </trkpt>
      <trkpt lat="46.4481" lon="5.34131">
        <ele>252.4</ele>
        <time>2022-03-12T11:26:13Z</time>
      </trkpt>
      <trkpt lat="46.44804" lon="5.34134">
        <ele>252.2</ele>
        <time>2022-03-12T11:26:14Z</time>
      </trkpt>
      <trkpt lat="46.448" lon="5.34132">
        <ele>251.8</ele>
        <time>2022-03-12T11:26:15Z</time>
      </trkpt>
      <trkpt lat="46.44795" lon="5.34119">
        <ele>251</ele>
        <time>2022-03-12T11:26:17Z</time>
      </trkpt>
      <trkpt lat="46.44795" lon="5.34095">
        <ele>250.8</ele>
        <time>2022-03-12T11:26:20Z</time>
      </trkpt>
      <trkpt lat="46.44792" lon="5.34072">
        <ele>250.8</ele>
        <time>2022-03-12T11:26:23Z</time>
      </trkpt>
      <trkpt lat="46.44787" lon="5.34029">
        <ele>252.4</ele>
        <time>2022-03-12T11:26:29Z</time>
      </trkpt>
      <trkpt lat="46.44784" lon="5.34009">
        <ele>253</ele>
        <time>2022-03-12T11:26:32Z</time>
      </trkpt>
      <trkpt lat="46.44782" lon="5.34002">
        <ele>253.4</ele>
        <time>2022-03-12T11:26:33Z</time>
      </trkpt>
      <trkpt lat="46.4478" lon="5.33989">
        <ele>254.2</ele>
        <time>2022-03-12T11:26:35Z</time>
      </trkpt>
      <trkpt lat="46.44779" lon="5.33983">
        <ele>254.6</ele>
        <time>2022-03-12T11:26:36Z</time>
      </trkpt>
      <trkpt lat="46.44778" lon="5.33978">
        <ele>254.8</ele>
        <time>2022-03-12T11:26:37Z</time>
      </trkpt>
      <trkpt lat="46.44777" lon="5.33972">
        <ele>255.2</ele>
        <time>2022-03-12T11:26:38Z</time>
      </trkpt>
      <trkpt lat="46.44776" lon="5.33966">
        <ele>255.4</ele>
        <time>2022-03-12T11:26:39Z</time>
      </trkpt>
      <trkpt lat="46.44775" lon="5.3396">
        <ele>255.8</ele>
        <time>2022-03-12T11:26:40Z</time>
      </trkpt>
      <trkpt lat="46.44774" lon="5.33954">
        <ele>256.2</ele>
        <time>2022-03-12T11:26:41Z</time>
      </trkpt>
      <trkpt lat="46.44773" lon="5.3394">
        <ele>256.8</ele>
        <time>2022-03-12T11:26:43Z</time>
      </trkpt>
      <trkpt lat="46.44772" lon="5.33934">
        <ele>257</ele>
        <time>2022-03-12T11:26:44Z</time>
      </trkpt>
      <trkpt lat="46.4477" lon="5.33904">
        <ele>257.2</ele>
        <time>2022-03-12T11:26:48Z</time>
      </trkpt>
      <trkpt lat="46.44768" lon="5.33897">
        <ele>257.2</ele>
        <time>2022-03-12T11:26:49Z</time>
      </trkpt>
      <trkpt lat="46.44764" lon="5.33891">
        <ele>257.4</ele>
        <time>2022-03-12T11:26:50Z</time>
      </trkpt>
      <trkpt lat="46.44752" lon="5.33882">
        <ele>257.2</ele>
        <time>2022-03-12T11:26:52Z</time>
      </trkpt>
      <trkpt lat="46.44718" lon="5.33867">
        <ele>256.6</ele>
        <time>2022-03-12T11:26:57Z</time>
      </trkpt>
      <trkpt lat="46.44691" lon="5.33854">
        <ele>255.8</ele>
        <time>2022-03-12T11:27:01Z</time>
      </trkpt>
      <trkpt lat="46.44677" lon="5.33847">
        <ele>255.2</ele>
        <time>2022-03-12T11:27:03Z</time>
      </trkpt>
      <trkpt lat="46.44671" lon="5.33842">
        <ele>255</ele>
        <time>2022-03-12T11:27:04Z</time>
      </trkpt>
      <trkpt lat="46.44665" lon="5.33835">
        <ele>255</ele>
        <time>2022-03-12T11:27:05Z</time>
      </trkpt>
      <trkpt lat="46.44655" lon="5.33819">
        <ele>254.6</ele>
        <time>2022-03-12T11:27:07Z</time>
      </trkpt>
      <trkpt lat="46.44651" lon="5.33809">
        <ele>254.6</ele>
        <time>2022-03-12T11:27:08Z</time>
      </trkpt>
      <trkpt lat="46.44631" lon="5.33755">
        <ele>253.6</ele>
        <time>2022-03-12T11:27:13Z</time>
      </trkpt>
      <trkpt lat="46.44604" lon="5.33682">
        <ele>252.2</ele>
        <time>2022-03-12T11:27:19Z</time>
      </trkpt>
      <trkpt lat="46.44589" lon="5.33642">
        <ele>250</ele>
        <time>2022-03-12T11:27:22Z</time>
      </trkpt>
      <trkpt lat="46.44579" lon="5.33615">
        <ele>249.4</ele>
        <time>2022-03-12T11:27:24Z</time>
      </trkpt>
      <trkpt lat="46.44569" lon="5.33588">
        <ele>248</ele>
        <time>2022-03-12T11:27:26Z</time>
      </trkpt>
      <trkpt lat="46.44559" lon="5.33562">
        <ele>247</ele>
        <time>2022-03-12T11:27:28Z</time>
      </trkpt>
      <trkpt lat="46.44545" lon="5.33524">
        <ele>245.8</ele>
        <time>2022-03-12T11:27:31Z</time>
      </trkpt>
      <trkpt lat="46.44541" lon="5.33512">
        <ele>245.6</ele>
        <time>2022-03-12T11:27:32Z</time>
      </trkpt>
      <trkpt lat="46.44511" lon="5.33434">
        <ele>245</ele>
        <time>2022-03-12T11:27:39Z</time>
      </trkpt>
      <trkpt lat="46.44495" lon="5.33392">
        <ele>244.6</ele>
        <time>2022-03-12T11:27:43Z</time>
      </trkpt>
      <trkpt lat="46.44477" lon="5.33355">
        <ele>244.2</ele>
        <time>2022-03-12T11:27:47Z</time>
      </trkpt>
      <trkpt lat="46.44453" lon="5.33327">
        <ele>244</ele>
        <time>2022-03-12T11:27:51Z</time>
      </trkpt>
      <trkpt lat="46.44404" lon="5.33275">
        <ele>244</ele>
        <time>2022-03-12T11:27:59Z</time>
      </trkpt>
      <trkpt lat="46.44392" lon="5.33261">
        <ele>243.8</ele>
        <time>2022-03-12T11:28:01Z</time>
      </trkpt>
      <trkpt lat="46.4436" lon="5.33225">
        <ele>243.4</ele>
        <time>2022-03-12T11:28:06Z</time>
      </trkpt>
      <trkpt lat="46.44354" lon="5.33218">
        <ele>243.2</ele>
        <time>2022-03-12T11:28:07Z</time>
      </trkpt>
      <trkpt lat="46.44324" lon="5.33191">
        <ele>242.8</ele>
        <time>2022-03-12T11:28:11Z</time>
      </trkpt>
      <trkpt lat="46.44316" lon="5.33187">
        <ele>242.4</ele>
        <time>2022-03-12T11:28:12Z</time>
      </trkpt>
      <trkpt lat="46.44316" lon="5.33187">
        <ele>242</ele>
        <time>2022-03-12T11:28:13Z</time>
      </trkpt>
      <trkpt lat="46.44297" lon="5.33182">
        <ele>241.8</ele>
        <time>2022-03-12T11:28:14Z</time>
      </trkpt>
      <trkpt lat="46.44271" lon="5.33181">
        <ele>240.4</ele>
        <time>2022-03-12T11:28:17Z</time>
      </trkpt>
      <trkpt lat="46.44236" lon="5.33183">
        <ele>239.2</ele>
        <time>2022-03-12T11:28:21Z</time>
      </trkpt>
      <trkpt lat="46.4422" lon="5.33187">
        <ele>239.2</ele>
        <time>2022-03-12T11:28:23Z</time>
      </trkpt>
      <trkpt lat="46.44191" lon="5.33205">
        <ele>238.8</ele>
        <time>2022-03-12T11:28:27Z</time>
      </trkpt>
      <trkpt lat="46.44185" lon="5.3321">
        <ele>239</ele>
        <time>2022-03-12T11:28:28Z</time>
      </trkpt>
      <trkpt lat="46.44169" lon="5.33225">
        <ele>239.2</ele>
        <time>2022-03-12T11:28:31Z</time>
      </trkpt>
      <trkpt lat="46.44155" lon="5.33235">
        <ele>239.4</ele>
        <time>2022-03-12T11:28:34Z</time>
      </trkpt>
      <trkpt lat="46.4415" lon="5.33236">
        <ele>239.4</ele>
        <time>2022-03-12T11:28:35Z</time>
      </trkpt>
      <trkpt lat="46.44146" lon="5.33234">
        <ele>239.6</ele>
        <time>2022-03-12T11:28:36Z</time>
      </trkpt>
      <trkpt lat="46.44138" lon="5.33225">
        <ele>240</ele>
        <time>2022-03-12T11:28:38Z</time>
      </trkpt>
      <trkpt lat="46.44128" lon="5.33203">
        <ele>240.2</ele>
        <time>2022-03-12T11:28:41Z</time>
      </trkpt>
      <trkpt lat="46.44123" lon="5.33197">
        <ele>240.2</ele>
        <time>2022-03-12T11:28:42Z</time>
      </trkpt>
      <trkpt lat="46.44118" lon="5.33194">
        <ele>240.4</ele>
        <time>2022-03-12T11:28:43Z</time>
      </trkpt>
      <trkpt lat="46.44105" lon="5.33194">
        <ele>240.4</ele>
        <time>2022-03-12T11:28:45Z</time>
      </trkpt>
      <trkpt lat="46.44083" lon="5.33208">
        <ele>240.4</ele>
        <time>2022-03-12T11:28:49Z</time>
      </trkpt>
      <trkpt lat="46.44077" lon="5.33211">
        <ele>240.6</ele>
        <time>2022-03-12T11:28:50Z</time>
      </trkpt>
      <trkpt lat="46.44042" lon="5.33234">
        <ele>241</ele>
        <time>2022-03-12T11:28:56Z</time>
      </trkpt>
      <trkpt lat="46.44015" lon="5.33249">
        <ele>241</ele>
        <time>2022-03-12T11:29:00Z</time>
      </trkpt>
      <trkpt lat="46.43999" lon="5.33253">
        <ele>240.8</ele>
        <time>2022-03-12T11:29:02Z</time>
      </trkpt>
      <trkpt lat="46.43975" lon="5.33254">
        <ele>240.2</ele>
        <time>2022-03-12T11:29:05Z</time>
      </trkpt>
      <trkpt lat="46.43922" lon="5.33247">
        <ele>239.8</ele>
        <time>2022-03-12T11:29:12Z</time>
      </trkpt>
      <trkpt lat="46.43886" lon="5.3324">
        <ele>240</ele>
        <time>2022-03-12T11:29:17Z</time>
      </trkpt>
      <trkpt lat="46.43832" lon="5.3324">
        <ele>240</ele>
        <time>2022-03-12T11:29:25Z</time>
      </trkpt>
      <trkpt lat="46.43825" lon="5.3324">
        <ele>240.2</ele>
        <time>2022-03-12T11:29:26Z</time>
      </trkpt>
      <trkpt lat="46.43776" lon="5.33243">
        <ele>240.8</ele>
        <time>2022-03-12T11:29:34Z</time>
      </trkpt>
      <trkpt lat="46.43751" lon="5.3325">
        <ele>241</ele>
        <time>2022-03-12T11:29:38Z</time>
      </trkpt>
      <trkpt lat="46.43745" lon="5.33253">
        <ele>241</ele>
        <time>2022-03-12T11:29:39Z</time>
      </trkpt>
      <trkpt lat="46.43712" lon="5.33281">
        <ele>240.6</ele>
        <time>2022-03-12T11:29:44Z</time>
      </trkpt>
      <trkpt lat="46.43675" lon="5.33314">
        <ele>239.4</ele>
        <time>2022-03-12T11:29:49Z</time>
      </trkpt>
      <trkpt lat="46.43666" lon="5.3332">
        <ele>239</ele>
        <time>2022-03-12T11:29:50Z</time>
      </trkpt>
      <trkpt lat="46.43657" lon="5.33324">
        <ele>238.4</ele>
        <time>2022-03-12T11:29:51Z</time>
      </trkpt>
      <trkpt lat="46.43647" lon="5.33328">
        <ele>238</ele>
        <time>2022-03-12T11:29:52Z</time>
      </trkpt>
      <trkpt lat="46.43629" lon="5.33333">
        <ele>237</ele>
        <time>2022-03-12T11:29:54Z</time>
      </trkpt>
      <trkpt lat="46.43612" lon="5.3333">
        <ele>235.8</ele>
        <time>2022-03-12T11:29:56Z</time>
      </trkpt>
      <trkpt lat="46.43605" lon="5.33326">
        <ele>235.4</ele>
        <time>2022-03-12T11:29:57Z</time>
      </trkpt>
      <trkpt lat="46.43598" lon="5.33322">
        <ele>234.6</ele>
        <time>2022-03-12T11:29:58Z</time>
      </trkpt>
      <trkpt lat="46.43586" lon="5.33323">
        <ele>234</ele>
        <time>2022-03-12T11:30:00Z</time>
      </trkpt>
      <trkpt lat="46.43582" lon="5.3333">
        <ele>233.6</ele>
        <time>2022-03-12T11:30:01Z</time>
      </trkpt>
      <trkpt lat="46.43579" lon="5.33339">
        <ele>233.4</ele>
        <time>2022-03-12T11:30:02Z</time>
      </trkpt>
      <trkpt lat="46.43573" lon="5.33361">
        <ele>232.8</ele>
        <time>2022-03-12T11:30:04Z</time>
      </trkpt>
      <trkpt lat="46.43569" lon="5.3337">
        <ele>232.4</ele>
        <time>2022-03-12T11:30:05Z</time>
      </trkpt>
      <trkpt lat="46.43561" lon="5.33377">
        <ele>232.2</ele>
        <time>2022-03-12T11:30:06Z</time>
      </trkpt>
      <trkpt lat="46.43552" lon="5.33382">
        <ele>232</ele>
        <time>2022-03-12T11:30:07Z</time>
      </trkpt>
      <trkpt lat="46.43543" lon="5.33383">
        <ele>231.8</ele>
        <time>2022-03-12T11:30:08Z</time>
      </trkpt>
      <trkpt lat="46.43533" lon="5.33381">
        <ele>231.6</ele>
        <time>2022-03-12T11:30:09Z</time>
      </trkpt>
      <trkpt lat="46.43524" lon="5.33377">
        <ele>230.4</ele>
        <time>2022-03-12T11:30:10Z</time>
      </trkpt>
      <trkpt lat="46.43508" lon="5.3337">
        <ele>229.4</ele>
        <time>2022-03-12T11:30:12Z</time>
      </trkpt>
      <trkpt lat="46.43494" lon="5.33363">
        <ele>229</ele>
        <time>2022-03-12T11:30:14Z</time>
      </trkpt>
      <trkpt lat="46.43466" lon="5.33343">
        <ele>229.2</ele>
        <time>2022-03-12T11:30:19Z</time>
      </trkpt>
      <trkpt lat="46.43453" lon="5.33331">
        <ele>230.4</ele>
        <time>2022-03-12T11:30:22Z</time>
      </trkpt>
      <trkpt lat="46.43442" lon="5.33318">
        <ele>231.6</ele>
        <time>2022-03-12T11:30:25Z</time>
      </trkpt>
      <trkpt lat="46.43433" lon="5.33305">
        <ele>233.2</ele>
        <time>2022-03-12T11:30:28Z</time>
      </trkpt>
      <trkpt lat="46.43427" lon="5.33297">
        <ele>234</ele>
        <time>2022-03-12T11:30:30Z</time>
      </trkpt>
      <trkpt lat="46.43424" lon="5.33294">
        <ele>234.6</ele>
        <time>2022-03-12T11:30:31Z</time>
      </trkpt>
      <trkpt lat="46.43418" lon="5.33279">
        <ele>236</ele>
        <time>2022-03-12T11:30:35Z</time>
      </trkpt>
      <trkpt lat="46.43414" lon="5.33259">
        <ele>237.2</ele>
        <time>2022-03-12T11:30:39Z</time>
      </trkpt>
      <trkpt lat="46.4341" lon="5.3325">
        <ele>237.8</ele>
        <time>2022-03-12T11:30:41Z</time>
      </trkpt>
      <trkpt lat="46.43404" lon="5.3324">
        <ele>238.2</ele>
        <time>2022-03-12T11:30:43Z</time>
      </trkpt>
      <trkpt lat="46.43389" lon="5.33226">
        <ele>239.2</ele>
        <time>2022-03-12T11:30:47Z</time>
      </trkpt>
      <trkpt lat="46.43381" lon="5.33222">
        <ele>239.4</ele>
        <time>2022-03-12T11:30:49Z</time>
      </trkpt>
      <trkpt lat="46.43352" lon="5.33211">
        <ele>240</ele>
        <time>2022-03-12T11:30:55Z</time>
      </trkpt>
      <trkpt lat="46.43321" lon="5.332">
        <ele>240.4</ele>
        <time>2022-03-12T11:31:02Z</time>
      </trkpt>
      <trkpt lat="46.43276" lon="5.33192">
        <ele>240.4</ele>
        <time>2022-03-12T11:31:09Z</time>
      </trkpt>
      <trkpt lat="46.4327" lon="5.3319">
        <ele>240.4</ele>
        <time>2022-03-12T11:31:10Z</time>
      </trkpt>
      <trkpt lat="46.43258" lon="5.33187">
        <ele>240.4</ele>
        <time>2022-03-12T11:31:12Z</time>
      </trkpt>
      <trkpt lat="46.43207" lon="5.33177">
        <ele>240.6</ele>
        <time>2022-03-12T11:31:20Z</time>
      </trkpt>
      <trkpt lat="46.43149" lon="5.33155">
        <ele>240.4</ele>
        <time>2022-03-12T11:31:29Z</time>
      </trkpt>
      <trkpt lat="46.43111" lon="5.3313">
        <ele>240</ele>
        <time>2022-03-12T11:31:35Z</time>
      </trkpt>
      <trkpt lat="46.43106" lon="5.33124">
        <ele>239.8</ele>
        <time>2022-03-12T11:31:36Z</time>
      </trkpt>
      <trkpt lat="46.43091" lon="5.33101">
        <ele>239.6</ele>
        <time>2022-03-12T11:31:39Z</time>
      </trkpt>
      <trkpt lat="46.43086" lon="5.33093">
        <ele>239.4</ele>
        <time>2022-03-12T11:31:40Z</time>
      </trkpt>
      <trkpt lat="46.43053" lon="5.33031">
        <ele>238.8</ele>
        <time>2022-03-12T11:31:47Z</time>
      </trkpt>
      <trkpt lat="46.43049" lon="5.33021">
        <ele>238.6</ele>
        <time>2022-03-12T11:31:48Z</time>
      </trkpt>
      <trkpt lat="46.43031" lon="5.32954">
        <ele>237.4</ele>
        <time>2022-03-12T11:31:54Z</time>
      </trkpt>
      <trkpt lat="46.43015" lon="5.32912">
        <ele>236</ele>
        <time>2022-03-12T11:31:58Z</time>
      </trkpt>
      <trkpt lat="46.43002" lon="5.3288">
        <ele>235.4</ele>
        <time>2022-03-12T11:32:01Z</time>
      </trkpt>
      <trkpt lat="46.42993" lon="5.3286">
        <ele>235</ele>
        <time>2022-03-12T11:32:03Z</time>
      </trkpt>
      <trkpt lat="46.42968" lon="5.32797">
        <ele>233.8</ele>
        <time>2022-03-12T11:32:09Z</time>
      </trkpt>
      <trkpt lat="46.42963" lon="5.32786">
        <ele>233.6</ele>
        <time>2022-03-12T11:32:10Z</time>
      </trkpt>
      <trkpt lat="46.42934" lon="5.32714">
        <ele>232.8</ele>
        <time>2022-03-12T11:32:17Z</time>
      </trkpt>
      <trkpt lat="46.4293" lon="5.32703">
        <ele>232.8</ele>
        <time>2022-03-12T11:32:18Z</time>
      </trkpt>
      <trkpt lat="46.42926" lon="5.32691">
        <ele>232.2</ele>
        <time>2022-03-12T11:32:19Z</time>
      </trkpt>
      <trkpt lat="46.42918" lon="5.32666">
        <ele>231.6</ele>
        <time>2022-03-12T11:32:21Z</time>
      </trkpt>
      <trkpt lat="46.42907" lon="5.32627">
        <ele>230.4</ele>
        <time>2022-03-12T11:32:24Z</time>
      </trkpt>
      <trkpt lat="46.429" lon="5.326">
        <ele>229.2</ele>
        <time>2022-03-12T11:32:26Z</time>
      </trkpt>
      <trkpt lat="46.42896" lon="5.32587">
        <ele>229</ele>
        <time>2022-03-12T11:32:27Z</time>
      </trkpt>
      <trkpt lat="46.42892" lon="5.32573">
        <ele>228.2</ele>
        <time>2022-03-12T11:32:28Z</time>
      </trkpt>
      <trkpt lat="46.42884" lon="5.32545">
        <ele>227.2</ele>
        <time>2022-03-12T11:32:30Z</time>
      </trkpt>
      <trkpt lat="46.42876" lon="5.32516">
        <ele>226</ele>
        <time>2022-03-12T11:32:32Z</time>
      </trkpt>
      <trkpt lat="46.42867" lon="5.32489">
        <ele>224.8</ele>
        <time>2022-03-12T11:32:34Z</time>
      </trkpt>
      <trkpt lat="46.42854" lon="5.32463">
        <ele>223.8</ele>
        <time>2022-03-12T11:32:36Z</time>
      </trkpt>
      <trkpt lat="46.42841" lon="5.32439">
        <ele>222.8</ele>
        <time>2022-03-12T11:32:38Z</time>
      </trkpt>
      <trkpt lat="46.42833" lon="5.32427">
        <ele>222</ele>
        <time>2022-03-12T11:32:39Z</time>
      </trkpt>
      <trkpt lat="46.4282" lon="5.32403">
        <ele>220.6</ele>
        <time>2022-03-12T11:32:41Z</time>
      </trkpt>
      <trkpt lat="46.42807" lon="5.32379">
        <ele>219.6</ele>
        <time>2022-03-12T11:32:43Z</time>
      </trkpt>
      <trkpt lat="46.42802" lon="5.32367">
        <ele>219</ele>
        <time>2022-03-12T11:32:44Z</time>
      </trkpt>
      <trkpt lat="46.4279" lon="5.32313">
        <ele>217.8</ele>
        <time>2022-03-12T11:32:48Z</time>
      </trkpt>
      <trkpt lat="46.42776" lon="5.32252">
        <ele>216.6</ele>
        <time>2022-03-12T11:32:53Z</time>
      </trkpt>
      <trkpt lat="46.42763" lon="5.32198">
        <ele>216.2</ele>
        <time>2022-03-12T11:32:58Z</time>
      </trkpt>
      <trkpt lat="46.42759" lon="5.32189">
        <ele>216.2</ele>
        <time>2022-03-12T11:32:59Z</time>
      </trkpt>
      <trkpt lat="46.42753" lon="5.32185">
        <ele>216</ele>
        <time>2022-03-12T11:33:00Z</time>
      </trkpt>
      <trkpt lat="46.42746" lon="5.32183">
        <ele>216</ele>
        <time>2022-03-12T11:33:01Z</time>
      </trkpt>
      <trkpt lat="46.42739" lon="5.32185">
        <ele>216</ele>
        <time>2022-03-12T11:33:02Z</time>
      </trkpt>
      <trkpt lat="46.4273" lon="5.32197">
        <ele>216</ele>
        <time>2022-03-12T11:33:04Z</time>
      </trkpt>
      <trkpt lat="46.42719" lon="5.32247">
        <ele>215.6</ele>
        <time>2022-03-12T11:33:09Z</time>
      </trkpt>
      <trkpt lat="46.42706" lon="5.323">
        <ele>215.6</ele>
        <time>2022-03-12T11:33:14Z</time>
      </trkpt>
      <trkpt lat="46.42691" lon="5.32379">
        <ele>215.8</ele>
        <time>2022-03-12T11:33:22Z</time>
      </trkpt>
      <trkpt lat="46.42687" lon="5.32399">
        <ele>215.8</ele>
        <time>2022-03-12T11:33:24Z</time>
      </trkpt>
      <trkpt lat="46.42673" lon="5.32476">
        <ele>216.2</ele>
        <time>2022-03-12T11:33:32Z</time>
      </trkpt>
      <trkpt lat="46.4267" lon="5.32494">
        <ele>216.4</ele>
        <time>2022-03-12T11:33:34Z</time>
      </trkpt>
      <trkpt lat="46.42659" lon="5.32578">
        <ele>216.8</ele>
        <time>2022-03-12T11:33:43Z</time>
      </trkpt>
      <trkpt lat="46.42653" lon="5.32643">
        <ele>217</ele>
        <time>2022-03-12T11:33:50Z</time>
      </trkpt>
      <trkpt lat="46.42648" lon="5.32727">
        <ele>217.4</ele>
        <time>2022-03-12T11:33:59Z</time>
      </trkpt>
      <trkpt lat="46.42648" lon="5.32737">
        <ele>217.4</ele>
        <time>2022-03-12T11:34:00Z</time>
      </trkpt>
      <trkpt lat="46.42649" lon="5.32746">
        <ele>217.4</ele>
        <time>2022-03-12T11:34:01Z</time>
      </trkpt>
      <trkpt lat="46.42657" lon="5.3278">
        <ele>217.4</ele>
        <time>2022-03-12T11:34:05Z</time>
      </trkpt>
      <trkpt lat="46.42673" lon="5.32818">
        <ele>217.8</ele>
        <time>2022-03-12T11:34:10Z</time>
      </trkpt>
      <trkpt lat="46.42679" lon="5.32834">
        <ele>217.8</ele>
        <time>2022-03-12T11:34:12Z</time>
      </trkpt>
      <trkpt lat="46.42682" lon="5.32851">
        <ele>217.8</ele>
        <time>2022-03-12T11:34:14Z</time>
      </trkpt>
      <trkpt lat="46.4268" lon="5.32859">
        <ele>217.8</ele>
        <time>2022-03-12T11:34:15Z</time>
      </trkpt>
      <trkpt lat="46.42678" lon="5.32867">
        <ele>217.8</ele>
        <time>2022-03-12T11:34:16Z</time>
      </trkpt>
      <trkpt lat="46.42667" lon="5.32874">
        <ele>217.8</ele>
        <time>2022-03-12T11:34:18Z</time>
      </trkpt>
      <trkpt lat="46.42649" lon="5.32874">
        <ele>217.6</ele>
        <time>2022-03-12T11:34:21Z</time>
      </trkpt>
      <trkpt lat="46.42633" lon="5.32877">
        <ele>217.6</ele>
        <time>2022-03-12T11:34:24Z</time>
      </trkpt>
      <trkpt lat="46.42628" lon="5.3288">
        <ele>217.6</ele>
        <time>2022-03-12T11:34:25Z</time>
      </trkpt>
      <trkpt lat="46.42624" lon="5.32884">
        <ele>217.6</ele>
        <time>2022-03-12T11:34:26Z</time>
      </trkpt>
      <trkpt lat="46.42617" lon="5.32895">
        <ele>217.8</ele>
        <time>2022-03-12T11:34:28Z</time>
      </trkpt>
      <trkpt lat="46.42613" lon="5.329">
        <ele>218</ele>
        <time>2022-03-12T11:34:29Z</time>
      </trkpt>
      <trkpt lat="46.42607" lon="5.32904">
        <ele>218.2</ele>
        <time>2022-03-12T11:34:30Z</time>
      </trkpt>
      <trkpt lat="46.42601" lon="5.32925">
        <ele>218.6</ele>
        <time>2022-03-12T11:34:33Z</time>
      </trkpt>
      <trkpt lat="46.42596" lon="5.32946">
        <ele>218.8</ele>
        <time>2022-03-12T11:34:36Z</time>
      </trkpt>
      <trkpt lat="46.42594" lon="5.32954">
        <ele>219</ele>
        <time>2022-03-12T11:34:37Z</time>
      </trkpt>
      <trkpt lat="46.42593" lon="5.32962">
        <ele>219.2</ele>
        <time>2022-03-12T11:34:38Z</time>
      </trkpt>
      <trkpt lat="46.42589" lon="5.33013">
        <ele>219.6</ele>
        <time>2022-03-12T11:34:44Z</time>
      </trkpt>
      <trkpt lat="46.42589" lon="5.3303">
        <ele>219.8</ele>
        <time>2022-03-12T11:34:46Z</time>
      </trkpt>
      <trkpt lat="46.4259" lon="5.33038">
        <ele>220</ele>
        <time>2022-03-12T11:34:47Z</time>
      </trkpt>
      <trkpt lat="46.42595" lon="5.33054">
        <ele>220.2</ele>
        <time>2022-03-12T11:34:49Z</time>
      </trkpt>
      <trkpt lat="46.42615" lon="5.33095">
        <ele>220.8</ele>
        <time>2022-03-12T11:34:55Z</time>
      </trkpt>
      <trkpt lat="46.42622" lon="5.33107">
        <ele>221</ele>
        <time>2022-03-12T11:34:57Z</time>
      </trkpt>
      <trkpt lat="46.42648" lon="5.33154">
        <ele>221.2</ele>
        <time>2022-03-12T11:35:04Z</time>
      </trkpt>
      <trkpt lat="46.42684" lon="5.3321">
        <ele>220.6</ele>
        <time>2022-03-12T11:35:12Z</time>
      </trkpt>
      <trkpt lat="46.42708" lon="5.33227">
        <ele>220.4</ele>
        <time>2022-03-12T11:35:16Z</time>
      </trkpt>
      <trkpt lat="46.42754" lon="5.33264">
        <ele>220.4</ele>
        <time>2022-03-12T11:35:24Z</time>
      </trkpt>
      <trkpt lat="46.42794" lon="5.33294">
        <ele>220.2</ele>
        <time>2022-03-12T11:35:31Z</time>
      </trkpt>
      <trkpt lat="46.42809" lon="5.33309">
        <ele>220</ele>
        <time>2022-03-12T11:35:34Z</time>
      </trkpt>
      <trkpt lat="46.42814" lon="5.33315">
        <ele>220</ele>
        <time>2022-03-12T11:35:35Z</time>
      </trkpt>
      <trkpt lat="46.42837" lon="5.33355">
        <ele>220.6</ele>
        <time>2022-03-12T11:35:41Z</time>
      </trkpt>
      <trkpt lat="46.4285" lon="5.33374">
        <ele>220.6</ele>
        <time>2022-03-12T11:35:44Z</time>
      </trkpt>
      <trkpt lat="46.42855" lon="5.33389">
        <ele>220.6</ele>
        <time>2022-03-12T11:35:46Z</time>
      </trkpt>
      <trkpt lat="46.42856" lon="5.33406">
        <ele>220.6</ele>
        <time>2022-03-12T11:35:48Z</time>
      </trkpt>
      <trkpt lat="46.42855" lon="5.33415">
        <ele>220.6</ele>
        <time>2022-03-12T11:35:49Z</time>
      </trkpt>
      <trkpt lat="46.42853" lon="5.33422">
        <ele>220.6</ele>
        <time>2022-03-12T11:35:50Z</time>
      </trkpt>
      <trkpt lat="46.42843" lon="5.33462">
        <ele>220.8</ele>
        <time>2022-03-12T11:35:55Z</time>
      </trkpt>
      <trkpt lat="46.42832" lon="5.33499">
        <ele>221</ele>
        <time>2022-03-12T11:36:00Z</time>
      </trkpt>
      <trkpt lat="46.4283" lon="5.33515">
        <ele>221.2</ele>
        <time>2022-03-12T11:36:02Z</time>
      </trkpt>
      <trkpt lat="46.4283" lon="5.3353">
        <ele>221.4</ele>
        <time>2022-03-12T11:36:04Z</time>
      </trkpt>
      <trkpt lat="46.42833" lon="5.33547">
        <ele>221.6</ele>
        <time>2022-03-12T11:36:06Z</time>
      </trkpt>
      <trkpt lat="46.42842" lon="5.33581">
        <ele>222.2</ele>
        <time>2022-03-12T11:36:11Z</time>
      </trkpt>
      <trkpt lat="46.42845" lon="5.33595">
        <ele>222.8</ele>
        <time>2022-03-12T11:36:13Z</time>
      </trkpt>
      <trkpt lat="46.42849" lon="5.33617">
        <ele>223.4</ele>
        <time>2022-03-12T11:36:16Z</time>
      </trkpt>
      <trkpt lat="46.42851" lon="5.33653">
        <ele>224</ele>
        <time>2022-03-12T11:36:21Z</time>
      </trkpt>
      <trkpt lat="46.42853" lon="5.33673">
        <ele>224.6</ele>
        <time>2022-03-12T11:36:24Z</time>
      </trkpt>
      <trkpt lat="46.42858" lon="5.33691">
        <ele>225</ele>
        <time>2022-03-12T11:36:27Z</time>
      </trkpt>
      <trkpt lat="46.4286" lon="5.33696">
        <ele>225.2</ele>
        <time>2022-03-12T11:36:28Z</time>
      </trkpt>
      <trkpt lat="46.42871" lon="5.33707">
        <ele>225.6</ele>
        <time>2022-03-12T11:36:31Z</time>
      </trkpt>
      <trkpt lat="46.42891" lon="5.33726">
        <ele>226.6</ele>
        <time>2022-03-12T11:36:36Z</time>
      </trkpt>
      <trkpt lat="46.42894" lon="5.33731">
        <ele>226.6</ele>
        <time>2022-03-12T11:36:37Z</time>
      </trkpt>
      <trkpt lat="46.42896" lon="5.33737">
        <ele>226.8</ele>
        <time>2022-03-12T11:36:38Z</time>
      </trkpt>
      <trkpt lat="46.42899" lon="5.3375">
        <ele>227.2</ele>
        <time>2022-03-12T11:36:40Z</time>
      </trkpt>
      <trkpt lat="46.429" lon="5.33763">
        <ele>227.6</ele>
        <time>2022-03-12T11:36:42Z</time>
      </trkpt>
      <trkpt lat="46.429" lon="5.33769">
        <ele>227.8</ele>
        <time>2022-03-12T11:36:43Z</time>
      </trkpt>
      <trkpt lat="46.42898" lon="5.33793">
        <ele>228.6</ele>
        <time>2022-03-12T11:36:47Z</time>
      </trkpt>
      <trkpt lat="46.42897" lon="5.33798">
        <ele>228.8</ele>
        <time>2022-03-12T11:36:48Z</time>
      </trkpt>
      <trkpt lat="46.42892" lon="5.3383">
        <ele>230</ele>
        <time>2022-03-12T11:36:54Z</time>
      </trkpt>
      <trkpt lat="46.42888" lon="5.33838">
        <ele>230.6</ele>
        <time>2022-03-12T11:36:56Z</time>
      </trkpt>
      <trkpt lat="46.42875" lon="5.33839">
        <ele>231.4</ele>
        <time>2022-03-12T11:36:59Z</time>
      </trkpt>
      <trkpt lat="46.42843" lon="5.33837">
        <ele>232.4</ele>
        <time>2022-03-12T11:37:05Z</time>
      </trkpt>
      <trkpt lat="46.42798" lon="5.33833">
        <ele>232</ele>
        <time>2022-03-12T11:37:13Z</time>
      </trkpt>
      <trkpt lat="46.42775" lon="5.33826">
        <ele>232.6</ele>
        <time>2022-03-12T11:37:18Z</time>
      </trkpt>
      <trkpt lat="46.4275" lon="5.33815">
        <ele>234</ele>
        <time>2022-03-12T11:37:24Z</time>
      </trkpt>
      <trkpt lat="46.42735" lon="5.33805">
        <ele>235</ele>
        <time>2022-03-12T11:37:28Z</time>
      </trkpt>
      <trkpt lat="46.42724" lon="5.33799">
        <ele>235.8</ele>
        <time>2022-03-12T11:37:31Z</time>
      </trkpt>
      <trkpt lat="46.42716" lon="5.33796">
        <ele>236.2</ele>
        <time>2022-03-12T11:37:33Z</time>
      </trkpt>
      <trkpt lat="46.42703" lon="5.33794">
        <ele>237.2</ele>
        <time>2022-03-12T11:37:36Z</time>
      </trkpt>
      <trkpt lat="46.42694" lon="5.33794">
        <ele>237.6</ele>
        <time>2022-03-12T11:37:38Z</time>
      </trkpt>
      <trkpt lat="46.42667" lon="5.33794">
        <ele>238.4</ele>
        <time>2022-03-12T11:37:44Z</time>
      </trkpt>
      <trkpt lat="46.42653" lon="5.33796">
        <ele>238.6</ele>
        <time>2022-03-12T11:37:47Z</time>
      </trkpt>
      <trkpt lat="46.42606" lon="5.338">
        <ele>239</ele>
        <time>2022-03-12T11:37:56Z</time>
      </trkpt>
      <trkpt lat="46.42586" lon="5.33797">
        <ele>239.4</ele>
        <time>2022-03-12T11:38:00Z</time>
      </trkpt>
      <trkpt lat="46.42568" lon="5.33788">
        <ele>239.6</ele>
        <time>2022-03-12T11:38:04Z</time>
      </trkpt>
      <trkpt lat="46.42546" lon="5.33775">
        <ele>240.6</ele>
        <time>2022-03-12T11:38:09Z</time>
      </trkpt>
      <trkpt lat="46.42542" lon="5.33772">
        <ele>240.8</ele>
        <time>2022-03-12T11:38:10Z</time>
      </trkpt>
      <trkpt lat="46.42539" lon="5.3377">
        <ele>241</ele>
        <time>2022-03-12T11:38:11Z</time>
      </trkpt>
      <trkpt lat="46.42524" lon="5.33761">
        <ele>241.8</ele>
        <time>2022-03-12T11:38:15Z</time>
      </trkpt>
      <trkpt lat="46.42521" lon="5.33759">
        <ele>241.8</ele>
        <time>2022-03-12T11:38:16Z</time>
      </trkpt>
      <trkpt lat="46.4251" lon="5.33753">
        <ele>242.8</ele>
        <time>2022-03-12T11:38:19Z</time>
      </trkpt>
      <trkpt lat="46.42496" lon="5.33744">
        <ele>243.8</ele>
        <time>2022-03-12T11:38:23Z</time>
      </trkpt>
      <trkpt lat="46.42492" lon="5.33741">
        <ele>244</ele>
        <time>2022-03-12T11:38:24Z</time>
      </trkpt>
      <trkpt lat="46.42478" lon="5.33731">
        <ele>245.2</ele>
        <time>2022-03-12T11:38:28Z</time>
      </trkpt>
      <trkpt lat="46.42475" lon="5.33728">
        <ele>245.4</ele>
        <time>2022-03-12T11:38:29Z</time>
      </trkpt>
      <trkpt lat="46.42461" lon="5.33714">
        <ele>246.2</ele>
        <time>2022-03-12T11:38:33Z</time>
      </trkpt>
      <trkpt lat="46.42448" lon="5.33704">
        <ele>246.8</ele>
        <time>2022-03-12T11:38:36Z</time>
      </trkpt>
      <trkpt lat="46.42443" lon="5.337">
        <ele>246.8</ele>
        <time>2022-03-12T11:38:37Z</time>
      </trkpt>
      <trkpt lat="46.42421" lon="5.33687">
        <ele>247.4</ele>
        <time>2022-03-12T11:38:42Z</time>
      </trkpt>
      <trkpt lat="46.42416" lon="5.33684">
        <ele>247.6</ele>
        <time>2022-03-12T11:38:43Z</time>
      </trkpt>
      <trkpt lat="46.42383" lon="5.33677">
        <ele>248</ele>
        <time>2022-03-12T11:38:50Z</time>
      </trkpt>
      <trkpt lat="46.42374" lon="5.33679">
        <ele>248.2</ele>
        <time>2022-03-12T11:38:52Z</time>
      </trkpt>
      <trkpt lat="46.42366" lon="5.33684">
        <ele>248.4</ele>
        <time>2022-03-12T11:38:54Z</time>
      </trkpt>
      <trkpt lat="46.42362" lon="5.33686">
        <ele>248.6</ele>
        <time>2022-03-12T11:38:55Z</time>
      </trkpt>
      <trkpt lat="46.42346" lon="5.33696">
        <ele>249.6</ele>
        <time>2022-03-12T11:38:59Z</time>
      </trkpt>
      <trkpt lat="46.42334" lon="5.33704">
        <ele>249.8</ele>
        <time>2022-03-12T11:39:02Z</time>
      </trkpt>
      <trkpt lat="46.42324" lon="5.33712">
        <ele>250.8</ele>
        <time>2022-03-12T11:39:06Z</time>
      </trkpt>
      <trkpt lat="46.42322" lon="5.33716">
        <ele>251</ele>
        <time>2022-03-12T11:39:07Z</time>
      </trkpt>
      <trkpt lat="46.42314" lon="5.33725">
        <ele>251.8</ele>
        <time>2022-03-12T11:39:10Z</time>
      </trkpt>
      <trkpt lat="46.42306" lon="5.33736">
        <ele>252.4</ele>
        <time>2022-03-12T11:39:13Z</time>
      </trkpt>
      <trkpt lat="46.423" lon="5.33745">
        <ele>253</ele>
        <time>2022-03-12T11:39:15Z</time>
      </trkpt>
      <trkpt lat="46.42291" lon="5.3376">
        <ele>253.6</ele>
        <time>2022-03-12T11:39:18Z</time>
      </trkpt>
      <trkpt lat="46.42285" lon="5.3377">
        <ele>254</ele>
        <time>2022-03-12T11:39:20Z</time>
      </trkpt>
      <trkpt lat="46.42274" lon="5.3379">
        <ele>255</ele>
        <time>2022-03-12T11:39:24Z</time>
      </trkpt>
      <trkpt lat="46.4227" lon="5.33799">
        <ele>255.4</ele>
        <time>2022-03-12T11:39:26Z</time>
      </trkpt>
      <trkpt lat="46.42253" lon="5.33828">
        <ele>256.2</ele>
        <time>2022-03-12T11:39:32Z</time>
      </trkpt>
      <trkpt lat="46.42248" lon="5.33839">
        <ele>256.6</ele>
        <time>2022-03-12T11:39:34Z</time>
      </trkpt>
      <trkpt lat="46.42233" lon="5.33869">
        <ele>257.2</ele>
        <time>2022-03-12T11:39:40Z</time>
      </trkpt>
      <trkpt lat="46.42226" lon="5.33883">
        <ele>257.8</ele>
        <time>2022-03-12T11:39:43Z</time>
      </trkpt>
      <trkpt lat="46.42218" lon="5.339">
        <ele>258.4</ele>
        <time>2022-03-12T11:39:47Z</time>
      </trkpt>
      <trkpt lat="46.42205" lon="5.3392">
        <ele>259.2</ele>
        <time>2022-03-12T11:39:52Z</time>
      </trkpt>
      <trkpt lat="46.42199" lon="5.33928">
        <ele>259.6</ele>
        <time>2022-03-12T11:39:54Z</time>
      </trkpt>
      <trkpt lat="46.42186" lon="5.33937">
        <ele>260.8</ele>
        <time>2022-03-12T11:39:58Z</time>
      </trkpt>
      <trkpt lat="46.42181" lon="5.33938">
        <ele>261</ele>
        <time>2022-03-12T11:39:59Z</time>
      </trkpt>
      <trkpt lat="46.42162" lon="5.33936">
        <ele>261.8</ele>
        <time>2022-03-12T11:40:04Z</time>
      </trkpt>
      <trkpt lat="46.42155" lon="5.33933">
        <ele>262.2</ele>
        <time>2022-03-12T11:40:06Z</time>
      </trkpt>
      <trkpt lat="46.4214" lon="5.33927">
        <ele>263.4</ele>
        <time>2022-03-12T11:40:10Z</time>
      </trkpt>
      <trkpt lat="46.42121" lon="5.33918">
        <ele>264.4</ele>
        <time>2022-03-12T11:40:14Z</time>
      </trkpt>
      <trkpt lat="46.42112" lon="5.33913">
        <ele>264.6</ele>
        <time>2022-03-12T11:40:16Z</time>
      </trkpt>
      <trkpt lat="46.42085" lon="5.33903">
        <ele>264.8</ele>
        <time>2022-03-12T11:40:21Z</time>
      </trkpt>
      <trkpt lat="46.42079" lon="5.33902">
        <ele>264.8</ele>
        <time>2022-03-12T11:40:22Z</time>
      </trkpt>
      <trkpt lat="46.42028" lon="5.33902">
        <ele>264.6</ele>
        <time>2022-03-12T11:40:31Z</time>
      </trkpt>
      <trkpt lat="46.42008" lon="5.33901">
        <ele>264.4</ele>
        <time>2022-03-12T11:40:34Z</time>
      </trkpt>
      <trkpt lat="46.41994" lon="5.33896">
        <ele>264</ele>
        <time>2022-03-12T11:40:36Z</time>
      </trkpt>
      <trkpt lat="46.41965" lon="5.33877">
        <ele>263.4</ele>
        <time>2022-03-12T11:40:40Z</time>
      </trkpt>
      <trkpt lat="46.41957" lon="5.33874">
        <ele>263.2</ele>
        <time>2022-03-12T11:40:41Z</time>
      </trkpt>
      <trkpt lat="46.41946" lon="5.33872">
        <ele>262.4</ele>
        <time>2022-03-12T11:40:42Z</time>
      </trkpt>
      <trkpt lat="46.41939" lon="5.33871">
        <ele>262</ele>
        <time>2022-03-12T11:40:43Z</time>
      </trkpt>
      <trkpt lat="46.41929" lon="5.33871">
        <ele>261.6</ele>
        <time>2022-03-12T11:40:44Z</time>
      </trkpt>
      <trkpt lat="46.41918" lon="5.33873">
        <ele>261</ele>
        <time>2022-03-12T11:40:45Z</time>
      </trkpt>
      <trkpt lat="46.41909" lon="5.33875">
        <ele>260.8</ele>
        <time>2022-03-12T11:40:46Z</time>
      </trkpt>
      <trkpt lat="46.41902" lon="5.33877">
        <ele>259.8</ele>
        <time>2022-03-12T11:40:47Z</time>
      </trkpt>
      <trkpt lat="46.41874" lon="5.33881">
        <ele>258.8</ele>
        <time>2022-03-12T11:40:50Z</time>
      </trkpt>
      <trkpt lat="46.41867" lon="5.33881">
        <ele>258.4</ele>
        <time>2022-03-12T11:40:51Z</time>
      </trkpt>
      <trkpt lat="46.4183" lon="5.33878">
        <ele>258</ele>
        <time>2022-03-12T11:40:56Z</time>
      </trkpt>
      <trkpt lat="46.41798" lon="5.3387">
        <ele>259</ele>
        <time>2022-03-12T11:41:02Z</time>
      </trkpt>
      <trkpt lat="46.41784" lon="5.33866">
        <ele>259.8</ele>
        <time>2022-03-12T11:41:05Z</time>
      </trkpt>
      <trkpt lat="46.41771" lon="5.33862">
        <ele>260.8</ele>
        <time>2022-03-12T11:41:08Z</time>
      </trkpt>
      <trkpt lat="46.41766" lon="5.33861">
        <ele>261</ele>
        <time>2022-03-12T11:41:09Z</time>
      </trkpt>
      <trkpt lat="46.41758" lon="5.3386">
        <ele>261.8</ele>
        <time>2022-03-12T11:41:11Z</time>
      </trkpt>
      <trkpt lat="46.41755" lon="5.3386">
        <ele>262.2</ele>
        <time>2022-03-12T11:41:12Z</time>
      </trkpt>
      <trkpt lat="46.4175" lon="5.3386">
        <ele>262.4</ele>
        <time>2022-03-12T11:41:13Z</time>
      </trkpt>
      <trkpt lat="46.41742" lon="5.33863">
        <ele>263</ele>
        <time>2022-03-12T11:41:15Z</time>
      </trkpt>
      <trkpt lat="46.41736" lon="5.33865">
        <ele>263.6</ele>
        <time>2022-03-12T11:41:17Z</time>
      </trkpt>
      <trkpt lat="46.41722" lon="5.33869">
        <ele>264.8</ele>
        <time>2022-03-12T11:41:21Z</time>
      </trkpt>
      <trkpt lat="46.41719" lon="5.3387">
        <ele>265</ele>
        <time>2022-03-12T11:41:22Z</time>
      </trkpt>
      <trkpt lat="46.41707" lon="5.33873">
        <ele>266</ele>
        <time>2022-03-12T11:41:25Z</time>
      </trkpt>
      <trkpt lat="46.41697" lon="5.33876">
        <ele>266.8</ele>
        <time>2022-03-12T11:41:28Z</time>
      </trkpt>
      <trkpt lat="46.41693" lon="5.33877">
        <ele>267</ele>
        <time>2022-03-12T11:41:29Z</time>
      </trkpt>
      <trkpt lat="46.4168" lon="5.33878">
        <ele>268.2</ele>
        <time>2022-03-12T11:41:33Z</time>
      </trkpt>
      <trkpt lat="46.41672" lon="5.33879">
        <ele>268.4</ele>
        <time>2022-03-12T11:41:35Z</time>
      </trkpt>
      <trkpt lat="46.41652" lon="5.33876">
        <ele>269.4</ele>
        <time>2022-03-12T11:41:40Z</time>
      </trkpt>
      <trkpt lat="46.41648" lon="5.33876">
        <ele>269.4</ele>
        <time>2022-03-12T11:41:41Z</time>
      </trkpt>
      <trkpt lat="46.41622" lon="5.33881">
        <ele>270.6</ele>
        <time>2022-03-12T11:41:47Z</time>
      </trkpt>
      <trkpt lat="46.41618" lon="5.33882">
        <ele>270.6</ele>
        <time>2022-03-12T11:41:48Z</time>
      </trkpt>
      <trkpt lat="46.4159" lon="5.33885">
        <ele>271.6</ele>
        <time>2022-03-12T11:41:55Z</time>
      </trkpt>
      <trkpt lat="46.41585" lon="5.33884">
        <ele>271.8</ele>
        <time>2022-03-12T11:41:56Z</time>
      </trkpt>
      <trkpt lat="46.41579" lon="5.33884">
        <ele>271.8</ele>
        <time>2022-03-12T11:41:57Z</time>
      </trkpt>
      <trkpt lat="46.41551" lon="5.33879">
        <ele>272</ele>
        <time>2022-03-12T11:42:03Z</time>
      </trkpt>
      <trkpt lat="46.41507" lon="5.33869">
        <ele>271.6</ele>
        <time>2022-03-12T11:42:10Z</time>
      </trkpt>
      <trkpt lat="46.415" lon="5.33867">
        <ele>271.6</ele>
        <time>2022-03-12T11:42:11Z</time>
      </trkpt>
      <trkpt lat="46.4148" lon="5.33854">
        <ele>270.8</ele>
        <time>2022-03-12T11:42:14Z</time>
      </trkpt>
      <trkpt lat="46.41465" lon="5.33842">
        <ele>270.4</ele>
        <time>2022-03-12T11:42:16Z</time>
      </trkpt>
      <trkpt lat="46.41458" lon="5.33837">
        <ele>270.2</ele>
        <time>2022-03-12T11:42:17Z</time>
      </trkpt>
      <trkpt lat="46.41443" lon="5.3383">
        <ele>270</ele>
        <time>2022-03-12T11:42:19Z</time>
      </trkpt>
      <trkpt lat="46.41407" lon="5.3382">
        <ele>268.8</ele>
        <time>2022-03-12T11:42:23Z</time>
      </trkpt>
      <trkpt lat="46.41378" lon="5.33811">
        <ele>267.8</ele>
        <time>2022-03-12T11:42:26Z</time>
      </trkpt>
      <trkpt lat="46.41369" lon="5.33809">
        <ele>267.6</ele>
        <time>2022-03-12T11:42:27Z</time>
      </trkpt>
      <trkpt lat="46.41342" lon="5.33801">
        <ele>266.4</ele>
        <time>2022-03-12T11:42:30Z</time>
      </trkpt>
      <trkpt lat="46.41316" lon="5.33788">
        <ele>265.6</ele>
        <time>2022-03-12T11:42:33Z</time>
      </trkpt>
      <trkpt lat="46.41306" lon="5.33779">
        <ele>265.2</ele>
        <time>2022-03-12T11:42:34Z</time>
      </trkpt>
      <trkpt lat="46.4129" lon="5.33761">
        <ele>264.4</ele>
        <time>2022-03-12T11:42:36Z</time>
      </trkpt>
      <trkpt lat="46.41284" lon="5.33754">
        <ele>263.6</ele>
        <time>2022-03-12T11:42:37Z</time>
      </trkpt>
      <trkpt lat="46.41268" lon="5.33736">
        <ele>262.6</ele>
        <time>2022-03-12T11:42:39Z</time>
      </trkpt>
      <trkpt lat="46.41249" lon="5.33719">
        <ele>261.6</ele>
        <time>2022-03-12T11:42:41Z</time>
      </trkpt>
      <trkpt lat="46.41235" lon="5.33705">
        <ele>260.8</ele>
        <time>2022-03-12T11:42:43Z</time>
      </trkpt>
      <trkpt lat="46.41226" lon="5.33698">
        <ele>260.6</ele>
        <time>2022-03-12T11:42:44Z</time>
      </trkpt>
      <trkpt lat="46.41186" lon="5.3366">
        <ele>259.6</ele>
        <time>2022-03-12T11:42:49Z</time>
      </trkpt>
      <trkpt lat="46.41154" lon="5.33631">
        <ele>258.8</ele>
        <time>2022-03-12T11:42:53Z</time>
      </trkpt>
      <trkpt lat="46.41137" lon="5.33617">
        <ele>258.4</ele>
        <time>2022-03-12T11:42:55Z</time>
      </trkpt>
      <trkpt lat="46.41106" lon="5.33595">
        <ele>258.2</ele>
        <time>2022-03-12T11:42:59Z</time>
      </trkpt>
      <trkpt lat="46.41071" lon="5.33575">
        <ele>258.4</ele>
        <time>2022-03-12T11:43:04Z</time>
      </trkpt>
      <trkpt lat="46.41027" lon="5.33558">
        <ele>258.8</ele>
        <time>2022-03-12T11:43:11Z</time>
      </trkpt>
      <trkpt lat="46.41002" lon="5.33552">
        <ele>259.6</ele>
        <time>2022-03-12T11:43:15Z</time>
      </trkpt>
      <trkpt lat="46.40984" lon="5.33549">
        <ele>260</ele>
        <time>2022-03-12T11:43:18Z</time>
      </trkpt>
      <trkpt lat="46.40968" lon="5.33544">
        <ele>260.8</ele>
        <time>2022-03-12T11:43:21Z</time>
      </trkpt>
      <trkpt lat="46.40946" lon="5.33539">
        <ele>261.4</ele>
        <time>2022-03-12T11:43:25Z</time>
      </trkpt>
      <trkpt lat="46.40929" lon="5.33534">
        <ele>262</ele>
        <time>2022-03-12T11:43:28Z</time>
      </trkpt>
      <trkpt lat="46.40894" lon="5.33525">
        <ele>262.6</ele>
        <time>2022-03-12T11:43:34Z</time>
      </trkpt>
      <trkpt lat="46.40851" lon="5.33514">
        <ele>262.6</ele>
        <time>2022-03-12T11:43:40Z</time>
      </trkpt>
      <trkpt lat="46.40796" lon="5.33498">
        <ele>261</ele>
        <time>2022-03-12T11:43:47Z</time>
      </trkpt>
      <trkpt lat="46.40762" lon="5.33484">
        <ele>259.2</ele>
        <time>2022-03-12T11:43:51Z</time>
      </trkpt>
      <trkpt lat="46.4074" lon="5.33473">
        <ele>258.4</ele>
        <time>2022-03-12T11:43:54Z</time>
      </trkpt>
      <trkpt lat="46.40732" lon="5.33468">
        <ele>258.2</ele>
        <time>2022-03-12T11:43:55Z</time>
      </trkpt>
      <trkpt lat="46.40692" lon="5.33443">
        <ele>257</ele>
        <time>2022-03-12T11:44:00Z</time>
      </trkpt>
      <trkpt lat="46.40657" lon="5.33421">
        <ele>255.6</ele>
        <time>2022-03-12T11:44:04Z</time>
      </trkpt>
      <trkpt lat="46.40649" lon="5.33416">
        <ele>255.4</ele>
        <time>2022-03-12T11:44:05Z</time>
      </trkpt>
      <trkpt lat="46.40633" lon="5.33406">
        <ele>254.6</ele>
        <time>2022-03-12T11:44:07Z</time>
      </trkpt>
      <trkpt lat="46.40615" lon="5.33395">
        <ele>253.6</ele>
        <time>2022-03-12T11:44:09Z</time>
      </trkpt>
      <trkpt lat="46.40587" lon="5.33379">
        <ele>252.6</ele>
        <time>2022-03-12T11:44:12Z</time>
      </trkpt>
      <trkpt lat="46.40577" lon="5.33374">
        <ele>252</ele>
        <time>2022-03-12T11:44:13Z</time>
      </trkpt>
      <trkpt lat="46.40549" lon="5.33356">
        <ele>250.4</ele>
        <time>2022-03-12T11:44:16Z</time>
      </trkpt>
      <trkpt lat="46.40539" lon="5.33351">
        <ele>250.2</ele>
        <time>2022-03-12T11:44:17Z</time>
      </trkpt>
      <trkpt lat="46.40521" lon="5.33338">
        <ele>249.4</ele>
        <time>2022-03-12T11:44:19Z</time>
      </trkpt>
      <trkpt lat="46.40505" lon="5.3332">
        <ele>248.2</ele>
        <time>2022-03-12T11:44:21Z</time>
      </trkpt>
      <trkpt lat="46.40497" lon="5.33311">
        <ele>247.4</ele>
        <time>2022-03-12T11:44:22Z</time>
      </trkpt>
      <trkpt lat="46.40488" lon="5.33304">
        <ele>247</ele>
        <time>2022-03-12T11:44:23Z</time>
      </trkpt>
      <trkpt lat="46.40478" lon="5.33297">
        <ele>246.8</ele>
        <time>2022-03-12T11:44:24Z</time>
      </trkpt>
      <trkpt lat="46.40453" lon="5.33285">
        <ele>245.8</ele>
        <time>2022-03-12T11:44:27Z</time>
      </trkpt>
      <trkpt lat="46.40429" lon="5.33269">
        <ele>245.4</ele>
        <time>2022-03-12T11:44:30Z</time>
      </trkpt>
      <trkpt lat="46.40422" lon="5.33263">
        <ele>245.4</ele>
        <time>2022-03-12T11:44:31Z</time>
      </trkpt>
      <trkpt lat="46.404" lon="5.33238">
        <ele>245</ele>
        <time>2022-03-12T11:44:34Z</time>
      </trkpt>
      <trkpt lat="46.40373" lon="5.33205">
        <ele>245.2</ele>
        <time>2022-03-12T11:44:39Z</time>
      </trkpt>
      <trkpt lat="46.40331" lon="5.33147">
        <ele>246.2</ele>
        <time>2022-03-12T11:44:47Z</time>
      </trkpt>
      <trkpt lat="46.40326" lon="5.3314">
        <ele>246.4</ele>
        <time>2022-03-12T11:44:48Z</time>
      </trkpt>
      <trkpt lat="46.40304" lon="5.33106">
        <ele>247</ele>
        <time>2022-03-12T11:44:53Z</time>
      </trkpt>
      <trkpt lat="46.4029" lon="5.33087">
        <ele>247.6</ele>
        <time>2022-03-12T11:44:56Z</time>
      </trkpt>
      <trkpt lat="46.40282" lon="5.33075">
        <ele>248</ele>
        <time>2022-03-12T11:44:58Z</time>
      </trkpt>
      <trkpt lat="46.40245" lon="5.33024">
        <ele>248.2</ele>
        <time>2022-03-12T11:45:06Z</time>
      </trkpt>
      <trkpt lat="46.40217" lon="5.32982">
        <ele>248</ele>
        <time>2022-03-12T11:45:12Z</time>
      </trkpt>
      <trkpt lat="46.4018" lon="5.32917">
        <ele>247.4</ele>
        <time>2022-03-12T11:45:21Z</time>
      </trkpt>
      <trkpt lat="46.40149" lon="5.32852">
        <ele>247.2</ele>
        <time>2022-03-12T11:45:30Z</time>
      </trkpt>
      <trkpt lat="46.40145" lon="5.32844">
        <ele>247.2</ele>
        <time>2022-03-12T11:45:31Z</time>
      </trkpt>
      <trkpt lat="46.40128" lon="5.32806">
        <ele>247</ele>
        <time>2022-03-12T11:45:36Z</time>
      </trkpt>
      <trkpt lat="46.40108" lon="5.32757">
        <ele>246.6</ele>
        <time>2022-03-12T11:45:42Z</time>
      </trkpt>
      <trkpt lat="46.40079" lon="5.32682">
        <ele>246.2</ele>
        <time>2022-03-12T11:45:51Z</time>
      </trkpt>
      <trkpt lat="46.40069" lon="5.32636">
        <ele>246</ele>
        <time>2022-03-12T11:45:57Z</time>
      </trkpt>
      <trkpt lat="46.40067" lon="5.3263">
        <ele>245.8</ele>
        <time>2022-03-12T11:45:58Z</time>
      </trkpt>
      <trkpt lat="46.40065" lon="5.32621">
        <ele>245.6</ele>
        <time>2022-03-12T11:46:01Z</time>
      </trkpt>
      <trkpt lat="46.40064" lon="5.32621">
        <ele>245.4</ele>
        <time>2022-03-12T11:46:04Z</time>
      </trkpt>
      <trkpt lat="46.4006" lon="5.32623">
        <ele>245.6</ele>
        <time>2022-03-12T11:46:48Z</time>
      </trkpt>
      <trkpt lat="46.40046" lon="5.32626">
        <ele>245.6</ele>
        <time>2022-03-12T11:46:53Z</time>
      </trkpt>
      <trkpt lat="46.40023" lon="5.3264">
        <ele>245.8</ele>
        <time>2022-03-12T11:46:58Z</time>
      </trkpt>
      <trkpt lat="46.39984" lon="5.32659">
        <ele>245.8</ele>
        <time>2022-03-12T11:47:04Z</time>
      </trkpt>
      <trkpt lat="46.39935" lon="5.32681">
        <ele>245.2</ele>
        <time>2022-03-12T11:47:11Z</time>
      </trkpt>
      <trkpt lat="46.39921" lon="5.32687">
        <ele>245</ele>
        <time>2022-03-12T11:47:13Z</time>
      </trkpt>
      <trkpt lat="46.39869" lon="5.32711">
        <ele>244.2</ele>
        <time>2022-03-12T11:47:20Z</time>
      </trkpt>
      <trkpt lat="46.39853" lon="5.32719">
        <ele>243.8</ele>
        <time>2022-03-12T11:47:22Z</time>
      </trkpt>
      <trkpt lat="46.39822" lon="5.32733">
        <ele>242.8</ele>
        <time>2022-03-12T11:47:26Z</time>
      </trkpt>
      <trkpt lat="46.39806" lon="5.3274">
        <ele>242.4</ele>
        <time>2022-03-12T11:47:28Z</time>
      </trkpt>
      <trkpt lat="46.39764" lon="5.32759">
        <ele>241.4</ele>
        <time>2022-03-12T11:47:33Z</time>
      </trkpt>
      <trkpt lat="46.39747" lon="5.32768">
        <ele>240.8</ele>
        <time>2022-03-12T11:47:35Z</time>
      </trkpt>
      <trkpt lat="46.39729" lon="5.32778">
        <ele>240.2</ele>
        <time>2022-03-12T11:47:37Z</time>
      </trkpt>
      <trkpt lat="46.39702" lon="5.32793">
        <ele>238.8</ele>
        <time>2022-03-12T11:47:40Z</time>
      </trkpt>
      <trkpt lat="46.39693" lon="5.32799">
        <ele>238.6</ele>
        <time>2022-03-12T11:47:41Z</time>
      </trkpt>
      <trkpt lat="46.39676" lon="5.32808">
        <ele>237.8</ele>
        <time>2022-03-12T11:47:43Z</time>
      </trkpt>
      <trkpt lat="46.39643" lon="5.32821">
        <ele>236.8</ele>
        <time>2022-03-12T11:47:46Z</time>
      </trkpt>
      <trkpt lat="46.39633" lon="5.32824">
        <ele>236.2</ele>
        <time>2022-03-12T11:47:47Z</time>
      </trkpt>
      <trkpt lat="46.39623" lon="5.32827">
        <ele>235.6</ele>
        <time>2022-03-12T11:47:48Z</time>
      </trkpt>
      <trkpt lat="46.39602" lon="5.32832">
        <ele>234.4</ele>
        <time>2022-03-12T11:47:50Z</time>
      </trkpt>
      <trkpt lat="46.39583" lon="5.3284">
        <ele>233.4</ele>
        <time>2022-03-12T11:47:52Z</time>
      </trkpt>
      <trkpt lat="46.39566" lon="5.3285">
        <ele>232.2</ele>
        <time>2022-03-12T11:47:54Z</time>
      </trkpt>
      <trkpt lat="46.3954" lon="5.32865">
        <ele>231.6</ele>
        <time>2022-03-12T11:47:57Z</time>
      </trkpt>
      <trkpt lat="46.39524" lon="5.32872">
        <ele>231.2</ele>
        <time>2022-03-12T11:47:59Z</time>
      </trkpt>
      <trkpt lat="46.39499" lon="5.32881">
        <ele>231</ele>
        <time>2022-03-12T11:48:02Z</time>
      </trkpt>
      <trkpt lat="46.39454" lon="5.32899">
        <ele>230.2</ele>
        <time>2022-03-12T11:48:07Z</time>
      </trkpt>
      <trkpt lat="46.39414" lon="5.32908">
        <ele>229</ele>
        <time>2022-03-12T11:48:11Z</time>
      </trkpt>
      <trkpt lat="46.39404" lon="5.32908">
        <ele>228.6</ele>
        <time>2022-03-12T11:48:12Z</time>
      </trkpt>
      <trkpt lat="46.39385" lon="5.329">
        <ele>227.4</ele>
        <time>2022-03-12T11:48:14Z</time>
      </trkpt>
      <trkpt lat="46.39377" lon="5.32893">
        <ele>226.8</ele>
        <time>2022-03-12T11:48:15Z</time>
      </trkpt>
      <trkpt lat="46.39372" lon="5.32889">
        <ele>226.6</ele>
        <time>2022-03-12T11:48:16Z</time>
      </trkpt>
      <trkpt lat="46.39365" lon="5.32884">
        <ele>226.2</ele>
        <time>2022-03-12T11:48:17Z</time>
      </trkpt>
      <trkpt lat="46.3936" lon="5.32882">
        <ele>225.4</ele>
        <time>2022-03-12T11:48:18Z</time>
      </trkpt>
      <trkpt lat="46.39355" lon="5.32885">
        <ele>225</ele>
        <time>2022-03-12T11:48:19Z</time>
      </trkpt>
      <trkpt lat="46.39351" lon="5.32892">
        <ele>224.6</ele>
        <time>2022-03-12T11:48:20Z</time>
      </trkpt>
      <trkpt lat="46.3935" lon="5.32899">
        <ele>224.2</ele>
        <time>2022-03-12T11:48:21Z</time>
      </trkpt>
      <trkpt lat="46.39351" lon="5.32922">
        <ele>224</ele>
        <time>2022-03-12T11:48:23Z</time>
      </trkpt>
      <trkpt lat="46.39355" lon="5.32943">
        <ele>223.4</ele>
        <time>2022-03-12T11:48:25Z</time>
      </trkpt>
      <trkpt lat="46.39358" lon="5.32955">
        <ele>223</ele>
        <time>2022-03-12T11:48:26Z</time>
      </trkpt>
      <trkpt lat="46.39363" lon="5.3298">
        <ele>222.6</ele>
        <time>2022-03-12T11:48:28Z</time>
      </trkpt>
      <trkpt lat="46.39367" lon="5.33002">
        <ele>222.4</ele>
        <time>2022-03-12T11:48:30Z</time>
      </trkpt>
      <trkpt lat="46.39369" lon="5.33014">
        <ele>222.2</ele>
        <time>2022-03-12T11:48:31Z</time>
      </trkpt>
      <trkpt lat="46.39369" lon="5.33036">
        <ele>222</ele>
        <time>2022-03-12T11:48:33Z</time>
      </trkpt>
      <trkpt lat="46.39365" lon="5.33055">
        <ele>221.6</ele>
        <time>2022-03-12T11:48:35Z</time>
      </trkpt>
      <trkpt lat="46.3936" lon="5.33066">
        <ele>221.4</ele>
        <time>2022-03-12T11:48:36Z</time>
      </trkpt>
      <trkpt lat="46.39355" lon="5.33074">
        <ele>221.4</ele>
        <time>2022-03-12T11:48:37Z</time>
      </trkpt>
      <trkpt lat="46.3935" lon="5.33082">
        <ele>221.4</ele>
        <time>2022-03-12T11:48:38Z</time>
      </trkpt>
      <trkpt lat="46.39332" lon="5.33104">
        <ele>221.2</ele>
        <time>2022-03-12T11:48:41Z</time>
      </trkpt>
      <trkpt lat="46.39288" lon="5.33161">
        <ele>221</ele>
        <time>2022-03-12T11:48:49Z</time>
      </trkpt>
      <trkpt lat="46.39279" lon="5.33175">
        <ele>221.4</ele>
        <time>2022-03-12T11:48:51Z</time>
      </trkpt>
      <trkpt lat="46.3925" lon="5.33225">
        <ele>221.8</ele>
        <time>2022-03-12T11:48:58Z</time>
      </trkpt>
      <trkpt lat="46.39231" lon="5.33254">
        <ele>222.4</ele>
        <time>2022-03-12T11:49:03Z</time>
      </trkpt>
      <trkpt lat="46.39224" lon="5.33264">
        <ele>222.8</ele>
        <time>2022-03-12T11:49:05Z</time>
      </trkpt>
      <trkpt lat="46.39211" lon="5.3328">
        <ele>224.2</ele>
        <time>2022-03-12T11:49:09Z</time>
      </trkpt>
      <trkpt lat="46.392" lon="5.33297">
        <ele>225.2</ele>
        <time>2022-03-12T11:49:13Z</time>
      </trkpt>
      <trkpt lat="46.39187" lon="5.33321">
        <ele>226.6</ele>
        <time>2022-03-12T11:49:18Z</time>
      </trkpt>
      <trkpt lat="46.39168" lon="5.33368">
        <ele>227.8</ele>
        <time>2022-03-12T11:49:26Z</time>
      </trkpt>
      <trkpt lat="46.39166" lon="5.33375">
        <ele>227.8</ele>
        <time>2022-03-12T11:49:27Z</time>
      </trkpt>
      <trkpt lat="46.3914" lon="5.33442">
        <ele>228.4</ele>
        <time>2022-03-12T11:49:37Z</time>
      </trkpt>
      <trkpt lat="46.3913" lon="5.3346">
        <ele>228.8</ele>
        <time>2022-03-12T11:49:40Z</time>
      </trkpt>
      <trkpt lat="46.39114" lon="5.33491">
        <ele>229.2</ele>
        <time>2022-03-12T11:49:45Z</time>
      </trkpt>
      <trkpt lat="46.39091" lon="5.33533">
        <ele>229.8</ele>
        <time>2022-03-12T11:49:52Z</time>
      </trkpt>
      <trkpt lat="46.39073" lon="5.33563">
        <ele>230.2</ele>
        <time>2022-03-12T11:49:57Z</time>
      </trkpt>
      <trkpt lat="46.39041" lon="5.3361">
        <ele>231</ele>
        <time>2022-03-12T11:50:06Z</time>
      </trkpt>
      <trkpt lat="46.39016" lon="5.33648">
        <ele>232</ele>
        <time>2022-03-12T11:50:13Z</time>
      </trkpt>
      <trkpt lat="46.38998" lon="5.33679">
        <ele>232.8</ele>
        <time>2022-03-12T11:50:19Z</time>
      </trkpt>
      <trkpt lat="46.38992" lon="5.33689">
        <ele>233.2</ele>
        <time>2022-03-12T11:50:21Z</time>
      </trkpt>
      <trkpt lat="46.38982" lon="5.33708">
        <ele>234.2</ele>
        <time>2022-03-12T11:50:25Z</time>
      </trkpt>
      <trkpt lat="46.3898" lon="5.33714">
        <ele>234.4</ele>
        <time>2022-03-12T11:50:26Z</time>
      </trkpt>
      <trkpt lat="46.3897" lon="5.33738">
        <ele>235.2</ele>
        <time>2022-03-12T11:50:31Z</time>
      </trkpt>
      <trkpt lat="46.38955" lon="5.33768">
        <ele>236.2</ele>
        <time>2022-03-12T11:50:37Z</time>
      </trkpt>
      <trkpt lat="46.38952" lon="5.33773">
        <ele>236.6</ele>
        <time>2022-03-12T11:50:38Z</time>
      </trkpt>
      <trkpt lat="46.3894" lon="5.33795">
        <ele>237.8</ele>
        <time>2022-03-12T11:50:43Z</time>
      </trkpt>
      <trkpt lat="46.38925" lon="5.33819">
        <ele>239</ele>
        <time>2022-03-12T11:50:49Z</time>
      </trkpt>
      <trkpt lat="46.38919" lon="5.33828">
        <ele>239.6</ele>
        <time>2022-03-12T11:50:51Z</time>
      </trkpt>
      <trkpt lat="46.38913" lon="5.33836">
        <ele>240</ele>
        <time>2022-03-12T11:50:53Z</time>
      </trkpt>
      <trkpt lat="46.38897" lon="5.33861">
        <ele>241.2</ele>
        <time>2022-03-12T11:50:59Z</time>
      </trkpt>
      <trkpt lat="46.38889" lon="5.33872">
        <ele>241.4</ele>
        <time>2022-03-12T11:51:02Z</time>
      </trkpt>
      <trkpt lat="46.38878" lon="5.33888">
        <ele>242.4</ele>
        <time>2022-03-12T11:51:06Z</time>
      </trkpt>
      <trkpt lat="46.38866" lon="5.33907">
        <ele>243.4</ele>
        <time>2022-03-12T11:51:11Z</time>
      </trkpt>
      <trkpt lat="46.38862" lon="5.33914">
        <ele>243.6</ele>
        <time>2022-03-12T11:51:13Z</time>
      </trkpt>
      <trkpt lat="46.38854" lon="5.3393">
        <ele>244.6</ele>
        <time>2022-03-12T11:51:17Z</time>
      </trkpt>
      <trkpt lat="46.38847" lon="5.33943">
        <ele>245.4</ele>
        <time>2022-03-12T11:51:20Z</time>
      </trkpt>
      <trkpt lat="46.38843" lon="5.33951">
        <ele>245.8</ele>
        <time>2022-03-12T11:51:22Z</time>
      </trkpt>
      <trkpt lat="46.38832" lon="5.33971">
        <ele>247</ele>
        <time>2022-03-12T11:51:27Z</time>
      </trkpt>
      <trkpt lat="46.38828" lon="5.33979">
        <ele>247.4</ele>
        <time>2022-03-12T11:51:29Z</time>
      </trkpt>
      <trkpt lat="46.38821" lon="5.33993">
        <ele>248.2</ele>
        <time>2022-03-12T11:51:33Z</time>
      </trkpt>
      <trkpt lat="46.38811" lon="5.34013">
        <ele>249.2</ele>
        <time>2022-03-12T11:51:38Z</time>
      </trkpt>
      <trkpt lat="46.388" lon="5.34034">
        <ele>250.2</ele>
        <time>2022-03-12T11:51:43Z</time>
      </trkpt>
      <trkpt lat="46.38789" lon="5.34054">
        <ele>250.8</ele>
        <time>2022-03-12T11:51:48Z</time>
      </trkpt>
      <trkpt lat="46.38782" lon="5.34067">
        <ele>251.2</ele>
        <time>2022-03-12T11:51:51Z</time>
      </trkpt>
      <trkpt lat="46.3876" lon="5.34105">
        <ele>252.2</ele>
        <time>2022-03-12T11:52:00Z</time>
      </trkpt>
      <trkpt lat="46.38746" lon="5.3413">
        <ele>253.4</ele>
        <time>2022-03-12T11:52:06Z</time>
      </trkpt>
      <trkpt lat="46.38739" lon="5.34141">
        <ele>254</ele>
        <time>2022-03-12T11:52:09Z</time>
      </trkpt>
      <trkpt lat="46.38733" lon="5.34158">
        <ele>254.6</ele>
        <time>2022-03-12T11:52:13Z</time>
      </trkpt>
      <trkpt lat="46.38728" lon="5.34172">
        <ele>255</ele>
        <time>2022-03-12T11:52:16Z</time>
      </trkpt>
      <trkpt lat="46.38725" lon="5.34184">
        <ele>255.8</ele>
        <time>2022-03-12T11:52:19Z</time>
      </trkpt>
      <trkpt lat="46.3872" lon="5.34201">
        <ele>256.8</ele>
        <time>2022-03-12T11:52:23Z</time>
      </trkpt>
      <trkpt lat="46.38718" lon="5.34205">
        <ele>257.2</ele>
        <time>2022-03-12T11:52:24Z</time>
      </trkpt>
      <trkpt lat="46.38704" lon="5.34227">
        <ele>258</ele>
        <time>2022-03-12T11:52:30Z</time>
      </trkpt>
      <trkpt lat="46.38701" lon="5.34231">
        <ele>258.4</ele>
        <time>2022-03-12T11:52:31Z</time>
      </trkpt>
      <trkpt lat="46.38687" lon="5.34244">
        <ele>259.4</ele>
        <time>2022-03-12T11:52:36Z</time>
      </trkpt>
      <trkpt lat="46.38678" lon="5.34249">
        <ele>260.2</ele>
        <time>2022-03-12T11:52:39Z</time>
      </trkpt>
      <trkpt lat="46.38675" lon="5.34251">
        <ele>260.4</ele>
        <time>2022-03-12T11:52:40Z</time>
      </trkpt>
      <trkpt lat="46.3866" lon="5.34261">
        <ele>261.6</ele>
        <time>2022-03-12T11:52:45Z</time>
      </trkpt>
      <trkpt lat="46.38642" lon="5.3427">
        <ele>262.8</ele>
        <time>2022-03-12T11:52:51Z</time>
      </trkpt>
      <trkpt lat="46.38639" lon="5.34272">
        <ele>263.2</ele>
        <time>2022-03-12T11:52:52Z</time>
      </trkpt>
      <trkpt lat="46.38627" lon="5.34278">
        <ele>264</ele>
        <time>2022-03-12T11:52:56Z</time>
      </trkpt>
      <trkpt lat="46.38615" lon="5.34283">
        <ele>265.2</ele>
        <time>2022-03-12T11:53:00Z</time>
      </trkpt>
      <trkpt lat="46.386" lon="5.34293">
        <ele>266.4</ele>
        <time>2022-03-12T11:53:05Z</time>
      </trkpt>
      <trkpt lat="46.38588" lon="5.34299">
        <ele>267</ele>
        <time>2022-03-12T11:53:09Z</time>
      </trkpt>
      <trkpt lat="46.38585" lon="5.34301">
        <ele>267.4</ele>
        <time>2022-03-12T11:53:10Z</time>
      </trkpt>
      <trkpt lat="46.38571" lon="5.34308">
        <ele>268.4</ele>
        <time>2022-03-12T11:53:15Z</time>
      </trkpt>
      <trkpt lat="46.3856" lon="5.34314">
        <ele>269.4</ele>
        <time>2022-03-12T11:53:19Z</time>
      </trkpt>
      <trkpt lat="46.38557" lon="5.34316">
        <ele>269.8</ele>
        <time>2022-03-12T11:53:20Z</time>
      </trkpt>
      <trkpt lat="46.38546" lon="5.34322">
        <ele>270.6</ele>
        <time>2022-03-12T11:53:24Z</time>
      </trkpt>
      <trkpt lat="46.38532" lon="5.3433">
        <ele>271.4</ele>
        <time>2022-03-12T11:53:29Z</time>
      </trkpt>
      <trkpt lat="46.38529" lon="5.34332">
        <ele>271.8</ele>
        <time>2022-03-12T11:53:30Z</time>
      </trkpt>
      <trkpt lat="46.38515" lon="5.34339">
        <ele>272.8</ele>
        <time>2022-03-12T11:53:35Z</time>
      </trkpt>
      <trkpt lat="46.38506" lon="5.34345">
        <ele>273.4</ele>
        <time>2022-03-12T11:53:38Z</time>
      </trkpt>
      <trkpt lat="46.38498" lon="5.34351">
        <ele>274</ele>
        <time>2022-03-12T11:53:41Z</time>
      </trkpt>
      <trkpt lat="46.38484" lon="5.3436">
        <ele>275.2</ele>
        <time>2022-03-12T11:53:46Z</time>
      </trkpt>
      <trkpt lat="46.38478" lon="5.34362">
        <ele>275.4</ele>
        <time>2022-03-12T11:53:48Z</time>
      </trkpt>
      <trkpt lat="46.3847" lon="5.34366">
        <ele>276.2</ele>
        <time>2022-03-12T11:53:51Z</time>
      </trkpt>
      <trkpt lat="46.3845" lon="5.34381">
        <ele>277.4</ele>
        <time>2022-03-12T11:53:58Z</time>
      </trkpt>
      <trkpt lat="46.38447" lon="5.34383">
        <ele>277.4</ele>
        <time>2022-03-12T11:53:59Z</time>
      </trkpt>
      <trkpt lat="46.38437" lon="5.34399">
        <ele>278.4</ele>
        <time>2022-03-12T11:54:04Z</time>
      </trkpt>
      <trkpt lat="46.38436" lon="5.34404">
        <ele>278.8</ele>
        <time>2022-03-12T11:54:05Z</time>
      </trkpt>
      <trkpt lat="46.38434" lon="5.34423">
        <ele>279.6</ele>
        <time>2022-03-12T11:54:09Z</time>
      </trkpt>
      <trkpt lat="46.38435" lon="5.34437">
        <ele>280.2</ele>
        <time>2022-03-12T11:54:12Z</time>
      </trkpt>
      <trkpt lat="46.38436" lon="5.34445">
        <ele>280.6</ele>
        <time>2022-03-12T11:54:14Z</time>
      </trkpt>
      <trkpt lat="46.3844" lon="5.34461">
        <ele>281.6</ele>
        <time>2022-03-12T11:54:18Z</time>
      </trkpt>
      <trkpt lat="46.38448" lon="5.34481">
        <ele>282.8</ele>
        <time>2022-03-12T11:54:23Z</time>
      </trkpt>
      <trkpt lat="46.38452" lon="5.34489">
        <ele>283</ele>
        <time>2022-03-12T11:54:25Z</time>
      </trkpt>
      <trkpt lat="46.38458" lon="5.34505">
        <ele>283.8</ele>
        <time>2022-03-12T11:54:29Z</time>
      </trkpt>
      <trkpt lat="46.3846" lon="5.34513">
        <ele>284</ele>
        <time>2022-03-12T11:54:31Z</time>
      </trkpt>
      <trkpt lat="46.38462" lon="5.3452">
        <ele>284.6</ele>
        <time>2022-03-12T11:54:33Z</time>
      </trkpt>
      <trkpt lat="46.38464" lon="5.34525">
        <ele>284.8</ele>
        <time>2022-03-12T11:54:34Z</time>
      </trkpt>
      <trkpt lat="46.38465" lon="5.34528">
        <ele>285.2</ele>
        <time>2022-03-12T11:54:35Z</time>
      </trkpt>
      <trkpt lat="46.38474" lon="5.34548">
        <ele>286</ele>
        <time>2022-03-12T11:54:41Z</time>
      </trkpt>
      <trkpt lat="46.38476" lon="5.34553">
        <ele>286.4</ele>
        <time>2022-03-12T11:54:42Z</time>
      </trkpt>
      <trkpt lat="46.38479" lon="5.34561">
        <ele>287.2</ele>
        <time>2022-03-12T11:54:44Z</time>
      </trkpt>
      <trkpt lat="46.38479" lon="5.34572">
        <ele>287.6</ele>
        <time>2022-03-12T11:54:47Z</time>
      </trkpt>
      <trkpt lat="46.3847" lon="5.34578">
        <ele>288</ele>
        <time>2022-03-12T11:54:50Z</time>
      </trkpt>
      <trkpt lat="46.38466" lon="5.34578">
        <ele>288.4</ele>
        <time>2022-03-12T11:54:51Z</time>
      </trkpt>
      <trkpt lat="46.38456" lon="5.34577">
        <ele>289.2</ele>
        <time>2022-03-12T11:54:54Z</time>
      </trkpt>
      <trkpt lat="46.38443" lon="5.34577">
        <ele>289.6</ele>
        <time>2022-03-12T11:54:58Z</time>
      </trkpt>
      <trkpt lat="46.38437" lon="5.34578">
        <ele>290</ele>
        <time>2022-03-12T11:55:00Z</time>
      </trkpt>
      <trkpt lat="46.38423" lon="5.34586">
        <ele>290.6</ele>
        <time>2022-03-12T11:55:04Z</time>
      </trkpt>
      <trkpt lat="46.38419" lon="5.3459">
        <ele>290.8</ele>
        <time>2022-03-12T11:55:05Z</time>
      </trkpt>
      <trkpt lat="46.3841" lon="5.34615">
        <ele>291.6</ele>
        <time>2022-03-12T11:55:10Z</time>
      </trkpt>
      <trkpt lat="46.38406" lon="5.34628">
        <ele>292.8</ele>
        <time>2022-03-12T11:55:14Z</time>
      </trkpt>
      <trkpt lat="46.38405" lon="5.34632">
        <ele>293</ele>
        <time>2022-03-12T11:55:15Z</time>
      </trkpt>
      <trkpt lat="46.38399" lon="5.34644">
        <ele>294.2</ele>
        <time>2022-03-12T11:55:18Z</time>
      </trkpt>
      <trkpt lat="46.3839" lon="5.34654">
        <ele>295.2</ele>
        <time>2022-03-12T11:55:21Z</time>
      </trkpt>
      <trkpt lat="46.38379" lon="5.34669">
        <ele>296.2</ele>
        <time>2022-03-12T11:55:26Z</time>
      </trkpt>
      <trkpt lat="46.38377" lon="5.34669">
        <ele>296.6</ele>
        <time>2022-03-12T11:55:27Z</time>
      </trkpt>
      <trkpt lat="46.38365" lon="5.34668">
        <ele>297.6</ele>
        <time>2022-03-12T11:55:30Z</time>
      </trkpt>
      <trkpt lat="46.38358" lon="5.34668">
        <ele>298.4</ele>
        <time>2022-03-12T11:55:32Z</time>
      </trkpt>
      <trkpt lat="46.38351" lon="5.34664">
        <ele>298.8</ele>
        <time>2022-03-12T11:55:34Z</time>
      </trkpt>
      <trkpt lat="46.38343" lon="5.34655">
        <ele>298.8</ele>
        <time>2022-03-12T11:55:36Z</time>
      </trkpt>
      <trkpt lat="46.38339" lon="5.34652">
        <ele>298.8</ele>
        <time>2022-03-12T11:55:37Z</time>
      </trkpt>
      <trkpt lat="46.38328" lon="5.34653">
        <ele>299</ele>
        <time>2022-03-12T11:55:39Z</time>
      </trkpt>
      <trkpt lat="46.3832" lon="5.3466">
        <ele>299</ele>
        <time>2022-03-12T11:55:41Z</time>
      </trkpt>
      <trkpt lat="46.38317" lon="5.34663">
        <ele>299</ele>
        <time>2022-03-12T11:55:42Z</time>
      </trkpt>
      <trkpt lat="46.3831" lon="5.34671">
        <ele>299.2</ele>
        <time>2022-03-12T11:55:44Z</time>
      </trkpt>
      <trkpt lat="46.38301" lon="5.34675">
        <ele>299.2</ele>
        <time>2022-03-12T11:55:46Z</time>
      </trkpt>
      <trkpt lat="46.38277" lon="5.34683">
        <ele>300</ele>
        <time>2022-03-12T11:55:51Z</time>
      </trkpt>
      <trkpt lat="46.38261" lon="5.34689">
        <ele>300</ele>
        <time>2022-03-12T11:55:54Z</time>
      </trkpt>
      <trkpt lat="46.38208" lon="5.34706">
        <ele>300</ele>
        <time>2022-03-12T11:56:04Z</time>
      </trkpt>
      <trkpt lat="46.38165" lon="5.34721">
        <ele>299.8</ele>
        <time>2022-03-12T11:56:12Z</time>
      </trkpt>
      <trkpt lat="46.38143" lon="5.34731">
        <ele>299.6</ele>
        <time>2022-03-12T11:56:17Z</time>
      </trkpt>
      <trkpt lat="46.38141" lon="5.34741">
        <ele>299.6</ele>
        <time>2022-03-12T11:56:19Z</time>
      </trkpt>
      <trkpt lat="46.38142" lon="5.34746">
        <ele>299.4</ele>
        <time>2022-03-12T11:56:20Z</time>
      </trkpt>
      <trkpt lat="46.38144" lon="5.34752">
        <ele>299.4</ele>
        <time>2022-03-12T11:56:21Z</time>
      </trkpt>
      <trkpt lat="46.38155" lon="5.3478">
        <ele>299.6</ele>
        <time>2022-03-12T11:56:26Z</time>
      </trkpt>
      <trkpt lat="46.38168" lon="5.34807">
        <ele>300.2</ele>
        <time>2022-03-12T11:56:31Z</time>
      </trkpt>
      <trkpt lat="46.38173" lon="5.34816">
        <ele>300.6</ele>
        <time>2022-03-12T11:56:33Z</time>
      </trkpt>
      <trkpt lat="46.38176" lon="5.34821">
        <ele>300.8</ele>
        <time>2022-03-12T11:56:34Z</time>
      </trkpt>
      <trkpt lat="46.38178" lon="5.34828">
        <ele>300.8</ele>
        <time>2022-03-12T11:56:35Z</time>
      </trkpt>
      <trkpt lat="46.3818" lon="5.3484">
        <ele>301.2</ele>
        <time>2022-03-12T11:56:37Z</time>
      </trkpt>
      <trkpt lat="46.3818" lon="5.34847">
        <ele>301.4</ele>
        <time>2022-03-12T11:56:38Z</time>
      </trkpt>
      <trkpt lat="46.38178" lon="5.34859">
        <ele>301.8</ele>
        <time>2022-03-12T11:56:40Z</time>
      </trkpt>
      <trkpt lat="46.38178" lon="5.34865">
        <ele>302.4</ele>
        <time>2022-03-12T11:56:41Z</time>
      </trkpt>
      <trkpt lat="46.38176" lon="5.3488">
        <ele>303</ele>
        <time>2022-03-12T11:56:43Z</time>
      </trkpt>
      <trkpt lat="46.38176" lon="5.34922">
        <ele>304</ele>
        <time>2022-03-12T11:56:49Z</time>
      </trkpt>
      <trkpt lat="46.38176" lon="5.3493">
        <ele>304.2</ele>
        <time>2022-03-12T11:56:50Z</time>
      </trkpt>
      <trkpt lat="46.38172" lon="5.34988">
        <ele>304.6</ele>
        <time>2022-03-12T11:56:58Z</time>
      </trkpt>
      <trkpt lat="46.38168" lon="5.35042">
        <ele>305</ele>
        <time>2022-03-12T11:57:05Z</time>
      </trkpt>
      <trkpt lat="46.38161" lon="5.35053">
        <ele>305.2</ele>
        <time>2022-03-12T11:57:07Z</time>
      </trkpt>
      <trkpt lat="46.38153" lon="5.35062">
        <ele>305.2</ele>
        <time>2022-03-12T11:57:09Z</time>
      </trkpt>
      <trkpt lat="46.38149" lon="5.35066">
        <ele>305.2</ele>
        <time>2022-03-12T11:57:10Z</time>
      </trkpt>
      <trkpt lat="46.38134" lon="5.35074">
        <ele>305.2</ele>
        <time>2022-03-12T11:57:13Z</time>
      </trkpt>
      <trkpt lat="46.38128" lon="5.35075">
        <ele>305.4</ele>
        <time>2022-03-12T11:57:14Z</time>
      </trkpt>
      <trkpt lat="46.38096" lon="5.35072">
        <ele>305.6</ele>
        <time>2022-03-12T11:57:20Z</time>
      </trkpt>
      <trkpt lat="46.38091" lon="5.3507">
        <ele>305.6</ele>
        <time>2022-03-12T11:57:21Z</time>
      </trkpt>
      <trkpt lat="46.38067" lon="5.35055">
        <ele>306.2</ele>
        <time>2022-03-12T11:57:26Z</time>
      </trkpt>
      <trkpt lat="46.38064" lon="5.35052">
        <ele>306.2</ele>
        <time>2022-03-12T11:57:27Z</time>
      </trkpt>
      <trkpt lat="46.38061" lon="5.35048">
        <ele>306.4</ele>
        <time>2022-03-12T11:57:28Z</time>
      </trkpt>
      <trkpt lat="46.38058" lon="5.35043">
        <ele>306.6</ele>
        <time>2022-03-12T11:57:29Z</time>
      </trkpt>
      <trkpt lat="46.38056" lon="5.35039">
        <ele>306.8</ele>
        <time>2022-03-12T11:57:30Z</time>
      </trkpt>
      <trkpt lat="46.38054" lon="5.35034">
        <ele>306.8</ele>
        <time>2022-03-12T11:57:31Z</time>
      </trkpt>
      <trkpt lat="46.38044" lon="5.35023">
        <ele>307.4</ele>
        <time>2022-03-12T11:57:34Z</time>
      </trkpt>
      <trkpt lat="46.38041" lon="5.35021">
        <ele>307.6</ele>
        <time>2022-03-12T11:57:35Z</time>
      </trkpt>
      <trkpt lat="46.38028" lon="5.35016">
        <ele>308.6</ele>
        <time>2022-03-12T11:57:39Z</time>
      </trkpt>
      <trkpt lat="46.38018" lon="5.35014">
        <ele>309.6</ele>
        <time>2022-03-12T11:57:42Z</time>
      </trkpt>
      <trkpt lat="46.38009" lon="5.35012">
        <ele>310.8</ele>
        <time>2022-03-12T11:57:45Z</time>
      </trkpt>
      <trkpt lat="46.38002" lon="5.3501">
        <ele>311.2</ele>
        <time>2022-03-12T11:57:47Z</time>
      </trkpt>
      <trkpt lat="46.37987" lon="5.35007">
        <ele>312</ele>
        <time>2022-03-12T11:57:51Z</time>
      </trkpt>
      <trkpt lat="46.37974" lon="5.35005">
        <ele>313</ele>
        <time>2022-03-12T11:57:54Z</time>
      </trkpt>
      <trkpt lat="46.3797" lon="5.35005">
        <ele>313</ele>
        <time>2022-03-12T11:57:55Z</time>
      </trkpt>
      <trkpt lat="46.37939" lon="5.34999">
        <ele>313.4</ele>
        <time>2022-03-12T11:58:02Z</time>
      </trkpt>
      <trkpt lat="46.37921" lon="5.34995">
        <ele>313.2</ele>
        <time>2022-03-12T11:58:05Z</time>
      </trkpt>
      <trkpt lat="46.3791" lon="5.34996">
        <ele>312.8</ele>
        <time>2022-03-12T11:58:07Z</time>
      </trkpt>
      <trkpt lat="46.37896" lon="5.35">
        <ele>312.4</ele>
        <time>2022-03-12T11:58:09Z</time>
      </trkpt>
      <trkpt lat="46.37884" lon="5.35008">
        <ele>312</ele>
        <time>2022-03-12T11:58:11Z</time>
      </trkpt>
      <trkpt lat="46.37878" lon="5.35012">
        <ele>311.8</ele>
        <time>2022-03-12T11:58:12Z</time>
      </trkpt>
      <trkpt lat="46.37861" lon="5.35024">
        <ele>311</ele>
        <time>2022-03-12T11:58:15Z</time>
      </trkpt>
      <trkpt lat="46.37848" lon="5.35032">
        <ele>310.4</ele>
        <time>2022-03-12T11:58:18Z</time>
      </trkpt>
      <trkpt lat="46.37841" lon="5.3504">
        <ele>310</ele>
        <time>2022-03-12T11:58:20Z</time>
      </trkpt>
      <trkpt lat="46.37835" lon="5.35049">
        <ele>309.8</ele>
        <time>2022-03-12T11:58:22Z</time>
      </trkpt>
      <trkpt lat="46.37818" lon="5.35098">
        <ele>310.8</ele>
        <time>2022-03-12T11:58:31Z</time>
      </trkpt>
      <trkpt lat="46.37817" lon="5.35104">
        <ele>311.2</ele>
        <time>2022-03-12T11:58:32Z</time>
      </trkpt>
      <trkpt lat="46.37813" lon="5.35125">
        <ele>312.2</ele>
        <time>2022-03-12T11:58:36Z</time>
      </trkpt>
      <trkpt lat="46.37812" lon="5.3513">
        <ele>312.4</ele>
        <time>2022-03-12T11:58:37Z</time>
      </trkpt>
      <trkpt lat="46.37808" lon="5.3515">
        <ele>313.2</ele>
        <time>2022-03-12T11:58:41Z</time>
      </trkpt>
      <trkpt lat="46.378" lon="5.35178">
        <ele>314.4</ele>
        <time>2022-03-12T11:58:46Z</time>
      </trkpt>
      <trkpt lat="46.37792" lon="5.352">
        <ele>315.6</ele>
        <time>2022-03-12T11:58:50Z</time>
      </trkpt>
      <trkpt lat="46.37787" lon="5.3521">
        <ele>315.8</ele>
        <time>2022-03-12T11:58:52Z</time>
      </trkpt>
      <trkpt lat="46.37781" lon="5.35224">
        <ele>316.8</ele>
        <time>2022-03-12T11:58:55Z</time>
      </trkpt>
      <trkpt lat="46.37775" lon="5.35243">
        <ele>317.8</ele>
        <time>2022-03-12T11:58:59Z</time>
      </trkpt>
      <trkpt lat="46.37774" lon="5.35249">
        <ele>317.8</ele>
        <time>2022-03-12T11:59:00Z</time>
      </trkpt>
      <trkpt lat="46.37779" lon="5.3527">
        <ele>319</ele>
        <time>2022-03-12T11:59:04Z</time>
      </trkpt>
      <trkpt lat="46.37789" lon="5.35308">
        <ele>320</ele>
        <time>2022-03-12T11:59:11Z</time>
      </trkpt>
      <trkpt lat="46.37791" lon="5.35316">
        <ele>320.2</ele>
        <time>2022-03-12T11:59:13Z</time>
      </trkpt>
      <trkpt lat="46.37794" lon="5.35343">
        <ele>321.2</ele>
        <time>2022-03-12T11:59:18Z</time>
      </trkpt>
      <trkpt lat="46.37793" lon="5.35348">
        <ele>321.4</ele>
        <time>2022-03-12T11:59:19Z</time>
      </trkpt>
      <trkpt lat="46.37785" lon="5.35374">
        <ele>322.2</ele>
        <time>2022-03-12T11:59:25Z</time>
      </trkpt>
      <trkpt lat="46.37774" lon="5.35387">
        <ele>323.4</ele>
        <time>2022-03-12T11:59:29Z</time>
      </trkpt>
      <trkpt lat="46.37771" lon="5.35389">
        <ele>323.6</ele>
        <time>2022-03-12T11:59:30Z</time>
      </trkpt>
      <trkpt lat="46.37756" lon="5.35389">
        <ele>324.4</ele>
        <time>2022-03-12T11:59:34Z</time>
      </trkpt>
      <trkpt lat="46.37737" lon="5.35376">
        <ele>325.6</ele>
        <time>2022-03-12T11:59:40Z</time>
      </trkpt>
      <trkpt lat="46.37723" lon="5.35375">
        <ele>326.6</ele>
        <time>2022-03-12T11:59:44Z</time>
      </trkpt>
      <trkpt lat="46.37721" lon="5.35377">
        <ele>326.8</ele>
        <time>2022-03-12T11:59:45Z</time>
      </trkpt>
      <trkpt lat="46.3771" lon="5.35389">
        <ele>327.6</ele>
        <time>2022-03-12T11:59:49Z</time>
      </trkpt>
      <trkpt lat="46.37706" lon="5.35411">
        <ele>328.6</ele>
        <time>2022-03-12T11:59:54Z</time>
      </trkpt>
      <trkpt lat="46.37706" lon="5.35416">
        <ele>328.8</ele>
        <time>2022-03-12T11:59:55Z</time>
      </trkpt>
      <trkpt lat="46.37708" lon="5.35447">
        <ele>330</ele>
        <time>2022-03-12T12:00:01Z</time>
      </trkpt>
      <trkpt lat="46.37709" lon="5.35462">
        <ele>330.4</ele>
        <time>2022-03-12T12:00:04Z</time>
      </trkpt>
      <trkpt lat="46.3771" lon="5.35482">
        <ele>331.2</ele>
        <time>2022-03-12T12:00:08Z</time>
      </trkpt>
      <trkpt lat="46.37708" lon="5.3551">
        <ele>332.2</ele>
        <time>2022-03-12T12:00:13Z</time>
      </trkpt>
      <trkpt lat="46.37698" lon="5.35537">
        <ele>333.6</ele>
        <time>2022-03-12T12:00:19Z</time>
      </trkpt>
      <trkpt lat="46.37696" lon="5.35542">
        <ele>333.8</ele>
        <time>2022-03-12T12:00:20Z</time>
      </trkpt>
      <trkpt lat="46.37686" lon="5.35557">
        <ele>334.6</ele>
        <time>2022-03-12T12:00:24Z</time>
      </trkpt>
      <trkpt lat="46.37678" lon="5.35567">
        <ele>335.2</ele>
        <time>2022-03-12T12:00:27Z</time>
      </trkpt>
      <trkpt lat="46.37672" lon="5.35572">
        <ele>335.6</ele>
        <time>2022-03-12T12:00:29Z</time>
      </trkpt>
      <trkpt lat="46.37655" lon="5.35581">
        <ele>336.6</ele>
        <time>2022-03-12T12:00:34Z</time>
      </trkpt>
      <trkpt lat="46.37648" lon="5.35584">
        <ele>336.8</ele>
        <time>2022-03-12T12:00:36Z</time>
      </trkpt>
      <trkpt lat="46.37629" lon="5.35591">
        <ele>338</ele>
        <time>2022-03-12T12:00:42Z</time>
      </trkpt>
      <trkpt lat="46.37623" lon="5.35593">
        <ele>338.2</ele>
        <time>2022-03-12T12:00:44Z</time>
      </trkpt>
      <trkpt lat="46.37609" lon="5.35597">
        <ele>339</ele>
        <time>2022-03-12T12:00:48Z</time>
      </trkpt>
      <trkpt lat="46.37589" lon="5.35604">
        <ele>340.4</ele>
        <time>2022-03-12T12:00:54Z</time>
      </trkpt>
      <trkpt lat="46.37586" lon="5.35607">
        <ele>340.4</ele>
        <time>2022-03-12T12:00:55Z</time>
      </trkpt>
      <trkpt lat="46.37573" lon="5.35623">
        <ele>341.4</ele>
        <time>2022-03-12T12:01:00Z</time>
      </trkpt>
      <trkpt lat="46.37572" lon="5.35626">
        <ele>341.6</ele>
        <time>2022-03-12T12:01:01Z</time>
      </trkpt>
      <trkpt lat="46.37564" lon="5.35643">
        <ele>342.4</ele>
        <time>2022-03-12T12:01:05Z</time>
      </trkpt>
      <trkpt lat="46.37554" lon="5.35665">
        <ele>343.6</ele>
        <time>2022-03-12T12:01:10Z</time>
      </trkpt>
      <trkpt lat="46.37547" lon="5.35685">
        <ele>344.6</ele>
        <time>2022-03-12T12:01:14Z</time>
      </trkpt>
      <trkpt lat="46.37537" lon="5.35713">
        <ele>345.4</ele>
        <time>2022-03-12T12:01:20Z</time>
      </trkpt>
      <trkpt lat="46.37535" lon="5.35717">
        <ele>345.6</ele>
        <time>2022-03-12T12:01:21Z</time>
      </trkpt>
      <trkpt lat="46.37525" lon="5.35744">
        <ele>346.6</ele>
        <time>2022-03-12T12:01:27Z</time>
      </trkpt>
      <trkpt lat="46.37524" lon="5.35747">
        <ele>347</ele>
        <time>2022-03-12T12:01:28Z</time>
      </trkpt>
      <trkpt lat="46.37521" lon="5.35755">
        <ele>347.6</ele>
        <time>2022-03-12T12:01:30Z</time>
      </trkpt>
      <trkpt lat="46.37508" lon="5.35779">
        <ele>348.6</ele>
        <time>2022-03-12T12:01:36Z</time>
      </trkpt>
      <trkpt lat="46.37503" lon="5.35786">
        <ele>349.2</ele>
        <time>2022-03-12T12:01:38Z</time>
      </trkpt>
      <trkpt lat="46.37491" lon="5.358">
        <ele>349.8</ele>
        <time>2022-03-12T12:01:42Z</time>
      </trkpt>
      <trkpt lat="46.37483" lon="5.35808">
        <ele>350.2</ele>
        <time>2022-03-12T12:01:45Z</time>
      </trkpt>
      <trkpt lat="46.37476" lon="5.35813">
        <ele>351</ele>
        <time>2022-03-12T12:01:47Z</time>
      </trkpt>
      <trkpt lat="46.37456" lon="5.35829">
        <ele>352.2</ele>
        <time>2022-03-12T12:01:54Z</time>
      </trkpt>
      <trkpt lat="46.37437" lon="5.35842">
        <ele>353.4</ele>
        <time>2022-03-12T12:02:00Z</time>
      </trkpt>
      <trkpt lat="46.37418" lon="5.35854">
        <ele>354.4</ele>
        <time>2022-03-12T12:02:06Z</time>
      </trkpt>
      <trkpt lat="46.37399" lon="5.35866">
        <ele>355.4</ele>
        <time>2022-03-12T12:02:12Z</time>
      </trkpt>
      <trkpt lat="46.37389" lon="5.35875">
        <ele>356</ele>
        <time>2022-03-12T12:02:15Z</time>
      </trkpt>
      <trkpt lat="46.37386" lon="5.35878">
        <ele>356.6</ele>
        <time>2022-03-12T12:02:16Z</time>
      </trkpt>
      <trkpt lat="46.3737" lon="5.359">
        <ele>357.6</ele>
        <time>2022-03-12T12:02:22Z</time>
      </trkpt>
      <trkpt lat="46.37364" lon="5.35923">
        <ele>358.6</ele>
        <time>2022-03-12T12:02:27Z</time>
      </trkpt>
      <trkpt lat="46.37362" lon="5.35929">
        <ele>359</ele>
        <time>2022-03-12T12:02:28Z</time>
      </trkpt>
      <trkpt lat="46.37359" lon="5.35951">
        <ele>360</ele>
        <time>2022-03-12T12:02:32Z</time>
      </trkpt>
      <trkpt lat="46.37354" lon="5.35977">
        <ele>360.6</ele>
        <time>2022-03-12T12:02:37Z</time>
      </trkpt>
      <trkpt lat="46.37351" lon="5.35989">
        <ele>361</ele>
        <time>2022-03-12T12:02:39Z</time>
      </trkpt>
      <trkpt lat="46.37338" lon="5.36022">
        <ele>362.2</ele>
        <time>2022-03-12T12:02:46Z</time>
      </trkpt>
      <trkpt lat="46.37332" lon="5.36026">
        <ele>362.6</ele>
        <time>2022-03-12T12:02:48Z</time>
      </trkpt>
      <trkpt lat="46.37329" lon="5.36026">
        <ele>363</ele>
        <time>2022-03-12T12:02:49Z</time>
      </trkpt>
      <trkpt lat="46.37325" lon="5.36024">
        <ele>363</ele>
        <time>2022-03-12T12:02:50Z</time>
      </trkpt>
      <trkpt lat="46.37322" lon="5.36022">
        <ele>363.2</ele>
        <time>2022-03-12T12:02:51Z</time>
      </trkpt>
      <trkpt lat="46.37318" lon="5.36016">
        <ele>363.6</ele>
        <time>2022-03-12T12:02:53Z</time>
      </trkpt>
      <trkpt lat="46.37314" lon="5.3601">
        <ele>364.2</ele>
        <time>2022-03-12T12:02:55Z</time>
      </trkpt>
      <trkpt lat="46.37307" lon="5.36002">
        <ele>365.4</ele>
        <time>2022-03-12T12:02:58Z</time>
      </trkpt>
      <trkpt lat="46.37304" lon="5.35999">
        <ele>365.6</ele>
        <time>2022-03-12T12:02:59Z</time>
      </trkpt>
      <trkpt lat="46.3729" lon="5.35995">
        <ele>366.6</ele>
        <time>2022-03-12T12:03:03Z</time>
      </trkpt>
      <trkpt lat="46.37287" lon="5.35996">
        <ele>367</ele>
        <time>2022-03-12T12:03:04Z</time>
      </trkpt>
      <trkpt lat="46.37276" lon="5.35999">
        <ele>367.6</ele>
        <time>2022-03-12T12:03:07Z</time>
      </trkpt>
      <trkpt lat="46.37267" lon="5.36006">
        <ele>368.4</ele>
        <time>2022-03-12T12:03:10Z</time>
      </trkpt>
      <trkpt lat="46.37262" lon="5.36012">
        <ele>369</ele>
        <time>2022-03-12T12:03:12Z</time>
      </trkpt>
      <trkpt lat="46.37246" lon="5.36028">
        <ele>370</ele>
        <time>2022-03-12T12:03:18Z</time>
      </trkpt>
      <trkpt lat="46.37243" lon="5.36031">
        <ele>370.2</ele>
        <time>2022-03-12T12:03:19Z</time>
      </trkpt>
      <trkpt lat="46.37229" lon="5.36047">
        <ele>370.8</ele>
        <time>2022-03-12T12:03:24Z</time>
      </trkpt>
      <trkpt lat="46.37218" lon="5.36055">
        <ele>371.4</ele>
        <time>2022-03-12T12:03:27Z</time>
      </trkpt>
      <trkpt lat="46.37209" lon="5.36059">
        <ele>371.8</ele>
        <time>2022-03-12T12:03:30Z</time>
      </trkpt>
      <trkpt lat="46.37198" lon="5.36064">
        <ele>372.6</ele>
        <time>2022-03-12T12:03:34Z</time>
      </trkpt>
      <trkpt lat="46.37193" lon="5.36066">
        <ele>373.2</ele>
        <time>2022-03-12T12:03:36Z</time>
      </trkpt>
      <trkpt lat="46.37189" lon="5.36069">
        <ele>373.8</ele>
        <time>2022-03-12T12:03:38Z</time>
      </trkpt>
      <trkpt lat="46.37181" lon="5.36079">
        <ele>375</ele>
        <time>2022-03-12T12:03:42Z</time>
      </trkpt>
      <trkpt lat="46.3718" lon="5.36082">
        <ele>375.2</ele>
        <time>2022-03-12T12:03:43Z</time>
      </trkpt>
      <trkpt lat="46.37175" lon="5.36099">
        <ele>376.2</ele>
        <time>2022-03-12T12:03:47Z</time>
      </trkpt>
      <trkpt lat="46.37174" lon="5.36109">
        <ele>376.6</ele>
        <time>2022-03-12T12:03:49Z</time>
      </trkpt>
      <trkpt lat="46.37174" lon="5.36117">
        <ele>377.4</ele>
        <time>2022-03-12T12:03:51Z</time>
      </trkpt>
      <trkpt lat="46.37174" lon="5.36137">
        <ele>378.4</ele>
        <time>2022-03-12T12:03:55Z</time>
      </trkpt>
      <trkpt lat="46.37174" lon="5.36142">
        <ele>378.4</ele>
        <time>2022-03-12T12:03:56Z</time>
      </trkpt>
      <trkpt lat="46.37175" lon="5.3617">
        <ele>379.4</ele>
        <time>2022-03-12T12:04:01Z</time>
      </trkpt>
      <trkpt lat="46.37175" lon="5.36176">
        <ele>379.6</ele>
        <time>2022-03-12T12:04:02Z</time>
      </trkpt>
      <trkpt lat="46.37179" lon="5.36202">
        <ele>380.4</ele>
        <time>2022-03-12T12:04:07Z</time>
      </trkpt>
      <trkpt lat="46.37182" lon="5.36213">
        <ele>380.6</ele>
        <time>2022-03-12T12:04:09Z</time>
      </trkpt>
      <trkpt lat="46.37189" lon="5.36242">
        <ele>381.4</ele>
        <time>2022-03-12T12:04:15Z</time>
      </trkpt>
      <trkpt lat="46.37191" lon="5.36246">
        <ele>382</ele>
        <time>2022-03-12T12:04:16Z</time>
      </trkpt>
      <trkpt lat="46.37198" lon="5.36263">
        <ele>382.4</ele>
        <time>2022-03-12T12:04:20Z</time>
      </trkpt>
      <trkpt lat="46.37203" lon="5.36276">
        <ele>383</ele>
        <time>2022-03-12T12:04:23Z</time>
      </trkpt>
      <trkpt lat="46.37208" lon="5.36287">
        <ele>383.6</ele>
        <time>2022-03-12T12:04:26Z</time>
      </trkpt>
      <trkpt lat="46.37219" lon="5.36308">
        <ele>384.2</ele>
        <time>2022-03-12T12:04:31Z</time>
      </trkpt>
      <trkpt lat="46.37223" lon="5.36316">
        <ele>384.6</ele>
        <time>2022-03-12T12:04:33Z</time>
      </trkpt>
      <trkpt lat="46.37231" lon="5.36331">
        <ele>385.2</ele>
        <time>2022-03-12T12:04:37Z</time>
      </trkpt>
      <trkpt lat="46.37233" lon="5.36334">
        <ele>385.4</ele>
        <time>2022-03-12T12:04:38Z</time>
      </trkpt>
      <trkpt lat="46.37241" lon="5.36349">
        <ele>386</ele>
        <time>2022-03-12T12:04:42Z</time>
      </trkpt>
      <trkpt lat="46.37242" lon="5.36352">
        <ele>386.4</ele>
        <time>2022-03-12T12:04:43Z</time>
      </trkpt>
      <trkpt lat="46.37254" lon="5.36376">
        <ele>387.2</ele>
        <time>2022-03-12T12:04:49Z</time>
      </trkpt>
      <trkpt lat="46.37256" lon="5.36381">
        <ele>387.6</ele>
        <time>2022-03-12T12:04:50Z</time>
      </trkpt>
      <trkpt lat="46.37264" lon="5.36402">
        <ele>388.2</ele>
        <time>2022-03-12T12:04:54Z</time>
      </trkpt>
      <trkpt lat="46.37267" lon="5.36413">
        <ele>388.6</ele>
        <time>2022-03-12T12:04:56Z</time>
      </trkpt>
      <trkpt lat="46.37276" lon="5.36435">
        <ele>389.2</ele>
        <time>2022-03-12T12:05:00Z</time>
      </trkpt>
      <trkpt lat="46.3728" lon="5.36443">
        <ele>389.8</ele>
        <time>2022-03-12T12:05:02Z</time>
      </trkpt>
      <trkpt lat="46.37291" lon="5.36464">
        <ele>390.6</ele>
        <time>2022-03-12T12:05:07Z</time>
      </trkpt>
      <trkpt lat="46.37293" lon="5.36474">
        <ele>391</ele>
        <time>2022-03-12T12:05:09Z</time>
      </trkpt>
      <trkpt lat="46.37291" lon="5.36484">
        <ele>391.4</ele>
        <time>2022-03-12T12:05:11Z</time>
      </trkpt>
      <trkpt lat="46.37279" lon="5.36493">
        <ele>392</ele>
        <time>2022-03-12T12:05:15Z</time>
      </trkpt>
      <trkpt lat="46.37267" lon="5.36496">
        <ele>393.4</ele>
        <time>2022-03-12T12:05:19Z</time>
      </trkpt>
      <trkpt lat="46.37264" lon="5.36496">
        <ele>394</ele>
        <time>2022-03-12T12:05:20Z</time>
      </trkpt>
      <trkpt lat="46.37257" lon="5.36497">
        <ele>394.4</ele>
        <time>2022-03-12T12:05:22Z</time>
      </trkpt>
      <trkpt lat="46.37245" lon="5.36499">
        <ele>395.6</ele>
        <time>2022-03-12T12:05:25Z</time>
      </trkpt>
      <trkpt lat="46.37241" lon="5.365">
        <ele>395.8</ele>
        <time>2022-03-12T12:05:26Z</time>
      </trkpt>
      <trkpt lat="46.37228" lon="5.36506">
        <ele>396.6</ele>
        <time>2022-03-12T12:05:30Z</time>
      </trkpt>
      <trkpt lat="46.3722" lon="5.36509">
        <ele>397</ele>
        <time>2022-03-12T12:05:32Z</time>
      </trkpt>
      <trkpt lat="46.3721" lon="5.36514">
        <ele>397.8</ele>
        <time>2022-03-12T12:05:35Z</time>
      </trkpt>
      <trkpt lat="46.37194" lon="5.36522">
        <ele>398.4</ele>
        <time>2022-03-12T12:05:39Z</time>
      </trkpt>
      <trkpt lat="46.37188" lon="5.36527">
        <ele>399</ele>
        <time>2022-03-12T12:05:41Z</time>
      </trkpt>
      <trkpt lat="46.37173" lon="5.36542">
        <ele>399.6</ele>
        <time>2022-03-12T12:05:45Z</time>
      </trkpt>
      <trkpt lat="46.37164" lon="5.36552">
        <ele>400.2</ele>
        <time>2022-03-12T12:05:48Z</time>
      </trkpt>
      <trkpt lat="46.37158" lon="5.36562">
        <ele>400.8</ele>
        <time>2022-03-12T12:05:51Z</time>
      </trkpt>
      <trkpt lat="46.37151" lon="5.36572">
        <ele>401.4</ele>
        <time>2022-03-12T12:05:54Z</time>
      </trkpt>
      <trkpt lat="46.37143" lon="5.36583">
        <ele>402</ele>
        <time>2022-03-12T12:05:57Z</time>
      </trkpt>
      <trkpt lat="46.37138" lon="5.36598">
        <ele>402.6</ele>
        <time>2022-03-12T12:06:01Z</time>
      </trkpt>
      <trkpt lat="46.37131" lon="5.36606">
        <ele>402.8</ele>
        <time>2022-03-12T12:06:03Z</time>
      </trkpt>
      <trkpt lat="46.37122" lon="5.36621">
        <ele>403.6</ele>
        <time>2022-03-12T12:06:07Z</time>
      </trkpt>
      <trkpt lat="46.37119" lon="5.36628">
        <ele>404</ele>
        <time>2022-03-12T12:06:09Z</time>
      </trkpt>
      <trkpt lat="46.37114" lon="5.3664">
        <ele>404.6</ele>
        <time>2022-03-12T12:06:12Z</time>
      </trkpt>
      <trkpt lat="46.37106" lon="5.3666">
        <ele>405.6</ele>
        <time>2022-03-12T12:06:17Z</time>
      </trkpt>
      <trkpt lat="46.37105" lon="5.36664">
        <ele>405.6</ele>
        <time>2022-03-12T12:06:18Z</time>
      </trkpt>
      <trkpt lat="46.37103" lon="5.36669">
        <ele>405.8</ele>
        <time>2022-03-12T12:06:19Z</time>
      </trkpt>
      <trkpt lat="46.371" lon="5.36676">
        <ele>406.2</ele>
        <time>2022-03-12T12:06:21Z</time>
      </trkpt>
      <trkpt lat="46.37095" lon="5.3669">
        <ele>406.8</ele>
        <time>2022-03-12T12:06:24Z</time>
      </trkpt>
      <trkpt lat="46.37091" lon="5.36699">
        <ele>407.2</ele>
        <time>2022-03-12T12:06:26Z</time>
      </trkpt>
      <trkpt lat="46.37087" lon="5.36714">
        <ele>408</ele>
        <time>2022-03-12T12:06:29Z</time>
      </trkpt>
      <trkpt lat="46.37081" lon="5.36728">
        <ele>408.6</ele>
        <time>2022-03-12T12:06:32Z</time>
      </trkpt>
      <trkpt lat="46.37075" lon="5.36745">
        <ele>409</ele>
        <time>2022-03-12T12:06:35Z</time>
      </trkpt>
      <trkpt lat="46.3707" lon="5.36764">
        <ele>409.8</ele>
        <time>2022-03-12T12:06:39Z</time>
      </trkpt>
      <trkpt lat="46.37068" lon="5.36778">
        <ele>410.2</ele>
        <time>2022-03-12T12:06:42Z</time>
      </trkpt>
      <trkpt lat="46.37065" lon="5.36813">
        <ele>411.4</ele>
        <time>2022-03-12T12:06:49Z</time>
      </trkpt>
      <trkpt lat="46.37066" lon="5.36851">
        <ele>412.8</ele>
        <time>2022-03-12T12:06:56Z</time>
      </trkpt>
      <trkpt lat="46.3707" lon="5.36882">
        <ele>413.8</ele>
        <time>2022-03-12T12:07:02Z</time>
      </trkpt>
      <trkpt lat="46.37071" lon="5.36888">
        <ele>414.2</ele>
        <time>2022-03-12T12:07:03Z</time>
      </trkpt>
      <trkpt lat="46.37076" lon="5.36904">
        <ele>414.8</ele>
        <time>2022-03-12T12:07:06Z</time>
      </trkpt>
      <trkpt lat="46.37084" lon="5.36925">
        <ele>415.8</ele>
        <time>2022-03-12T12:07:10Z</time>
      </trkpt>
      <trkpt lat="46.37092" lon="5.36944">
        <ele>417</ele>
        <time>2022-03-12T12:07:14Z</time>
      </trkpt>
      <trkpt lat="46.37102" lon="5.36963">
        <ele>417.6</ele>
        <time>2022-03-12T12:07:18Z</time>
      </trkpt>
      <trkpt lat="46.3711" lon="5.36978">
        <ele>418</ele>
        <time>2022-03-12T12:07:21Z</time>
      </trkpt>
      <trkpt lat="46.37122" lon="5.36999">
        <ele>419</ele>
        <time>2022-03-12T12:07:26Z</time>
      </trkpt>
      <trkpt lat="46.37137" lon="5.37019">
        <ele>420.2</ele>
        <time>2022-03-12T12:07:31Z</time>
      </trkpt>
      <trkpt lat="46.37152" lon="5.37038">
        <ele>421</ele>
        <time>2022-03-12T12:07:36Z</time>
      </trkpt>
      <trkpt lat="46.37155" lon="5.37041">
        <ele>421.4</ele>
        <time>2022-03-12T12:07:37Z</time>
      </trkpt>
      <trkpt lat="46.37176" lon="5.37059">
        <ele>422.4</ele>
        <time>2022-03-12T12:07:43Z</time>
      </trkpt>
      <trkpt lat="46.37191" lon="5.3707">
        <ele>423.2</ele>
        <time>2022-03-12T12:07:47Z</time>
      </trkpt>
      <trkpt lat="46.37198" lon="5.37075">
        <ele>423.4</ele>
        <time>2022-03-12T12:07:49Z</time>
      </trkpt>
      <trkpt lat="46.37219" lon="5.37091">
        <ele>424.6</ele>
        <time>2022-03-12T12:07:55Z</time>
      </trkpt>
      <trkpt lat="46.37243" lon="5.37108">
        <ele>425.8</ele>
        <time>2022-03-12T12:08:02Z</time>
      </trkpt>
      <trkpt lat="46.37253" lon="5.37116">
        <ele>426.4</ele>
        <time>2022-03-12T12:08:05Z</time>
      </trkpt>
      <trkpt lat="46.3726" lon="5.37121">
        <ele>427</ele>
        <time>2022-03-12T12:08:07Z</time>
      </trkpt>
      <trkpt lat="46.37276" lon="5.37133">
        <ele>428.2</ele>
        <time>2022-03-12T12:08:12Z</time>
      </trkpt>
      <trkpt lat="46.37279" lon="5.37135">
        <ele>428.2</ele>
        <time>2022-03-12T12:08:13Z</time>
      </trkpt>
      <trkpt lat="46.37294" lon="5.37144">
        <ele>429.2</ele>
        <time>2022-03-12T12:08:17Z</time>
      </trkpt>
      <trkpt lat="46.3731" lon="5.37155">
        <ele>429.8</ele>
        <time>2022-03-12T12:08:22Z</time>
      </trkpt>
      <trkpt lat="46.37316" lon="5.3716">
        <ele>430.4</ele>
        <time>2022-03-12T12:08:24Z</time>
      </trkpt>
      <trkpt lat="46.37327" lon="5.37171">
        <ele>431.2</ele>
        <time>2022-03-12T12:08:28Z</time>
      </trkpt>
      <trkpt lat="46.37329" lon="5.37173">
        <ele>431.2</ele>
        <time>2022-03-12T12:08:29Z</time>
      </trkpt>
      <trkpt lat="46.3734" lon="5.3719">
        <ele>432.4</ele>
        <time>2022-03-12T12:08:34Z</time>
      </trkpt>
      <trkpt lat="46.37352" lon="5.37209">
        <ele>433.4</ele>
        <time>2022-03-12T12:08:39Z</time>
      </trkpt>
      <trkpt lat="46.37354" lon="5.37212">
        <ele>433.4</ele>
        <time>2022-03-12T12:08:40Z</time>
      </trkpt>
      <trkpt lat="46.37363" lon="5.37226">
        <ele>434.6</ele>
        <time>2022-03-12T12:08:44Z</time>
      </trkpt>
      <trkpt lat="46.37375" lon="5.37244">
        <ele>435.2</ele>
        <time>2022-03-12T12:08:49Z</time>
      </trkpt>
      <trkpt lat="46.3738" lon="5.3725">
        <ele>435.8</ele>
        <time>2022-03-12T12:08:51Z</time>
      </trkpt>
      <trkpt lat="46.37396" lon="5.37266">
        <ele>437.2</ele>
        <time>2022-03-12T12:08:57Z</time>
      </trkpt>
      <trkpt lat="46.37409" lon="5.37282">
        <ele>438.2</ele>
        <time>2022-03-12T12:09:02Z</time>
      </trkpt>
      <trkpt lat="46.37426" lon="5.37306">
        <ele>439.4</ele>
        <time>2022-03-12T12:09:09Z</time>
      </trkpt>
      <trkpt lat="46.37435" lon="5.37319">
        <ele>439.8</ele>
        <time>2022-03-12T12:09:13Z</time>
      </trkpt>
      <trkpt lat="46.37441" lon="5.37328">
        <ele>440.4</ele>
        <time>2022-03-12T12:09:16Z</time>
      </trkpt>
      <trkpt lat="46.37451" lon="5.37341">
        <ele>440.8</ele>
        <time>2022-03-12T12:09:20Z</time>
      </trkpt>
      <trkpt lat="46.37463" lon="5.37354">
        <ele>441.4</ele>
        <time>2022-03-12T12:09:24Z</time>
      </trkpt>
      <trkpt lat="46.37479" lon="5.37372">
        <ele>442</ele>
        <time>2022-03-12T12:09:29Z</time>
      </trkpt>
      <trkpt lat="46.37489" lon="5.37389">
        <ele>442.6</ele>
        <time>2022-03-12T12:09:33Z</time>
      </trkpt>
      <trkpt lat="46.37491" lon="5.37401">
        <ele>442.8</ele>
        <time>2022-03-12T12:09:35Z</time>
      </trkpt>
      <trkpt lat="46.3749" lon="5.37413">
        <ele>443</ele>
        <time>2022-03-12T12:09:37Z</time>
      </trkpt>
      <trkpt lat="46.37485" lon="5.37425">
        <ele>443.2</ele>
        <time>2022-03-12T12:09:39Z</time>
      </trkpt>
      <trkpt lat="46.37473" lon="5.3744">
        <ele>443.6</ele>
        <time>2022-03-12T12:09:43Z</time>
      </trkpt>
      <trkpt lat="46.37466" lon="5.37447">
        <ele>443.8</ele>
        <time>2022-03-12T12:09:45Z</time>
      </trkpt>
      <trkpt lat="46.37446" lon="5.37466">
        <ele>444.6</ele>
        <time>2022-03-12T12:09:51Z</time>
      </trkpt>
      <trkpt lat="46.37437" lon="5.37475">
        <ele>445.2</ele>
        <time>2022-03-12T12:09:54Z</time>
      </trkpt>
      <trkpt lat="46.37427" lon="5.37484">
        <ele>445.8</ele>
        <time>2022-03-12T12:09:57Z</time>
      </trkpt>
      <trkpt lat="46.37412" lon="5.37501">
        <ele>447</ele>
        <time>2022-03-12T12:10:02Z</time>
      </trkpt>
      <trkpt lat="46.37394" lon="5.3752">
        <ele>448.2</ele>
        <time>2022-03-12T12:10:08Z</time>
      </trkpt>
      <trkpt lat="46.37381" lon="5.37533">
        <ele>449</ele>
        <time>2022-03-12T12:10:12Z</time>
      </trkpt>
      <trkpt lat="46.37378" lon="5.37536">
        <ele>449.4</ele>
        <time>2022-03-12T12:10:13Z</time>
      </trkpt>
      <trkpt lat="46.37363" lon="5.3755">
        <ele>450.6</ele>
        <time>2022-03-12T12:10:18Z</time>
      </trkpt>
      <trkpt lat="46.37349" lon="5.37566">
        <ele>451.8</ele>
        <time>2022-03-12T12:10:23Z</time>
      </trkpt>
      <trkpt lat="46.37336" lon="5.37584">
        <ele>453</ele>
        <time>2022-03-12T12:10:28Z</time>
      </trkpt>
      <trkpt lat="46.3733" lon="5.37594">
        <ele>453.6</ele>
        <time>2022-03-12T12:10:31Z</time>
      </trkpt>
      <trkpt lat="46.37326" lon="5.37601">
        <ele>454.2</ele>
        <time>2022-03-12T12:10:33Z</time>
      </trkpt>
      <trkpt lat="46.37319" lon="5.37616">
        <ele>455.2</ele>
        <time>2022-03-12T12:10:37Z</time>
      </trkpt>
      <trkpt lat="46.37311" lon="5.3763">
        <ele>456.6</ele>
        <time>2022-03-12T12:10:41Z</time>
      </trkpt>
      <trkpt lat="46.373" lon="5.37652">
        <ele>457.6</ele>
        <time>2022-03-12T12:10:47Z</time>
      </trkpt>
      <trkpt lat="46.3729" lon="5.37671">
        <ele>458.6</ele>
        <time>2022-03-12T12:10:52Z</time>
      </trkpt>
      <trkpt lat="46.37284" lon="5.37681">
        <ele>459.4</ele>
        <time>2022-03-12T12:10:55Z</time>
      </trkpt>
      <trkpt lat="46.37278" lon="5.37693">
        <ele>459.8</ele>
        <time>2022-03-12T12:10:58Z</time>
      </trkpt>
      <trkpt lat="46.37267" lon="5.37713">
        <ele>460.8</ele>
        <time>2022-03-12T12:11:03Z</time>
      </trkpt>
      <trkpt lat="46.37259" lon="5.37726">
        <ele>461.6</ele>
        <time>2022-03-12T12:11:06Z</time>
      </trkpt>
      <trkpt lat="46.37254" lon="5.37736">
        <ele>462</ele>
        <time>2022-03-12T12:11:08Z</time>
      </trkpt>
      <trkpt lat="46.37238" lon="5.37764">
        <ele>462.6</ele>
        <time>2022-03-12T12:11:14Z</time>
      </trkpt>
      <trkpt lat="46.3723" lon="5.37779">
        <ele>463</ele>
        <time>2022-03-12T12:11:17Z</time>
      </trkpt>
      <trkpt lat="46.37209" lon="5.37814">
        <ele>463.8</ele>
        <time>2022-03-12T12:11:24Z</time>
      </trkpt>
      <trkpt lat="46.37204" lon="5.37823">
        <ele>464.2</ele>
        <time>2022-03-12T12:11:26Z</time>
      </trkpt>
      <trkpt lat="46.37182" lon="5.37863">
        <ele>465</ele>
        <time>2022-03-12T12:11:33Z</time>
      </trkpt>
      <trkpt lat="46.3718" lon="5.37868">
        <ele>465.2</ele>
        <time>2022-03-12T12:11:34Z</time>
      </trkpt>
      <trkpt lat="46.3716" lon="5.37909">
        <ele>465.4</ele>
        <time>2022-03-12T12:11:40Z</time>
      </trkpt>
      <trkpt lat="46.37134" lon="5.37965">
        <ele>465.8</ele>
        <time>2022-03-12T12:11:48Z</time>
      </trkpt>
      <trkpt lat="46.37115" lon="5.38009">
        <ele>466.2</ele>
        <time>2022-03-12T12:11:54Z</time>
      </trkpt>
      <trkpt lat="46.37106" lon="5.38031">
        <ele>466.4</ele>
        <time>2022-03-12T12:11:57Z</time>
      </trkpt>
      <trkpt lat="46.37078" lon="5.38088">
        <ele>467</ele>
        <time>2022-03-12T12:12:05Z</time>
      </trkpt>
      <trkpt lat="46.37067" lon="5.38105">
        <ele>467.4</ele>
        <time>2022-03-12T12:12:08Z</time>
      </trkpt>
      <trkpt lat="46.37055" lon="5.38128">
        <ele>467.8</ele>
        <time>2022-03-12T12:12:12Z</time>
      </trkpt>
      <trkpt lat="46.37045" lon="5.38146">
        <ele>468.4</ele>
        <time>2022-03-12T12:12:15Z</time>
      </trkpt>
      <trkpt lat="46.37042" lon="5.3815">
        <ele>468.6</ele>
        <time>2022-03-12T12:12:16Z</time>
      </trkpt>
      <trkpt lat="46.37032" lon="5.38167">
        <ele>469.4</ele>
        <time>2022-03-12T12:12:19Z</time>
      </trkpt>
      <trkpt lat="46.37029" lon="5.38172">
        <ele>469.6</ele>
        <time>2022-03-12T12:12:20Z</time>
      </trkpt>
      <trkpt lat="46.3702" lon="5.38189">
        <ele>470.6</ele>
        <time>2022-03-12T12:12:23Z</time>
      </trkpt>
      <trkpt lat="46.37008" lon="5.3821">
        <ele>471.6</ele>
        <time>2022-03-12T12:12:27Z</time>
      </trkpt>
      <trkpt lat="46.37005" lon="5.38216">
        <ele>472</ele>
        <time>2022-03-12T12:12:28Z</time>
      </trkpt>
      <trkpt lat="46.3699" lon="5.38244">
        <ele>473.2</ele>
        <time>2022-03-12T12:12:33Z</time>
      </trkpt>
      <trkpt lat="46.36983" lon="5.38255">
        <ele>473.6</ele>
        <time>2022-03-12T12:12:35Z</time>
      </trkpt>
      <trkpt lat="46.3696" lon="5.38289">
        <ele>474.4</ele>
        <time>2022-03-12T12:12:41Z</time>
      </trkpt>
      <trkpt lat="46.36957" lon="5.38295">
        <ele>474.6</ele>
        <time>2022-03-12T12:12:42Z</time>
      </trkpt>
      <trkpt lat="46.36924" lon="5.38346">
        <ele>475.4</ele>
        <time>2022-03-12T12:12:51Z</time>
      </trkpt>
      <trkpt lat="46.36919" lon="5.38352">
        <ele>475.6</ele>
        <time>2022-03-12T12:12:52Z</time>
      </trkpt>
      <trkpt lat="46.36894" lon="5.38396">
        <ele>475.8</ele>
        <time>2022-03-12T12:12:59Z</time>
      </trkpt>
      <trkpt lat="46.36856" lon="5.38459">
        <ele>476</ele>
        <time>2022-03-12T12:13:09Z</time>
      </trkpt>
      <trkpt lat="46.36828" lon="5.385">
        <ele>476.4</ele>
        <time>2022-03-12T12:13:16Z</time>
      </trkpt>
      <trkpt lat="46.36801" lon="5.3853">
        <ele>476.4</ele>
        <time>2022-03-12T12:13:21Z</time>
      </trkpt>
      <trkpt lat="46.36758" lon="5.38559">
        <ele>475.8</ele>
        <time>2022-03-12T12:13:27Z</time>
      </trkpt>
      <trkpt lat="46.36717" lon="5.38577">
        <ele>474.6</ele>
        <time>2022-03-12T12:13:32Z</time>
      </trkpt>
      <trkpt lat="46.36708" lon="5.3858">
        <ele>474.2</ele>
        <time>2022-03-12T12:13:33Z</time>
      </trkpt>
      <trkpt lat="46.3667" lon="5.38584">
        <ele>473</ele>
        <time>2022-03-12T12:13:37Z</time>
      </trkpt>
      <trkpt lat="46.3664" lon="5.38587">
        <ele>471.6</ele>
        <time>2022-03-12T12:13:40Z</time>
      </trkpt>
      <trkpt lat="46.3662" lon="5.38593">
        <ele>470.8</ele>
        <time>2022-03-12T12:13:42Z</time>
      </trkpt>
      <trkpt lat="46.3661" lon="5.38597">
        <ele>470.4</ele>
        <time>2022-03-12T12:13:43Z</time>
      </trkpt>
      <trkpt lat="46.36578" lon="5.38613">
        <ele>469</ele>
        <time>2022-03-12T12:13:46Z</time>
      </trkpt>
      <trkpt lat="46.36568" lon="5.38619">
        <ele>468.4</ele>
        <time>2022-03-12T12:13:47Z</time>
      </trkpt>
      <trkpt lat="46.36558" lon="5.38625">
        <ele>467.8</ele>
        <time>2022-03-12T12:13:48Z</time>
      </trkpt>
      <trkpt lat="46.36536" lon="5.38635">
        <ele>466.8</ele>
        <time>2022-03-12T12:13:50Z</time>
      </trkpt>
      <trkpt lat="46.36515" lon="5.38646">
        <ele>465.6</ele>
        <time>2022-03-12T12:13:52Z</time>
      </trkpt>
      <trkpt lat="46.36493" lon="5.38657">
        <ele>463.8</ele>
        <time>2022-03-12T12:13:54Z</time>
      </trkpt>
      <trkpt lat="46.36471" lon="5.38668">
        <ele>462.4</ele>
        <time>2022-03-12T12:13:56Z</time>
      </trkpt>
      <trkpt lat="46.36448" lon="5.38679">
        <ele>461.2</ele>
        <time>2022-03-12T12:13:58Z</time>
      </trkpt>
      <trkpt lat="46.36424" lon="5.38692">
        <ele>459.8</ele>
        <time>2022-03-12T12:14:00Z</time>
      </trkpt>
      <trkpt lat="46.36403" lon="5.38701">
        <ele>458.6</ele>
        <time>2022-03-12T12:14:02Z</time>
      </trkpt>
      <trkpt lat="46.36379" lon="5.38708">
        <ele>457.4</ele>
        <time>2022-03-12T12:14:04Z</time>
      </trkpt>
      <trkpt lat="46.36355" lon="5.38713">
        <ele>456.2</ele>
        <time>2022-03-12T12:14:06Z</time>
      </trkpt>
      <trkpt lat="46.36342" lon="5.38714">
        <ele>455.4</ele>
        <time>2022-03-12T12:14:07Z</time>
      </trkpt>
      <trkpt lat="46.3633" lon="5.38714">
        <ele>455</ele>
        <time>2022-03-12T12:14:08Z</time>
      </trkpt>
      <trkpt lat="46.36305" lon="5.38713">
        <ele>453.6</ele>
        <time>2022-03-12T12:14:10Z</time>
      </trkpt>
      <trkpt lat="46.3628" lon="5.38713">
        <ele>452.2</ele>
        <time>2022-03-12T12:14:12Z</time>
      </trkpt>
      <trkpt lat="46.36267" lon="5.38713">
        <ele>451.6</ele>
        <time>2022-03-12T12:14:13Z</time>
      </trkpt>
      <trkpt lat="46.36254" lon="5.38713">
        <ele>450.6</ele>
        <time>2022-03-12T12:14:14Z</time>
      </trkpt>
      <trkpt lat="46.36229" lon="5.38714">
        <ele>449</ele>
        <time>2022-03-12T12:14:16Z</time>
      </trkpt>
      <trkpt lat="46.36203" lon="5.38714">
        <ele>447.8</ele>
        <time>2022-03-12T12:14:18Z</time>
      </trkpt>
      <trkpt lat="46.36177" lon="5.38714">
        <ele>446.6</ele>
        <time>2022-03-12T12:14:20Z</time>
      </trkpt>
      <trkpt lat="46.36165" lon="5.38714">
        <ele>445.6</ele>
        <time>2022-03-12T12:14:21Z</time>
      </trkpt>
      <trkpt lat="46.36139" lon="5.38713">
        <ele>444</ele>
        <time>2022-03-12T12:14:23Z</time>
      </trkpt>
      <trkpt lat="46.36114" lon="5.38714">
        <ele>442.6</ele>
        <time>2022-03-12T12:14:25Z</time>
      </trkpt>
      <trkpt lat="46.36089" lon="5.38714">
        <ele>441.2</ele>
        <time>2022-03-12T12:14:27Z</time>
      </trkpt>
      <trkpt lat="46.36076" lon="5.38714">
        <ele>440.2</ele>
        <time>2022-03-12T12:14:28Z</time>
      </trkpt>
      <trkpt lat="46.36064" lon="5.38714">
        <ele>439.8</ele>
        <time>2022-03-12T12:14:29Z</time>
      </trkpt>
      <trkpt lat="46.36051" lon="5.38714">
        <ele>438.4</ele>
        <time>2022-03-12T12:14:30Z</time>
      </trkpt>
      <trkpt lat="46.36026" lon="5.38714">
        <ele>437</ele>
        <time>2022-03-12T12:14:32Z</time>
      </trkpt>
      <trkpt lat="46.36014" lon="5.38713">
        <ele>436</ele>
        <time>2022-03-12T12:14:33Z</time>
      </trkpt>
      <trkpt lat="46.35989" lon="5.38713">
        <ele>434.6</ele>
        <time>2022-03-12T12:14:35Z</time>
      </trkpt>
      <trkpt lat="46.35963" lon="5.38714">
        <ele>433.2</ele>
        <time>2022-03-12T12:14:37Z</time>
      </trkpt>
      <trkpt lat="46.35951" lon="5.38714">
        <ele>432.8</ele>
        <time>2022-03-12T12:14:38Z</time>
      </trkpt>
      <trkpt lat="46.35938" lon="5.38715">
        <ele>432.2</ele>
        <time>2022-03-12T12:14:39Z</time>
      </trkpt>
      <trkpt lat="46.35913" lon="5.38715">
        <ele>430.2</ele>
        <time>2022-03-12T12:14:41Z</time>
      </trkpt>
      <trkpt lat="46.35888" lon="5.38715">
        <ele>428.6</ele>
        <time>2022-03-12T12:14:43Z</time>
      </trkpt>
      <trkpt lat="46.35862" lon="5.38716">
        <ele>427.2</ele>
        <time>2022-03-12T12:14:45Z</time>
      </trkpt>
      <trkpt lat="46.35837" lon="5.38716">
        <ele>426</ele>
        <time>2022-03-12T12:14:47Z</time>
      </trkpt>
      <trkpt lat="46.35812" lon="5.38716">
        <ele>424.2</ele>
        <time>2022-03-12T12:14:49Z</time>
      </trkpt>
      <trkpt lat="46.35787" lon="5.38715">
        <ele>422.8</ele>
        <time>2022-03-12T12:14:51Z</time>
      </trkpt>
      <trkpt lat="46.35761" lon="5.38713">
        <ele>421.4</ele>
        <time>2022-03-12T12:14:53Z</time>
      </trkpt>
      <trkpt lat="46.35736" lon="5.38711">
        <ele>419.4</ele>
        <time>2022-03-12T12:14:55Z</time>
      </trkpt>
      <trkpt lat="46.35711" lon="5.38708">
        <ele>418.2</ele>
        <time>2022-03-12T12:14:57Z</time>
      </trkpt>
      <trkpt lat="46.35698" lon="5.38707">
        <ele>417.2</ele>
        <time>2022-03-12T12:14:58Z</time>
      </trkpt>
      <trkpt lat="46.35685" lon="5.38707">
        <ele>416.4</ele>
        <time>2022-03-12T12:14:59Z</time>
      </trkpt>
      <trkpt lat="46.3566" lon="5.38709">
        <ele>415</ele>
        <time>2022-03-12T12:15:01Z</time>
      </trkpt>
      <trkpt lat="46.35647" lon="5.38711">
        <ele>414.4</ele>
        <time>2022-03-12T12:15:02Z</time>
      </trkpt>
      <trkpt lat="46.35634" lon="5.38713">
        <ele>413.8</ele>
        <time>2022-03-12T12:15:03Z</time>
      </trkpt>
      <trkpt lat="46.35621" lon="5.38717">
        <ele>412.8</ele>
        <time>2022-03-12T12:15:04Z</time>
      </trkpt>
      <trkpt lat="46.35606" lon="5.3872">
        <ele>411.6</ele>
        <time>2022-03-12T12:15:05Z</time>
      </trkpt>
      <trkpt lat="46.35584" lon="5.38724">
        <ele>410.4</ele>
        <time>2022-03-12T12:15:07Z</time>
      </trkpt>
      <trkpt lat="46.35568" lon="5.38726">
        <ele>409.8</ele>
        <time>2022-03-12T12:15:08Z</time>
      </trkpt>
      <trkpt lat="46.35555" lon="5.38727">
        <ele>409</ele>
        <time>2022-03-12T12:15:09Z</time>
      </trkpt>
      <trkpt lat="46.35532" lon="5.38728">
        <ele>407.6</ele>
        <time>2022-03-12T12:15:11Z</time>
      </trkpt>
      <trkpt lat="46.3552" lon="5.38728">
        <ele>406.6</ele>
        <time>2022-03-12T12:15:12Z</time>
      </trkpt>
      <trkpt lat="46.35491" lon="5.38728">
        <ele>405.2</ele>
        <time>2022-03-12T12:15:14Z</time>
      </trkpt>
      <trkpt lat="46.35478" lon="5.38728">
        <ele>404.4</ele>
        <time>2022-03-12T12:15:15Z</time>
      </trkpt>
      <trkpt lat="46.35465" lon="5.38728">
        <ele>403.6</ele>
        <time>2022-03-12T12:15:16Z</time>
      </trkpt>
      <trkpt lat="46.3544" lon="5.38728">
        <ele>402</ele>
        <time>2022-03-12T12:15:18Z</time>
      </trkpt>
      <trkpt lat="46.35415" lon="5.38731">
        <ele>400.8</ele>
        <time>2022-03-12T12:15:20Z</time>
      </trkpt>
      <trkpt lat="46.35403" lon="5.38733">
        <ele>399.8</ele>
        <time>2022-03-12T12:15:21Z</time>
      </trkpt>
      <trkpt lat="46.35391" lon="5.38736">
        <ele>399.2</ele>
        <time>2022-03-12T12:15:22Z</time>
      </trkpt>
      <trkpt lat="46.35382" lon="5.38739">
        <ele>398.4</ele>
        <time>2022-03-12T12:15:23Z</time>
      </trkpt>
      <trkpt lat="46.35356" lon="5.38748">
        <ele>397.2</ele>
        <time>2022-03-12T12:15:25Z</time>
      </trkpt>
      <trkpt lat="46.35333" lon="5.38758">
        <ele>396</ele>
        <time>2022-03-12T12:15:27Z</time>
      </trkpt>
      <trkpt lat="46.35321" lon="5.38764">
        <ele>395.6</ele>
        <time>2022-03-12T12:15:28Z</time>
      </trkpt>
      <trkpt lat="46.35299" lon="5.38779">
        <ele>394.6</ele>
        <time>2022-03-12T12:15:30Z</time>
      </trkpt>
      <trkpt lat="46.35277" lon="5.38796">
        <ele>393.4</ele>
        <time>2022-03-12T12:15:32Z</time>
      </trkpt>
      <trkpt lat="46.35255" lon="5.38813">
        <ele>391.6</ele>
        <time>2022-03-12T12:15:34Z</time>
      </trkpt>
      <trkpt lat="46.35244" lon="5.38822">
        <ele>390.6</ele>
        <time>2022-03-12T12:15:35Z</time>
      </trkpt>
      <trkpt lat="46.35222" lon="5.3884">
        <ele>389.2</ele>
        <time>2022-03-12T12:15:37Z</time>
      </trkpt>
      <trkpt lat="46.35204" lon="5.38858">
        <ele>387.8</ele>
        <time>2022-03-12T12:15:39Z</time>
      </trkpt>
      <trkpt lat="46.35194" lon="5.38868">
        <ele>387.4</ele>
        <time>2022-03-12T12:15:40Z</time>
      </trkpt>
      <trkpt lat="46.35184" lon="5.38882">
        <ele>386.4</ele>
        <time>2022-03-12T12:15:41Z</time>
      </trkpt>
      <trkpt lat="46.35158" lon="5.38912">
        <ele>385</ele>
        <time>2022-03-12T12:15:44Z</time>
      </trkpt>
      <trkpt lat="46.35139" lon="5.38936">
        <ele>383.6</ele>
        <time>2022-03-12T12:15:46Z</time>
      </trkpt>
      <trkpt lat="46.35121" lon="5.38956">
        <ele>382.4</ele>
        <time>2022-03-12T12:15:48Z</time>
      </trkpt>
      <trkpt lat="46.35104" lon="5.38973">
        <ele>381.4</ele>
        <time>2022-03-12T12:15:50Z</time>
      </trkpt>
      <trkpt lat="46.35095" lon="5.38979">
        <ele>381.2</ele>
        <time>2022-03-12T12:15:51Z</time>
      </trkpt>
      <trkpt lat="46.35083" lon="5.38986">
        <ele>380.8</ele>
        <time>2022-03-12T12:15:53Z</time>
      </trkpt>
      <trkpt lat="46.3508" lon="5.38987">
        <ele>380.6</ele>
        <time>2022-03-12T12:15:54Z</time>
      </trkpt>
      <trkpt lat="46.35075" lon="5.38989">
        <ele>380.6</ele>
        <time>2022-03-12T12:15:56Z</time>
      </trkpt>
      <trkpt lat="46.35073" lon="5.38991">
        <ele>380.4</ele>
        <time>2022-03-12T12:15:57Z</time>
      </trkpt>
      <trkpt lat="46.35073" lon="5.38994">
        <ele>380.4</ele>
        <time>2022-03-12T12:15:58Z</time>
      </trkpt>
      <trkpt lat="46.35073" lon="5.39008">
        <ele>380.2</ele>
        <time>2022-03-12T12:16:00Z</time>
      </trkpt>
      <trkpt lat="46.35075" lon="5.39039">
        <ele>380.2</ele>
        <time>2022-03-12T12:16:03Z</time>
      </trkpt>
      <trkpt lat="46.35073" lon="5.39099">
        <ele>378.6</ele>
        <time>2022-03-12T12:16:07Z</time>
      </trkpt>
      <trkpt lat="46.35071" lon="5.3913">
        <ele>377.2</ele>
        <time>2022-03-12T12:16:09Z</time>
      </trkpt>
      <trkpt lat="46.35071" lon="5.39176">
        <ele>376</ele>
        <time>2022-03-12T12:16:12Z</time>
      </trkpt>
      <trkpt lat="46.35071" lon="5.39189">
        <ele>375.6</ele>
        <time>2022-03-12T12:16:13Z</time>
      </trkpt>
      <trkpt lat="46.35072" lon="5.39204">
        <ele>375.2</ele>
        <time>2022-03-12T12:16:14Z</time>
      </trkpt>
      <trkpt lat="46.35078" lon="5.39267">
        <ele>373.6</ele>
        <time>2022-03-12T12:16:18Z</time>
      </trkpt>
      <trkpt lat="46.35079" lon="5.39283">
        <ele>373.2</ele>
        <time>2022-03-12T12:16:19Z</time>
      </trkpt>
      <trkpt lat="46.3508" lon="5.39303">
        <ele>372.6</ele>
        <time>2022-03-12T12:16:20Z</time>
      </trkpt>
      <trkpt lat="46.35082" lon="5.39334">
        <ele>371.6</ele>
        <time>2022-03-12T12:16:22Z</time>
      </trkpt>
      <trkpt lat="46.35081" lon="5.39363">
        <ele>371</ele>
        <time>2022-03-12T12:16:24Z</time>
      </trkpt>
      <trkpt lat="46.35078" lon="5.39398">
        <ele>370.4</ele>
        <time>2022-03-12T12:16:26Z</time>
      </trkpt>
      <trkpt lat="46.35077" lon="5.39442">
        <ele>370</ele>
        <time>2022-03-12T12:16:29Z</time>
      </trkpt>
      <trkpt lat="46.35078" lon="5.39522">
        <ele>369.6</ele>
        <time>2022-03-12T12:16:35Z</time>
      </trkpt>
      <trkpt lat="46.35083" lon="5.39592">
        <ele>369.4</ele>
        <time>2022-03-12T12:16:40Z</time>
      </trkpt>
      <trkpt lat="46.35083" lon="5.39605">
        <ele>369.4</ele>
        <time>2022-03-12T12:16:41Z</time>
      </trkpt>
      <trkpt lat="46.35081" lon="5.39672">
        <ele>368.2</ele>
        <time>2022-03-12T12:16:46Z</time>
      </trkpt>
      <trkpt lat="46.3508" lon="5.39685">
        <ele>368.2</ele>
        <time>2022-03-12T12:16:47Z</time>
      </trkpt>
      <trkpt lat="46.3508" lon="5.39712">
        <ele>368.2</ele>
        <time>2022-03-12T12:16:49Z</time>
      </trkpt>
      <trkpt lat="46.35083" lon="5.39737">
        <ele>368</ele>
        <time>2022-03-12T12:16:51Z</time>
      </trkpt>
      <trkpt lat="46.35102" lon="5.39806">
        <ele>368</ele>
        <time>2022-03-12T12:16:57Z</time>
      </trkpt>
      <trkpt lat="46.35127" lon="5.39869">
        <ele>367.8</ele>
        <time>2022-03-12T12:17:03Z</time>
      </trkpt>
      <trkpt lat="46.3516" lon="5.39939">
        <ele>367.4</ele>
        <time>2022-03-12T12:17:10Z</time>
      </trkpt>
      <trkpt lat="46.35165" lon="5.39948">
        <ele>367.4</ele>
        <time>2022-03-12T12:17:11Z</time>
      </trkpt>
      <trkpt lat="46.35177" lon="5.39966">
        <ele>367.2</ele>
        <time>2022-03-12T12:17:13Z</time>
      </trkpt>
      <trkpt lat="46.35209" lon="5.40025">
        <ele>366.8</ele>
        <time>2022-03-12T12:17:19Z</time>
      </trkpt>
      <trkpt lat="46.35228" lon="5.40063">
        <ele>366.4</ele>
        <time>2022-03-12T12:17:23Z</time>
      </trkpt>
      <trkpt lat="46.35238" lon="5.40078">
        <ele>366.2</ele>
        <time>2022-03-12T12:17:25Z</time>
      </trkpt>
      <trkpt lat="46.3526" lon="5.4011">
        <ele>366</ele>
        <time>2022-03-12T12:17:29Z</time>
      </trkpt>
      <trkpt lat="46.35268" lon="5.40128">
        <ele>366</ele>
        <time>2022-03-12T12:17:31Z</time>
      </trkpt>
      <trkpt lat="46.35273" lon="5.40148">
        <ele>366.2</ele>
        <time>2022-03-12T12:17:33Z</time>
      </trkpt>
      <trkpt lat="46.35276" lon="5.40172">
        <ele>366.2</ele>
        <time>2022-03-12T12:17:35Z</time>
      </trkpt>
      <trkpt lat="46.35278" lon="5.40233">
        <ele>366</ele>
        <time>2022-03-12T12:17:40Z</time>
      </trkpt>
      <trkpt lat="46.3528" lon="5.40272">
        <ele>365.4</ele>
        <time>2022-03-12T12:17:43Z</time>
      </trkpt>
      <trkpt lat="46.35286" lon="5.40334">
        <ele>364.6</ele>
        <time>2022-03-12T12:17:48Z</time>
      </trkpt>
      <trkpt lat="46.35288" lon="5.40346">
        <ele>364.2</ele>
        <time>2022-03-12T12:17:49Z</time>
      </trkpt>
      <trkpt lat="46.35296" lon="5.40369">
        <ele>364</ele>
        <time>2022-03-12T12:17:51Z</time>
      </trkpt>
      <trkpt lat="46.35309" lon="5.40384">
        <ele>363.8</ele>
        <time>2022-03-12T12:17:53Z</time>
      </trkpt>
      <trkpt lat="46.35316" lon="5.40388">
        <ele>363.8</ele>
        <time>2022-03-12T12:17:54Z</time>
      </trkpt>
      <trkpt lat="46.35361" lon="5.40405">
        <ele>364.2</ele>
        <time>2022-03-12T12:18:00Z</time>
      </trkpt>
      <trkpt lat="46.35374" lon="5.40411">
        <ele>364.4</ele>
        <time>2022-03-12T12:18:02Z</time>
      </trkpt>
      <trkpt lat="46.35384" lon="5.40421">
        <ele>364.4</ele>
        <time>2022-03-12T12:18:04Z</time>
      </trkpt>
      <trkpt lat="46.35391" lon="5.40434">
        <ele>365</ele>
        <time>2022-03-12T12:18:06Z</time>
      </trkpt>
      <trkpt lat="46.35396" lon="5.4045">
        <ele>365.6</ele>
        <time>2022-03-12T12:18:08Z</time>
      </trkpt>
      <trkpt lat="46.35404" lon="5.4051">
        <ele>366.2</ele>
        <time>2022-03-12T12:18:14Z</time>
      </trkpt>
      <trkpt lat="46.35406" lon="5.40531">
        <ele>366.4</ele>
        <time>2022-03-12T12:18:16Z</time>
      </trkpt>
      <trkpt lat="46.35403" lon="5.40561">
        <ele>366.4</ele>
        <time>2022-03-12T12:18:19Z</time>
      </trkpt>
      <trkpt lat="46.35401" lon="5.40579">
        <ele>366.4</ele>
        <time>2022-03-12T12:18:21Z</time>
      </trkpt>
      <trkpt lat="46.35399" lon="5.40595">
        <ele>366.6</ele>
        <time>2022-03-12T12:18:23Z</time>
      </trkpt>
      <trkpt lat="46.3539" lon="5.40649">
        <ele>367.8</ele>
        <time>2022-03-12T12:18:30Z</time>
      </trkpt>
      <trkpt lat="46.35389" lon="5.40656">
        <ele>368</ele>
        <time>2022-03-12T12:18:31Z</time>
      </trkpt>
      <trkpt lat="46.35384" lon="5.40668">
        <ele>368.2</ele>
        <time>2022-03-12T12:18:33Z</time>
      </trkpt>
      <trkpt lat="46.35381" lon="5.40673">
        <ele>368.4</ele>
        <time>2022-03-12T12:18:34Z</time>
      </trkpt>
      <trkpt lat="46.35377" lon="5.40678">
        <ele>368.8</ele>
        <time>2022-03-12T12:18:35Z</time>
      </trkpt>
      <trkpt lat="46.35374" lon="5.40683">
        <ele>368.8</ele>
        <time>2022-03-12T12:18:36Z</time>
      </trkpt>
      <trkpt lat="46.3537" lon="5.40686">
        <ele>369</ele>
        <time>2022-03-12T12:18:37Z</time>
      </trkpt>
      <trkpt lat="46.35367" lon="5.40689">
        <ele>369.4</ele>
        <time>2022-03-12T12:18:38Z</time>
      </trkpt>
      <trkpt lat="46.35359" lon="5.40694">
        <ele>370</ele>
        <time>2022-03-12T12:18:40Z</time>
      </trkpt>
      <trkpt lat="46.35342" lon="5.40702">
        <ele>371.4</ele>
        <time>2022-03-12T12:18:44Z</time>
      </trkpt>
      <trkpt lat="46.35339" lon="5.40705">
        <ele>371.6</ele>
        <time>2022-03-12T12:18:45Z</time>
      </trkpt>
      <trkpt lat="46.35329" lon="5.40712">
        <ele>372.6</ele>
        <time>2022-03-12T12:18:48Z</time>
      </trkpt>
      <trkpt lat="46.35323" lon="5.4072">
        <ele>373</ele>
        <time>2022-03-12T12:18:50Z</time>
      </trkpt>
      <trkpt lat="46.3532" lon="5.40725">
        <ele>373.4</ele>
        <time>2022-03-12T12:18:51Z</time>
      </trkpt>
      <trkpt lat="46.35319" lon="5.40729">
        <ele>373.6</ele>
        <time>2022-03-12T12:18:52Z</time>
      </trkpt>
      <trkpt lat="46.35314" lon="5.40739">
        <ele>374.6</ele>
        <time>2022-03-12T12:18:54Z</time>
      </trkpt>
      <trkpt lat="46.35312" lon="5.40744">
        <ele>374.8</ele>
        <time>2022-03-12T12:18:55Z</time>
      </trkpt>
      <trkpt lat="46.35305" lon="5.40758">
        <ele>376</ele>
        <time>2022-03-12T12:18:58Z</time>
      </trkpt>
      <trkpt lat="46.35295" lon="5.40779">
        <ele>376.6</ele>
        <time>2022-03-12T12:19:02Z</time>
      </trkpt>
      <trkpt lat="46.35286" lon="5.40797">
        <ele>377</ele>
        <time>2022-03-12T12:19:05Z</time>
      </trkpt>
      <trkpt lat="46.35273" lon="5.40825">
        <ele>377</ele>
        <time>2022-03-12T12:19:09Z</time>
      </trkpt>
      <trkpt lat="46.35249" lon="5.40873">
        <ele>377</ele>
        <time>2022-03-12T12:19:16Z</time>
      </trkpt>
      <trkpt lat="46.35245" lon="5.4088">
        <ele>376.8</ele>
        <time>2022-03-12T12:19:17Z</time>
      </trkpt>
      <trkpt lat="46.35241" lon="5.40885">
        <ele>376.8</ele>
        <time>2022-03-12T12:19:18Z</time>
      </trkpt>
      <trkpt lat="46.3523" lon="5.40895">
        <ele>376.4</ele>
        <time>2022-03-12T12:19:20Z</time>
      </trkpt>
      <trkpt lat="46.35224" lon="5.40898">
        <ele>376.2</ele>
        <time>2022-03-12T12:19:21Z</time>
      </trkpt>
      <trkpt lat="46.35217" lon="5.40899">
        <ele>376.2</ele>
        <time>2022-03-12T12:19:22Z</time>
      </trkpt>
      <trkpt lat="46.35195" lon="5.40901">
        <ele>375.8</ele>
        <time>2022-03-12T12:19:25Z</time>
      </trkpt>
      <trkpt lat="46.35153" lon="5.40909">
        <ele>374.6</ele>
        <time>2022-03-12T12:19:30Z</time>
      </trkpt>
      <trkpt lat="46.35144" lon="5.40912">
        <ele>374.4</ele>
        <time>2022-03-12T12:19:31Z</time>
      </trkpt>
      <trkpt lat="46.35116" lon="5.40924">
        <ele>372.8</ele>
        <time>2022-03-12T12:19:34Z</time>
      </trkpt>
      <trkpt lat="46.35107" lon="5.40931">
        <ele>372.2</ele>
        <time>2022-03-12T12:19:35Z</time>
      </trkpt>
      <trkpt lat="46.35097" lon="5.40939">
        <ele>371.8</ele>
        <time>2022-03-12T12:19:36Z</time>
      </trkpt>
      <trkpt lat="46.3508" lon="5.40957">
        <ele>370.8</ele>
        <time>2022-03-12T12:19:38Z</time>
      </trkpt>
      <trkpt lat="46.35073" lon="5.40965">
        <ele>370.2</ele>
        <time>2022-03-12T12:19:39Z</time>
      </trkpt>
      <trkpt lat="46.35062" lon="5.40977">
        <ele>369.6</ele>
        <time>2022-03-12T12:19:40Z</time>
      </trkpt>
      <trkpt lat="46.35046" lon="5.41001">
        <ele>368</ele>
        <time>2022-03-12T12:19:42Z</time>
      </trkpt>
      <trkpt lat="46.35038" lon="5.41014">
        <ele>367.4</ele>
        <time>2022-03-12T12:19:43Z</time>
      </trkpt>
      <trkpt lat="46.35031" lon="5.41027">
        <ele>366.6</ele>
        <time>2022-03-12T12:19:44Z</time>
      </trkpt>
      <trkpt lat="46.35018" lon="5.41056">
        <ele>365.6</ele>
        <time>2022-03-12T12:19:46Z</time>
      </trkpt>
      <trkpt lat="46.35007" lon="5.41082">
        <ele>364.6</ele>
        <time>2022-03-12T12:19:48Z</time>
      </trkpt>
      <trkpt lat="46.34994" lon="5.41112">
        <ele>363.4</ele>
        <time>2022-03-12T12:19:50Z</time>
      </trkpt>
      <trkpt lat="46.34982" lon="5.41139">
        <ele>362.8</ele>
        <time>2022-03-12T12:19:52Z</time>
      </trkpt>
      <trkpt lat="46.34976" lon="5.41148">
        <ele>362.4</ele>
        <time>2022-03-12T12:19:53Z</time>
      </trkpt>
      <trkpt lat="46.34966" lon="5.41161">
        <ele>362.2</ele>
        <time>2022-03-12T12:19:54Z</time>
      </trkpt>
      <trkpt lat="46.34928" lon="5.41213">
        <ele>361.4</ele>
        <time>2022-03-12T12:19:59Z</time>
      </trkpt>
      <trkpt lat="46.34921" lon="5.41224">
        <ele>360.8</ele>
        <time>2022-03-12T12:20:00Z</time>
      </trkpt>
      <trkpt lat="46.34891" lon="5.41277">
        <ele>359.8</ele>
        <time>2022-03-12T12:20:05Z</time>
      </trkpt>
      <trkpt lat="46.34884" lon="5.41288">
        <ele>359.8</ele>
        <time>2022-03-12T12:20:06Z</time>
      </trkpt>
      <trkpt lat="46.34849" lon="5.41337">
        <ele>359</ele>
        <time>2022-03-12T12:20:11Z</time>
      </trkpt>
      <trkpt lat="46.34827" lon="5.41362">
        <ele>358.6</ele>
        <time>2022-03-12T12:20:14Z</time>
      </trkpt>
      <trkpt lat="46.34791" lon="5.41402">
        <ele>358.6</ele>
        <time>2022-03-12T12:20:19Z</time>
      </trkpt>
      <trkpt lat="46.34744" lon="5.4146">
        <ele>358.6</ele>
        <time>2022-03-12T12:20:26Z</time>
      </trkpt>
      <trkpt lat="46.34738" lon="5.41468">
        <ele>358.8</ele>
        <time>2022-03-12T12:20:27Z</time>
      </trkpt>
      <trkpt lat="46.34697" lon="5.41533">
        <ele>358.6</ele>
        <time>2022-03-12T12:20:34Z</time>
      </trkpt>
      <trkpt lat="46.34685" lon="5.41551">
        <ele>358.8</ele>
        <time>2022-03-12T12:20:36Z</time>
      </trkpt>
      <trkpt lat="46.34646" lon="5.41616">
        <ele>358.8</ele>
        <time>2022-03-12T12:20:43Z</time>
      </trkpt>
      <trkpt lat="46.34635" lon="5.41635">
        <ele>358.8</ele>
        <time>2022-03-12T12:20:45Z</time>
      </trkpt>
      <trkpt lat="46.34603" lon="5.41675">
        <ele>358.6</ele>
        <time>2022-03-12T12:20:50Z</time>
      </trkpt>
      <trkpt lat="46.34557" lon="5.41706">
        <ele>358.4</ele>
        <time>2022-03-12T12:20:56Z</time>
      </trkpt>
      <trkpt lat="46.34511" lon="5.41746">
        <ele>357.6</ele>
        <time>2022-03-12T12:21:02Z</time>
      </trkpt>
      <trkpt lat="46.34505" lon="5.41751">
        <ele>357.4</ele>
        <time>2022-03-12T12:21:03Z</time>
      </trkpt>
      <trkpt lat="46.34456" lon="5.41801">
        <ele>356.6</ele>
        <time>2022-03-12T12:21:10Z</time>
      </trkpt>
      <trkpt lat="46.34417" lon="5.41837">
        <ele>356.6</ele>
        <time>2022-03-12T12:21:16Z</time>
      </trkpt>
      <trkpt lat="46.34367" lon="5.41878">
        <ele>356.6</ele>
        <time>2022-03-12T12:21:23Z</time>
      </trkpt>
      <trkpt lat="46.34362" lon="5.41887">
        <ele>356.6</ele>
        <time>2022-03-12T12:21:24Z</time>
      </trkpt>
      <trkpt lat="46.34357" lon="5.41897">
        <ele>356.2</ele>
        <time>2022-03-12T12:21:25Z</time>
      </trkpt>
      <trkpt lat="46.3435" lon="5.4192">
        <ele>356</ele>
        <time>2022-03-12T12:21:27Z</time>
      </trkpt>
      <trkpt lat="46.34343" lon="5.41966">
        <ele>355.8</ele>
        <time>2022-03-12T12:21:31Z</time>
      </trkpt>
      <trkpt lat="46.34336" lon="5.41987">
        <ele>355.8</ele>
        <time>2022-03-12T12:21:33Z</time>
      </trkpt>
      <trkpt lat="46.34316" lon="5.42022">
        <ele>355.8</ele>
        <time>2022-03-12T12:21:37Z</time>
      </trkpt>
      <trkpt lat="46.34274" lon="5.42081">
        <ele>355.2</ele>
        <time>2022-03-12T12:21:44Z</time>
      </trkpt>
      <trkpt lat="46.34262" lon="5.42097">
        <ele>355</ele>
        <time>2022-03-12T12:21:46Z</time>
      </trkpt>
      <trkpt lat="46.34218" lon="5.4215">
        <ele>354.8</ele>
        <time>2022-03-12T12:21:53Z</time>
      </trkpt>
      <trkpt lat="46.34205" lon="5.42165">
        <ele>354.8</ele>
        <time>2022-03-12T12:21:55Z</time>
      </trkpt>
      <trkpt lat="46.34162" lon="5.42215">
        <ele>354.6</ele>
        <time>2022-03-12T12:22:02Z</time>
      </trkpt>
      <trkpt lat="46.34155" lon="5.42223">
        <ele>354.6</ele>
        <time>2022-03-12T12:22:03Z</time>
      </trkpt>
      <trkpt lat="46.34116" lon="5.42265">
        <ele>354.8</ele>
        <time>2022-03-12T12:22:10Z</time>
      </trkpt>
      <trkpt lat="46.34072" lon="5.4231">
        <ele>355.4</ele>
        <time>2022-03-12T12:22:18Z</time>
      </trkpt>
      <trkpt lat="46.34055" lon="5.42321">
        <ele>356.2</ele>
        <time>2022-03-12T12:22:21Z</time>
      </trkpt>
      <trkpt lat="46.3403" lon="5.42335">
        <ele>357</ele>
        <time>2022-03-12T12:22:25Z</time>
      </trkpt>
      <trkpt lat="46.33989" lon="5.42362">
        <ele>356.8</ele>
        <time>2022-03-12T12:22:31Z</time>
      </trkpt>
      <trkpt lat="46.33942" lon="5.42403">
        <ele>355.6</ele>
        <time>2022-03-12T12:22:38Z</time>
      </trkpt>
      <trkpt lat="46.33927" lon="5.42414">
        <ele>355.4</ele>
        <time>2022-03-12T12:22:40Z</time>
      </trkpt>
      <trkpt lat="46.33883" lon="5.42452">
        <ele>354.2</ele>
        <time>2022-03-12T12:22:46Z</time>
      </trkpt>
      <trkpt lat="46.33876" lon="5.42459">
        <ele>354</ele>
        <time>2022-03-12T12:22:47Z</time>
      </trkpt>
      <trkpt lat="46.33828" lon="5.42512">
        <ele>353</ele>
        <time>2022-03-12T12:22:54Z</time>
      </trkpt>
      <trkpt lat="46.33815" lon="5.42528">
        <ele>352.6</ele>
        <time>2022-03-12T12:22:56Z</time>
      </trkpt>
      <trkpt lat="46.33775" lon="5.42578">
        <ele>352</ele>
        <time>2022-03-12T12:23:02Z</time>
      </trkpt>
      <trkpt lat="46.33763" lon="5.42597">
        <ele>351.6</ele>
        <time>2022-03-12T12:23:04Z</time>
      </trkpt>
      <trkpt lat="46.33739" lon="5.42649">
        <ele>351</ele>
        <time>2022-03-12T12:23:09Z</time>
      </trkpt>
      <trkpt lat="46.33735" lon="5.42661">
        <ele>350.6</ele>
        <time>2022-03-12T12:23:10Z</time>
      </trkpt>
      <trkpt lat="46.33717" lon="5.42718">
        <ele>349.8</ele>
        <time>2022-03-12T12:23:15Z</time>
      </trkpt>
      <trkpt lat="46.33712" lon="5.42728">
        <ele>349.4</ele>
        <time>2022-03-12T12:23:16Z</time>
      </trkpt>
      <trkpt lat="46.33706" lon="5.42738">
        <ele>349.4</ele>
        <time>2022-03-12T12:23:17Z</time>
      </trkpt>
      <trkpt lat="46.33692" lon="5.42755">
        <ele>349.2</ele>
        <time>2022-03-12T12:23:19Z</time>
      </trkpt>
      <trkpt lat="46.33684" lon="5.42762">
        <ele>349.2</ele>
        <time>2022-03-12T12:23:20Z</time>
      </trkpt>
      <trkpt lat="46.33676" lon="5.42768">
        <ele>349</ele>
        <time>2022-03-12T12:23:21Z</time>
      </trkpt>
      <trkpt lat="46.33651" lon="5.4278">
        <ele>348.8</ele>
        <time>2022-03-12T12:23:24Z</time>
      </trkpt>
      <trkpt lat="46.33634" lon="5.42786">
        <ele>348.4</ele>
        <time>2022-03-12T12:23:26Z</time>
      </trkpt>
      <trkpt lat="46.33594" lon="5.42804">
        <ele>347.6</ele>
        <time>2022-03-12T12:23:31Z</time>
      </trkpt>
      <trkpt lat="46.3356" lon="5.42831">
        <ele>347.4</ele>
        <time>2022-03-12T12:23:36Z</time>
      </trkpt>
      <trkpt lat="46.33546" lon="5.42838">
        <ele>347.4</ele>
        <time>2022-03-12T12:23:38Z</time>
      </trkpt>
      <trkpt lat="46.33539" lon="5.42838">
        <ele>347.6</ele>
        <time>2022-03-12T12:23:39Z</time>
      </trkpt>
      <trkpt lat="46.33533" lon="5.42837">
        <ele>347.6</ele>
        <time>2022-03-12T12:23:40Z</time>
      </trkpt>
      <trkpt lat="46.33516" lon="5.4283">
        <ele>347.8</ele>
        <time>2022-03-12T12:23:43Z</time>
      </trkpt>
      <trkpt lat="46.33503" lon="5.42822">
        <ele>348.2</ele>
        <time>2022-03-12T12:23:46Z</time>
      </trkpt>
      <trkpt lat="46.33495" lon="5.42817">
        <ele>349.2</ele>
        <time>2022-03-12T12:23:48Z</time>
      </trkpt>
      <trkpt lat="46.33492" lon="5.42814">
        <ele>349.6</ele>
        <time>2022-03-12T12:23:49Z</time>
      </trkpt>
      <trkpt lat="46.33472" lon="5.42804">
        <ele>350.6</ele>
        <time>2022-03-12T12:23:54Z</time>
      </trkpt>
      <trkpt lat="46.33468" lon="5.42803">
        <ele>350.8</ele>
        <time>2022-03-12T12:23:55Z</time>
      </trkpt>
      <trkpt lat="46.33448" lon="5.42799">
        <ele>352.2</ele>
        <time>2022-03-12T12:24:00Z</time>
      </trkpt>
      <trkpt lat="46.33431" lon="5.42797">
        <ele>353.6</ele>
        <time>2022-03-12T12:24:04Z</time>
      </trkpt>
      <trkpt lat="46.33408" lon="5.42795">
        <ele>354.8</ele>
        <time>2022-03-12T12:24:09Z</time>
      </trkpt>
      <trkpt lat="46.33392" lon="5.42794">
        <ele>355.4</ele>
        <time>2022-03-12T12:24:13Z</time>
      </trkpt>
      <trkpt lat="46.33383" lon="5.42795">
        <ele>355.8</ele>
        <time>2022-03-12T12:24:15Z</time>
      </trkpt>
      <trkpt lat="46.33357" lon="5.42798">
        <ele>356.4</ele>
        <time>2022-03-12T12:24:21Z</time>
      </trkpt>
      <trkpt lat="46.3334" lon="5.42805">
        <ele>357</ele>
        <time>2022-03-12T12:24:25Z</time>
      </trkpt>
      <trkpt lat="46.33332" lon="5.42808">
        <ele>357.4</ele>
        <time>2022-03-12T12:24:27Z</time>
      </trkpt>
      <trkpt lat="46.33319" lon="5.42812">
        <ele>357.8</ele>
        <time>2022-03-12T12:24:30Z</time>
      </trkpt>
      <trkpt lat="46.33316" lon="5.42814">
        <ele>358</ele>
        <time>2022-03-12T12:24:31Z</time>
      </trkpt>
      <trkpt lat="46.33308" lon="5.42818">
        <ele>358.4</ele>
        <time>2022-03-12T12:24:33Z</time>
      </trkpt>
      <trkpt lat="46.333" lon="5.42824">
        <ele>358.8</ele>
        <time>2022-03-12T12:24:35Z</time>
      </trkpt>
      <trkpt lat="46.33297" lon="5.42828">
        <ele>359</ele>
        <time>2022-03-12T12:24:36Z</time>
      </trkpt>
      <trkpt lat="46.33294" lon="5.42832">
        <ele>359.2</ele>
        <time>2022-03-12T12:24:37Z</time>
      </trkpt>
      <trkpt lat="46.33291" lon="5.42835">
        <ele>359.2</ele>
        <time>2022-03-12T12:24:38Z</time>
      </trkpt>
      <trkpt lat="46.33277" lon="5.42855">
        <ele>360.2</ele>
        <time>2022-03-12T12:24:43Z</time>
      </trkpt>
      <trkpt lat="46.33264" lon="5.42874">
        <ele>361.2</ele>
        <time>2022-03-12T12:24:48Z</time>
      </trkpt>
      <trkpt lat="46.33252" lon="5.42887">
        <ele>362</ele>
        <time>2022-03-12T12:24:52Z</time>
      </trkpt>
      <trkpt lat="46.33249" lon="5.4289">
        <ele>362.4</ele>
        <time>2022-03-12T12:24:53Z</time>
      </trkpt>
      <trkpt lat="46.33236" lon="5.42897">
        <ele>363.4</ele>
        <time>2022-03-12T12:24:57Z</time>
      </trkpt>
      <trkpt lat="46.33229" lon="5.42899">
        <ele>363.8</ele>
        <time>2022-03-12T12:24:59Z</time>
      </trkpt>
      <trkpt lat="46.33217" lon="5.42903">
        <ele>364.6</ele>
        <time>2022-03-12T12:25:02Z</time>
      </trkpt>
      <trkpt lat="46.33196" lon="5.4291">
        <ele>365.8</ele>
        <time>2022-03-12T12:25:07Z</time>
      </trkpt>
      <trkpt lat="46.33187" lon="5.42913">
        <ele>366.2</ele>
        <time>2022-03-12T12:25:09Z</time>
      </trkpt>
      <trkpt lat="46.33173" lon="5.42918">
        <ele>366.4</ele>
        <time>2022-03-12T12:25:12Z</time>
      </trkpt>
      <trkpt lat="46.33163" lon="5.42926">
        <ele>366.6</ele>
        <time>2022-03-12T12:25:14Z</time>
      </trkpt>
      <trkpt lat="46.33153" lon="5.42937">
        <ele>366.6</ele>
        <time>2022-03-12T12:25:16Z</time>
      </trkpt>
      <trkpt lat="46.33145" lon="5.42952">
        <ele>366.2</ele>
        <time>2022-03-12T12:25:18Z</time>
      </trkpt>
      <trkpt lat="46.33125" lon="5.42997">
        <ele>365</ele>
        <time>2022-03-12T12:25:23Z</time>
      </trkpt>
      <trkpt lat="46.3312" lon="5.43006">
        <ele>365</ele>
        <time>2022-03-12T12:25:24Z</time>
      </trkpt>
      <trkpt lat="46.33104" lon="5.43029">
        <ele>364.8</ele>
        <time>2022-03-12T12:25:27Z</time>
      </trkpt>
      <trkpt lat="46.33092" lon="5.4304">
        <ele>364.4</ele>
        <time>2022-03-12T12:25:29Z</time>
      </trkpt>
      <trkpt lat="46.33081" lon="5.43047">
        <ele>364.2</ele>
        <time>2022-03-12T12:25:31Z</time>
      </trkpt>
      <trkpt lat="46.33076" lon="5.43051">
        <ele>364.2</ele>
        <time>2022-03-12T12:25:32Z</time>
      </trkpt>
      <trkpt lat="46.33056" lon="5.43063">
        <ele>364.8</ele>
        <time>2022-03-12T12:25:36Z</time>
      </trkpt>
      <trkpt lat="46.3303" lon="5.43085">
        <ele>365.8</ele>
        <time>2022-03-12T12:25:42Z</time>
      </trkpt>
      <trkpt lat="46.33025" lon="5.43088">
        <ele>366.4</ele>
        <time>2022-03-12T12:25:43Z</time>
      </trkpt>
      <trkpt lat="46.3302" lon="5.4309">
        <ele>366.6</ele>
        <time>2022-03-12T12:25:44Z</time>
      </trkpt>
      <trkpt lat="46.33006" lon="5.43092">
        <ele>367.4</ele>
        <time>2022-03-12T12:25:47Z</time>
      </trkpt>
      <trkpt lat="46.32972" lon="5.4309">
        <ele>368.4</ele>
        <time>2022-03-12T12:25:53Z</time>
      </trkpt>
      <trkpt lat="46.32966" lon="5.43089">
        <ele>368.4</ele>
        <time>2022-03-12T12:25:54Z</time>
      </trkpt>
      <trkpt lat="46.32927" lon="5.43081">
        <ele>367.8</ele>
        <time>2022-03-12T12:26:00Z</time>
      </trkpt>
      <trkpt lat="46.32913" lon="5.43078">
        <ele>367.2</ele>
        <time>2022-03-12T12:26:02Z</time>
      </trkpt>
      <trkpt lat="46.32877" lon="5.4307">
        <ele>366.6</ele>
        <time>2022-03-12T12:26:07Z</time>
      </trkpt>
      <trkpt lat="46.32861" lon="5.43066">
        <ele>366.4</ele>
        <time>2022-03-12T12:26:09Z</time>
      </trkpt>
      <trkpt lat="46.32847" lon="5.43058">
        <ele>366.2</ele>
        <time>2022-03-12T12:26:11Z</time>
      </trkpt>
      <trkpt lat="46.32819" lon="5.43046">
        <ele>366</ele>
        <time>2022-03-12T12:26:15Z</time>
      </trkpt>
      <trkpt lat="46.32807" lon="5.43038">
        <ele>366</ele>
        <time>2022-03-12T12:26:17Z</time>
      </trkpt>
      <trkpt lat="46.32775" lon="5.43016">
        <ele>366.6</ele>
        <time>2022-03-12T12:26:23Z</time>
      </trkpt>
      <trkpt lat="46.32764" lon="5.43007">
        <ele>367.2</ele>
        <time>2022-03-12T12:26:25Z</time>
      </trkpt>
      <trkpt lat="46.32756" lon="5.42995">
        <ele>367.4</ele>
        <time>2022-03-12T12:26:27Z</time>
      </trkpt>
      <trkpt lat="46.32738" lon="5.4297">
        <ele>367.6</ele>
        <time>2022-03-12T12:26:31Z</time>
      </trkpt>
      <trkpt lat="46.32727" lon="5.42962">
        <ele>367.8</ele>
        <time>2022-03-12T12:26:33Z</time>
      </trkpt>
      <trkpt lat="46.32706" lon="5.42951">
        <ele>368.2</ele>
        <time>2022-03-12T12:26:37Z</time>
      </trkpt>
      <trkpt lat="46.32701" lon="5.42949">
        <ele>368.2</ele>
        <time>2022-03-12T12:26:38Z</time>
      </trkpt>
      <trkpt lat="46.32696" lon="5.42948">
        <ele>368.2</ele>
        <time>2022-03-12T12:26:39Z</time>
      </trkpt>
      <trkpt lat="46.32651" lon="5.42937">
        <ele>368.8</ele>
        <time>2022-03-12T12:26:47Z</time>
      </trkpt>
      <trkpt lat="46.32629" lon="5.42932">
        <ele>369.2</ele>
        <time>2022-03-12T12:26:51Z</time>
      </trkpt>
      <trkpt lat="46.32603" lon="5.42925">
        <ele>369.8</ele>
        <time>2022-03-12T12:26:56Z</time>
      </trkpt>
      <trkpt lat="46.32577" lon="5.4292">
        <ele>370.4</ele>
        <time>2022-03-12T12:27:01Z</time>
      </trkpt>
      <trkpt lat="46.32556" lon="5.42917">
        <ele>370.8</ele>
        <time>2022-03-12T12:27:05Z</time>
      </trkpt>
      <trkpt lat="46.32542" lon="5.42915">
        <ele>371.4</ele>
        <time>2022-03-12T12:27:08Z</time>
      </trkpt>
      <trkpt lat="46.32513" lon="5.42914">
        <ele>372</ele>
        <time>2022-03-12T12:27:14Z</time>
      </trkpt>
      <trkpt lat="46.32499" lon="5.42916">
        <ele>372.6</ele>
        <time>2022-03-12T12:27:17Z</time>
      </trkpt>
      <trkpt lat="46.32476" lon="5.42915">
        <ele>373.8</ele>
        <time>2022-03-12T12:27:22Z</time>
      </trkpt>
      <trkpt lat="46.32462" lon="5.42911">
        <ele>374.2</ele>
        <time>2022-03-12T12:27:25Z</time>
      </trkpt>
      <trkpt lat="46.32454" lon="5.42906">
        <ele>374.8</ele>
        <time>2022-03-12T12:27:27Z</time>
      </trkpt>
      <trkpt lat="46.32445" lon="5.42901">
        <ele>375.2</ele>
        <time>2022-03-12T12:27:29Z</time>
      </trkpt>
      <trkpt lat="46.32428" lon="5.42891">
        <ele>376</ele>
        <time>2022-03-12T12:27:33Z</time>
      </trkpt>
      <trkpt lat="46.3241" lon="5.42884">
        <ele>376.6</ele>
        <time>2022-03-12T12:27:37Z</time>
      </trkpt>
      <trkpt lat="46.32406" lon="5.42884">
        <ele>377</ele>
        <time>2022-03-12T12:27:38Z</time>
      </trkpt>
      <trkpt lat="46.32402" lon="5.42883">
        <ele>377</ele>
        <time>2022-03-12T12:27:39Z</time>
      </trkpt>
      <trkpt lat="46.32385" lon="5.42885">
        <ele>378.2</ele>
        <time>2022-03-12T12:27:43Z</time>
      </trkpt>
      <trkpt lat="46.32371" lon="5.42887">
        <ele>378.8</ele>
        <time>2022-03-12T12:27:46Z</time>
      </trkpt>
      <trkpt lat="46.32362" lon="5.4289">
        <ele>379.4</ele>
        <time>2022-03-12T12:27:48Z</time>
      </trkpt>
      <trkpt lat="46.32339" lon="5.42894">
        <ele>380.6</ele>
        <time>2022-03-12T12:27:53Z</time>
      </trkpt>
      <trkpt lat="46.3232" lon="5.42899">
        <ele>381.8</ele>
        <time>2022-03-12T12:27:57Z</time>
      </trkpt>
      <trkpt lat="46.32307" lon="5.42904">
        <ele>382.2</ele>
        <time>2022-03-12T12:28:00Z</time>
      </trkpt>
      <trkpt lat="46.32298" lon="5.4291">
        <ele>382.4</ele>
        <time>2022-03-12T12:28:02Z</time>
      </trkpt>
      <trkpt lat="46.32294" lon="5.42913">
        <ele>382.6</ele>
        <time>2022-03-12T12:28:03Z</time>
      </trkpt>
      <trkpt lat="46.32286" lon="5.42921">
        <ele>383</ele>
        <time>2022-03-12T12:28:05Z</time>
      </trkpt>
      <trkpt lat="46.32277" lon="5.42929">
        <ele>383.2</ele>
        <time>2022-03-12T12:28:07Z</time>
      </trkpt>
      <trkpt lat="46.3227" lon="5.4294">
        <ele>383.2</ele>
        <time>2022-03-12T12:28:09Z</time>
      </trkpt>
      <trkpt lat="46.32264" lon="5.42953">
        <ele>383.4</ele>
        <time>2022-03-12T12:28:11Z</time>
      </trkpt>
      <trkpt lat="46.32259" lon="5.42976">
        <ele>383.4</ele>
        <time>2022-03-12T12:28:14Z</time>
      </trkpt>
      <trkpt lat="46.32253" lon="5.42989">
        <ele>383.4</ele>
        <time>2022-03-12T12:28:16Z</time>
      </trkpt>
      <trkpt lat="46.32243" lon="5.42998">
        <ele>383.4</ele>
        <time>2022-03-12T12:28:18Z</time>
      </trkpt>
      <trkpt lat="46.3223" lon="5.43004">
        <ele>383.4</ele>
        <time>2022-03-12T12:28:20Z</time>
      </trkpt>
      <trkpt lat="46.32185" lon="5.43022">
        <ele>382.2</ele>
        <time>2022-03-12T12:28:26Z</time>
      </trkpt>
      <trkpt lat="46.32177" lon="5.43025">
        <ele>382</ele>
        <time>2022-03-12T12:28:27Z</time>
      </trkpt>
      <trkpt lat="46.32143" lon="5.43036">
        <ele>380.6</ele>
        <time>2022-03-12T12:28:31Z</time>
      </trkpt>
      <trkpt lat="46.32135" lon="5.43038">
        <ele>380.6</ele>
        <time>2022-03-12T12:28:32Z</time>
      </trkpt>
      <trkpt lat="46.321" lon="5.43047">
        <ele>379.6</ele>
        <time>2022-03-12T12:28:36Z</time>
      </trkpt>
      <trkpt lat="46.32063" lon="5.43059">
        <ele>378.8</ele>
        <time>2022-03-12T12:28:40Z</time>
      </trkpt>
      <trkpt lat="46.32045" lon="5.43066">
        <ele>377.8</ele>
        <time>2022-03-12T12:28:42Z</time>
      </trkpt>
      <trkpt lat="46.32018" lon="5.43075">
        <ele>376.8</ele>
        <time>2022-03-12T12:28:45Z</time>
      </trkpt>
      <trkpt lat="46.3199" lon="5.43083">
        <ele>375.8</ele>
        <time>2022-03-12T12:28:48Z</time>
      </trkpt>
      <trkpt lat="46.31981" lon="5.43086">
        <ele>375.4</ele>
        <time>2022-03-12T12:28:49Z</time>
      </trkpt>
      <trkpt lat="46.31954" lon="5.43094">
        <ele>374.2</ele>
        <time>2022-03-12T12:28:52Z</time>
      </trkpt>
      <trkpt lat="46.319" lon="5.4311">
        <ele>372.8</ele>
        <time>2022-03-12T12:28:58Z</time>
      </trkpt>
      <trkpt lat="46.31891" lon="5.43113">
        <ele>372.2</ele>
        <time>2022-03-12T12:28:59Z</time>
      </trkpt>
      <trkpt lat="46.31873" lon="5.4312">
        <ele>371.4</ele>
        <time>2022-03-12T12:29:01Z</time>
      </trkpt>
      <trkpt lat="46.31846" lon="5.43129">
        <ele>370.4</ele>
        <time>2022-03-12T12:29:04Z</time>
      </trkpt>
      <trkpt lat="46.3181" lon="5.43143">
        <ele>369.6</ele>
        <time>2022-03-12T12:29:08Z</time>
      </trkpt>
      <trkpt lat="46.31793" lon="5.4315">
        <ele>369.2</ele>
        <time>2022-03-12T12:29:10Z</time>
      </trkpt>
      <trkpt lat="46.31734" lon="5.43172">
        <ele>368.2</ele>
        <time>2022-03-12T12:29:17Z</time>
      </trkpt>
      <trkpt lat="46.31675" lon="5.43187">
        <ele>366.8</ele>
        <time>2022-03-12T12:29:24Z</time>
      </trkpt>
      <trkpt lat="46.31665" lon="5.43187">
        <ele>366.6</ele>
        <time>2022-03-12T12:29:25Z</time>
      </trkpt>
      <trkpt lat="46.31656" lon="5.43186">
        <ele>365.6</ele>
        <time>2022-03-12T12:29:26Z</time>
      </trkpt>
      <trkpt lat="46.31637" lon="5.43184">
        <ele>364.8</ele>
        <time>2022-03-12T12:29:28Z</time>
      </trkpt>
      <trkpt lat="46.31618" lon="5.43183">
        <ele>364.4</ele>
        <time>2022-03-12T12:29:30Z</time>
      </trkpt>
      <trkpt lat="46.31588" lon="5.43186">
        <ele>363.4</ele>
        <time>2022-03-12T12:29:33Z</time>
      </trkpt>
      <trkpt lat="46.31579" lon="5.43187">
        <ele>363.4</ele>
        <time>2022-03-12T12:29:34Z</time>
      </trkpt>
      <trkpt lat="46.31533" lon="5.43194">
        <ele>362</ele>
        <time>2022-03-12T12:29:39Z</time>
      </trkpt>
      <trkpt lat="46.31506" lon="5.43197">
        <ele>361.2</ele>
        <time>2022-03-12T12:29:42Z</time>
      </trkpt>
      <trkpt lat="46.3147" lon="5.43202">
        <ele>360.8</ele>
        <time>2022-03-12T12:29:46Z</time>
      </trkpt>
      <trkpt lat="46.31435" lon="5.43203">
        <ele>360.2</ele>
        <time>2022-03-12T12:29:50Z</time>
      </trkpt>
      <trkpt lat="46.31403" lon="5.43196">
        <ele>359.8</ele>
        <time>2022-03-12T12:29:54Z</time>
      </trkpt>
      <trkpt lat="46.31395" lon="5.43197">
        <ele>359.6</ele>
        <time>2022-03-12T12:29:55Z</time>
      </trkpt>
      <trkpt lat="46.31357" lon="5.43207">
        <ele>359.2</ele>
        <time>2022-03-12T12:30:00Z</time>
      </trkpt>
      <trkpt lat="46.3132" lon="5.4323">
        <ele>359</ele>
        <time>2022-03-12T12:30:05Z</time>
      </trkpt>
      <trkpt lat="46.31289" lon="5.43253">
        <ele>358.6</ele>
        <time>2022-03-12T12:30:09Z</time>
      </trkpt>
      <trkpt lat="46.31251" lon="5.43282">
        <ele>358</ele>
        <time>2022-03-12T12:30:14Z</time>
      </trkpt>
      <trkpt lat="46.31228" lon="5.43299">
        <ele>357.6</ele>
        <time>2022-03-12T12:30:17Z</time>
      </trkpt>
      <trkpt lat="46.31182" lon="5.43329">
        <ele>356.6</ele>
        <time>2022-03-12T12:30:23Z</time>
      </trkpt>
      <trkpt lat="46.31166" lon="5.43341">
        <ele>356.4</ele>
        <time>2022-03-12T12:30:25Z</time>
      </trkpt>
      <trkpt lat="46.31115" lon="5.43371">
        <ele>355.4</ele>
        <time>2022-03-12T12:30:31Z</time>
      </trkpt>
      <trkpt lat="46.31108" lon="5.43374">
        <ele>355</ele>
        <time>2022-03-12T12:30:32Z</time>
      </trkpt>
      <trkpt lat="46.31047" lon="5.43399">
        <ele>353.8</ele>
        <time>2022-03-12T12:30:39Z</time>
      </trkpt>
      <trkpt lat="46.31021" lon="5.43413">
        <ele>352.8</ele>
        <time>2022-03-12T12:30:42Z</time>
      </trkpt>
      <trkpt lat="46.31004" lon="5.43424">
        <ele>352.4</ele>
        <time>2022-03-12T12:30:44Z</time>
      </trkpt>
      <trkpt lat="46.3096" lon="5.4345">
        <ele>351</ele>
        <time>2022-03-12T12:30:49Z</time>
      </trkpt>
      <trkpt lat="46.30952" lon="5.43455">
        <ele>350.8</ele>
        <time>2022-03-12T12:30:50Z</time>
      </trkpt>
      <trkpt lat="46.30908" lon="5.43478">
        <ele>350</ele>
        <time>2022-03-12T12:30:55Z</time>
      </trkpt>
      <trkpt lat="46.30883" lon="5.43492">
        <ele>349.6</ele>
        <time>2022-03-12T12:30:58Z</time>
      </trkpt>
      <trkpt lat="46.30834" lon="5.43529">
        <ele>349</ele>
        <time>2022-03-12T12:31:04Z</time>
      </trkpt>
      <trkpt lat="46.30818" lon="5.43541">
        <ele>348.6</ele>
        <time>2022-03-12T12:31:06Z</time>
      </trkpt>
      <trkpt lat="46.30804" lon="5.43558">
        <ele>348.2</ele>
        <time>2022-03-12T12:31:08Z</time>
      </trkpt>
      <trkpt lat="46.30798" lon="5.43568">
        <ele>348</ele>
        <time>2022-03-12T12:31:09Z</time>
      </trkpt>
      <trkpt lat="46.30793" lon="5.43579">
        <ele>347.8</ele>
        <time>2022-03-12T12:31:10Z</time>
      </trkpt>
      <trkpt lat="46.30775" lon="5.43621">
        <ele>347.8</ele>
        <time>2022-03-12T12:31:14Z</time>
      </trkpt>
      <trkpt lat="46.30756" lon="5.43644">
        <ele>348</ele>
        <time>2022-03-12T12:31:17Z</time>
      </trkpt>
      <trkpt lat="46.30749" lon="5.4365">
        <ele>348.4</ele>
        <time>2022-03-12T12:31:18Z</time>
      </trkpt>
      <trkpt lat="46.3072" lon="5.43669">
        <ele>348.8</ele>
        <time>2022-03-12T12:31:22Z</time>
      </trkpt>
      <trkpt lat="46.30705" lon="5.43676">
        <ele>349</ele>
        <time>2022-03-12T12:31:24Z</time>
      </trkpt>
      <trkpt lat="46.30655" lon="5.43698">
        <ele>349.4</ele>
        <time>2022-03-12T12:31:31Z</time>
      </trkpt>
      <trkpt lat="46.30597" lon="5.43723">
        <ele>349.4</ele>
        <time>2022-03-12T12:31:39Z</time>
      </trkpt>
      <trkpt lat="46.30539" lon="5.4374">
        <ele>348.8</ele>
        <time>2022-03-12T12:31:46Z</time>
      </trkpt>
      <trkpt lat="46.30495" lon="5.43748">
        <ele>347.8</ele>
        <time>2022-03-12T12:31:51Z</time>
      </trkpt>
      <trkpt lat="46.30474" lon="5.43751">
        <ele>347.2</ele>
        <time>2022-03-12T12:31:53Z</time>
      </trkpt>
      <trkpt lat="46.30456" lon="5.43755">
        <ele>346.4</ele>
        <time>2022-03-12T12:31:55Z</time>
      </trkpt>
      <trkpt lat="46.30437" lon="5.4376">
        <ele>345.4</ele>
        <time>2022-03-12T12:31:57Z</time>
      </trkpt>
      <trkpt lat="46.30429" lon="5.43766">
        <ele>345</ele>
        <time>2022-03-12T12:31:58Z</time>
      </trkpt>
      <trkpt lat="46.30423" lon="5.43776">
        <ele>344.4</ele>
        <time>2022-03-12T12:31:59Z</time>
      </trkpt>
      <trkpt lat="46.3042" lon="5.43789">
        <ele>344.2</ele>
        <time>2022-03-12T12:32:00Z</time>
      </trkpt>
      <trkpt lat="46.30419" lon="5.43803">
        <ele>344</ele>
        <time>2022-03-12T12:32:01Z</time>
      </trkpt>
      <trkpt lat="46.3042" lon="5.43831">
        <ele>343.4</ele>
        <time>2022-03-12T12:32:03Z</time>
      </trkpt>
      <trkpt lat="46.30421" lon="5.43872">
        <ele>342.6</ele>
        <time>2022-03-12T12:32:06Z</time>
      </trkpt>
      <trkpt lat="46.30423" lon="5.43913">
        <ele>341.4</ele>
        <time>2022-03-12T12:32:09Z</time>
      </trkpt>
      <trkpt lat="46.30424" lon="5.43951">
        <ele>340.8</ele>
        <time>2022-03-12T12:32:12Z</time>
      </trkpt>
      <trkpt lat="46.30424" lon="5.43979">
        <ele>340.4</ele>
        <time>2022-03-12T12:32:15Z</time>
      </trkpt>
      <trkpt lat="46.30423" lon="5.43986">
        <ele>340</ele>
        <time>2022-03-12T12:32:16Z</time>
      </trkpt>
      <trkpt lat="46.3042" lon="5.43991">
        <ele>340</ele>
        <time>2022-03-12T12:32:17Z</time>
      </trkpt>
      <trkpt lat="46.30413" lon="5.43996">
        <ele>339.6</ele>
        <time>2022-03-12T12:32:19Z</time>
      </trkpt>
      <trkpt lat="46.30392" lon="5.43991">
        <ele>339.4</ele>
        <time>2022-03-12T12:32:23Z</time>
      </trkpt>
      <trkpt lat="46.3036" lon="5.43975">
        <ele>339.6</ele>
        <time>2022-03-12T12:32:28Z</time>
      </trkpt>
      <trkpt lat="46.3031" lon="5.43949">
        <ele>340.2</ele>
        <time>2022-03-12T12:32:35Z</time>
      </trkpt>
      <trkpt lat="46.30259" lon="5.43923">
        <ele>340.8</ele>
        <time>2022-03-12T12:32:43Z</time>
      </trkpt>
      <trkpt lat="46.3024" lon="5.43914">
        <ele>340.8</ele>
        <time>2022-03-12T12:32:46Z</time>
      </trkpt>
      <trkpt lat="46.30184" lon="5.43886">
        <ele>340.8</ele>
        <time>2022-03-12T12:32:55Z</time>
      </trkpt>
      <trkpt lat="46.3013" lon="5.43857">
        <ele>340.6</ele>
        <time>2022-03-12T12:33:03Z</time>
      </trkpt>
      <trkpt lat="46.30074" lon="5.43827">
        <ele>340.2</ele>
        <time>2022-03-12T12:33:11Z</time>
      </trkpt>
      <trkpt lat="46.30067" lon="5.43823">
        <ele>340.2</ele>
        <time>2022-03-12T12:33:12Z</time>
      </trkpt>
      <trkpt lat="46.30011" lon="5.43795">
        <ele>340</ele>
        <time>2022-03-12T12:33:20Z</time>
      </trkpt>
      <trkpt lat="46.2999" lon="5.43785">
        <ele>340</ele>
        <time>2022-03-12T12:33:23Z</time>
      </trkpt>
      <trkpt lat="46.29934" lon="5.43762">
        <ele>339.4</ele>
        <time>2022-03-12T12:33:31Z</time>
      </trkpt>
      <trkpt lat="46.29913" lon="5.43753">
        <ele>339.4</ele>
        <time>2022-03-12T12:33:34Z</time>
      </trkpt>
      <trkpt lat="46.29857" lon="5.43729">
        <ele>339.2</ele>
        <time>2022-03-12T12:33:42Z</time>
      </trkpt>
      <trkpt lat="46.2983" lon="5.43717">
        <ele>339</ele>
        <time>2022-03-12T12:33:46Z</time>
      </trkpt>
      <trkpt lat="46.29772" lon="5.43689">
        <ele>338.8</ele>
        <time>2022-03-12T12:33:54Z</time>
      </trkpt>
      <trkpt lat="46.29758" lon="5.43682">
        <ele>338.8</ele>
        <time>2022-03-12T12:33:56Z</time>
      </trkpt>
      <trkpt lat="46.29737" lon="5.43671">
        <ele>338.6</ele>
        <time>2022-03-12T12:33:59Z</time>
      </trkpt>
      <trkpt lat="46.29695" lon="5.43649">
        <ele>338.6</ele>
        <time>2022-03-12T12:34:05Z</time>
      </trkpt>
      <trkpt lat="46.29639" lon="5.4362">
        <ele>338.8</ele>
        <time>2022-03-12T12:34:13Z</time>
      </trkpt>
      <trkpt lat="46.29632" lon="5.43616">
        <ele>338.6</ele>
        <time>2022-03-12T12:34:14Z</time>
      </trkpt>
      <trkpt lat="46.29575" lon="5.43586">
        <ele>338.2</ele>
        <time>2022-03-12T12:34:22Z</time>
      </trkpt>
      <trkpt lat="46.29569" lon="5.43583">
        <ele>338.2</ele>
        <time>2022-03-12T12:34:23Z</time>
      </trkpt>
      <trkpt lat="46.29512" lon="5.43552">
        <ele>338</ele>
        <time>2022-03-12T12:34:31Z</time>
      </trkpt>
      <trkpt lat="46.29505" lon="5.43548">
        <ele>338</ele>
        <time>2022-03-12T12:34:32Z</time>
      </trkpt>
      <trkpt lat="46.2945" lon="5.43518">
        <ele>338.2</ele>
        <time>2022-03-12T12:34:40Z</time>
      </trkpt>
      <trkpt lat="46.29429" lon="5.43507">
        <ele>338</ele>
        <time>2022-03-12T12:34:43Z</time>
      </trkpt>
      <trkpt lat="46.29415" lon="5.43497">
        <ele>337.6</ele>
        <time>2022-03-12T12:34:45Z</time>
      </trkpt>
      <trkpt lat="46.29366" lon="5.43465">
        <ele>337</ele>
        <time>2022-03-12T12:34:52Z</time>
      </trkpt>
      <trkpt lat="46.29352" lon="5.43455">
        <ele>336.6</ele>
        <time>2022-03-12T12:34:54Z</time>
      </trkpt>
      <trkpt lat="46.29306" lon="5.43431">
        <ele>336</ele>
        <time>2022-03-12T12:35:00Z</time>
      </trkpt>
      <trkpt lat="46.29276" lon="5.43419">
        <ele>335.4</ele>
        <time>2022-03-12T12:35:04Z</time>
      </trkpt>
      <trkpt lat="46.29243" lon="5.43407">
        <ele>334.8</ele>
        <time>2022-03-12T12:35:08Z</time>
      </trkpt>
      <trkpt lat="46.29199" lon="5.43388">
        <ele>334.6</ele>
        <time>2022-03-12T12:35:14Z</time>
      </trkpt>
      <trkpt lat="46.29143" lon="5.43351">
        <ele>334.6</ele>
        <time>2022-03-12T12:35:22Z</time>
      </trkpt>
      <trkpt lat="46.29136" lon="5.43346">
        <ele>334.8</ele>
        <time>2022-03-12T12:35:23Z</time>
      </trkpt>
      <trkpt lat="46.29089" lon="5.43306">
        <ele>334.8</ele>
        <time>2022-03-12T12:35:30Z</time>
      </trkpt>
      <trkpt lat="46.29071" lon="5.43289">
        <ele>334.6</ele>
        <time>2022-03-12T12:35:33Z</time>
      </trkpt>
      <trkpt lat="46.29063" lon="5.43282">
        <ele>334.6</ele>
        <time>2022-03-12T12:35:34Z</time>
      </trkpt>
      <trkpt lat="46.29018" lon="5.43239">
        <ele>334.2</ele>
        <time>2022-03-12T12:35:41Z</time>
      </trkpt>
      <trkpt lat="46.28991" lon="5.43218">
        <ele>334.2</ele>
        <time>2022-03-12T12:35:45Z</time>
      </trkpt>
      <trkpt lat="46.28942" lon="5.43191">
        <ele>334</ele>
        <time>2022-03-12T12:35:52Z</time>
      </trkpt>
      <trkpt lat="46.28885" lon="5.43166">
        <ele>334</ele>
        <time>2022-03-12T12:36:00Z</time>
      </trkpt>
      <trkpt lat="46.28855" lon="5.43154">
        <ele>334</ele>
        <time>2022-03-12T12:36:04Z</time>
      </trkpt>
      <trkpt lat="46.28796" lon="5.43131">
        <ele>333.8</ele>
        <time>2022-03-12T12:36:12Z</time>
      </trkpt>
      <trkpt lat="46.28738" lon="5.43116">
        <ele>333.8</ele>
        <time>2022-03-12T12:36:20Z</time>
      </trkpt>
      <trkpt lat="46.28677" lon="5.4311">
        <ele>333.8</ele>
        <time>2022-03-12T12:36:28Z</time>
      </trkpt>
      <trkpt lat="46.28654" lon="5.43108">
        <ele>333.8</ele>
        <time>2022-03-12T12:36:31Z</time>
      </trkpt>
      <trkpt lat="46.28593" lon="5.43103">
        <ele>333.6</ele>
        <time>2022-03-12T12:36:39Z</time>
      </trkpt>
      <trkpt lat="46.28585" lon="5.43103">
        <ele>333.4</ele>
        <time>2022-03-12T12:36:40Z</time>
      </trkpt>
      <trkpt lat="46.28531" lon="5.43103">
        <ele>333.2</ele>
        <time>2022-03-12T12:36:47Z</time>
      </trkpt>
      <trkpt lat="46.28492" lon="5.43106">
        <ele>333.2</ele>
        <time>2022-03-12T12:36:52Z</time>
      </trkpt>
      <trkpt lat="46.28438" lon="5.43113">
        <ele>332.8</ele>
        <time>2022-03-12T12:36:59Z</time>
      </trkpt>
      <trkpt lat="46.2843" lon="5.43114">
        <ele>332.8</ele>
        <time>2022-03-12T12:37:00Z</time>
      </trkpt>
      <trkpt lat="46.28422" lon="5.43115">
        <ele>332.8</ele>
        <time>2022-03-12T12:37:01Z</time>
      </trkpt>
      <trkpt lat="46.28367" lon="5.43123">
        <ele>332.4</ele>
        <time>2022-03-12T12:37:08Z</time>
      </trkpt>
      <trkpt lat="46.28351" lon="5.43124">
        <ele>332.2</ele>
        <time>2022-03-12T12:37:10Z</time>
      </trkpt>
      <trkpt lat="46.28295" lon="5.43125">
        <ele>332</ele>
        <time>2022-03-12T12:37:17Z</time>
      </trkpt>
      <trkpt lat="46.28287" lon="5.43125">
        <ele>332</ele>
        <time>2022-03-12T12:37:18Z</time>
      </trkpt>
      <trkpt lat="46.28239" lon="5.43116">
        <ele>331.8</ele>
        <time>2022-03-12T12:37:24Z</time>
      </trkpt>
      <trkpt lat="46.28192" lon="5.43107">
        <ele>331.8</ele>
        <time>2022-03-12T12:37:30Z</time>
      </trkpt>
      <trkpt lat="46.28137" lon="5.43096">
        <ele>331.8</ele>
        <time>2022-03-12T12:37:37Z</time>
      </trkpt>
      <trkpt lat="46.28106" lon="5.4309">
        <ele>331.6</ele>
        <time>2022-03-12T12:37:40Z</time>
      </trkpt>
      <trkpt lat="46.28044" lon="5.43077">
        <ele>331.6</ele>
        <time>2022-03-12T12:37:48Z</time>
      </trkpt>
      <trkpt lat="46.28028" lon="5.43074">
        <ele>331.6</ele>
        <time>2022-03-12T12:37:50Z</time>
      </trkpt>
      <trkpt lat="46.27974" lon="5.43061">
        <ele>331.6</ele>
        <time>2022-03-12T12:37:57Z</time>
      </trkpt>
      <trkpt lat="46.27958" lon="5.43057">
        <ele>331.6</ele>
        <time>2022-03-12T12:37:59Z</time>
      </trkpt>
      <trkpt lat="46.27898" lon="5.43044">
        <ele>331.4</ele>
        <time>2022-03-12T12:38:07Z</time>
      </trkpt>
      <trkpt lat="46.27875" lon="5.43041">
        <ele>331.4</ele>
        <time>2022-03-12T12:38:10Z</time>
      </trkpt>
      <trkpt lat="46.27823" lon="5.43042">
        <ele>331.2</ele>
        <time>2022-03-12T12:38:17Z</time>
      </trkpt>
      <trkpt lat="46.2778" lon="5.43034">
        <ele>331.2</ele>
        <time>2022-03-12T12:38:23Z</time>
      </trkpt>
      <trkpt lat="46.27728" lon="5.43011">
        <ele>331.6</ele>
        <time>2022-03-12T12:38:31Z</time>
      </trkpt>
      <trkpt lat="46.27721" lon="5.43009">
        <ele>331.6</ele>
        <time>2022-03-12T12:38:32Z</time>
      </trkpt>
      <trkpt lat="46.27658" lon="5.42987">
        <ele>332.2</ele>
        <time>2022-03-12T12:38:42Z</time>
      </trkpt>
      <trkpt lat="46.2765" lon="5.42984">
        <ele>332.4</ele>
        <time>2022-03-12T12:38:43Z</time>
      </trkpt>
      <trkpt lat="46.27596" lon="5.42966">
        <ele>332.2</ele>
        <time>2022-03-12T12:38:51Z</time>
      </trkpt>
      <trkpt lat="46.27575" lon="5.42959">
        <ele>332.2</ele>
        <time>2022-03-12T12:38:54Z</time>
      </trkpt>
      <trkpt lat="46.27522" lon="5.42941">
        <ele>332.2</ele>
        <time>2022-03-12T12:39:02Z</time>
      </trkpt>
      <trkpt lat="46.27503" lon="5.42935">
        <ele>332.2</ele>
        <time>2022-03-12T12:39:05Z</time>
      </trkpt>
      <trkpt lat="46.27445" lon="5.42917">
        <ele>332.2</ele>
        <time>2022-03-12T12:39:13Z</time>
      </trkpt>
      <trkpt lat="46.27438" lon="5.42915">
        <ele>332.2</ele>
        <time>2022-03-12T12:39:14Z</time>
      </trkpt>
      <trkpt lat="46.2738" lon="5.42896">
        <ele>331.8</ele>
        <time>2022-03-12T12:39:22Z</time>
      </trkpt>
      <trkpt lat="46.27359" lon="5.42889">
        <ele>331.6</ele>
        <time>2022-03-12T12:39:25Z</time>
      </trkpt>
      <trkpt lat="46.27319" lon="5.42872">
        <ele>331.8</ele>
        <time>2022-03-12T12:39:31Z</time>
      </trkpt>
      <trkpt lat="46.27313" lon="5.42868">
        <ele>332</ele>
        <time>2022-03-12T12:39:33Z</time>
      </trkpt>
      <trkpt lat="46.2726" lon="5.42834">
        <ele>332.6</ele>
        <time>2022-03-12T12:39:41Z</time>
      </trkpt>
      <trkpt lat="46.27236" lon="5.4282">
        <ele>333.2</ele>
        <time>2022-03-12T12:39:45Z</time>
      </trkpt>
      <trkpt lat="46.27218" lon="5.42809">
        <ele>333.8</ele>
        <time>2022-03-12T12:39:48Z</time>
      </trkpt>
      <trkpt lat="46.27212" lon="5.42805">
        <ele>334.2</ele>
        <time>2022-03-12T12:39:50Z</time>
      </trkpt>
      <trkpt lat="46.2716" lon="5.42776">
        <ele>335.2</ele>
        <time>2022-03-12T12:39:58Z</time>
      </trkpt>
      <trkpt lat="46.27148" lon="5.42772">
        <ele>335.4</ele>
        <time>2022-03-12T12:40:00Z</time>
      </trkpt>
      <trkpt lat="46.27115" lon="5.42765">
        <ele>335.6</ele>
        <time>2022-03-12T12:40:05Z</time>
      </trkpt>
      <trkpt lat="46.27057" lon="5.4276">
        <ele>335</ele>
        <time>2022-03-12T12:40:13Z</time>
      </trkpt>
      <trkpt lat="46.27025" lon="5.42754">
        <ele>334.2</ele>
        <time>2022-03-12T12:40:17Z</time>
      </trkpt>
      <trkpt lat="46.26992" lon="5.42747">
        <ele>333</ele>
        <time>2022-03-12T12:40:21Z</time>
      </trkpt>
      <trkpt lat="46.26934" lon="5.42729">
        <ele>332</ele>
        <time>2022-03-12T12:40:29Z</time>
      </trkpt>
      <trkpt lat="46.26927" lon="5.42727">
        <ele>332</ele>
        <time>2022-03-12T12:40:30Z</time>
      </trkpt>
      <trkpt lat="46.26865" lon="5.42701">
        <ele>331.6</ele>
        <time>2022-03-12T12:40:39Z</time>
      </trkpt>
      <trkpt lat="46.26858" lon="5.42698">
        <ele>331.6</ele>
        <time>2022-03-12T12:40:40Z</time>
      </trkpt>
      <trkpt lat="46.26811" lon="5.42684">
        <ele>330.8</ele>
        <time>2022-03-12T12:40:47Z</time>
      </trkpt>
      <trkpt lat="46.26796" lon="5.4268">
        <ele>330.8</ele>
        <time>2022-03-12T12:40:48Z</time>
      </trkpt>
      <trkpt lat="46.26775" lon="5.42675">
        <ele>329.8</ele>
        <time>2022-03-12T12:40:51Z</time>
      </trkpt>
      <trkpt lat="46.2673" lon="5.42661">
        <ele>329</ele>
        <time>2022-03-12T12:40:57Z</time>
      </trkpt>
      <trkpt lat="46.26676" lon="5.42646">
        <ele>329</ele>
        <time>2022-03-12T12:41:05Z</time>
      </trkpt>
      <trkpt lat="46.26667" lon="5.42644">
        <ele>329</ele>
        <time>2022-03-12T12:41:06Z</time>
      </trkpt>
      <trkpt lat="46.26615" lon="5.4263">
        <ele>328.6</ele>
        <time>2022-03-12T12:41:13Z</time>
      </trkpt>
      <trkpt lat="46.26586" lon="5.42623">
        <ele>328.2</ele>
        <time>2022-03-12T12:41:17Z</time>
      </trkpt>
      <trkpt lat="46.2654" lon="5.42616">
        <ele>327.8</ele>
        <time>2022-03-12T12:41:24Z</time>
      </trkpt>
      <trkpt lat="46.26486" lon="5.42604">
        <ele>327.8</ele>
        <time>2022-03-12T12:41:32Z</time>
      </trkpt>
      <trkpt lat="46.26471" lon="5.426">
        <ele>327.8</ele>
        <time>2022-03-12T12:41:34Z</time>
      </trkpt>
      <trkpt lat="46.26429" lon="5.42592">
        <ele>327.4</ele>
        <time>2022-03-12T12:41:40Z</time>
      </trkpt>
      <trkpt lat="46.26417" lon="5.42594">
        <ele>327</ele>
        <time>2022-03-12T12:41:43Z</time>
      </trkpt>
      <trkpt lat="46.26413" lon="5.42604">
        <ele>326.6</ele>
        <time>2022-03-12T12:41:45Z</time>
      </trkpt>
      <trkpt lat="46.2641" lon="5.4262">
        <ele>326.4</ele>
        <time>2022-03-12T12:41:47Z</time>
      </trkpt>
      <trkpt lat="46.26408" lon="5.42637">
        <ele>326.4</ele>
        <time>2022-03-12T12:41:49Z</time>
      </trkpt>
      <trkpt lat="46.26406" lon="5.42656">
        <ele>326.4</ele>
        <time>2022-03-12T12:41:51Z</time>
      </trkpt>
      <trkpt lat="46.26405" lon="5.42684">
        <ele>326.2</ele>
        <time>2022-03-12T12:41:54Z</time>
      </trkpt>
      <trkpt lat="46.26405" lon="5.42703">
        <ele>326.2</ele>
        <time>2022-03-12T12:41:56Z</time>
      </trkpt>
      <trkpt lat="46.26407" lon="5.42723">
        <ele>326.2</ele>
        <time>2022-03-12T12:41:58Z</time>
      </trkpt>
      <trkpt lat="46.26409" lon="5.42743">
        <ele>326.2</ele>
        <time>2022-03-12T12:42:00Z</time>
      </trkpt>
      <trkpt lat="46.26409" lon="5.42743">
        <ele>326</ele>
        <time>2022-03-12T12:42:01Z</time>
      </trkpt>
      <trkpt lat="46.26427" lon="5.42799">
        <ele>325.6</ele>
        <time>2022-03-12T12:42:06Z</time>
      </trkpt>
      <trkpt lat="46.26433" lon="5.42815">
        <ele>325.6</ele>
        <time>2022-03-12T12:42:08Z</time>
      </trkpt>
      <trkpt lat="46.26435" lon="5.42824">
        <ele>325.6</ele>
        <time>2022-03-12T12:42:10Z</time>
      </trkpt>
      <trkpt lat="46.26443" lon="5.42857">
        <ele>325.6</ele>
        <time>2022-03-12T12:42:13Z</time>
      </trkpt>
      <trkpt lat="46.26445" lon="5.42872">
        <ele>325.6</ele>
        <time>2022-03-12T12:42:15Z</time>
      </trkpt>
      <trkpt lat="46.26447" lon="5.42893">
        <ele>325.8</ele>
        <time>2022-03-12T12:42:18Z</time>
      </trkpt>
      <trkpt lat="46.26448" lon="5.42915">
        <ele>325.8</ele>
        <time>2022-03-12T12:42:21Z</time>
      </trkpt>
      <trkpt lat="46.26451" lon="5.42966">
        <ele>326.2</ele>
        <time>2022-03-12T12:42:28Z</time>
      </trkpt>
      <trkpt lat="46.2645" lon="5.42972">
        <ele>326.4</ele>
        <time>2022-03-12T12:42:29Z</time>
      </trkpt>
      <trkpt lat="46.2645" lon="5.42979">
        <ele>326.6</ele>
        <time>2022-03-12T12:42:31Z</time>
      </trkpt>
      <trkpt lat="46.2645" lon="5.4298">
        <ele>326.8</ele>
        <time>2022-03-12T12:42:33Z</time>
      </trkpt>
      <trkpt lat="46.2645" lon="5.4298">
        <ele>326.8</ele>
        <time>2022-03-12T12:42:35Z</time>
      </trkpt>
      <trkpt lat="46.26451" lon="5.42987">
        <ele>327.4</ele>
        <time>2022-03-12T12:43:48Z</time>
      </trkpt>
      <trkpt lat="46.2645" lon="5.42993">
        <ele>327.4</ele>
        <time>2022-03-12T12:43:49Z</time>
      </trkpt>
      <trkpt lat="46.2645" lon="5.43021">
        <ele>328</ele>
        <time>2022-03-12T12:43:55Z</time>
      </trkpt>
      <trkpt lat="46.26451" lon="5.43053">
        <ele>328.6</ele>
        <time>2022-03-12T12:44:01Z</time>
      </trkpt>
      <trkpt lat="46.26451" lon="5.43065">
        <ele>329</ele>
        <time>2022-03-12T12:44:03Z</time>
      </trkpt>
      <trkpt lat="46.26451" lon="5.43087">
        <ele>330.4</ele>
        <time>2022-03-12T12:44:07Z</time>
      </trkpt>
      <trkpt lat="46.26451" lon="5.43104">
        <ele>330.8</ele>
        <time>2022-03-12T12:44:10Z</time>
      </trkpt>
      <trkpt lat="46.26451" lon="5.43125">
        <ele>331.4</ele>
        <time>2022-03-12T12:44:14Z</time>
      </trkpt>
      <trkpt lat="46.26451" lon="5.43144">
        <ele>332.6</ele>
        <time>2022-03-12T12:44:18Z</time>
      </trkpt>
      <trkpt lat="46.26451" lon="5.43149">
        <ele>332.8</ele>
        <time>2022-03-12T12:44:19Z</time>
      </trkpt>
      <trkpt lat="46.26451" lon="5.43168">
        <ele>334</ele>
        <time>2022-03-12T12:44:23Z</time>
      </trkpt>
      <trkpt lat="46.2645" lon="5.43177">
        <ele>334.6</ele>
        <time>2022-03-12T12:44:25Z</time>
      </trkpt>
      <trkpt lat="46.2645" lon="5.43202">
        <ele>335.2</ele>
        <time>2022-03-12T12:44:30Z</time>
      </trkpt>
      <trkpt lat="46.2645" lon="5.43222">
        <ele>336</ele>
        <time>2022-03-12T12:44:34Z</time>
      </trkpt>
      <trkpt lat="46.26451" lon="5.43233">
        <ele>336.6</ele>
        <time>2022-03-12T12:44:36Z</time>
      </trkpt>
      <trkpt lat="46.2645" lon="5.43253">
        <ele>337.4</ele>
        <time>2022-03-12T12:44:40Z</time>
      </trkpt>
      <trkpt lat="46.2645" lon="5.43263">
        <ele>337.8</ele>
        <time>2022-03-12T12:44:42Z</time>
      </trkpt>
      <trkpt lat="46.26451" lon="5.43282">
        <ele>338.6</ele>
        <time>2022-03-12T12:44:46Z</time>
      </trkpt>
      <trkpt lat="46.26452" lon="5.43297">
        <ele>339.8</ele>
        <time>2022-03-12T12:44:49Z</time>
      </trkpt>
      <trkpt lat="46.26453" lon="5.43311">
        <ele>340.4</ele>
        <time>2022-03-12T12:44:52Z</time>
      </trkpt>
      <trkpt lat="46.26455" lon="5.43325">
        <ele>341.2</ele>
        <time>2022-03-12T12:44:55Z</time>
      </trkpt>
      <trkpt lat="46.2646" lon="5.43338">
        <ele>341.8</ele>
        <time>2022-03-12T12:44:58Z</time>
      </trkpt>
      <trkpt lat="46.26462" lon="5.43342">
        <ele>342.2</ele>
        <time>2022-03-12T12:44:59Z</time>
      </trkpt>
      <trkpt lat="46.26468" lon="5.43353">
        <ele>343.4</ele>
        <time>2022-03-12T12:45:02Z</time>
      </trkpt>
      <trkpt lat="46.26473" lon="5.4336">
        <ele>343.8</ele>
        <time>2022-03-12T12:45:04Z</time>
      </trkpt>
      <trkpt lat="46.2648" lon="5.43369">
        <ele>344.4</ele>
        <time>2022-03-12T12:45:07Z</time>
      </trkpt>
      <trkpt lat="46.2649" lon="5.43381">
        <ele>345.4</ele>
        <time>2022-03-12T12:45:11Z</time>
      </trkpt>
      <trkpt lat="46.26507" lon="5.43401">
        <ele>346.6</ele>
        <time>2022-03-12T12:45:17Z</time>
      </trkpt>
      <trkpt lat="46.26517" lon="5.43415">
        <ele>347.4</ele>
        <time>2022-03-12T12:45:21Z</time>
      </trkpt>
      <trkpt lat="46.26519" lon="5.43417">
        <ele>347.6</ele>
        <time>2022-03-12T12:45:22Z</time>
      </trkpt>
      <trkpt lat="46.2653" lon="5.43437">
        <ele>348.8</ele>
        <time>2022-03-12T12:45:27Z</time>
      </trkpt>
      <trkpt lat="46.26539" lon="5.43452">
        <ele>349.6</ele>
        <time>2022-03-12T12:45:31Z</time>
      </trkpt>
      <trkpt lat="46.26541" lon="5.43456">
        <ele>350</ele>
        <time>2022-03-12T12:45:33Z</time>
      </trkpt>
      <trkpt lat="46.26553" lon="5.4348">
        <ele>351.2</ele>
        <time>2022-03-12T12:45:38Z</time>
      </trkpt>
      <trkpt lat="46.26557" lon="5.43488">
        <ele>351.4</ele>
        <time>2022-03-12T12:45:40Z</time>
      </trkpt>
      <trkpt lat="46.26565" lon="5.43503">
        <ele>352.2</ele>
        <time>2022-03-12T12:45:44Z</time>
      </trkpt>
      <trkpt lat="46.26572" lon="5.43515">
        <ele>352.8</ele>
        <time>2022-03-12T12:45:47Z</time>
      </trkpt>
      <trkpt lat="46.26581" lon="5.43523">
        <ele>353.2</ele>
        <time>2022-03-12T12:45:50Z</time>
      </trkpt>
      <trkpt lat="46.2659" lon="5.4353">
        <ele>354</ele>
        <time>2022-03-12T12:45:53Z</time>
      </trkpt>
      <trkpt lat="46.26593" lon="5.43532">
        <ele>354.2</ele>
        <time>2022-03-12T12:45:54Z</time>
      </trkpt>
      <trkpt lat="46.26603" lon="5.43536">
        <ele>355.4</ele>
        <time>2022-03-12T12:45:57Z</time>
      </trkpt>
      <trkpt lat="46.26611" lon="5.43538">
        <ele>355.6</ele>
        <time>2022-03-12T12:46:00Z</time>
      </trkpt>
      <trkpt lat="46.26618" lon="5.43539">
        <ele>356.4</ele>
        <time>2022-03-12T12:46:02Z</time>
      </trkpt>
      <trkpt lat="46.26639" lon="5.43549">
        <ele>357.4</ele>
        <time>2022-03-12T12:46:08Z</time>
      </trkpt>
      <trkpt lat="46.26642" lon="5.4355">
        <ele>357.6</ele>
        <time>2022-03-12T12:46:09Z</time>
      </trkpt>
      <trkpt lat="46.26654" lon="5.43554">
        <ele>358.6</ele>
        <time>2022-03-12T12:46:13Z</time>
      </trkpt>
      <trkpt lat="46.26659" lon="5.43554">
        <ele>359.2</ele>
        <time>2022-03-12T12:46:15Z</time>
      </trkpt>
      <trkpt lat="46.26664" lon="5.43556">
        <ele>359.6</ele>
        <time>2022-03-12T12:46:17Z</time>
      </trkpt>
      <trkpt lat="46.26677" lon="5.43557">
        <ele>360.6</ele>
        <time>2022-03-12T12:46:21Z</time>
      </trkpt>
      <trkpt lat="46.2668" lon="5.43558">
        <ele>361</ele>
        <time>2022-03-12T12:46:22Z</time>
      </trkpt>
      <trkpt lat="46.26697" lon="5.4356">
        <ele>361.8</ele>
        <time>2022-03-12T12:46:26Z</time>
      </trkpt>
      <trkpt lat="46.267" lon="5.4356">
        <ele>362</ele>
        <time>2022-03-12T12:46:27Z</time>
      </trkpt>
      <trkpt lat="46.26719" lon="5.43562">
        <ele>363.2</ele>
        <time>2022-03-12T12:46:32Z</time>
      </trkpt>
      <trkpt lat="46.26725" lon="5.43562">
        <ele>363.6</ele>
        <time>2022-03-12T12:46:34Z</time>
      </trkpt>
      <trkpt lat="46.26733" lon="5.43561">
        <ele>364.6</ele>
        <time>2022-03-12T12:46:36Z</time>
      </trkpt>
      <trkpt lat="46.26748" lon="5.43562">
        <ele>365.6</ele>
        <time>2022-03-12T12:46:41Z</time>
      </trkpt>
      <trkpt lat="46.2675" lon="5.43562">
        <ele>365.8</ele>
        <time>2022-03-12T12:46:42Z</time>
      </trkpt>
      <trkpt lat="46.26767" lon="5.43562">
        <ele>366.6</ele>
        <time>2022-03-12T12:46:47Z</time>
      </trkpt>
      <trkpt lat="46.2677" lon="5.43562">
        <ele>366.8</ele>
        <time>2022-03-12T12:46:48Z</time>
      </trkpt>
      <trkpt lat="46.26786" lon="5.43564">
        <ele>367.8</ele>
        <time>2022-03-12T12:46:53Z</time>
      </trkpt>
      <trkpt lat="46.26796" lon="5.43565">
        <ele>368.8</ele>
        <time>2022-03-12T12:46:56Z</time>
      </trkpt>
      <trkpt lat="46.26799" lon="5.43566">
        <ele>368.8</ele>
        <time>2022-03-12T12:46:57Z</time>
      </trkpt>
      <trkpt lat="46.2682" lon="5.43568">
        <ele>370</ele>
        <time>2022-03-12T12:47:03Z</time>
      </trkpt>
      <trkpt lat="46.26834" lon="5.43567">
        <ele>371</ele>
        <time>2022-03-12T12:47:07Z</time>
      </trkpt>
      <trkpt lat="46.26852" lon="5.43576">
        <ele>372</ele>
        <time>2022-03-12T12:47:12Z</time>
      </trkpt>
      <trkpt lat="46.26854" lon="5.43579">
        <ele>372.2</ele>
        <time>2022-03-12T12:47:13Z</time>
      </trkpt>
      <trkpt lat="46.26853" lon="5.43586">
        <ele>372.6</ele>
        <time>2022-03-12T12:47:15Z</time>
      </trkpt>
      <trkpt lat="46.26849" lon="5.43588">
        <ele>373</ele>
        <time>2022-03-12T12:47:17Z</time>
      </trkpt>
      <trkpt lat="46.26842" lon="5.43588">
        <ele>373.4</ele>
        <time>2022-03-12T12:47:19Z</time>
      </trkpt>
      <trkpt lat="46.26821" lon="5.43585">
        <ele>374.4</ele>
        <time>2022-03-12T12:47:25Z</time>
      </trkpt>
      <trkpt lat="46.26803" lon="5.43586">
        <ele>375.6</ele>
        <time>2022-03-12T12:47:30Z</time>
      </trkpt>
      <trkpt lat="46.26796" lon="5.43587">
        <ele>375.8</ele>
        <time>2022-03-12T12:47:32Z</time>
      </trkpt>
      <trkpt lat="46.26789" lon="5.43589">
        <ele>376.6</ele>
        <time>2022-03-12T12:47:34Z</time>
      </trkpt>
      <trkpt lat="46.26775" lon="5.43593">
        <ele>377.6</ele>
        <time>2022-03-12T12:47:38Z</time>
      </trkpt>
      <trkpt lat="46.26754" lon="5.43599">
        <ele>378.8</ele>
        <time>2022-03-12T12:47:44Z</time>
      </trkpt>
      <trkpt lat="46.26748" lon="5.43601">
        <ele>379</ele>
        <time>2022-03-12T12:47:46Z</time>
      </trkpt>
      <trkpt lat="46.2674" lon="5.43604">
        <ele>379.8</ele>
        <time>2022-03-12T12:47:49Z</time>
      </trkpt>
      <trkpt lat="46.2673" lon="5.43607">
        <ele>380.6</ele>
        <time>2022-03-12T12:47:52Z</time>
      </trkpt>
      <trkpt lat="46.26725" lon="5.4361">
        <ele>380.8</ele>
        <time>2022-03-12T12:47:54Z</time>
      </trkpt>
      <trkpt lat="46.26706" lon="5.43616">
        <ele>382</ele>
        <time>2022-03-12T12:48:00Z</time>
      </trkpt>
      <trkpt lat="46.26694" lon="5.43619">
        <ele>383</ele>
        <time>2022-03-12T12:48:04Z</time>
      </trkpt>
      <trkpt lat="46.26676" lon="5.43626">
        <ele>384.2</ele>
        <time>2022-03-12T12:48:10Z</time>
      </trkpt>
      <trkpt lat="46.26673" lon="5.43628">
        <ele>384.2</ele>
        <time>2022-03-12T12:48:11Z</time>
      </trkpt>
      <trkpt lat="46.26655" lon="5.43633">
        <ele>385.4</ele>
        <time>2022-03-12T12:48:17Z</time>
      </trkpt>
      <trkpt lat="46.26643" lon="5.43637">
        <ele>386.4</ele>
        <time>2022-03-12T12:48:21Z</time>
      </trkpt>
      <trkpt lat="46.2664" lon="5.43637">
        <ele>386.6</ele>
        <time>2022-03-12T12:48:22Z</time>
      </trkpt>
      <trkpt lat="46.26627" lon="5.4364">
        <ele>387.6</ele>
        <time>2022-03-12T12:48:26Z</time>
      </trkpt>
      <trkpt lat="46.26611" lon="5.43642">
        <ele>388.4</ele>
        <time>2022-03-12T12:48:31Z</time>
      </trkpt>
      <trkpt lat="46.26608" lon="5.43643">
        <ele>388.6</ele>
        <time>2022-03-12T12:48:32Z</time>
      </trkpt>
      <trkpt lat="46.26591" lon="5.43646">
        <ele>389.8</ele>
        <time>2022-03-12T12:48:37Z</time>
      </trkpt>
      <trkpt lat="46.26582" lon="5.43648">
        <ele>390.4</ele>
        <time>2022-03-12T12:48:40Z</time>
      </trkpt>
      <trkpt lat="46.26577" lon="5.43654">
        <ele>390.6</ele>
        <time>2022-03-12T12:48:42Z</time>
      </trkpt>
      <trkpt lat="46.26575" lon="5.43658">
        <ele>390.8</ele>
        <time>2022-03-12T12:48:43Z</time>
      </trkpt>
      <trkpt lat="46.26574" lon="5.43662">
        <ele>391.2</ele>
        <time>2022-03-12T12:48:44Z</time>
      </trkpt>
      <trkpt lat="46.26575" lon="5.43667">
        <ele>391.2</ele>
        <time>2022-03-12T12:48:45Z</time>
      </trkpt>
      <trkpt lat="46.2658" lon="5.43673">
        <ele>391.4</ele>
        <time>2022-03-12T12:48:47Z</time>
      </trkpt>
      <trkpt lat="46.26591" lon="5.43677">
        <ele>392</ele>
        <time>2022-03-12T12:48:50Z</time>
      </trkpt>
      <trkpt lat="46.26598" lon="5.43678">
        <ele>392.4</ele>
        <time>2022-03-12T12:48:52Z</time>
      </trkpt>
      <trkpt lat="46.26615" lon="5.43676">
        <ele>393.2</ele>
        <time>2022-03-12T12:48:57Z</time>
      </trkpt>
      <trkpt lat="46.26625" lon="5.43674">
        <ele>393.8</ele>
        <time>2022-03-12T12:49:00Z</time>
      </trkpt>
      <trkpt lat="46.26628" lon="5.43673">
        <ele>394.2</ele>
        <time>2022-03-12T12:49:01Z</time>
      </trkpt>
      <trkpt lat="46.26646" lon="5.43671">
        <ele>395.2</ele>
        <time>2022-03-12T12:49:06Z</time>
      </trkpt>
      <trkpt lat="46.26649" lon="5.4367">
        <ele>395.6</ele>
        <time>2022-03-12T12:49:07Z</time>
      </trkpt>
      <trkpt lat="46.26664" lon="5.43668">
        <ele>396.2</ele>
        <time>2022-03-12T12:49:11Z</time>
      </trkpt>
      <trkpt lat="46.26675" lon="5.43669">
        <ele>397</ele>
        <time>2022-03-12T12:49:14Z</time>
      </trkpt>
      <trkpt lat="46.26682" lon="5.43669">
        <ele>397.6</ele>
        <time>2022-03-12T12:49:16Z</time>
      </trkpt>
      <trkpt lat="46.26695" lon="5.43667">
        <ele>398.4</ele>
        <time>2022-03-12T12:49:20Z</time>
      </trkpt>
      <trkpt lat="46.26698" lon="5.43667">
        <ele>398.6</ele>
        <time>2022-03-12T12:49:21Z</time>
      </trkpt>
      <trkpt lat="46.2671" lon="5.43669">
        <ele>399.2</ele>
        <time>2022-03-12T12:49:25Z</time>
      </trkpt>
      <trkpt lat="46.26716" lon="5.4367">
        <ele>399.6</ele>
        <time>2022-03-12T12:49:27Z</time>
      </trkpt>
      <trkpt lat="46.2673" lon="5.43669">
        <ele>400.4</ele>
        <time>2022-03-12T12:49:31Z</time>
      </trkpt>
      <trkpt lat="46.26733" lon="5.43669">
        <ele>401</ele>
        <time>2022-03-12T12:49:32Z</time>
      </trkpt>
      <trkpt lat="46.26743" lon="5.43669">
        <ele>402.2</ele>
        <time>2022-03-12T12:49:35Z</time>
      </trkpt>
      <trkpt lat="46.26749" lon="5.43668">
        <ele>402.6</ele>
        <time>2022-03-12T12:49:37Z</time>
      </trkpt>
      <trkpt lat="46.26765" lon="5.43667">
        <ele>403.4</ele>
        <time>2022-03-12T12:49:41Z</time>
      </trkpt>
      <trkpt lat="46.26776" lon="5.43666">
        <ele>403.8</ele>
        <time>2022-03-12T12:49:44Z</time>
      </trkpt>
      <trkpt lat="46.26784" lon="5.43665">
        <ele>404.4</ele>
        <time>2022-03-12T12:49:47Z</time>
      </trkpt>
      <trkpt lat="46.26797" lon="5.43665">
        <ele>405.4</ele>
        <time>2022-03-12T12:49:51Z</time>
      </trkpt>
      <trkpt lat="46.2681" lon="5.43666">
        <ele>406.4</ele>
        <time>2022-03-12T12:49:56Z</time>
      </trkpt>
      <trkpt lat="46.26817" lon="5.43668">
        <ele>407.2</ele>
        <time>2022-03-12T12:49:58Z</time>
      </trkpt>
      <trkpt lat="46.26825" lon="5.43671">
        <ele>407.4</ele>
        <time>2022-03-12T12:50:01Z</time>
      </trkpt>
      <trkpt lat="46.26842" lon="5.43676">
        <ele>408.8</ele>
        <time>2022-03-12T12:50:07Z</time>
      </trkpt>
      <trkpt lat="46.26862" lon="5.43685">
        <ele>410</ele>
        <time>2022-03-12T12:50:14Z</time>
      </trkpt>
      <trkpt lat="46.26865" lon="5.43687">
        <ele>410.2</ele>
        <time>2022-03-12T12:50:15Z</time>
      </trkpt>
      <trkpt lat="46.26876" lon="5.43695">
        <ele>411</ele>
        <time>2022-03-12T12:50:19Z</time>
      </trkpt>
      <trkpt lat="46.26886" lon="5.43702">
        <ele>412</ele>
        <time>2022-03-12T12:50:23Z</time>
      </trkpt>
      <trkpt lat="46.26888" lon="5.43704">
        <ele>412</ele>
        <time>2022-03-12T12:50:24Z</time>
      </trkpt>
      <trkpt lat="46.269" lon="5.43709">
        <ele>412.8</ele>
        <time>2022-03-12T12:50:28Z</time>
      </trkpt>
      <trkpt lat="46.26908" lon="5.43712">
        <ele>413.4</ele>
        <time>2022-03-12T12:50:30Z</time>
      </trkpt>
      <trkpt lat="46.26917" lon="5.43713">
        <ele>414</ele>
        <time>2022-03-12T12:50:33Z</time>
      </trkpt>
      <trkpt lat="46.26927" lon="5.43717">
        <ele>414.6</ele>
        <time>2022-03-12T12:50:36Z</time>
      </trkpt>
      <trkpt lat="46.26937" lon="5.43713">
        <ele>415.4</ele>
        <time>2022-03-12T12:50:39Z</time>
      </trkpt>
      <trkpt lat="46.2694" lon="5.43714">
        <ele>415.6</ele>
        <time>2022-03-12T12:50:40Z</time>
      </trkpt>
      <trkpt lat="46.26959" lon="5.43721">
        <ele>416.8</ele>
        <time>2022-03-12T12:50:46Z</time>
      </trkpt>
      <trkpt lat="46.26962" lon="5.43722">
        <ele>417</ele>
        <time>2022-03-12T12:50:47Z</time>
      </trkpt>
      <trkpt lat="46.26973" lon="5.43726">
        <ele>417.8</ele>
        <time>2022-03-12T12:50:51Z</time>
      </trkpt>
      <trkpt lat="46.26986" lon="5.43731">
        <ele>418.6</ele>
        <time>2022-03-12T12:50:55Z</time>
      </trkpt>
      <trkpt lat="46.26992" lon="5.43733">
        <ele>419</ele>
        <time>2022-03-12T12:50:57Z</time>
      </trkpt>
      <trkpt lat="46.27008" lon="5.4374">
        <ele>420</ele>
        <time>2022-03-12T12:51:02Z</time>
      </trkpt>
      <trkpt lat="46.27011" lon="5.43742">
        <ele>420.2</ele>
        <time>2022-03-12T12:51:03Z</time>
      </trkpt>
      <trkpt lat="46.27029" lon="5.43751">
        <ele>421.2</ele>
        <time>2022-03-12T12:51:09Z</time>
      </trkpt>
      <trkpt lat="46.27043" lon="5.43757">
        <ele>422.4</ele>
        <time>2022-03-12T12:51:14Z</time>
      </trkpt>
      <trkpt lat="46.27058" lon="5.43764">
        <ele>423.4</ele>
        <time>2022-03-12T12:51:19Z</time>
      </trkpt>
      <trkpt lat="46.27071" lon="5.43771">
        <ele>424.2</ele>
        <time>2022-03-12T12:51:24Z</time>
      </trkpt>
      <trkpt lat="46.27074" lon="5.43772">
        <ele>424.4</ele>
        <time>2022-03-12T12:51:25Z</time>
      </trkpt>
      <trkpt lat="46.27086" lon="5.43777">
        <ele>425.4</ele>
        <time>2022-03-12T12:51:29Z</time>
      </trkpt>
      <trkpt lat="46.27097" lon="5.43782">
        <ele>426.4</ele>
        <time>2022-03-12T12:51:33Z</time>
      </trkpt>
      <trkpt lat="46.27103" lon="5.43785">
        <ele>426.6</ele>
        <time>2022-03-12T12:51:35Z</time>
      </trkpt>
      <trkpt lat="46.27118" lon="5.43791">
        <ele>427.8</ele>
        <time>2022-03-12T12:51:40Z</time>
      </trkpt>
      <trkpt lat="46.27129" lon="5.43797">
        <ele>428.6</ele>
        <time>2022-03-12T12:51:44Z</time>
      </trkpt>
      <trkpt lat="46.27132" lon="5.43798">
        <ele>428.8</ele>
        <time>2022-03-12T12:51:45Z</time>
      </trkpt>
      <trkpt lat="46.27146" lon="5.43807">
        <ele>429.8</ele>
        <time>2022-03-12T12:51:50Z</time>
      </trkpt>
      <trkpt lat="46.27152" lon="5.43809">
        <ele>430.4</ele>
        <time>2022-03-12T12:51:52Z</time>
      </trkpt>
      <trkpt lat="46.27168" lon="5.43816">
        <ele>431</ele>
        <time>2022-03-12T12:51:57Z</time>
      </trkpt>
      <trkpt lat="46.27174" lon="5.4382">
        <ele>431.4</ele>
        <time>2022-03-12T12:51:59Z</time>
      </trkpt>
      <trkpt lat="46.27183" lon="5.43825">
        <ele>432.2</ele>
        <time>2022-03-12T12:52:02Z</time>
      </trkpt>
      <trkpt lat="46.27191" lon="5.4383">
        <ele>432.6</ele>
        <time>2022-03-12T12:52:05Z</time>
      </trkpt>
      <trkpt lat="46.27197" lon="5.43834">
        <ele>433.2</ele>
        <time>2022-03-12T12:52:07Z</time>
      </trkpt>
      <trkpt lat="46.27211" lon="5.43843">
        <ele>434.4</ele>
        <time>2022-03-12T12:52:12Z</time>
      </trkpt>
      <trkpt lat="46.27217" lon="5.43845">
        <ele>434.6</ele>
        <time>2022-03-12T12:52:14Z</time>
      </trkpt>
      <trkpt lat="46.27226" lon="5.4385">
        <ele>435.6</ele>
        <time>2022-03-12T12:52:17Z</time>
      </trkpt>
      <trkpt lat="46.27239" lon="5.43856">
        <ele>436.6</ele>
        <time>2022-03-12T12:52:21Z</time>
      </trkpt>
      <trkpt lat="46.27243" lon="5.43858">
        <ele>436.8</ele>
        <time>2022-03-12T12:52:22Z</time>
      </trkpt>
      <trkpt lat="46.27259" lon="5.43866">
        <ele>437.8</ele>
        <time>2022-03-12T12:52:27Z</time>
      </trkpt>
      <trkpt lat="46.27274" lon="5.43873">
        <ele>438.4</ele>
        <time>2022-03-12T12:52:32Z</time>
      </trkpt>
      <trkpt lat="46.2728" lon="5.43876">
        <ele>439</ele>
        <time>2022-03-12T12:52:34Z</time>
      </trkpt>
      <trkpt lat="46.27292" lon="5.43882">
        <ele>440</ele>
        <time>2022-03-12T12:52:38Z</time>
      </trkpt>
      <trkpt lat="46.27307" lon="5.43888">
        <ele>440.6</ele>
        <time>2022-03-12T12:52:43Z</time>
      </trkpt>
      <trkpt lat="46.27312" lon="5.4389">
        <ele>441.2</ele>
        <time>2022-03-12T12:52:45Z</time>
      </trkpt>
      <trkpt lat="46.27327" lon="5.43896">
        <ele>442.2</ele>
        <time>2022-03-12T12:52:50Z</time>
      </trkpt>
      <trkpt lat="46.27329" lon="5.43897">
        <ele>442.4</ele>
        <time>2022-03-12T12:52:51Z</time>
      </trkpt>
      <trkpt lat="46.27347" lon="5.43902">
        <ele>443.4</ele>
        <time>2022-03-12T12:52:57Z</time>
      </trkpt>
      <trkpt lat="46.2735" lon="5.43903">
        <ele>443.6</ele>
        <time>2022-03-12T12:52:58Z</time>
      </trkpt>
      <trkpt lat="46.27362" lon="5.43907">
        <ele>444.6</ele>
        <time>2022-03-12T12:53:02Z</time>
      </trkpt>
      <trkpt lat="46.2737" lon="5.4391">
        <ele>445.2</ele>
        <time>2022-03-12T12:53:05Z</time>
      </trkpt>
      <trkpt lat="46.27379" lon="5.43913">
        <ele>445.6</ele>
        <time>2022-03-12T12:53:08Z</time>
      </trkpt>
      <trkpt lat="46.27389" lon="5.43918">
        <ele>446.6</ele>
        <time>2022-03-12T12:53:12Z</time>
      </trkpt>
      <trkpt lat="46.27395" lon="5.43921">
        <ele>447.2</ele>
        <time>2022-03-12T12:53:14Z</time>
      </trkpt>
      <trkpt lat="46.27401" lon="5.43924">
        <ele>447.6</ele>
        <time>2022-03-12T12:53:16Z</time>
      </trkpt>
      <trkpt lat="46.27419" lon="5.43932">
        <ele>449</ele>
        <time>2022-03-12T12:53:22Z</time>
      </trkpt>
      <trkpt lat="46.27436" lon="5.43939">
        <ele>450</ele>
        <time>2022-03-12T12:53:28Z</time>
      </trkpt>
      <trkpt lat="46.27441" lon="5.43942">
        <ele>450.2</ele>
        <time>2022-03-12T12:53:30Z</time>
      </trkpt>
      <trkpt lat="46.27453" lon="5.43948">
        <ele>451</ele>
        <time>2022-03-12T12:53:34Z</time>
      </trkpt>
      <trkpt lat="46.27465" lon="5.43951">
        <ele>452</ele>
        <time>2022-03-12T12:53:38Z</time>
      </trkpt>
      <trkpt lat="46.27468" lon="5.43953">
        <ele>452.2</ele>
        <time>2022-03-12T12:53:39Z</time>
      </trkpt>
      <trkpt lat="46.27484" lon="5.43961">
        <ele>453</ele>
        <time>2022-03-12T12:53:44Z</time>
      </trkpt>
      <trkpt lat="46.27487" lon="5.43963">
        <ele>453.4</ele>
        <time>2022-03-12T12:53:45Z</time>
      </trkpt>
      <trkpt lat="46.27494" lon="5.43976">
        <ele>454.4</ele>
        <time>2022-03-12T12:53:49Z</time>
      </trkpt>
      <trkpt lat="46.27494" lon="5.43978">
        <ele>454.6</ele>
        <time>2022-03-12T12:53:50Z</time>
      </trkpt>
      <trkpt lat="46.27495" lon="5.43981">
        <ele>455.2</ele>
        <time>2022-03-12T12:53:53Z</time>
      </trkpt>
      <trkpt lat="46.27495" lon="5.43981">
        <ele>455.2</ele>
        <time>2022-03-12T12:53:54Z</time>
      </trkpt>
      <trkpt lat="46.27499" lon="5.4398">
        <ele>456.2</ele>
        <time>2022-03-12T12:55:30Z</time>
      </trkpt>
      <trkpt lat="46.27504" lon="5.43982">
        <ele>456.2</ele>
        <time>2022-03-12T12:55:32Z</time>
      </trkpt>
      <trkpt lat="46.2751" lon="5.43995">
        <ele>456.2</ele>
        <time>2022-03-12T12:55:36Z</time>
      </trkpt>
      <trkpt lat="46.27513" lon="5.44026">
        <ele>457.2</ele>
        <time>2022-03-12T12:55:43Z</time>
      </trkpt>
      <trkpt lat="46.27514" lon="5.44031">
        <ele>457.4</ele>
        <time>2022-03-12T12:55:44Z</time>
      </trkpt>
      <trkpt lat="46.27522" lon="5.4405">
        <ele>458.2</ele>
        <time>2022-03-12T12:55:48Z</time>
      </trkpt>
      <trkpt lat="46.27525" lon="5.44053">
        <ele>458.6</ele>
        <time>2022-03-12T12:55:49Z</time>
      </trkpt>
      <trkpt lat="46.27536" lon="5.44059">
        <ele>459.2</ele>
        <time>2022-03-12T12:55:52Z</time>
      </trkpt>
      <trkpt lat="46.27549" lon="5.44062">
        <ele>459.8</ele>
        <time>2022-03-12T12:55:55Z</time>
      </trkpt>
      <trkpt lat="46.27562" lon="5.44063">
        <ele>460.2</ele>
        <time>2022-03-12T12:55:58Z</time>
      </trkpt>
      <trkpt lat="46.27583" lon="5.44067">
        <ele>460.8</ele>
        <time>2022-03-12T12:56:03Z</time>
      </trkpt>
      <trkpt lat="46.27586" lon="5.44068">
        <ele>461.2</ele>
        <time>2022-03-12T12:56:04Z</time>
      </trkpt>
      <trkpt lat="46.27598" lon="5.44073">
        <ele>462</ele>
        <time>2022-03-12T12:56:07Z</time>
      </trkpt>
      <trkpt lat="46.27607" lon="5.44081">
        <ele>462.6</ele>
        <time>2022-03-12T12:56:10Z</time>
      </trkpt>
      <trkpt lat="46.2761" lon="5.44083">
        <ele>463.2</ele>
        <time>2022-03-12T12:56:11Z</time>
      </trkpt>
      <trkpt lat="46.2763" lon="5.44104">
        <ele>464</ele>
        <time>2022-03-12T12:56:18Z</time>
      </trkpt>
      <trkpt lat="46.27633" lon="5.44107">
        <ele>464.2</ele>
        <time>2022-03-12T12:56:19Z</time>
      </trkpt>
      <trkpt lat="46.27648" lon="5.44124">
        <ele>465.6</ele>
        <time>2022-03-12T12:56:25Z</time>
      </trkpt>
      <trkpt lat="46.27659" lon="5.44138">
        <ele>466.4</ele>
        <time>2022-03-12T12:56:29Z</time>
      </trkpt>
      <trkpt lat="46.27661" lon="5.44141">
        <ele>466.6</ele>
        <time>2022-03-12T12:56:30Z</time>
      </trkpt>
      <trkpt lat="46.27672" lon="5.44161">
        <ele>467.8</ele>
        <time>2022-03-12T12:56:35Z</time>
      </trkpt>
      <trkpt lat="46.27676" lon="5.44169">
        <ele>468.2</ele>
        <time>2022-03-12T12:56:37Z</time>
      </trkpt>
      <trkpt lat="46.27682" lon="5.44192">
        <ele>469</ele>
        <time>2022-03-12T12:56:42Z</time>
      </trkpt>
      <trkpt lat="46.27683" lon="5.44196">
        <ele>469</ele>
        <time>2022-03-12T12:56:43Z</time>
      </trkpt>
      <trkpt lat="46.27686" lon="5.44218">
        <ele>470.2</ele>
        <time>2022-03-12T12:56:48Z</time>
      </trkpt>
      <trkpt lat="46.2769" lon="5.44232">
        <ele>470.8</ele>
        <time>2022-03-12T12:56:51Z</time>
      </trkpt>
      <trkpt lat="46.27695" lon="5.44248">
        <ele>471.4</ele>
        <time>2022-03-12T12:56:55Z</time>
      </trkpt>
      <trkpt lat="46.27702" lon="5.44261">
        <ele>472</ele>
        <time>2022-03-12T12:56:58Z</time>
      </trkpt>
      <trkpt lat="46.27707" lon="5.44269">
        <ele>472.4</ele>
        <time>2022-03-12T12:57:00Z</time>
      </trkpt>
      <trkpt lat="46.27721" lon="5.44286">
        <ele>473.4</ele>
        <time>2022-03-12T12:57:05Z</time>
      </trkpt>
      <trkpt lat="46.27723" lon="5.4429">
        <ele>473.6</ele>
        <time>2022-03-12T12:57:06Z</time>
      </trkpt>
      <trkpt lat="46.27735" lon="5.4431">
        <ele>474.6</ele>
        <time>2022-03-12T12:57:11Z</time>
      </trkpt>
      <trkpt lat="46.27735" lon="5.44315">
        <ele>475</ele>
        <time>2022-03-12T12:57:12Z</time>
      </trkpt>
      <trkpt lat="46.27733" lon="5.44328">
        <ele>475.6</ele>
        <time>2022-03-12T12:57:15Z</time>
      </trkpt>
      <trkpt lat="46.2773" lon="5.44331">
        <ele>475.8</ele>
        <time>2022-03-12T12:57:16Z</time>
      </trkpt>
      <trkpt lat="46.27722" lon="5.44336">
        <ele>476.4</ele>
        <time>2022-03-12T12:57:19Z</time>
      </trkpt>
      <trkpt lat="46.27709" lon="5.44339">
        <ele>476.8</ele>
        <time>2022-03-12T12:57:23Z</time>
      </trkpt>
      <trkpt lat="46.27694" lon="5.44342">
        <ele>478</ele>
        <time>2022-03-12T12:57:28Z</time>
      </trkpt>
      <trkpt lat="46.2769" lon="5.44343">
        <ele>478</ele>
        <time>2022-03-12T12:57:29Z</time>
      </trkpt>
      <trkpt lat="46.27674" lon="5.44345">
        <ele>479</ele>
        <time>2022-03-12T12:57:34Z</time>
      </trkpt>
      <trkpt lat="46.27664" lon="5.44345">
        <ele>480</ele>
        <time>2022-03-12T12:57:37Z</time>
      </trkpt>
      <trkpt lat="46.27658" lon="5.44346">
        <ele>480.2</ele>
        <time>2022-03-12T12:57:39Z</time>
      </trkpt>
      <trkpt lat="46.27647" lon="5.44346">
        <ele>480.8</ele>
        <time>2022-03-12T12:57:43Z</time>
      </trkpt>
      <trkpt lat="46.2764" lon="5.44347">
        <ele>481.2</ele>
        <time>2022-03-12T12:57:45Z</time>
      </trkpt>
      <trkpt lat="46.27621" lon="5.4435">
        <ele>482.4</ele>
        <time>2022-03-12T12:57:51Z</time>
      </trkpt>
      <trkpt lat="46.27617" lon="5.44351">
        <ele>482.6</ele>
        <time>2022-03-12T12:57:52Z</time>
      </trkpt>
      <trkpt lat="46.27605" lon="5.44356">
        <ele>483</ele>
        <time>2022-03-12T12:57:56Z</time>
      </trkpt>
      <trkpt lat="46.27601" lon="5.44357">
        <ele>483.4</ele>
        <time>2022-03-12T12:57:58Z</time>
      </trkpt>
      <trkpt lat="46.276" lon="5.44357">
        <ele>483.6</ele>
        <time>2022-03-12T12:57:59Z</time>
      </trkpt>
      <trkpt lat="46.27591" lon="5.44363">
        <ele>484.6</ele>
        <time>2022-03-12T12:58:03Z</time>
      </trkpt>
      <trkpt lat="46.27589" lon="5.44365">
        <ele>485</ele>
        <time>2022-03-12T12:58:04Z</time>
      </trkpt>
      <trkpt lat="46.27582" lon="5.44374">
        <ele>485.6</ele>
        <time>2022-03-12T12:58:08Z</time>
      </trkpt>
      <trkpt lat="46.27575" lon="5.44389">
        <ele>486</ele>
        <time>2022-03-12T12:58:10Z</time>
      </trkpt>
      <trkpt lat="46.27564" lon="5.44413">
        <ele>486.8</ele>
        <time>2022-03-12T12:58:14Z</time>
      </trkpt>
      <trkpt lat="46.27558" lon="5.44426">
        <ele>487</ele>
        <time>2022-03-12T12:58:16Z</time>
      </trkpt>
      <trkpt lat="46.2755" lon="5.4445">
        <ele>487.8</ele>
        <time>2022-03-12T12:58:21Z</time>
      </trkpt>
      <trkpt lat="46.27548" lon="5.44457">
        <ele>488.2</ele>
        <time>2022-03-12T12:58:22Z</time>
      </trkpt>
      <trkpt lat="46.27541" lon="5.4448">
        <ele>489.2</ele>
        <time>2022-03-12T12:58:27Z</time>
      </trkpt>
      <trkpt lat="46.2754" lon="5.44483">
        <ele>489.4</ele>
        <time>2022-03-12T12:58:28Z</time>
      </trkpt>
      <trkpt lat="46.27525" lon="5.44501">
        <ele>490.2</ele>
        <time>2022-03-12T12:58:34Z</time>
      </trkpt>
      <trkpt lat="46.2752" lon="5.44508">
        <ele>490.4</ele>
        <time>2022-03-12T12:58:36Z</time>
      </trkpt>
      <trkpt lat="46.27509" lon="5.44519">
        <ele>490.8</ele>
        <time>2022-03-12T12:58:40Z</time>
      </trkpt>
      <trkpt lat="46.27503" lon="5.44524">
        <ele>491.4</ele>
        <time>2022-03-12T12:58:42Z</time>
      </trkpt>
      <trkpt lat="46.27494" lon="5.44531">
        <ele>491.8</ele>
        <time>2022-03-12T12:58:45Z</time>
      </trkpt>
      <trkpt lat="46.27489" lon="5.44538">
        <ele>492.6</ele>
        <time>2022-03-12T12:58:47Z</time>
      </trkpt>
      <trkpt lat="46.27478" lon="5.44557">
        <ele>493.4</ele>
        <time>2022-03-12T12:58:52Z</time>
      </trkpt>
      <trkpt lat="46.27476" lon="5.4456">
        <ele>493.6</ele>
        <time>2022-03-12T12:58:53Z</time>
      </trkpt>
      <trkpt lat="46.27465" lon="5.44577">
        <ele>494.4</ele>
        <time>2022-03-12T12:58:58Z</time>
      </trkpt>
      <trkpt lat="46.27458" lon="5.44587">
        <ele>494.6</ele>
        <time>2022-03-12T12:59:01Z</time>
      </trkpt>
      <trkpt lat="46.27452" lon="5.44594">
        <ele>495.2</ele>
        <time>2022-03-12T12:59:04Z</time>
      </trkpt>
      <trkpt lat="46.27445" lon="5.44608">
        <ele>496</ele>
        <time>2022-03-12T12:59:07Z</time>
      </trkpt>
      <trkpt lat="46.27441" lon="5.44619">
        <ele>496.8</ele>
        <time>2022-03-12T12:59:09Z</time>
      </trkpt>
      <trkpt lat="46.27439" lon="5.4463">
        <ele>497.4</ele>
        <time>2022-03-12T12:59:11Z</time>
      </trkpt>
      <trkpt lat="46.27441" lon="5.44639">
        <ele>497.8</ele>
        <time>2022-03-12T12:59:13Z</time>
      </trkpt>
      <trkpt lat="46.27442" lon="5.4468">
        <ele>498.4</ele>
        <time>2022-03-12T12:59:19Z</time>
      </trkpt>
      <trkpt lat="46.27444" lon="5.44733">
        <ele>498.6</ele>
        <time>2022-03-12T12:59:26Z</time>
      </trkpt>
      <trkpt lat="46.27441" lon="5.44777">
        <ele>498.4</ele>
        <time>2022-03-12T12:59:31Z</time>
      </trkpt>
      <trkpt lat="46.27441" lon="5.44786">
        <ele>498.2</ele>
        <time>2022-03-12T12:59:32Z</time>
      </trkpt>
      <trkpt lat="46.27445" lon="5.44802">
        <ele>497.6</ele>
        <time>2022-03-12T12:59:34Z</time>
      </trkpt>
      <trkpt lat="46.27449" lon="5.44809">
        <ele>497.6</ele>
        <time>2022-03-12T12:59:35Z</time>
      </trkpt>
      <trkpt lat="46.27453" lon="5.44815">
        <ele>497.4</ele>
        <time>2022-03-12T12:59:36Z</time>
      </trkpt>
      <trkpt lat="46.27464" lon="5.44823">
        <ele>497.2</ele>
        <time>2022-03-12T12:59:38Z</time>
      </trkpt>
      <trkpt lat="46.27491" lon="5.44836">
        <ele>497.4</ele>
        <time>2022-03-12T12:59:44Z</time>
      </trkpt>
      <trkpt lat="46.27504" lon="5.44846">
        <ele>498.4</ele>
        <time>2022-03-12T12:59:48Z</time>
      </trkpt>
      <trkpt lat="46.27506" lon="5.44849">
        <ele>498.6</ele>
        <time>2022-03-12T12:59:49Z</time>
      </trkpt>
      <trkpt lat="46.27513" lon="5.44864">
        <ele>499.6</ele>
        <time>2022-03-12T12:59:53Z</time>
      </trkpt>
      <trkpt lat="46.27513" lon="5.44869">
        <ele>499.8</ele>
        <time>2022-03-12T12:59:54Z</time>
      </trkpt>
      <trkpt lat="46.27509" lon="5.4489">
        <ele>500.6</ele>
        <time>2022-03-12T12:59:58Z</time>
      </trkpt>
      <trkpt lat="46.27508" lon="5.44895">
        <ele>501</ele>
        <time>2022-03-12T12:59:59Z</time>
      </trkpt>
      <trkpt lat="46.27501" lon="5.44912">
        <ele>501.6</ele>
        <time>2022-03-12T13:00:02Z</time>
      </trkpt>
      <trkpt lat="46.27498" lon="5.44919">
        <ele>501.8</ele>
        <time>2022-03-12T13:00:03Z</time>
      </trkpt>
      <trkpt lat="46.27496" lon="5.44925">
        <ele>502</ele>
        <time>2022-03-12T13:00:04Z</time>
      </trkpt>
      <trkpt lat="46.27494" lon="5.44933">
        <ele>502</ele>
        <time>2022-03-12T13:00:05Z</time>
      </trkpt>
      <trkpt lat="46.27492" lon="5.44963">
        <ele>502.4</ele>
        <time>2022-03-12T13:00:09Z</time>
      </trkpt>
      <trkpt lat="46.27492" lon="5.4497">
        <ele>502.4</ele>
        <time>2022-03-12T13:00:10Z</time>
      </trkpt>
      <trkpt lat="46.27494" lon="5.44982">
        <ele>502.4</ele>
        <time>2022-03-12T13:00:12Z</time>
      </trkpt>
      <trkpt lat="46.27502" lon="5.44998">
        <ele>502.8</ele>
        <time>2022-03-12T13:00:15Z</time>
      </trkpt>
      <trkpt lat="46.27507" lon="5.45007">
        <ele>503.2</ele>
        <time>2022-03-12T13:00:17Z</time>
      </trkpt>
      <trkpt lat="46.27512" lon="5.45017">
        <ele>504</ele>
        <time>2022-03-12T13:00:19Z</time>
      </trkpt>
      <trkpt lat="46.27528" lon="5.45039">
        <ele>505</ele>
        <time>2022-03-12T13:00:24Z</time>
      </trkpt>
      <trkpt lat="46.2753" lon="5.45043">
        <ele>505.2</ele>
        <time>2022-03-12T13:00:25Z</time>
      </trkpt>
      <trkpt lat="46.27545" lon="5.45067">
        <ele>506.2</ele>
        <time>2022-03-12T13:00:31Z</time>
      </trkpt>
      <trkpt lat="46.27547" lon="5.4507">
        <ele>506.4</ele>
        <time>2022-03-12T13:00:32Z</time>
      </trkpt>
      <trkpt lat="46.27553" lon="5.45075">
        <ele>507</ele>
        <time>2022-03-12T13:00:34Z</time>
      </trkpt>
      <trkpt lat="46.27557" lon="5.45076">
        <ele>507.2</ele>
        <time>2022-03-12T13:00:35Z</time>
      </trkpt>
      <trkpt lat="46.27564" lon="5.45078">
        <ele>507.4</ele>
        <time>2022-03-12T13:00:37Z</time>
      </trkpt>
      <trkpt lat="46.27574" lon="5.4508">
        <ele>508.2</ele>
        <time>2022-03-12T13:00:40Z</time>
      </trkpt>
      <trkpt lat="46.27588" lon="5.45081">
        <ele>508.8</ele>
        <time>2022-03-12T13:00:44Z</time>
      </trkpt>
      <trkpt lat="46.27599" lon="5.4508">
        <ele>509.4</ele>
        <time>2022-03-12T13:00:47Z</time>
      </trkpt>
      <trkpt lat="46.27616" lon="5.45076">
        <ele>510.6</ele>
        <time>2022-03-12T13:00:52Z</time>
      </trkpt>
      <trkpt lat="46.27623" lon="5.45073">
        <ele>511</ele>
        <time>2022-03-12T13:00:54Z</time>
      </trkpt>
      <trkpt lat="46.27637" lon="5.45064">
        <ele>511.6</ele>
        <time>2022-03-12T13:00:58Z</time>
      </trkpt>
      <trkpt lat="46.27646" lon="5.45056">
        <ele>512.4</ele>
        <time>2022-03-12T13:01:01Z</time>
      </trkpt>
      <trkpt lat="46.27652" lon="5.45052">
        <ele>512.6</ele>
        <time>2022-03-12T13:01:03Z</time>
      </trkpt>
      <trkpt lat="46.27672" lon="5.45044">
        <ele>513.4</ele>
        <time>2022-03-12T13:01:09Z</time>
      </trkpt>
      <trkpt lat="46.27683" lon="5.45045">
        <ele>513.8</ele>
        <time>2022-03-12T13:01:12Z</time>
      </trkpt>
      <trkpt lat="46.27693" lon="5.4505">
        <ele>514.4</ele>
        <time>2022-03-12T13:01:15Z</time>
      </trkpt>
      <trkpt lat="46.27708" lon="5.45061">
        <ele>515.2</ele>
        <time>2022-03-12T13:01:20Z</time>
      </trkpt>
      <trkpt lat="46.27715" lon="5.45065">
        <ele>515.6</ele>
        <time>2022-03-12T13:01:22Z</time>
      </trkpt>
      <trkpt lat="46.27727" lon="5.45072">
        <ele>516.2</ele>
        <time>2022-03-12T13:01:26Z</time>
      </trkpt>
      <trkpt lat="46.27744" lon="5.45077">
        <ele>517.4</ele>
        <time>2022-03-12T13:01:31Z</time>
      </trkpt>
      <trkpt lat="46.27765" lon="5.45083">
        <ele>518.6</ele>
        <time>2022-03-12T13:01:37Z</time>
      </trkpt>
      <trkpt lat="46.27775" lon="5.45085">
        <ele>519.6</ele>
        <time>2022-03-12T13:01:40Z</time>
      </trkpt>
      <trkpt lat="46.27779" lon="5.45086">
        <ele>519.8</ele>
        <time>2022-03-12T13:01:41Z</time>
      </trkpt>
      <trkpt lat="46.27796" lon="5.45089">
        <ele>521</ele>
        <time>2022-03-12T13:01:46Z</time>
      </trkpt>
      <trkpt lat="46.27809" lon="5.45092">
        <ele>521.6</ele>
        <time>2022-03-12T13:01:50Z</time>
      </trkpt>
      <trkpt lat="46.27818" lon="5.45095">
        <ele>522</ele>
        <time>2022-03-12T13:01:53Z</time>
      </trkpt>
      <trkpt lat="46.27836" lon="5.45101">
        <ele>523</ele>
        <time>2022-03-12T13:01:58Z</time>
      </trkpt>
      <trkpt lat="46.27846" lon="5.45105">
        <ele>523.8</ele>
        <time>2022-03-12T13:02:01Z</time>
      </trkpt>
      <trkpt lat="46.27852" lon="5.45107">
        <ele>524.4</ele>
        <time>2022-03-12T13:02:03Z</time>
      </trkpt>
      <trkpt lat="46.27873" lon="5.45114">
        <ele>525.4</ele>
        <time>2022-03-12T13:02:09Z</time>
      </trkpt>
      <trkpt lat="46.27893" lon="5.45122">
        <ele>526.2</ele>
        <time>2022-03-12T13:02:15Z</time>
      </trkpt>
      <trkpt lat="46.27896" lon="5.45124">
        <ele>526.6</ele>
        <time>2022-03-12T13:02:16Z</time>
      </trkpt>
      <trkpt lat="46.27912" lon="5.45136">
        <ele>527.6</ele>
        <time>2022-03-12T13:02:21Z</time>
      </trkpt>
      <trkpt lat="46.27928" lon="5.45145">
        <ele>528.6</ele>
        <time>2022-03-12T13:02:26Z</time>
      </trkpt>
      <trkpt lat="46.27931" lon="5.45146">
        <ele>528.8</ele>
        <time>2022-03-12T13:02:27Z</time>
      </trkpt>
      <trkpt lat="46.27951" lon="5.45155">
        <ele>529.8</ele>
        <time>2022-03-12T13:02:33Z</time>
      </trkpt>
      <trkpt lat="46.27964" lon="5.4516">
        <ele>530.8</ele>
        <time>2022-03-12T13:02:37Z</time>
      </trkpt>
      <trkpt lat="46.27967" lon="5.45162">
        <ele>531</ele>
        <time>2022-03-12T13:02:38Z</time>
      </trkpt>
      <trkpt lat="46.27986" lon="5.45171">
        <ele>532</ele>
        <time>2022-03-12T13:02:44Z</time>
      </trkpt>
      <trkpt lat="46.28001" lon="5.45179">
        <ele>533</ele>
        <time>2022-03-12T13:02:49Z</time>
      </trkpt>
      <trkpt lat="46.28004" lon="5.45181">
        <ele>533.2</ele>
        <time>2022-03-12T13:02:50Z</time>
      </trkpt>
      <trkpt lat="46.2802" lon="5.45193">
        <ele>534.2</ele>
        <time>2022-03-12T13:02:55Z</time>
      </trkpt>
      <trkpt lat="46.28035" lon="5.45203">
        <ele>535</ele>
        <time>2022-03-12T13:03:00Z</time>
      </trkpt>
      <trkpt lat="46.2804" lon="5.45206">
        <ele>535.2</ele>
        <time>2022-03-12T13:03:02Z</time>
      </trkpt>
      <trkpt lat="46.2806" lon="5.45218">
        <ele>536.4</ele>
        <time>2022-03-12T13:03:08Z</time>
      </trkpt>
      <trkpt lat="46.28073" lon="5.45228">
        <ele>537.4</ele>
        <time>2022-03-12T13:03:12Z</time>
      </trkpt>
      <trkpt lat="46.28076" lon="5.4523">
        <ele>537.4</ele>
        <time>2022-03-12T13:03:13Z</time>
      </trkpt>
      <trkpt lat="46.281" lon="5.45252">
        <ele>538.6</ele>
        <time>2022-03-12T13:03:20Z</time>
      </trkpt>
      <trkpt lat="46.28106" lon="5.45258">
        <ele>539</ele>
        <time>2022-03-12T13:03:22Z</time>
      </trkpt>
      <trkpt lat="46.28124" lon="5.45274">
        <ele>539.8</ele>
        <time>2022-03-12T13:03:27Z</time>
      </trkpt>
      <trkpt lat="46.28151" lon="5.45299">
        <ele>540.4</ele>
        <time>2022-03-12T13:03:34Z</time>
      </trkpt>
      <trkpt lat="46.2818" lon="5.45327">
        <ele>541</ele>
        <time>2022-03-12T13:03:41Z</time>
      </trkpt>
      <trkpt lat="46.28184" lon="5.45333">
        <ele>541</ele>
        <time>2022-03-12T13:03:42Z</time>
      </trkpt>
      <trkpt lat="46.2819" lon="5.45346">
        <ele>541.2</ele>
        <time>2022-03-12T13:03:44Z</time>
      </trkpt>
      <trkpt lat="46.28194" lon="5.45358">
        <ele>541.2</ele>
        <time>2022-03-12T13:03:46Z</time>
      </trkpt>
      <trkpt lat="46.28195" lon="5.45366">
        <ele>541.2</ele>
        <time>2022-03-12T13:03:47Z</time>
      </trkpt>
      <trkpt lat="46.28203" lon="5.45426">
        <ele>541.6</ele>
        <time>2022-03-12T13:03:55Z</time>
      </trkpt>
      <trkpt lat="46.28204" lon="5.45433">
        <ele>541.8</ele>
        <time>2022-03-12T13:03:56Z</time>
      </trkpt>
      <trkpt lat="46.28207" lon="5.45456">
        <ele>542</ele>
        <time>2022-03-12T13:03:59Z</time>
      </trkpt>
      <trkpt lat="46.28208" lon="5.45463">
        <ele>542</ele>
        <time>2022-03-12T13:04:00Z</time>
      </trkpt>
      <trkpt lat="46.28213" lon="5.45504">
        <ele>542.2</ele>
        <time>2022-03-12T13:04:06Z</time>
      </trkpt>
      <trkpt lat="46.28216" lon="5.45539">
        <ele>543.2</ele>
        <time>2022-03-12T13:04:11Z</time>
      </trkpt>
      <trkpt lat="46.28215" lon="5.45553">
        <ele>543.6</ele>
        <time>2022-03-12T13:04:13Z</time>
      </trkpt>
      <trkpt lat="46.28215" lon="5.45559">
        <ele>543.8</ele>
        <time>2022-03-12T13:04:14Z</time>
      </trkpt>
      <trkpt lat="46.28212" lon="5.45572">
        <ele>544.2</ele>
        <time>2022-03-12T13:04:16Z</time>
      </trkpt>
      <trkpt lat="46.2821" lon="5.45577">
        <ele>544.2</ele>
        <time>2022-03-12T13:04:17Z</time>
      </trkpt>
      <trkpt lat="46.28203" lon="5.45605">
        <ele>545</ele>
        <time>2022-03-12T13:04:22Z</time>
      </trkpt>
      <trkpt lat="46.28201" lon="5.45612">
        <ele>545.2</ele>
        <time>2022-03-12T13:04:23Z</time>
      </trkpt>
      <trkpt lat="46.28201" lon="5.45617">
        <ele>545.4</ele>
        <time>2022-03-12T13:04:24Z</time>
      </trkpt>
      <trkpt lat="46.28191" lon="5.45651">
        <ele>546</ele>
        <time>2022-03-12T13:04:29Z</time>
      </trkpt>
      <trkpt lat="46.28188" lon="5.4566">
        <ele>546.4</ele>
        <time>2022-03-12T13:04:30Z</time>
      </trkpt>
      <trkpt lat="46.28182" lon="5.4569">
        <ele>547</ele>
        <time>2022-03-12T13:04:35Z</time>
      </trkpt>
      <trkpt lat="46.28175" lon="5.45702">
        <ele>547.6</ele>
        <time>2022-03-12T13:04:37Z</time>
      </trkpt>
      <trkpt lat="46.28171" lon="5.45707">
        <ele>547.8</ele>
        <time>2022-03-12T13:04:38Z</time>
      </trkpt>
      <trkpt lat="46.28162" lon="5.45712">
        <ele>548.2</ele>
        <time>2022-03-12T13:04:40Z</time>
      </trkpt>
      <trkpt lat="46.28154" lon="5.45715">
        <ele>548.6</ele>
        <time>2022-03-12T13:04:42Z</time>
      </trkpt>
      <trkpt lat="46.28139" lon="5.45716">
        <ele>549</ele>
        <time>2022-03-12T13:04:45Z</time>
      </trkpt>
      <trkpt lat="46.28125" lon="5.45717">
        <ele>549.8</ele>
        <time>2022-03-12T13:04:48Z</time>
      </trkpt>
      <trkpt lat="46.28102" lon="5.45723">
        <ele>550.4</ele>
        <time>2022-03-12T13:04:53Z</time>
      </trkpt>
      <trkpt lat="46.28094" lon="5.45725">
        <ele>550.8</ele>
        <time>2022-03-12T13:04:55Z</time>
      </trkpt>
      <trkpt lat="46.28066" lon="5.45728">
        <ele>552</ele>
        <time>2022-03-12T13:05:02Z</time>
      </trkpt>
      <trkpt lat="46.28061" lon="5.45728">
        <ele>552.4</ele>
        <time>2022-03-12T13:05:03Z</time>
      </trkpt>
      <trkpt lat="46.28033" lon="5.45727">
        <ele>553.4</ele>
        <time>2022-03-12T13:05:10Z</time>
      </trkpt>
      <trkpt lat="46.28022" lon="5.45725">
        <ele>553.8</ele>
        <time>2022-03-12T13:05:13Z</time>
      </trkpt>
      <trkpt lat="46.28015" lon="5.45722">
        <ele>554.4</ele>
        <time>2022-03-12T13:05:15Z</time>
      </trkpt>
      <trkpt lat="46.27996" lon="5.45712">
        <ele>555.4</ele>
        <time>2022-03-12T13:05:20Z</time>
      </trkpt>
      <trkpt lat="46.27992" lon="5.45709">
        <ele>555.4</ele>
        <time>2022-03-12T13:05:21Z</time>
      </trkpt>
      <trkpt lat="46.27971" lon="5.45697">
        <ele>556.4</ele>
        <time>2022-03-12T13:05:27Z</time>
      </trkpt>
      <trkpt lat="46.2796" lon="5.45691">
        <ele>556.8</ele>
        <time>2022-03-12T13:05:30Z</time>
      </trkpt>
      <trkpt lat="46.27949" lon="5.45685">
        <ele>557.6</ele>
        <time>2022-03-12T13:05:33Z</time>
      </trkpt>
      <trkpt lat="46.27921" lon="5.45674">
        <ele>558.4</ele>
        <time>2022-03-12T13:05:40Z</time>
      </trkpt>
      <trkpt lat="46.27914" lon="5.45674">
        <ele>558.6</ele>
        <time>2022-03-12T13:05:42Z</time>
      </trkpt>
      <trkpt lat="46.27902" lon="5.45679">
        <ele>558.8</ele>
        <time>2022-03-12T13:05:45Z</time>
      </trkpt>
      <trkpt lat="46.27892" lon="5.45699">
        <ele>559.4</ele>
        <time>2022-03-12T13:05:49Z</time>
      </trkpt>
      <trkpt lat="46.27892" lon="5.45704">
        <ele>559.6</ele>
        <time>2022-03-12T13:05:50Z</time>
      </trkpt>
      <trkpt lat="46.27892" lon="5.45711">
        <ele>559.6</ele>
        <time>2022-03-12T13:05:51Z</time>
      </trkpt>
      <trkpt lat="46.27896" lon="5.45724">
        <ele>559.8</ele>
        <time>2022-03-12T13:05:53Z</time>
      </trkpt>
      <trkpt lat="46.27916" lon="5.45759">
        <ele>560.4</ele>
        <time>2022-03-12T13:06:00Z</time>
      </trkpt>
      <trkpt lat="46.27919" lon="5.45764">
        <ele>560.6</ele>
        <time>2022-03-12T13:06:01Z</time>
      </trkpt>
      <trkpt lat="46.27929" lon="5.45783">
        <ele>561.2</ele>
        <time>2022-03-12T13:06:05Z</time>
      </trkpt>
      <trkpt lat="46.27935" lon="5.45798">
        <ele>561.8</ele>
        <time>2022-03-12T13:06:08Z</time>
      </trkpt>
      <trkpt lat="46.27942" lon="5.4582">
        <ele>562.8</ele>
        <time>2022-03-12T13:06:12Z</time>
      </trkpt>
      <trkpt lat="46.27944" lon="5.45826">
        <ele>563.2</ele>
        <time>2022-03-12T13:06:13Z</time>
      </trkpt>
      <trkpt lat="46.27961" lon="5.45873">
        <ele>564</ele>
        <time>2022-03-12T13:06:20Z</time>
      </trkpt>
      <trkpt lat="46.27981" lon="5.45902">
        <ele>564</ele>
        <time>2022-03-12T13:06:26Z</time>
      </trkpt>
      <trkpt lat="46.27987" lon="5.45913">
        <ele>564.4</ele>
        <time>2022-03-12T13:06:28Z</time>
      </trkpt>
      <trkpt lat="46.27992" lon="5.45928">
        <ele>564.8</ele>
        <time>2022-03-12T13:06:31Z</time>
      </trkpt>
      <trkpt lat="46.27994" lon="5.45934">
        <ele>565</ele>
        <time>2022-03-12T13:06:32Z</time>
      </trkpt>
      <trkpt lat="46.27996" lon="5.45948">
        <ele>565.4</ele>
        <time>2022-03-12T13:06:34Z</time>
      </trkpt>
      <trkpt lat="46.27998" lon="5.45964">
        <ele>565.8</ele>
        <time>2022-03-12T13:06:37Z</time>
      </trkpt>
      <trkpt lat="46.27998" lon="5.45971">
        <ele>566.2</ele>
        <time>2022-03-12T13:06:38Z</time>
      </trkpt>
      <trkpt lat="46.28" lon="5.46014">
        <ele>567.4</ele>
        <time>2022-03-12T13:06:45Z</time>
      </trkpt>
      <trkpt lat="46.28001" lon="5.46029">
        <ele>568.4</ele>
        <time>2022-03-12T13:06:48Z</time>
      </trkpt>
      <trkpt lat="46.28005" lon="5.46047">
        <ele>569.6</ele>
        <time>2022-03-12T13:06:52Z</time>
      </trkpt>
      <trkpt lat="46.28011" lon="5.4607">
        <ele>570.6</ele>
        <time>2022-03-12T13:06:57Z</time>
      </trkpt>
      <trkpt lat="46.28018" lon="5.46086">
        <ele>571.2</ele>
        <time>2022-03-12T13:07:01Z</time>
      </trkpt>
      <trkpt lat="46.28022" lon="5.46095">
        <ele>571.6</ele>
        <time>2022-03-12T13:07:03Z</time>
      </trkpt>
      <trkpt lat="46.28032" lon="5.46119">
        <ele>572.8</ele>
        <time>2022-03-12T13:07:09Z</time>
      </trkpt>
      <trkpt lat="46.28044" lon="5.46154">
        <ele>573.8</ele>
        <time>2022-03-12T13:07:17Z</time>
      </trkpt>
      <trkpt lat="46.28047" lon="5.46162">
        <ele>574</ele>
        <time>2022-03-12T13:07:19Z</time>
      </trkpt>
      <trkpt lat="46.28055" lon="5.46187">
        <ele>574.8</ele>
        <time>2022-03-12T13:07:25Z</time>
      </trkpt>
      <trkpt lat="46.28056" lon="5.46192">
        <ele>575.2</ele>
        <time>2022-03-12T13:07:26Z</time>
      </trkpt>
      <trkpt lat="46.28057" lon="5.46202">
        <ele>575.8</ele>
        <time>2022-03-12T13:07:28Z</time>
      </trkpt>
      <trkpt lat="46.28057" lon="5.46216">
        <ele>576.8</ele>
        <time>2022-03-12T13:07:32Z</time>
      </trkpt>
      <trkpt lat="46.28058" lon="5.46219">
        <ele>576.8</ele>
        <time>2022-03-12T13:07:33Z</time>
      </trkpt>
      <trkpt lat="46.28058" lon="5.46221">
        <ele>577.2</ele>
        <time>2022-03-12T13:07:37Z</time>
      </trkpt>
      <trkpt lat="46.28059" lon="5.46227">
        <ele>577.4</ele>
        <time>2022-03-12T13:07:58Z</time>
      </trkpt>
      <trkpt lat="46.28062" lon="5.46236">
        <ele>577.4</ele>
        <time>2022-03-12T13:08:00Z</time>
      </trkpt>
      <trkpt lat="46.28069" lon="5.46246">
        <ele>577.4</ele>
        <time>2022-03-12T13:08:02Z</time>
      </trkpt>
      <trkpt lat="46.28079" lon="5.46258">
        <ele>577.2</ele>
        <time>2022-03-12T13:08:04Z</time>
      </trkpt>
      <trkpt lat="46.281" lon="5.46285">
        <ele>577</ele>
        <time>2022-03-12T13:08:08Z</time>
      </trkpt>
      <trkpt lat="46.28106" lon="5.46293">
        <ele>576.8</ele>
        <time>2022-03-12T13:08:09Z</time>
      </trkpt>
      <trkpt lat="46.28134" lon="5.46323">
        <ele>575.6</ele>
        <time>2022-03-12T13:08:13Z</time>
      </trkpt>
      <trkpt lat="46.28143" lon="5.46328">
        <ele>574</ele>
        <time>2022-03-12T13:08:14Z</time>
      </trkpt>
      <trkpt lat="46.28154" lon="5.46333">
        <ele>573.2</ele>
        <time>2022-03-12T13:08:15Z</time>
      </trkpt>
      <trkpt lat="46.28172" lon="5.46339">
        <ele>571.8</ele>
        <time>2022-03-12T13:08:17Z</time>
      </trkpt>
      <trkpt lat="46.28182" lon="5.46344">
        <ele>571.6</ele>
        <time>2022-03-12T13:08:18Z</time>
      </trkpt>
      <trkpt lat="46.28194" lon="5.46348">
        <ele>571</ele>
        <time>2022-03-12T13:08:19Z</time>
      </trkpt>
      <trkpt lat="46.28212" lon="5.46357">
        <ele>569.6</ele>
        <time>2022-03-12T13:08:21Z</time>
      </trkpt>
      <trkpt lat="46.28221" lon="5.46363">
        <ele>569.2</ele>
        <time>2022-03-12T13:08:22Z</time>
      </trkpt>
      <trkpt lat="46.28231" lon="5.46371">
        <ele>568.2</ele>
        <time>2022-03-12T13:08:23Z</time>
      </trkpt>
      <trkpt lat="46.28243" lon="5.46383">
        <ele>567.8</ele>
        <time>2022-03-12T13:08:24Z</time>
      </trkpt>
      <trkpt lat="46.28251" lon="5.46394">
        <ele>567.2</ele>
        <time>2022-03-12T13:08:25Z</time>
      </trkpt>
      <trkpt lat="46.2826" lon="5.46404">
        <ele>566.2</ele>
        <time>2022-03-12T13:08:26Z</time>
      </trkpt>
      <trkpt lat="46.28269" lon="5.46414">
        <ele>565.8</ele>
        <time>2022-03-12T13:08:27Z</time>
      </trkpt>
      <trkpt lat="46.28298" lon="5.46441">
        <ele>564.6</ele>
        <time>2022-03-12T13:08:30Z</time>
      </trkpt>
      <trkpt lat="46.28326" lon="5.46472">
        <ele>563.4</ele>
        <time>2022-03-12T13:08:33Z</time>
      </trkpt>
      <trkpt lat="46.28343" lon="5.46494">
        <ele>561.6</ele>
        <time>2022-03-12T13:08:35Z</time>
      </trkpt>
      <trkpt lat="46.2836" lon="5.46513">
        <ele>560.2</ele>
        <time>2022-03-12T13:08:37Z</time>
      </trkpt>
      <trkpt lat="46.28385" lon="5.46541">
        <ele>558.8</ele>
        <time>2022-03-12T13:08:40Z</time>
      </trkpt>
      <trkpt lat="46.28421" lon="5.46578">
        <ele>556.8</ele>
        <time>2022-03-12T13:08:44Z</time>
      </trkpt>
      <trkpt lat="46.28446" lon="5.46606">
        <ele>555</ele>
        <time>2022-03-12T13:08:47Z</time>
      </trkpt>
      <trkpt lat="46.28455" lon="5.46615">
        <ele>554.6</ele>
        <time>2022-03-12T13:08:48Z</time>
      </trkpt>
      <trkpt lat="46.28472" lon="5.46635">
        <ele>553.8</ele>
        <time>2022-03-12T13:08:50Z</time>
      </trkpt>
      <trkpt lat="46.28496" lon="5.46664">
        <ele>552.2</ele>
        <time>2022-03-12T13:08:53Z</time>
      </trkpt>
      <trkpt lat="46.28504" lon="5.46674">
        <ele>551</ele>
        <time>2022-03-12T13:08:54Z</time>
      </trkpt>
      <trkpt lat="46.2852" lon="5.46695">
        <ele>549.8</ele>
        <time>2022-03-12T13:08:56Z</time>
      </trkpt>
      <trkpt lat="46.28527" lon="5.46705">
        <ele>549.2</ele>
        <time>2022-03-12T13:08:57Z</time>
      </trkpt>
      <trkpt lat="46.28535" lon="5.46714">
        <ele>548.4</ele>
        <time>2022-03-12T13:08:58Z</time>
      </trkpt>
      <trkpt lat="46.28553" lon="5.46731">
        <ele>547.2</ele>
        <time>2022-03-12T13:09:00Z</time>
      </trkpt>
      <trkpt lat="46.28572" lon="5.46746">
        <ele>546.2</ele>
        <time>2022-03-12T13:09:02Z</time>
      </trkpt>
      <trkpt lat="46.28601" lon="5.46765">
        <ele>544.8</ele>
        <time>2022-03-12T13:09:05Z</time>
      </trkpt>
      <trkpt lat="46.2862" lon="5.46778">
        <ele>543.8</ele>
        <time>2022-03-12T13:09:07Z</time>
      </trkpt>
      <trkpt lat="46.28629" lon="5.46784">
        <ele>543.4</ele>
        <time>2022-03-12T13:09:08Z</time>
      </trkpt>
      <trkpt lat="46.28648" lon="5.46797">
        <ele>542</ele>
        <time>2022-03-12T13:09:10Z</time>
      </trkpt>
      <trkpt lat="46.28678" lon="5.46814">
        <ele>540.8</ele>
        <time>2022-03-12T13:09:13Z</time>
      </trkpt>
      <trkpt lat="46.28688" lon="5.46819">
        <ele>540.2</ele>
        <time>2022-03-12T13:09:14Z</time>
      </trkpt>
      <trkpt lat="46.28708" lon="5.4683">
        <ele>539</ele>
        <time>2022-03-12T13:09:16Z</time>
      </trkpt>
      <trkpt lat="46.28728" lon="5.46841">
        <ele>538</ele>
        <time>2022-03-12T13:09:18Z</time>
      </trkpt>
      <trkpt lat="46.28757" lon="5.46857">
        <ele>536.4</ele>
        <time>2022-03-12T13:09:21Z</time>
      </trkpt>
      <trkpt lat="46.28786" lon="5.46873">
        <ele>535.2</ele>
        <time>2022-03-12T13:09:24Z</time>
      </trkpt>
      <trkpt lat="46.28795" lon="5.46879">
        <ele>534.2</ele>
        <time>2022-03-12T13:09:25Z</time>
      </trkpt>
      <trkpt lat="46.28826" lon="5.46895">
        <ele>532.6</ele>
        <time>2022-03-12T13:09:28Z</time>
      </trkpt>
      <trkpt lat="46.28847" lon="5.46906">
        <ele>531.4</ele>
        <time>2022-03-12T13:09:30Z</time>
      </trkpt>
      <trkpt lat="46.28869" lon="5.46917">
        <ele>529.8</ele>
        <time>2022-03-12T13:09:32Z</time>
      </trkpt>
      <trkpt lat="46.28889" lon="5.46926">
        <ele>528.6</ele>
        <time>2022-03-12T13:09:34Z</time>
      </trkpt>
      <trkpt lat="46.2891" lon="5.46936">
        <ele>527.4</ele>
        <time>2022-03-12T13:09:36Z</time>
      </trkpt>
      <trkpt lat="46.28942" lon="5.46951">
        <ele>526</ele>
        <time>2022-03-12T13:09:39Z</time>
      </trkpt>
      <trkpt lat="46.28964" lon="5.46957">
        <ele>525</ele>
        <time>2022-03-12T13:09:41Z</time>
      </trkpt>
      <trkpt lat="46.28976" lon="5.4696">
        <ele>523.6</ele>
        <time>2022-03-12T13:09:42Z</time>
      </trkpt>
      <trkpt lat="46.28999" lon="5.46967">
        <ele>522.2</ele>
        <time>2022-03-12T13:09:44Z</time>
      </trkpt>
      <trkpt lat="46.2902" lon="5.46974">
        <ele>520.8</ele>
        <time>2022-03-12T13:09:46Z</time>
      </trkpt>
      <trkpt lat="46.29045" lon="5.46984">
        <ele>519.2</ele>
        <time>2022-03-12T13:09:48Z</time>
      </trkpt>
      <trkpt lat="46.29054" lon="5.46988">
        <ele>517.8</ele>
        <time>2022-03-12T13:09:49Z</time>
      </trkpt>
      <trkpt lat="46.29079" lon="5.46999">
        <ele>516.4</ele>
        <time>2022-03-12T13:09:51Z</time>
      </trkpt>
      <trkpt lat="46.29101" lon="5.47011">
        <ele>515.2</ele>
        <time>2022-03-12T13:09:53Z</time>
      </trkpt>
      <trkpt lat="46.29122" lon="5.47026">
        <ele>513.8</ele>
        <time>2022-03-12T13:09:55Z</time>
      </trkpt>
      <trkpt lat="46.29141" lon="5.47041">
        <ele>512.6</ele>
        <time>2022-03-12T13:09:57Z</time>
      </trkpt>
      <trkpt lat="46.2915" lon="5.47046">
        <ele>511.8</ele>
        <time>2022-03-12T13:09:58Z</time>
      </trkpt>
      <trkpt lat="46.29157" lon="5.4705">
        <ele>511.2</ele>
        <time>2022-03-12T13:09:59Z</time>
      </trkpt>
      <trkpt lat="46.29163" lon="5.47054">
        <ele>510.2</ele>
        <time>2022-03-12T13:10:00Z</time>
      </trkpt>
      <trkpt lat="46.2917" lon="5.4706">
        <ele>510</ele>
        <time>2022-03-12T13:10:01Z</time>
      </trkpt>
      <trkpt lat="46.29176" lon="5.47065">
        <ele>509.2</ele>
        <time>2022-03-12T13:10:02Z</time>
      </trkpt>
      <trkpt lat="46.29173" lon="5.47074">
        <ele>509</ele>
        <time>2022-03-12T13:10:03Z</time>
      </trkpt>
      <trkpt lat="46.29168" lon="5.47083">
        <ele>508</ele>
        <time>2022-03-12T13:10:04Z</time>
      </trkpt>
      <trkpt lat="46.29161" lon="5.47087">
        <ele>507.2</ele>
        <time>2022-03-12T13:10:05Z</time>
      </trkpt>
      <trkpt lat="46.29153" lon="5.47089">
        <ele>507</ele>
        <time>2022-03-12T13:10:06Z</time>
      </trkpt>
      <trkpt lat="46.29145" lon="5.47088">
        <ele>506</ele>
        <time>2022-03-12T13:10:07Z</time>
      </trkpt>
      <trkpt lat="46.29136" lon="5.47086">
        <ele>505.6</ele>
        <time>2022-03-12T13:10:08Z</time>
      </trkpt>
      <trkpt lat="46.29118" lon="5.47083">
        <ele>504.4</ele>
        <time>2022-03-12T13:10:10Z</time>
      </trkpt>
      <trkpt lat="46.29108" lon="5.47082">
        <ele>503.6</ele>
        <time>2022-03-12T13:10:11Z</time>
      </trkpt>
      <trkpt lat="46.29099" lon="5.47084">
        <ele>503.2</ele>
        <time>2022-03-12T13:10:12Z</time>
      </trkpt>
      <trkpt lat="46.29091" lon="5.4709">
        <ele>502.8</ele>
        <time>2022-03-12T13:10:13Z</time>
      </trkpt>
      <trkpt lat="46.29083" lon="5.471">
        <ele>502.2</ele>
        <time>2022-03-12T13:10:14Z</time>
      </trkpt>
      <trkpt lat="46.29078" lon="5.47112">
        <ele>502</ele>
        <time>2022-03-12T13:10:15Z</time>
      </trkpt>
      <trkpt lat="46.29072" lon="5.47141">
        <ele>501.2</ele>
        <time>2022-03-12T13:10:17Z</time>
      </trkpt>
      <trkpt lat="46.29071" lon="5.47157">
        <ele>500.4</ele>
        <time>2022-03-12T13:10:18Z</time>
      </trkpt>
      <trkpt lat="46.29069" lon="5.47189">
        <ele>499.4</ele>
        <time>2022-03-12T13:10:20Z</time>
      </trkpt>
      <trkpt lat="46.29067" lon="5.47221">
        <ele>498.2</ele>
        <time>2022-03-12T13:10:22Z</time>
      </trkpt>
      <trkpt lat="46.29067" lon="5.4725">
        <ele>497</ele>
        <time>2022-03-12T13:10:24Z</time>
      </trkpt>
      <trkpt lat="46.29065" lon="5.47301">
        <ele>495</ele>
        <time>2022-03-12T13:10:27Z</time>
      </trkpt>
      <trkpt lat="46.29064" lon="5.47328">
        <ele>494</ele>
        <time>2022-03-12T13:10:29Z</time>
      </trkpt>
      <trkpt lat="46.29062" lon="5.47343">
        <ele>493.4</ele>
        <time>2022-03-12T13:10:30Z</time>
      </trkpt>
      <trkpt lat="46.29057" lon="5.47372">
        <ele>492.6</ele>
        <time>2022-03-12T13:10:32Z</time>
      </trkpt>
      <trkpt lat="46.29053" lon="5.47381">
        <ele>492.4</ele>
        <time>2022-03-12T13:10:33Z</time>
      </trkpt>
      <trkpt lat="46.29048" lon="5.47392">
        <ele>492</ele>
        <time>2022-03-12T13:10:34Z</time>
      </trkpt>
      <trkpt lat="46.29036" lon="5.47413">
        <ele>491.6</ele>
        <time>2022-03-12T13:10:36Z</time>
      </trkpt>
      <trkpt lat="46.2903" lon="5.47419">
        <ele>491.4</ele>
        <time>2022-03-12T13:10:37Z</time>
      </trkpt>
      <trkpt lat="46.28996" lon="5.47451">
        <ele>490.8</ele>
        <time>2022-03-12T13:10:42Z</time>
      </trkpt>
      <trkpt lat="46.2896" lon="5.47477">
        <ele>491.2</ele>
        <time>2022-03-12T13:10:47Z</time>
      </trkpt>
      <trkpt lat="46.28908" lon="5.47523">
        <ele>492.4</ele>
        <time>2022-03-12T13:10:55Z</time>
      </trkpt>
      <trkpt lat="46.28901" lon="5.47529">
        <ele>492.4</ele>
        <time>2022-03-12T13:10:56Z</time>
      </trkpt>
      <trkpt lat="46.28895" lon="5.47536">
        <ele>492.4</ele>
        <time>2022-03-12T13:10:57Z</time>
      </trkpt>
      <trkpt lat="46.28886" lon="5.47551">
        <ele>492.4</ele>
        <time>2022-03-12T13:10:59Z</time>
      </trkpt>
      <trkpt lat="46.28881" lon="5.47572">
        <ele>492.4</ele>
        <time>2022-03-12T13:11:01Z</time>
      </trkpt>
      <trkpt lat="46.2888" lon="5.47582">
        <ele>492.6</ele>
        <time>2022-03-12T13:11:02Z</time>
      </trkpt>
      <trkpt lat="46.28882" lon="5.47634">
        <ele>493</ele>
        <time>2022-03-12T13:11:08Z</time>
      </trkpt>
      <trkpt lat="46.28884" lon="5.47662">
        <ele>493.8</ele>
        <time>2022-03-12T13:11:11Z</time>
      </trkpt>
      <trkpt lat="46.28885" lon="5.47723">
        <ele>494.2</ele>
        <time>2022-03-12T13:11:18Z</time>
      </trkpt>
      <trkpt lat="46.28885" lon="5.47747">
        <ele>494.6</ele>
        <time>2022-03-12T13:11:21Z</time>
      </trkpt>
      <trkpt lat="46.28887" lon="5.47761">
        <ele>495.2</ele>
        <time>2022-03-12T13:11:23Z</time>
      </trkpt>
      <trkpt lat="46.28892" lon="5.47782">
        <ele>495.8</ele>
        <time>2022-03-12T13:11:26Z</time>
      </trkpt>
      <trkpt lat="46.28898" lon="5.47799">
        <ele>496.6</ele>
        <time>2022-03-12T13:11:29Z</time>
      </trkpt>
      <trkpt lat="46.289" lon="5.47806">
        <ele>497</ele>
        <time>2022-03-12T13:11:30Z</time>
      </trkpt>
      <trkpt lat="46.28918" lon="5.47851">
        <ele>498</ele>
        <time>2022-03-12T13:11:36Z</time>
      </trkpt>
      <trkpt lat="46.28946" lon="5.47896">
        <ele>498</ele>
        <time>2022-03-12T13:11:43Z</time>
      </trkpt>
      <trkpt lat="46.28983" lon="5.47942">
        <ele>497.4</ele>
        <time>2022-03-12T13:11:50Z</time>
      </trkpt>
      <trkpt lat="46.28989" lon="5.47952">
        <ele>497.2</ele>
        <time>2022-03-12T13:11:51Z</time>
      </trkpt>
      <trkpt lat="46.28996" lon="5.47959">
        <ele>497</ele>
        <time>2022-03-12T13:11:52Z</time>
      </trkpt>
      <trkpt lat="46.29009" lon="5.47972">
        <ele>496.6</ele>
        <time>2022-03-12T13:11:54Z</time>
      </trkpt>
      <trkpt lat="46.29017" lon="5.47977">
        <ele>495.6</ele>
        <time>2022-03-12T13:11:55Z</time>
      </trkpt>
      <trkpt lat="46.29028" lon="5.47984">
        <ele>495.2</ele>
        <time>2022-03-12T13:11:56Z</time>
      </trkpt>
      <trkpt lat="46.29037" lon="5.47988">
        <ele>494.2</ele>
        <time>2022-03-12T13:11:57Z</time>
      </trkpt>
      <trkpt lat="46.29045" lon="5.47991">
        <ele>493.8</ele>
        <time>2022-03-12T13:11:58Z</time>
      </trkpt>
      <trkpt lat="46.29052" lon="5.47993">
        <ele>493.2</ele>
        <time>2022-03-12T13:11:59Z</time>
      </trkpt>
      <trkpt lat="46.29069" lon="5.47999">
        <ele>492.2</ele>
        <time>2022-03-12T13:12:01Z</time>
      </trkpt>
      <trkpt lat="46.29093" lon="5.48008">
        <ele>491.2</ele>
        <time>2022-03-12T13:12:04Z</time>
      </trkpt>
      <trkpt lat="46.29128" lon="5.48024">
        <ele>490.6</ele>
        <time>2022-03-12T13:12:09Z</time>
      </trkpt>
      <trkpt lat="46.29176" lon="5.48043">
        <ele>490.8</ele>
        <time>2022-03-12T13:12:16Z</time>
      </trkpt>
      <trkpt lat="46.29183" lon="5.48046">
        <ele>491</ele>
        <time>2022-03-12T13:12:17Z</time>
      </trkpt>
      <trkpt lat="46.29201" lon="5.48051">
        <ele>491</ele>
        <time>2022-03-12T13:12:20Z</time>
      </trkpt>
      <trkpt lat="46.29206" lon="5.48054">
        <ele>491</ele>
        <time>2022-03-12T13:12:21Z</time>
      </trkpt>
      <trkpt lat="46.29214" lon="5.48062">
        <ele>491.2</ele>
        <time>2022-03-12T13:12:23Z</time>
      </trkpt>
      <trkpt lat="46.29218" lon="5.48068">
        <ele>491.2</ele>
        <time>2022-03-12T13:12:24Z</time>
      </trkpt>
      <trkpt lat="46.29221" lon="5.48074">
        <ele>491</ele>
        <time>2022-03-12T13:12:25Z</time>
      </trkpt>
      <trkpt lat="46.29227" lon="5.48095">
        <ele>491</ele>
        <time>2022-03-12T13:12:28Z</time>
      </trkpt>
      <trkpt lat="46.29236" lon="5.48105">
        <ele>490.6</ele>
        <time>2022-03-12T13:12:31Z</time>
      </trkpt>
      <trkpt lat="46.29246" lon="5.48103">
        <ele>490</ele>
        <time>2022-03-12T13:12:33Z</time>
      </trkpt>
      <trkpt lat="46.29253" lon="5.48102">
        <ele>489.6</ele>
        <time>2022-03-12T13:12:34Z</time>
      </trkpt>
      <trkpt lat="46.29266" lon="5.481">
        <ele>489</ele>
        <time>2022-03-12T13:12:36Z</time>
      </trkpt>
      <trkpt lat="46.29278" lon="5.48094">
        <ele>488.4</ele>
        <time>2022-03-12T13:12:38Z</time>
      </trkpt>
      <trkpt lat="46.29285" lon="5.48091">
        <ele>488.2</ele>
        <time>2022-03-12T13:12:39Z</time>
      </trkpt>
      <trkpt lat="46.29292" lon="5.4809">
        <ele>487.8</ele>
        <time>2022-03-12T13:12:40Z</time>
      </trkpt>
      <trkpt lat="46.29298" lon="5.48091">
        <ele>487.6</ele>
        <time>2022-03-12T13:12:41Z</time>
      </trkpt>
      <trkpt lat="46.29311" lon="5.481">
        <ele>487</ele>
        <time>2022-03-12T13:12:43Z</time>
      </trkpt>
      <trkpt lat="46.29316" lon="5.48106">
        <ele>486.6</ele>
        <time>2022-03-12T13:12:44Z</time>
      </trkpt>
      <trkpt lat="46.29322" lon="5.48113">
        <ele>486.2</ele>
        <time>2022-03-12T13:12:45Z</time>
      </trkpt>
      <trkpt lat="46.29337" lon="5.48139">
        <ele>485.4</ele>
        <time>2022-03-12T13:12:48Z</time>
      </trkpt>
      <trkpt lat="46.29369" lon="5.48187">
        <ele>484.8</ele>
        <time>2022-03-12T13:12:54Z</time>
      </trkpt>
      <trkpt lat="46.29386" lon="5.48211">
        <ele>484.4</ele>
        <time>2022-03-12T13:12:57Z</time>
      </trkpt>
      <trkpt lat="46.29404" lon="5.48231">
        <ele>484.2</ele>
        <time>2022-03-12T13:13:00Z</time>
      </trkpt>
      <trkpt lat="46.2945" lon="5.48273">
        <ele>483.8</ele>
        <time>2022-03-12T13:13:07Z</time>
      </trkpt>
      <trkpt lat="46.29493" lon="5.48299">
        <ele>483.2</ele>
        <time>2022-03-12T13:13:13Z</time>
      </trkpt>
      <trkpt lat="46.29542" lon="5.48322">
        <ele>483.2</ele>
        <time>2022-03-12T13:13:20Z</time>
      </trkpt>
      <trkpt lat="46.29594" lon="5.4835">
        <ele>483</ele>
        <time>2022-03-12T13:13:28Z</time>
      </trkpt>
      <trkpt lat="46.29632" lon="5.48369">
        <ele>483.4</ele>
        <time>2022-03-12T13:13:35Z</time>
      </trkpt>
      <trkpt lat="46.29647" lon="5.48378">
        <ele>484.6</ele>
        <time>2022-03-12T13:13:38Z</time>
      </trkpt>
      <trkpt lat="46.29674" lon="5.48394">
        <ele>485</ele>
        <time>2022-03-12T13:13:43Z</time>
      </trkpt>
      <trkpt lat="46.29723" lon="5.48422">
        <ele>485.2</ele>
        <time>2022-03-12T13:13:52Z</time>
      </trkpt>
      <trkpt lat="46.29732" lon="5.48431">
        <ele>485.2</ele>
        <time>2022-03-12T13:13:54Z</time>
      </trkpt>
      <trkpt lat="46.29737" lon="5.48436">
        <ele>485.2</ele>
        <time>2022-03-12T13:13:55Z</time>
      </trkpt>
      <trkpt lat="46.29748" lon="5.48454">
        <ele>485.6</ele>
        <time>2022-03-12T13:13:58Z</time>
      </trkpt>
      <trkpt lat="46.29752" lon="5.4846">
        <ele>485.6</ele>
        <time>2022-03-12T13:13:59Z</time>
      </trkpt>
      <trkpt lat="46.29765" lon="5.48478">
        <ele>485.8</ele>
        <time>2022-03-12T13:14:02Z</time>
      </trkpt>
      <trkpt lat="46.2978" lon="5.48492">
        <ele>485.8</ele>
        <time>2022-03-12T13:14:05Z</time>
      </trkpt>
      <trkpt lat="46.29829" lon="5.48523">
        <ele>485.8</ele>
        <time>2022-03-12T13:14:14Z</time>
      </trkpt>
      <trkpt lat="46.29858" lon="5.48529">
        <ele>485.6</ele>
        <time>2022-03-12T13:14:19Z</time>
      </trkpt>
      <trkpt lat="46.29864" lon="5.48529">
        <ele>485.6</ele>
        <time>2022-03-12T13:14:20Z</time>
      </trkpt>
      <trkpt lat="46.29897" lon="5.48517">
        <ele>485.8</ele>
        <time>2022-03-12T13:14:26Z</time>
      </trkpt>
      <trkpt lat="46.29945" lon="5.48494">
        <ele>486.6</ele>
        <time>2022-03-12T13:14:35Z</time>
      </trkpt>
      <trkpt lat="46.29955" lon="5.48487">
        <ele>486.6</ele>
        <time>2022-03-12T13:14:37Z</time>
      </trkpt>
      <trkpt lat="46.29973" lon="5.4847">
        <ele>486.8</ele>
        <time>2022-03-12T13:14:41Z</time>
      </trkpt>
      <trkpt lat="46.3002" lon="5.48426">
        <ele>487.4</ele>
        <time>2022-03-12T13:14:51Z</time>
      </trkpt>
      <trkpt lat="46.30025" lon="5.48422">
        <ele>487.4</ele>
        <time>2022-03-12T13:14:52Z</time>
      </trkpt>
      <trkpt lat="46.30055" lon="5.4841">
        <ele>487.8</ele>
        <time>2022-03-12T13:14:58Z</time>
      </trkpt>
      <trkpt lat="46.30091" lon="5.48407">
        <ele>488.4</ele>
        <time>2022-03-12T13:15:05Z</time>
      </trkpt>
      <trkpt lat="46.30102" lon="5.48407">
        <ele>489</ele>
        <time>2022-03-12T13:15:07Z</time>
      </trkpt>
      <trkpt lat="46.30137" lon="5.48409">
        <ele>489.8</ele>
        <time>2022-03-12T13:15:13Z</time>
      </trkpt>
      <trkpt lat="46.30184" lon="5.48406">
        <ele>490</ele>
        <time>2022-03-12T13:15:21Z</time>
      </trkpt>
      <trkpt lat="46.30211" lon="5.48404">
        <ele>490</ele>
        <time>2022-03-12T13:15:26Z</time>
      </trkpt>
      <trkpt lat="46.30224" lon="5.48405">
        <ele>490.2</ele>
        <time>2022-03-12T13:15:28Z</time>
      </trkpt>
      <trkpt lat="46.30228" lon="5.48407">
        <ele>490.2</ele>
        <time>2022-03-12T13:15:29Z</time>
      </trkpt>
      <trkpt lat="46.30232" lon="5.48409">
        <ele>490.2</ele>
        <time>2022-03-12T13:15:30Z</time>
      </trkpt>
      <trkpt lat="46.30256" lon="5.48424">
        <ele>490.6</ele>
        <time>2022-03-12T13:15:35Z</time>
      </trkpt>
      <trkpt lat="46.30261" lon="5.48428">
        <ele>490.6</ele>
        <time>2022-03-12T13:15:36Z</time>
      </trkpt>
      <trkpt lat="46.30273" lon="5.48435">
        <ele>491.2</ele>
        <time>2022-03-12T13:15:39Z</time>
      </trkpt>
      <trkpt lat="46.30284" lon="5.48439">
        <ele>491.6</ele>
        <time>2022-03-12T13:15:41Z</time>
      </trkpt>
      <trkpt lat="46.303" lon="5.48444">
        <ele>492.4</ele>
        <time>2022-03-12T13:15:44Z</time>
      </trkpt>
      <trkpt lat="46.30322" lon="5.48452">
        <ele>492.8</ele>
        <time>2022-03-12T13:15:48Z</time>
      </trkpt>
      <trkpt lat="46.30351" lon="5.48473">
        <ele>493</ele>
        <time>2022-03-12T13:15:53Z</time>
      </trkpt>
      <trkpt lat="46.30386" lon="5.48512">
        <ele>492.6</ele>
        <time>2022-03-12T13:16:00Z</time>
      </trkpt>
      <trkpt lat="46.30423" lon="5.48535">
        <ele>492.2</ele>
        <time>2022-03-12T13:16:06Z</time>
      </trkpt>
      <trkpt lat="46.30466" lon="5.4855">
        <ele>492.4</ele>
        <time>2022-03-12T13:16:13Z</time>
      </trkpt>
      <trkpt lat="46.30516" lon="5.48558">
        <ele>492.2</ele>
        <time>2022-03-12T13:16:20Z</time>
      </trkpt>
      <trkpt lat="46.30564" lon="5.48556">
        <ele>491.6</ele>
        <time>2022-03-12T13:16:27Z</time>
      </trkpt>
      <trkpt lat="46.3061" lon="5.48547">
        <ele>491.6</ele>
        <time>2022-03-12T13:16:34Z</time>
      </trkpt>
      <trkpt lat="46.30665" lon="5.4853">
        <ele>492.2</ele>
        <time>2022-03-12T13:16:43Z</time>
      </trkpt>
      <trkpt lat="46.30671" lon="5.48528">
        <ele>492.2</ele>
        <time>2022-03-12T13:16:44Z</time>
      </trkpt>
      <trkpt lat="46.30703" lon="5.48527">
        <ele>492.8</ele>
        <time>2022-03-12T13:16:49Z</time>
      </trkpt>
      <trkpt lat="46.30751" lon="5.48543">
        <ele>492.4</ele>
        <time>2022-03-12T13:16:56Z</time>
      </trkpt>
      <trkpt lat="46.30803" lon="5.48556">
        <ele>492.4</ele>
        <time>2022-03-12T13:17:04Z</time>
      </trkpt>
      <trkpt lat="46.30846" lon="5.48563">
        <ele>492.8</ele>
        <time>2022-03-12T13:17:11Z</time>
      </trkpt>
      <trkpt lat="46.30852" lon="5.48562">
        <ele>492.8</ele>
        <time>2022-03-12T13:17:12Z</time>
      </trkpt>
      <trkpt lat="46.30863" lon="5.48559">
        <ele>492.6</ele>
        <time>2022-03-12T13:17:14Z</time>
      </trkpt>
      <trkpt lat="46.3087" lon="5.48553">
        <ele>492.6</ele>
        <time>2022-03-12T13:17:15Z</time>
      </trkpt>
      <trkpt lat="46.30875" lon="5.48547">
        <ele>492.6</ele>
        <time>2022-03-12T13:17:16Z</time>
      </trkpt>
      <trkpt lat="46.30883" lon="5.48532">
        <ele>492.2</ele>
        <time>2022-03-12T13:17:18Z</time>
      </trkpt>
      <trkpt lat="46.30898" lon="5.48478">
        <ele>492</ele>
        <time>2022-03-12T13:17:24Z</time>
      </trkpt>
      <trkpt lat="46.3092" lon="5.48421">
        <ele>491.8</ele>
        <time>2022-03-12T13:17:31Z</time>
      </trkpt>
      <trkpt lat="46.30949" lon="5.48357">
        <ele>492</ele>
        <time>2022-03-12T13:17:40Z</time>
      </trkpt>
      <trkpt lat="46.3097" lon="5.48306">
        <ele>492.8</ele>
        <time>2022-03-12T13:17:48Z</time>
      </trkpt>
      <trkpt lat="46.30974" lon="5.48299">
        <ele>492.8</ele>
        <time>2022-03-12T13:17:49Z</time>
      </trkpt>
      <trkpt lat="46.30986" lon="5.48284">
        <ele>493.2</ele>
        <time>2022-03-12T13:17:52Z</time>
      </trkpt>
      <trkpt lat="46.30991" lon="5.4828">
        <ele>493.4</ele>
        <time>2022-03-12T13:17:53Z</time>
      </trkpt>
      <trkpt lat="46.31001" lon="5.48274">
        <ele>493.4</ele>
        <time>2022-03-12T13:17:55Z</time>
      </trkpt>
      <trkpt lat="46.31012" lon="5.48271">
        <ele>493.4</ele>
        <time>2022-03-12T13:17:57Z</time>
      </trkpt>
      <trkpt lat="46.31017" lon="5.48271">
        <ele>493.4</ele>
        <time>2022-03-12T13:17:58Z</time>
      </trkpt>
      <trkpt lat="46.31033" lon="5.48273">
        <ele>493.6</ele>
        <time>2022-03-12T13:18:01Z</time>
      </trkpt>
      <trkpt lat="46.31047" lon="5.48279">
        <ele>494</ele>
        <time>2022-03-12T13:18:04Z</time>
      </trkpt>
      <trkpt lat="46.31077" lon="5.48286">
        <ele>494.8</ele>
        <time>2022-03-12T13:18:10Z</time>
      </trkpt>
      <trkpt lat="46.31082" lon="5.48286">
        <ele>495</ele>
        <time>2022-03-12T13:18:11Z</time>
      </trkpt>
      <trkpt lat="46.31115" lon="5.48275">
        <ele>495.4</ele>
        <time>2022-03-12T13:18:17Z</time>
      </trkpt>
      <trkpt lat="46.31148" lon="5.48249">
        <ele>495.4</ele>
        <time>2022-03-12T13:18:24Z</time>
      </trkpt>
      <trkpt lat="46.31178" lon="5.48227">
        <ele>495.4</ele>
        <time>2022-03-12T13:18:30Z</time>
      </trkpt>
      <trkpt lat="46.31182" lon="5.48225">
        <ele>495.4</ele>
        <time>2022-03-12T13:18:31Z</time>
      </trkpt>
      <trkpt lat="46.31194" lon="5.48222">
        <ele>495.6</ele>
        <time>2022-03-12T13:18:33Z</time>
      </trkpt>
      <trkpt lat="46.3121" lon="5.48223">
        <ele>495.4</ele>
        <time>2022-03-12T13:18:36Z</time>
      </trkpt>
      <trkpt lat="46.3125" lon="5.48235">
        <ele>495.4</ele>
        <time>2022-03-12T13:18:43Z</time>
      </trkpt>
      <trkpt lat="46.31289" lon="5.48253">
        <ele>495.4</ele>
        <time>2022-03-12T13:18:51Z</time>
      </trkpt>
      <trkpt lat="46.31325" lon="5.48277">
        <ele>495.4</ele>
        <time>2022-03-12T13:18:58Z</time>
      </trkpt>
      <trkpt lat="46.31336" lon="5.48294">
        <ele>495.8</ele>
        <time>2022-03-12T13:19:01Z</time>
      </trkpt>
      <trkpt lat="46.31347" lon="5.48313">
        <ele>496</ele>
        <time>2022-03-12T13:19:04Z</time>
      </trkpt>
      <trkpt lat="46.3138" lon="5.48373">
        <ele>496.2</ele>
        <time>2022-03-12T13:19:13Z</time>
      </trkpt>
      <trkpt lat="46.31415" lon="5.48437">
        <ele>496.6</ele>
        <time>2022-03-12T13:19:23Z</time>
      </trkpt>
      <trkpt lat="46.31438" lon="5.48483">
        <ele>496.8</ele>
        <time>2022-03-12T13:19:30Z</time>
      </trkpt>
      <trkpt lat="46.31459" lon="5.48518">
        <ele>497.4</ele>
        <time>2022-03-12T13:19:36Z</time>
      </trkpt>
      <trkpt lat="46.31472" lon="5.48533">
        <ele>497.6</ele>
        <time>2022-03-12T13:19:39Z</time>
      </trkpt>
      <trkpt lat="46.31487" lon="5.48546">
        <ele>497.6</ele>
        <time>2022-03-12T13:19:42Z</time>
      </trkpt>
      <trkpt lat="46.31503" lon="5.48554">
        <ele>497.8</ele>
        <time>2022-03-12T13:19:45Z</time>
      </trkpt>
      <trkpt lat="46.31526" lon="5.48564">
        <ele>498.2</ele>
        <time>2022-03-12T13:19:49Z</time>
      </trkpt>
      <trkpt lat="46.31578" lon="5.48583">
        <ele>498.2</ele>
        <time>2022-03-12T13:19:58Z</time>
      </trkpt>
      <trkpt lat="46.3161" lon="5.48597">
        <ele>498.2</ele>
        <time>2022-03-12T13:20:04Z</time>
      </trkpt>
      <trkpt lat="46.31649" lon="5.48606">
        <ele>498.8</ele>
        <time>2022-03-12T13:20:11Z</time>
      </trkpt>
      <trkpt lat="46.3166" lon="5.48607">
        <ele>499</ele>
        <time>2022-03-12T13:20:13Z</time>
      </trkpt>
      <trkpt lat="46.31708" lon="5.48607">
        <ele>500</ele>
        <time>2022-03-12T13:20:22Z</time>
      </trkpt>
      <trkpt lat="46.31744" lon="5.48611">
        <ele>500.8</ele>
        <time>2022-03-12T13:20:29Z</time>
      </trkpt>
      <trkpt lat="46.31754" lon="5.48614">
        <ele>501</ele>
        <time>2022-03-12T13:20:31Z</time>
      </trkpt>
      <trkpt lat="46.3178" lon="5.48623">
        <ele>501.6</ele>
        <time>2022-03-12T13:20:36Z</time>
      </trkpt>
      <trkpt lat="46.31798" lon="5.48632">
        <ele>502.2</ele>
        <time>2022-03-12T13:20:40Z</time>
      </trkpt>
      <trkpt lat="46.31817" lon="5.48643">
        <ele>503.4</ele>
        <time>2022-03-12T13:20:44Z</time>
      </trkpt>
      <trkpt lat="46.31823" lon="5.48647">
        <ele>503.4</ele>
        <time>2022-03-12T13:20:45Z</time>
      </trkpt>
      <trkpt lat="46.31847" lon="5.48659">
        <ele>503.6</ele>
        <time>2022-03-12T13:20:49Z</time>
      </trkpt>
      <trkpt lat="46.31891" lon="5.48668">
        <ele>503</ele>
        <time>2022-03-12T13:20:56Z</time>
      </trkpt>
      <trkpt lat="46.31951" lon="5.48679">
        <ele>502.8</ele>
        <time>2022-03-12T13:21:06Z</time>
      </trkpt>
      <trkpt lat="46.32005" lon="5.48677">
        <ele>503.2</ele>
        <time>2022-03-12T13:21:15Z</time>
      </trkpt>
      <trkpt lat="46.32063" lon="5.48674">
        <ele>503.2</ele>
        <time>2022-03-12T13:21:25Z</time>
      </trkpt>
      <trkpt lat="46.32069" lon="5.48674">
        <ele>503.2</ele>
        <time>2022-03-12T13:21:26Z</time>
      </trkpt>
      <trkpt lat="46.3212" lon="5.48674">
        <ele>503.8</ele>
        <time>2022-03-12T13:21:35Z</time>
      </trkpt>
      <trkpt lat="46.32177" lon="5.48673">
        <ele>504.4</ele>
        <time>2022-03-12T13:21:45Z</time>
      </trkpt>
      <trkpt lat="46.32183" lon="5.48673">
        <ele>504.6</ele>
        <time>2022-03-12T13:21:46Z</time>
      </trkpt>
      <trkpt lat="46.32189" lon="5.48673">
        <ele>504.6</ele>
        <time>2022-03-12T13:21:47Z</time>
      </trkpt>
      <trkpt lat="46.32247" lon="5.48676">
        <ele>505.2</ele>
        <time>2022-03-12T13:21:57Z</time>
      </trkpt>
      <trkpt lat="46.32293" lon="5.48687">
        <ele>505.2</ele>
        <time>2022-03-12T13:22:05Z</time>
      </trkpt>
      <trkpt lat="46.32347" lon="5.48694">
        <ele>505.4</ele>
        <time>2022-03-12T13:22:14Z</time>
      </trkpt>
      <trkpt lat="46.32359" lon="5.48694">
        <ele>505.6</ele>
        <time>2022-03-12T13:22:16Z</time>
      </trkpt>
      <trkpt lat="46.32401" lon="5.48699">
        <ele>506</ele>
        <time>2022-03-12T13:22:23Z</time>
      </trkpt>
      <trkpt lat="46.32449" lon="5.48706">
        <ele>506.2</ele>
        <time>2022-03-12T13:22:31Z</time>
      </trkpt>
      <trkpt lat="46.32496" lon="5.48713">
        <ele>506.8</ele>
        <time>2022-03-12T13:22:39Z</time>
      </trkpt>
      <trkpt lat="46.32508" lon="5.48715">
        <ele>506.8</ele>
        <time>2022-03-12T13:22:41Z</time>
      </trkpt>
      <trkpt lat="46.32542" lon="5.48723">
        <ele>507.2</ele>
        <time>2022-03-12T13:22:47Z</time>
      </trkpt>
      <trkpt lat="46.32599" lon="5.48739">
        <ele>508</ele>
        <time>2022-03-12T13:22:57Z</time>
      </trkpt>
      <trkpt lat="46.32605" lon="5.48741">
        <ele>508</ele>
        <time>2022-03-12T13:22:58Z</time>
      </trkpt>
      <trkpt lat="46.32659" lon="5.48757">
        <ele>508.8</ele>
        <time>2022-03-12T13:23:08Z</time>
      </trkpt>
      <trkpt lat="46.32666" lon="5.48759">
        <ele>508.8</ele>
        <time>2022-03-12T13:23:09Z</time>
      </trkpt>
      <trkpt lat="46.3267" lon="5.48761">
        <ele>509</ele>
        <time>2022-03-12T13:23:10Z</time>
      </trkpt>
      <trkpt lat="46.32712" lon="5.48773">
        <ele>509.4</ele>
        <time>2022-03-12T13:23:18Z</time>
      </trkpt>
      <trkpt lat="46.32758" lon="5.48787">
        <ele>509.6</ele>
        <time>2022-03-12T13:23:27Z</time>
      </trkpt>
      <trkpt lat="46.32783" lon="5.48795">
        <ele>509.8</ele>
        <time>2022-03-12T13:23:32Z</time>
      </trkpt>
      <trkpt lat="46.32791" lon="5.48798">
        <ele>510.2</ele>
        <time>2022-03-12T13:23:34Z</time>
      </trkpt>
      <trkpt lat="46.32795" lon="5.488">
        <ele>510.4</ele>
        <time>2022-03-12T13:23:37Z</time>
      </trkpt>
      <trkpt lat="46.32795" lon="5.488">
        <ele>510.4</ele>
        <time>2022-03-12T13:23:39Z</time>
      </trkpt>
      <trkpt lat="46.32797" lon="5.48801">
        <ele>510.2</ele>
        <time>2022-03-12T13:24:25Z</time>
      </trkpt>
      <trkpt lat="46.32799" lon="5.48802">
        <ele>510.2</ele>
        <time>2022-03-12T13:24:26Z</time>
      </trkpt>
      <trkpt lat="46.32819" lon="5.48808">
        <ele>510.4</ele>
        <time>2022-03-12T13:24:31Z</time>
      </trkpt>
      <trkpt lat="46.32847" lon="5.48816">
        <ele>510.6</ele>
        <time>2022-03-12T13:24:37Z</time>
      </trkpt>
      <trkpt lat="46.32881" lon="5.4883">
        <ele>511.2</ele>
        <time>2022-03-12T13:24:44Z</time>
      </trkpt>
      <trkpt lat="46.32886" lon="5.48832">
        <ele>511.4</ele>
        <time>2022-03-12T13:24:45Z</time>
      </trkpt>
      <trkpt lat="46.3293" lon="5.48848">
        <ele>512.2</ele>
        <time>2022-03-12T13:24:54Z</time>
      </trkpt>
      <trkpt lat="46.3295" lon="5.48855">
        <ele>512.4</ele>
        <time>2022-03-12T13:24:58Z</time>
      </trkpt>
      <trkpt lat="46.32974" lon="5.48865">
        <ele>512.8</ele>
        <time>2022-03-12T13:25:03Z</time>
      </trkpt>
      <trkpt lat="46.33011" lon="5.48881">
        <ele>513.4</ele>
        <time>2022-03-12T13:25:11Z</time>
      </trkpt>
      <trkpt lat="46.33026" lon="5.48889">
        <ele>513.6</ele>
        <time>2022-03-12T13:25:14Z</time>
      </trkpt>
      <trkpt lat="46.33062" lon="5.48919">
        <ele>514.2</ele>
        <time>2022-03-12T13:25:22Z</time>
      </trkpt>
      <trkpt lat="46.33073" lon="5.48925">
        <ele>514.2</ele>
        <time>2022-03-12T13:25:24Z</time>
      </trkpt>
      <trkpt lat="46.33088" lon="5.48932">
        <ele>514.4</ele>
        <time>2022-03-12T13:25:27Z</time>
      </trkpt>
      <trkpt lat="46.33094" lon="5.48935">
        <ele>514.6</ele>
        <time>2022-03-12T13:25:28Z</time>
      </trkpt>
      <trkpt lat="46.33134" lon="5.48952">
        <ele>515.2</ele>
        <time>2022-03-12T13:25:36Z</time>
      </trkpt>
      <trkpt lat="46.3314" lon="5.48954">
        <ele>515.4</ele>
        <time>2022-03-12T13:25:37Z</time>
      </trkpt>
      <trkpt lat="46.33181" lon="5.48972">
        <ele>516</ele>
        <time>2022-03-12T13:25:45Z</time>
      </trkpt>
      <trkpt lat="46.33199" lon="5.48983">
        <ele>516.6</ele>
        <time>2022-03-12T13:25:49Z</time>
      </trkpt>
      <trkpt lat="46.33203" lon="5.48985">
        <ele>516.8</ele>
        <time>2022-03-12T13:25:50Z</time>
      </trkpt>
      <trkpt lat="46.33207" lon="5.48987">
        <ele>517</ele>
        <time>2022-03-12T13:25:51Z</time>
      </trkpt>
      <trkpt lat="46.33212" lon="5.48988">
        <ele>517</ele>
        <time>2022-03-12T13:25:52Z</time>
      </trkpt>
      <trkpt lat="46.33231" lon="5.48988">
        <ele>517.6</ele>
        <time>2022-03-12T13:25:56Z</time>
      </trkpt>
      <trkpt lat="46.33235" lon="5.48988">
        <ele>517.6</ele>
        <time>2022-03-12T13:25:57Z</time>
      </trkpt>
      <trkpt lat="46.3324" lon="5.48987">
        <ele>517.8</ele>
        <time>2022-03-12T13:25:58Z</time>
      </trkpt>
      <trkpt lat="46.3325" lon="5.4898">
        <ele>518</ele>
        <time>2022-03-12T13:26:00Z</time>
      </trkpt>
      <trkpt lat="46.33254" lon="5.48967">
        <ele>518.2</ele>
        <time>2022-03-12T13:26:02Z</time>
      </trkpt>
      <trkpt lat="46.33255" lon="5.48959">
        <ele>518.4</ele>
        <time>2022-03-12T13:26:03Z</time>
      </trkpt>
      <trkpt lat="46.33257" lon="5.48942">
        <ele>518.6</ele>
        <time>2022-03-12T13:26:05Z</time>
      </trkpt>
      <trkpt lat="46.33259" lon="5.48906">
        <ele>518.6</ele>
        <time>2022-03-12T13:26:09Z</time>
      </trkpt>
      <trkpt lat="46.33262" lon="5.48853">
        <ele>518.2</ele>
        <time>2022-03-12T13:26:15Z</time>
      </trkpt>
      <trkpt lat="46.33263" lon="5.48825">
        <ele>517.6</ele>
        <time>2022-03-12T13:26:18Z</time>
      </trkpt>
      <trkpt lat="46.33268" lon="5.48777">
        <ele>517</ele>
        <time>2022-03-12T13:26:23Z</time>
      </trkpt>
      <trkpt lat="46.33274" lon="5.48727">
        <ele>516.8</ele>
        <time>2022-03-12T13:26:28Z</time>
      </trkpt>
      <trkpt lat="46.33277" lon="5.48707">
        <ele>516.6</ele>
        <time>2022-03-12T13:26:30Z</time>
      </trkpt>
      <trkpt lat="46.3329" lon="5.4863">
        <ele>516</ele>
        <time>2022-03-12T13:26:38Z</time>
      </trkpt>
      <trkpt lat="46.33294" lon="5.48604">
        <ele>515.6</ele>
        <time>2022-03-12T13:26:41Z</time>
      </trkpt>
      <trkpt lat="46.333" lon="5.48587">
        <ele>515.6</ele>
        <time>2022-03-12T13:26:43Z</time>
      </trkpt>
      <trkpt lat="46.33304" lon="5.48579">
        <ele>515.6</ele>
        <time>2022-03-12T13:26:44Z</time>
      </trkpt>
      <trkpt lat="46.33308" lon="5.48572">
        <ele>515.6</ele>
        <time>2022-03-12T13:26:45Z</time>
      </trkpt>
      <trkpt lat="46.33319" lon="5.48561">
        <ele>515.6</ele>
        <time>2022-03-12T13:26:47Z</time>
      </trkpt>
      <trkpt lat="46.33325" lon="5.48556">
        <ele>515.6</ele>
        <time>2022-03-12T13:26:48Z</time>
      </trkpt>
      <trkpt lat="46.33343" lon="5.48542">
        <ele>515.4</ele>
        <time>2022-03-12T13:26:51Z</time>
      </trkpt>
      <trkpt lat="46.33354" lon="5.48529">
        <ele>515.2</ele>
        <time>2022-03-12T13:26:53Z</time>
      </trkpt>
      <trkpt lat="46.33361" lon="5.48513">
        <ele>514.8</ele>
        <time>2022-03-12T13:26:55Z</time>
      </trkpt>
      <trkpt lat="46.33365" lon="5.48494">
        <ele>514.6</ele>
        <time>2022-03-12T13:26:57Z</time>
      </trkpt>
      <trkpt lat="46.33379" lon="5.48414">
        <ele>513.4</ele>
        <time>2022-03-12T13:27:06Z</time>
      </trkpt>
      <trkpt lat="46.33389" lon="5.48346">
        <ele>514</ele>
        <time>2022-03-12T13:27:15Z</time>
      </trkpt>
      <trkpt lat="46.33403" lon="5.48263">
        <ele>514.2</ele>
        <time>2022-03-12T13:27:25Z</time>
      </trkpt>
      <trkpt lat="46.33409" lon="5.4824">
        <ele>514.2</ele>
        <time>2022-03-12T13:27:28Z</time>
      </trkpt>
      <trkpt lat="46.33415" lon="5.48225">
        <ele>514</ele>
        <time>2022-03-12T13:27:30Z</time>
      </trkpt>
      <trkpt lat="46.3342" lon="5.48218">
        <ele>514</ele>
        <time>2022-03-12T13:27:31Z</time>
      </trkpt>
      <trkpt lat="46.33463" lon="5.48163">
        <ele>514.2</ele>
        <time>2022-03-12T13:27:41Z</time>
      </trkpt>
      <trkpt lat="46.33499" lon="5.48117">
        <ele>514.8</ele>
        <time>2022-03-12T13:27:50Z</time>
      </trkpt>
      <trkpt lat="46.33511" lon="5.48104">
        <ele>515</ele>
        <time>2022-03-12T13:27:53Z</time>
      </trkpt>
      <trkpt lat="46.33516" lon="5.481">
        <ele>515</ele>
        <time>2022-03-12T13:27:54Z</time>
      </trkpt>
      <trkpt lat="46.33538" lon="5.48084">
        <ele>515.6</ele>
        <time>2022-03-12T13:27:59Z</time>
      </trkpt>
      <trkpt lat="46.33542" lon="5.48082">
        <ele>515.6</ele>
        <time>2022-03-12T13:28:00Z</time>
      </trkpt>
      <trkpt lat="46.33546" lon="5.48079">
        <ele>515.8</ele>
        <time>2022-03-12T13:28:01Z</time>
      </trkpt>
      <trkpt lat="46.33566" lon="5.48064">
        <ele>516.6</ele>
        <time>2022-03-12T13:28:06Z</time>
      </trkpt>
      <trkpt lat="46.3357" lon="5.48061">
        <ele>516.6</ele>
        <time>2022-03-12T13:28:07Z</time>
      </trkpt>
      <trkpt lat="46.33574" lon="5.48057">
        <ele>517</ele>
        <time>2022-03-12T13:28:08Z</time>
      </trkpt>
      <trkpt lat="46.33595" lon="5.48038">
        <ele>518</ele>
        <time>2022-03-12T13:28:14Z</time>
      </trkpt>
      <trkpt lat="46.33598" lon="5.48036">
        <ele>518.4</ele>
        <time>2022-03-12T13:28:15Z</time>
      </trkpt>
      <trkpt lat="46.33605" lon="5.48029">
        <ele>519</ele>
        <time>2022-03-12T13:28:17Z</time>
      </trkpt>
      <trkpt lat="46.33619" lon="5.48017">
        <ele>520</ele>
        <time>2022-03-12T13:28:21Z</time>
      </trkpt>
      <trkpt lat="46.33636" lon="5.48002">
        <ele>520.8</ele>
        <time>2022-03-12T13:28:26Z</time>
      </trkpt>
      <trkpt lat="46.3364" lon="5.47999">
        <ele>521.2</ele>
        <time>2022-03-12T13:28:27Z</time>
      </trkpt>
      <trkpt lat="46.33665" lon="5.47974">
        <ele>522.2</ele>
        <time>2022-03-12T13:28:35Z</time>
      </trkpt>
      <trkpt lat="46.33673" lon="5.47961">
        <ele>522.8</ele>
        <time>2022-03-12T13:28:39Z</time>
      </trkpt>
      <trkpt lat="46.33676" lon="5.47946">
        <ele>523.2</ele>
        <time>2022-03-12T13:28:42Z</time>
      </trkpt>
      <trkpt lat="46.33678" lon="5.47934">
        <ele>523.4</ele>
        <time>2022-03-12T13:28:44Z</time>
      </trkpt>
      <trkpt lat="46.33679" lon="5.47928">
        <ele>523.6</ele>
        <time>2022-03-12T13:28:45Z</time>
      </trkpt>
      <trkpt lat="46.33684" lon="5.47895">
        <ele>524</ele>
        <time>2022-03-12T13:28:50Z</time>
      </trkpt>
      <trkpt lat="46.33686" lon="5.47888">
        <ele>524.2</ele>
        <time>2022-03-12T13:28:51Z</time>
      </trkpt>
      <trkpt lat="46.3369" lon="5.47882">
        <ele>524.4</ele>
        <time>2022-03-12T13:28:52Z</time>
      </trkpt>
      <trkpt lat="46.33696" lon="5.47877">
        <ele>524.6</ele>
        <time>2022-03-12T13:28:54Z</time>
      </trkpt>
      <trkpt lat="46.33707" lon="5.47878">
        <ele>525</ele>
        <time>2022-03-12T13:28:56Z</time>
      </trkpt>
      <trkpt lat="46.33716" lon="5.47881">
        <ele>525.4</ele>
        <time>2022-03-12T13:28:58Z</time>
      </trkpt>
      <trkpt lat="46.33721" lon="5.47882">
        <ele>525.6</ele>
        <time>2022-03-12T13:28:59Z</time>
      </trkpt>
      <trkpt lat="46.33757" lon="5.47893">
        <ele>526.2</ele>
        <time>2022-03-12T13:29:05Z</time>
      </trkpt>
      <trkpt lat="46.33798" lon="5.47907">
        <ele>525.8</ele>
        <time>2022-03-12T13:29:12Z</time>
      </trkpt>
      <trkpt lat="46.33838" lon="5.47916">
        <ele>526</ele>
        <time>2022-03-12T13:29:19Z</time>
      </trkpt>
      <trkpt lat="46.33844" lon="5.47916">
        <ele>526</ele>
        <time>2022-03-12T13:29:20Z</time>
      </trkpt>
      <trkpt lat="46.33891" lon="5.47914">
        <ele>526.6</ele>
        <time>2022-03-12T13:29:29Z</time>
      </trkpt>
      <trkpt lat="46.33901" lon="5.47914">
        <ele>526.6</ele>
        <time>2022-03-12T13:29:31Z</time>
      </trkpt>
      <trkpt lat="46.33928" lon="5.47911">
        <ele>527.4</ele>
        <time>2022-03-12T13:29:37Z</time>
      </trkpt>
      <trkpt lat="46.33942" lon="5.47906">
        <ele>527.8</ele>
        <time>2022-03-12T13:29:40Z</time>
      </trkpt>
      <trkpt lat="46.33959" lon="5.47897">
        <ele>528.4</ele>
        <time>2022-03-12T13:29:44Z</time>
      </trkpt>
      <trkpt lat="46.33984" lon="5.47881">
        <ele>528.8</ele>
        <time>2022-03-12T13:29:49Z</time>
      </trkpt>
      <trkpt lat="46.33989" lon="5.47877">
        <ele>528.8</ele>
        <time>2022-03-12T13:29:50Z</time>
      </trkpt>
      <trkpt lat="46.34025" lon="5.47842">
        <ele>528.4</ele>
        <time>2022-03-12T13:29:57Z</time>
      </trkpt>
      <trkpt lat="46.34062" lon="5.47794">
        <ele>527.8</ele>
        <time>2022-03-12T13:30:05Z</time>
      </trkpt>
      <trkpt lat="46.3407" lon="5.47784">
        <ele>527.8</ele>
        <time>2022-03-12T13:30:07Z</time>
      </trkpt>
      <trkpt lat="46.34095" lon="5.4776">
        <ele>527.8</ele>
        <time>2022-03-12T13:30:12Z</time>
      </trkpt>
      <trkpt lat="46.34101" lon="5.47757">
        <ele>527.8</ele>
        <time>2022-03-12T13:30:13Z</time>
      </trkpt>
      <trkpt lat="46.34112" lon="5.47753">
        <ele>528</ele>
        <time>2022-03-12T13:30:15Z</time>
      </trkpt>
      <trkpt lat="46.34117" lon="5.47753">
        <ele>528</ele>
        <time>2022-03-12T13:30:16Z</time>
      </trkpt>
      <trkpt lat="46.34161" lon="5.47758">
        <ele>528.2</ele>
        <time>2022-03-12T13:30:23Z</time>
      </trkpt>
      <trkpt lat="46.34208" lon="5.47769">
        <ele>527.4</ele>
        <time>2022-03-12T13:30:29Z</time>
      </trkpt>
      <trkpt lat="46.34225" lon="5.47773">
        <ele>526.4</ele>
        <time>2022-03-12T13:30:31Z</time>
      </trkpt>
      <trkpt lat="46.34244" lon="5.47778">
        <ele>525.4</ele>
        <time>2022-03-12T13:30:33Z</time>
      </trkpt>
      <trkpt lat="46.34265" lon="5.47785">
        <ele>524.4</ele>
        <time>2022-03-12T13:30:35Z</time>
      </trkpt>
      <trkpt lat="46.34275" lon="5.47788">
        <ele>523.8</ele>
        <time>2022-03-12T13:30:36Z</time>
      </trkpt>
      <trkpt lat="46.34298" lon="5.47794">
        <ele>522.6</ele>
        <time>2022-03-12T13:30:38Z</time>
      </trkpt>
      <trkpt lat="46.34321" lon="5.47798">
        <ele>521</ele>
        <time>2022-03-12T13:30:40Z</time>
      </trkpt>
      <trkpt lat="46.34333" lon="5.47799">
        <ele>520.4</ele>
        <time>2022-03-12T13:30:41Z</time>
      </trkpt>
      <trkpt lat="46.34344" lon="5.47799">
        <ele>519.6</ele>
        <time>2022-03-12T13:30:42Z</time>
      </trkpt>
      <trkpt lat="46.34368" lon="5.47797">
        <ele>518.2</ele>
        <time>2022-03-12T13:30:44Z</time>
      </trkpt>
      <trkpt lat="46.3438" lon="5.47794">
        <ele>518</ele>
        <time>2022-03-12T13:30:45Z</time>
      </trkpt>
      <trkpt lat="46.34391" lon="5.47791">
        <ele>516.8</ele>
        <time>2022-03-12T13:30:46Z</time>
      </trkpt>
      <trkpt lat="46.34403" lon="5.47786">
        <ele>515.4</ele>
        <time>2022-03-12T13:30:47Z</time>
      </trkpt>
      <trkpt lat="46.34426" lon="5.4777">
        <ele>514.2</ele>
        <time>2022-03-12T13:30:49Z</time>
      </trkpt>
      <trkpt lat="46.34436" lon="5.47758">
        <ele>513.6</ele>
        <time>2022-03-12T13:30:50Z</time>
      </trkpt>
      <trkpt lat="46.34446" lon="5.47745">
        <ele>512.6</ele>
        <time>2022-03-12T13:30:51Z</time>
      </trkpt>
      <trkpt lat="46.34454" lon="5.47731">
        <ele>512.2</ele>
        <time>2022-03-12T13:30:52Z</time>
      </trkpt>
      <trkpt lat="46.34461" lon="5.47717">
        <ele>510.8</ele>
        <time>2022-03-12T13:30:53Z</time>
      </trkpt>
      <trkpt lat="46.34476" lon="5.47688">
        <ele>509.2</ele>
        <time>2022-03-12T13:30:55Z</time>
      </trkpt>
      <trkpt lat="46.34482" lon="5.47674">
        <ele>508</ele>
        <time>2022-03-12T13:30:56Z</time>
      </trkpt>
      <trkpt lat="46.34496" lon="5.47649">
        <ele>506.8</ele>
        <time>2022-03-12T13:30:58Z</time>
      </trkpt>
      <trkpt lat="46.34516" lon="5.47614">
        <ele>505.6</ele>
        <time>2022-03-12T13:31:01Z</time>
      </trkpt>
      <trkpt lat="46.34529" lon="5.4759">
        <ele>504.6</ele>
        <time>2022-03-12T13:31:03Z</time>
      </trkpt>
      <trkpt lat="46.3456" lon="5.47543">
        <ele>503.6</ele>
        <time>2022-03-12T13:31:07Z</time>
      </trkpt>
      <trkpt lat="46.34577" lon="5.47521">
        <ele>502.6</ele>
        <time>2022-03-12T13:31:09Z</time>
      </trkpt>
      <trkpt lat="46.34585" lon="5.4751">
        <ele>501.6</ele>
        <time>2022-03-12T13:31:10Z</time>
      </trkpt>
      <trkpt lat="46.34594" lon="5.47501">
        <ele>501.4</ele>
        <time>2022-03-12T13:31:11Z</time>
      </trkpt>
      <trkpt lat="46.34604" lon="5.47491">
        <ele>500.4</ele>
        <time>2022-03-12T13:31:12Z</time>
      </trkpt>
      <trkpt lat="46.34622" lon="5.47468">
        <ele>498.8</ele>
        <time>2022-03-12T13:31:14Z</time>
      </trkpt>
      <trkpt lat="46.34629" lon="5.47454">
        <ele>498.4</ele>
        <time>2022-03-12T13:31:15Z</time>
      </trkpt>
      <trkpt lat="46.34636" lon="5.47439">
        <ele>497.6</ele>
        <time>2022-03-12T13:31:16Z</time>
      </trkpt>
      <trkpt lat="46.34644" lon="5.47406">
        <ele>495.8</ele>
        <time>2022-03-12T13:31:18Z</time>
      </trkpt>
      <trkpt lat="46.34648" lon="5.47389">
        <ele>494.8</ele>
        <time>2022-03-12T13:31:19Z</time>
      </trkpt>
      <trkpt lat="46.34653" lon="5.47358">
        <ele>493</ele>
        <time>2022-03-12T13:31:21Z</time>
      </trkpt>
      <trkpt lat="46.34658" lon="5.4733">
        <ele>492</ele>
        <time>2022-03-12T13:31:23Z</time>
      </trkpt>
      <trkpt lat="46.34661" lon="5.47317">
        <ele>491.8</ele>
        <time>2022-03-12T13:31:24Z</time>
      </trkpt>
      <trkpt lat="46.34664" lon="5.47304">
        <ele>491.6</ele>
        <time>2022-03-12T13:31:25Z</time>
      </trkpt>
      <trkpt lat="46.34665" lon="5.47277">
        <ele>491.2</ele>
        <time>2022-03-12T13:31:27Z</time>
      </trkpt>
      <trkpt lat="46.34663" lon="5.47264">
        <ele>491.2</ele>
        <time>2022-03-12T13:31:28Z</time>
      </trkpt>
      <trkpt lat="46.34659" lon="5.47252">
        <ele>491</ele>
        <time>2022-03-12T13:31:29Z</time>
      </trkpt>
      <trkpt lat="46.34653" lon="5.47239">
        <ele>490.6</ele>
        <time>2022-03-12T13:31:30Z</time>
      </trkpt>
      <trkpt lat="46.34639" lon="5.47214">
        <ele>489.8</ele>
        <time>2022-03-12T13:31:32Z</time>
      </trkpt>
      <trkpt lat="46.34631" lon="5.47201">
        <ele>489.4</ele>
        <time>2022-03-12T13:31:33Z</time>
      </trkpt>
      <trkpt lat="46.34623" lon="5.4719">
        <ele>488.6</ele>
        <time>2022-03-12T13:31:34Z</time>
      </trkpt>
      <trkpt lat="46.34614" lon="5.47181">
        <ele>488</ele>
        <time>2022-03-12T13:31:35Z</time>
      </trkpt>
      <trkpt lat="46.34604" lon="5.47172">
        <ele>487.4</ele>
        <time>2022-03-12T13:31:36Z</time>
      </trkpt>
      <trkpt lat="46.34595" lon="5.47165">
        <ele>486.6</ele>
        <time>2022-03-12T13:31:37Z</time>
      </trkpt>
      <trkpt lat="46.34575" lon="5.47152">
        <ele>485</ele>
        <time>2022-03-12T13:31:39Z</time>
      </trkpt>
      <trkpt lat="46.34555" lon="5.4714">
        <ele>483.6</ele>
        <time>2022-03-12T13:31:41Z</time>
      </trkpt>
      <trkpt lat="46.34526" lon="5.47119">
        <ele>482</ele>
        <time>2022-03-12T13:31:44Z</time>
      </trkpt>
      <trkpt lat="46.34509" lon="5.47102">
        <ele>481</ele>
        <time>2022-03-12T13:31:46Z</time>
      </trkpt>
      <trkpt lat="46.34492" lon="5.47078">
        <ele>480.4</ele>
        <time>2022-03-12T13:31:48Z</time>
      </trkpt>
      <trkpt lat="46.3448" lon="5.47055">
        <ele>480</ele>
        <time>2022-03-12T13:31:50Z</time>
      </trkpt>
      <trkpt lat="46.34475" lon="5.47042">
        <ele>479.8</ele>
        <time>2022-03-12T13:31:51Z</time>
      </trkpt>
      <trkpt lat="46.3447" lon="5.47012">
        <ele>479</ele>
        <time>2022-03-12T13:31:53Z</time>
      </trkpt>
      <trkpt lat="46.34468" lon="5.46997">
        <ele>478.4</ele>
        <time>2022-03-12T13:31:54Z</time>
      </trkpt>
      <trkpt lat="46.34464" lon="5.46983">
        <ele>477.4</ele>
        <time>2022-03-12T13:31:55Z</time>
      </trkpt>
      <trkpt lat="46.3446" lon="5.46969">
        <ele>477.2</ele>
        <time>2022-03-12T13:31:56Z</time>
      </trkpt>
      <trkpt lat="46.34453" lon="5.46956">
        <ele>476.6</ele>
        <time>2022-03-12T13:31:57Z</time>
      </trkpt>
      <trkpt lat="46.34446" lon="5.46946">
        <ele>475.6</ele>
        <time>2022-03-12T13:31:58Z</time>
      </trkpt>
      <trkpt lat="46.34437" lon="5.46936">
        <ele>475</ele>
        <time>2022-03-12T13:31:59Z</time>
      </trkpt>
      <trkpt lat="46.34427" lon="5.46928">
        <ele>474</ele>
        <time>2022-03-12T13:32:00Z</time>
      </trkpt>
      <trkpt lat="46.34405" lon="5.46915">
        <ele>471.8</ele>
        <time>2022-03-12T13:32:02Z</time>
      </trkpt>
      <trkpt lat="46.34395" lon="5.4691">
        <ele>471.2</ele>
        <time>2022-03-12T13:32:03Z</time>
      </trkpt>
      <trkpt lat="46.34383" lon="5.46907">
        <ele>470.4</ele>
        <time>2022-03-12T13:32:04Z</time>
      </trkpt>
      <trkpt lat="46.34362" lon="5.46899">
        <ele>469</ele>
        <time>2022-03-12T13:32:06Z</time>
      </trkpt>
      <trkpt lat="46.34343" lon="5.46883">
        <ele>468</ele>
        <time>2022-03-12T13:32:08Z</time>
      </trkpt>
      <trkpt lat="46.34331" lon="5.46853">
        <ele>467.2</ele>
        <time>2022-03-12T13:32:10Z</time>
      </trkpt>
      <trkpt lat="46.34333" lon="5.46838">
        <ele>466.6</ele>
        <time>2022-03-12T13:32:11Z</time>
      </trkpt>
      <trkpt lat="46.34339" lon="5.46809">
        <ele>465.4</ele>
        <time>2022-03-12T13:32:13Z</time>
      </trkpt>
      <trkpt lat="46.34338" lon="5.46794">
        <ele>465</ele>
        <time>2022-03-12T13:32:14Z</time>
      </trkpt>
      <trkpt lat="46.34335" lon="5.46779">
        <ele>464.4</ele>
        <time>2022-03-12T13:32:15Z</time>
      </trkpt>
      <trkpt lat="46.34329" lon="5.46767">
        <ele>463.4</ele>
        <time>2022-03-12T13:32:16Z</time>
      </trkpt>
      <trkpt lat="46.34323" lon="5.46757">
        <ele>463</ele>
        <time>2022-03-12T13:32:17Z</time>
      </trkpt>
      <trkpt lat="46.34309" lon="5.46741">
        <ele>462.6</ele>
        <time>2022-03-12T13:32:19Z</time>
      </trkpt>
      <trkpt lat="46.34301" lon="5.46734">
        <ele>462.2</ele>
        <time>2022-03-12T13:32:20Z</time>
      </trkpt>
      <trkpt lat="46.34285" lon="5.46721">
        <ele>460.8</ele>
        <time>2022-03-12T13:32:22Z</time>
      </trkpt>
      <trkpt lat="46.34265" lon="5.46706">
        <ele>460</ele>
        <time>2022-03-12T13:32:24Z</time>
      </trkpt>
      <trkpt lat="46.34257" lon="5.46699">
        <ele>459.8</ele>
        <time>2022-03-12T13:32:25Z</time>
      </trkpt>
      <trkpt lat="46.34215" lon="5.46659">
        <ele>458.6</ele>
        <time>2022-03-12T13:32:30Z</time>
      </trkpt>
      <trkpt lat="46.3421" lon="5.46645">
        <ele>458.6</ele>
        <time>2022-03-12T13:32:31Z</time>
      </trkpt>
      <trkpt lat="46.34209" lon="5.46631">
        <ele>458.4</ele>
        <time>2022-03-12T13:32:32Z</time>
      </trkpt>
      <trkpt lat="46.3421" lon="5.46616">
        <ele>458.2</ele>
        <time>2022-03-12T13:32:33Z</time>
      </trkpt>
      <trkpt lat="46.34213" lon="5.46604">
        <ele>457.8</ele>
        <time>2022-03-12T13:32:34Z</time>
      </trkpt>
      <trkpt lat="46.34218" lon="5.46592">
        <ele>457.4</ele>
        <time>2022-03-12T13:32:35Z</time>
      </trkpt>
      <trkpt lat="46.34224" lon="5.46583">
        <ele>456.6</ele>
        <time>2022-03-12T13:32:36Z</time>
      </trkpt>
      <trkpt lat="46.34237" lon="5.46569">
        <ele>456</ele>
        <time>2022-03-12T13:32:38Z</time>
      </trkpt>
      <trkpt lat="46.34245" lon="5.46563">
        <ele>456</ele>
        <time>2022-03-12T13:32:39Z</time>
      </trkpt>
      <trkpt lat="46.34281" lon="5.46537">
        <ele>455.4</ele>
        <time>2022-03-12T13:32:44Z</time>
      </trkpt>
      <trkpt lat="46.34288" lon="5.4653">
        <ele>455.4</ele>
        <time>2022-03-12T13:32:45Z</time>
      </trkpt>
      <trkpt lat="46.34301" lon="5.46514">
        <ele>455.4</ele>
        <time>2022-03-12T13:32:47Z</time>
      </trkpt>
      <trkpt lat="46.34306" lon="5.46505">
        <ele>455.4</ele>
        <time>2022-03-12T13:32:48Z</time>
      </trkpt>
      <trkpt lat="46.34313" lon="5.46487">
        <ele>455.4</ele>
        <time>2022-03-12T13:32:50Z</time>
      </trkpt>
      <trkpt lat="46.34314" lon="5.46477">
        <ele>455.4</ele>
        <time>2022-03-12T13:32:51Z</time>
      </trkpt>
      <trkpt lat="46.34314" lon="5.46466">
        <ele>455.4</ele>
        <time>2022-03-12T13:32:52Z</time>
      </trkpt>
      <trkpt lat="46.34309" lon="5.46445">
        <ele>455.6</ele>
        <time>2022-03-12T13:32:54Z</time>
      </trkpt>
      <trkpt lat="46.34305" lon="5.4642">
        <ele>455.8</ele>
        <time>2022-03-12T13:32:56Z</time>
      </trkpt>
      <trkpt lat="46.34304" lon="5.46407">
        <ele>456</ele>
        <time>2022-03-12T13:32:58Z</time>
      </trkpt>
      <trkpt lat="46.34307" lon="5.46384">
        <ele>456</ele>
        <time>2022-03-12T13:32:59Z</time>
      </trkpt>
      <trkpt lat="46.34309" lon="5.46361">
        <ele>456</ele>
        <time>2022-03-12T13:33:01Z</time>
      </trkpt>
      <trkpt lat="46.34312" lon="5.46302">
        <ele>455.8</ele>
        <time>2022-03-12T13:33:06Z</time>
      </trkpt>
      <trkpt lat="46.34313" lon="5.46291">
        <ele>455.8</ele>
        <time>2022-03-12T13:33:07Z</time>
      </trkpt>
      <trkpt lat="46.34314" lon="5.46268">
        <ele>455.8</ele>
        <time>2022-03-12T13:33:09Z</time>
      </trkpt>
      <trkpt lat="46.34317" lon="5.46248">
        <ele>455.8</ele>
        <time>2022-03-12T13:33:11Z</time>
      </trkpt>
      <trkpt lat="46.34327" lon="5.46234">
        <ele>456</ele>
        <time>2022-03-12T13:33:13Z</time>
      </trkpt>
      <trkpt lat="46.34332" lon="5.46227">
        <ele>456</ele>
        <time>2022-03-12T13:33:14Z</time>
      </trkpt>
      <trkpt lat="46.34378" lon="5.46176">
        <ele>456</ele>
        <time>2022-03-12T13:33:22Z</time>
      </trkpt>
      <trkpt lat="46.34388" lon="5.46164">
        <ele>455.8</ele>
        <time>2022-03-12T13:33:24Z</time>
      </trkpt>
      <trkpt lat="46.34399" lon="5.46154">
        <ele>455.8</ele>
        <time>2022-03-12T13:33:26Z</time>
      </trkpt>
      <trkpt lat="46.34412" lon="5.46149">
        <ele>455.6</ele>
        <time>2022-03-12T13:33:28Z</time>
      </trkpt>
      <trkpt lat="46.34424" lon="5.46149">
        <ele>455.6</ele>
        <time>2022-03-12T13:33:30Z</time>
      </trkpt>
      <trkpt lat="46.3443" lon="5.46151">
        <ele>455.4</ele>
        <time>2022-03-12T13:33:31Z</time>
      </trkpt>
      <trkpt lat="46.34435" lon="5.46155">
        <ele>455.2</ele>
        <time>2022-03-12T13:33:32Z</time>
      </trkpt>
      <trkpt lat="46.34453" lon="5.46168">
        <ele>455</ele>
        <time>2022-03-12T13:33:35Z</time>
      </trkpt>
      <trkpt lat="46.34459" lon="5.46172">
        <ele>455</ele>
        <time>2022-03-12T13:33:36Z</time>
      </trkpt>
      <trkpt lat="46.34471" lon="5.4618">
        <ele>454.6</ele>
        <time>2022-03-12T13:33:38Z</time>
      </trkpt>
      <trkpt lat="46.34485" lon="5.46177">
        <ele>454.4</ele>
        <time>2022-03-12T13:33:40Z</time>
      </trkpt>
      <trkpt lat="46.34514" lon="5.46163">
        <ele>454</ele>
        <time>2022-03-12T13:33:43Z</time>
      </trkpt>
      <trkpt lat="46.3452" lon="5.46142">
        <ele>453.8</ele>
        <time>2022-03-12T13:33:45Z</time>
      </trkpt>
      <trkpt lat="46.34528" lon="5.4609">
        <ele>452.6</ele>
        <time>2022-03-12T13:33:49Z</time>
      </trkpt>
      <trkpt lat="46.34531" lon="5.46078">
        <ele>452.2</ele>
        <time>2022-03-12T13:33:50Z</time>
      </trkpt>
      <trkpt lat="46.34536" lon="5.46067">
        <ele>451.8</ele>
        <time>2022-03-12T13:33:51Z</time>
      </trkpt>
      <trkpt lat="46.34542" lon="5.46059">
        <ele>450.8</ele>
        <time>2022-03-12T13:33:52Z</time>
      </trkpt>
      <trkpt lat="46.34548" lon="5.46054">
        <ele>450.4</ele>
        <time>2022-03-12T13:33:53Z</time>
      </trkpt>
      <trkpt lat="46.34567" lon="5.46051">
        <ele>449.6</ele>
        <time>2022-03-12T13:33:55Z</time>
      </trkpt>
      <trkpt lat="46.34576" lon="5.4605">
        <ele>448.8</ele>
        <time>2022-03-12T13:33:56Z</time>
      </trkpt>
      <trkpt lat="46.34585" lon="5.46049">
        <ele>447.8</ele>
        <time>2022-03-12T13:33:57Z</time>
      </trkpt>
      <trkpt lat="46.34604" lon="5.46048">
        <ele>446.6</ele>
        <time>2022-03-12T13:33:59Z</time>
      </trkpt>
      <trkpt lat="46.34625" lon="5.46046">
        <ele>445.8</ele>
        <time>2022-03-12T13:34:01Z</time>
      </trkpt>
      <trkpt lat="46.34647" lon="5.46042">
        <ele>445</ele>
        <time>2022-03-12T13:34:03Z</time>
      </trkpt>
      <trkpt lat="46.34669" lon="5.4604">
        <ele>444</ele>
        <time>2022-03-12T13:34:05Z</time>
      </trkpt>
      <trkpt lat="46.34691" lon="5.46037">
        <ele>442.6</ele>
        <time>2022-03-12T13:34:07Z</time>
      </trkpt>
      <trkpt lat="46.34702" lon="5.46034">
        <ele>441.8</ele>
        <time>2022-03-12T13:34:08Z</time>
      </trkpt>
      <trkpt lat="46.34713" lon="5.46033">
        <ele>441.2</ele>
        <time>2022-03-12T13:34:09Z</time>
      </trkpt>
      <trkpt lat="46.34735" lon="5.46028">
        <ele>440</ele>
        <time>2022-03-12T13:34:11Z</time>
      </trkpt>
      <trkpt lat="46.34747" lon="5.46026">
        <ele>439</ele>
        <time>2022-03-12T13:34:12Z</time>
      </trkpt>
      <trkpt lat="46.3477" lon="5.46021">
        <ele>437.4</ele>
        <time>2022-03-12T13:34:14Z</time>
      </trkpt>
      <trkpt lat="46.34794" lon="5.46016">
        <ele>436.4</ele>
        <time>2022-03-12T13:34:16Z</time>
      </trkpt>
      <trkpt lat="46.34806" lon="5.46014">
        <ele>434.8</ele>
        <time>2022-03-12T13:34:17Z</time>
      </trkpt>
      <trkpt lat="46.3483" lon="5.4601">
        <ele>433.4</ele>
        <time>2022-03-12T13:34:19Z</time>
      </trkpt>
      <trkpt lat="46.34843" lon="5.46008">
        <ele>432.2</ele>
        <time>2022-03-12T13:34:20Z</time>
      </trkpt>
      <trkpt lat="46.34868" lon="5.46006">
        <ele>430.4</ele>
        <time>2022-03-12T13:34:22Z</time>
      </trkpt>
      <trkpt lat="46.34894" lon="5.46004">
        <ele>428.4</ele>
        <time>2022-03-12T13:34:24Z</time>
      </trkpt>
      <trkpt lat="46.34907" lon="5.46003">
        <ele>427.8</ele>
        <time>2022-03-12T13:34:25Z</time>
      </trkpt>
      <trkpt lat="46.3492" lon="5.46003">
        <ele>426.2</ele>
        <time>2022-03-12T13:34:26Z</time>
      </trkpt>
      <trkpt lat="46.34934" lon="5.46002">
        <ele>425</ele>
        <time>2022-03-12T13:34:27Z</time>
      </trkpt>
      <trkpt lat="46.34961" lon="5.45999">
        <ele>422.4</ele>
        <time>2022-03-12T13:34:29Z</time>
      </trkpt>
      <trkpt lat="46.34975" lon="5.45998">
        <ele>421.6</ele>
        <time>2022-03-12T13:34:30Z</time>
      </trkpt>
      <trkpt lat="46.34989" lon="5.45997">
        <ele>420.8</ele>
        <time>2022-03-12T13:34:31Z</time>
      </trkpt>
      <trkpt lat="46.35017" lon="5.45996">
        <ele>419.8</ele>
        <time>2022-03-12T13:34:33Z</time>
      </trkpt>
      <trkpt lat="46.35045" lon="5.45993">
        <ele>417.6</ele>
        <time>2022-03-12T13:34:35Z</time>
      </trkpt>
      <trkpt lat="46.3506" lon="5.45991">
        <ele>416</ele>
        <time>2022-03-12T13:34:36Z</time>
      </trkpt>
      <trkpt lat="46.35074" lon="5.4599">
        <ele>415.6</ele>
        <time>2022-03-12T13:34:37Z</time>
      </trkpt>
      <trkpt lat="46.35088" lon="5.45988">
        <ele>414.2</ele>
        <time>2022-03-12T13:34:38Z</time>
      </trkpt>
      <trkpt lat="46.35118" lon="5.45985">
        <ele>412.4</ele>
        <time>2022-03-12T13:34:40Z</time>
      </trkpt>
      <trkpt lat="46.35147" lon="5.45983">
        <ele>410.2</ele>
        <time>2022-03-12T13:34:42Z</time>
      </trkpt>
      <trkpt lat="46.35162" lon="5.45981">
        <ele>409</ele>
        <time>2022-03-12T13:34:43Z</time>
      </trkpt>
      <trkpt lat="46.35192" lon="5.4598">
        <ele>407.2</ele>
        <time>2022-03-12T13:34:45Z</time>
      </trkpt>
      <trkpt lat="46.35221" lon="5.45978">
        <ele>405.6</ele>
        <time>2022-03-12T13:34:47Z</time>
      </trkpt>
      <trkpt lat="46.35251" lon="5.45976">
        <ele>403.8</ele>
        <time>2022-03-12T13:34:49Z</time>
      </trkpt>
      <trkpt lat="46.35281" lon="5.45977">
        <ele>400.8</ele>
        <time>2022-03-12T13:34:51Z</time>
      </trkpt>
      <trkpt lat="46.35296" lon="5.45977">
        <ele>399.2</ele>
        <time>2022-03-12T13:34:52Z</time>
      </trkpt>
      <trkpt lat="46.35325" lon="5.45978">
        <ele>397.4</ele>
        <time>2022-03-12T13:34:54Z</time>
      </trkpt>
      <trkpt lat="46.35355" lon="5.4598">
        <ele>395</ele>
        <time>2022-03-12T13:34:56Z</time>
      </trkpt>
      <trkpt lat="46.35385" lon="5.45982">
        <ele>392.6</ele>
        <time>2022-03-12T13:34:58Z</time>
      </trkpt>
      <trkpt lat="46.354" lon="5.45981">
        <ele>391.4</ele>
        <time>2022-03-12T13:34:59Z</time>
      </trkpt>
      <trkpt lat="46.35429" lon="5.45977">
        <ele>389</ele>
        <time>2022-03-12T13:35:01Z</time>
      </trkpt>
      <trkpt lat="46.35443" lon="5.45975">
        <ele>388</ele>
        <time>2022-03-12T13:35:02Z</time>
      </trkpt>
      <trkpt lat="46.35456" lon="5.45974">
        <ele>387</ele>
        <time>2022-03-12T13:35:03Z</time>
      </trkpt>
      <trkpt lat="46.35486" lon="5.4597">
        <ele>385.8</ele>
        <time>2022-03-12T13:35:05Z</time>
      </trkpt>
      <trkpt lat="46.35512" lon="5.45967">
        <ele>384.2</ele>
        <time>2022-03-12T13:35:07Z</time>
      </trkpt>
      <trkpt lat="46.35524" lon="5.45966">
        <ele>383.4</ele>
        <time>2022-03-12T13:35:08Z</time>
      </trkpt>
      <trkpt lat="46.35537" lon="5.45966">
        <ele>382.8</ele>
        <time>2022-03-12T13:35:09Z</time>
      </trkpt>
      <trkpt lat="46.3555" lon="5.45967">
        <ele>380.6</ele>
        <time>2022-03-12T13:35:10Z</time>
      </trkpt>
      <trkpt lat="46.35561" lon="5.45969">
        <ele>380</ele>
        <time>2022-03-12T13:35:11Z</time>
      </trkpt>
      <trkpt lat="46.35573" lon="5.45972">
        <ele>379.2</ele>
        <time>2022-03-12T13:35:12Z</time>
      </trkpt>
      <trkpt lat="46.35598" lon="5.45981">
        <ele>378.2</ele>
        <time>2022-03-12T13:35:14Z</time>
      </trkpt>
      <trkpt lat="46.35627" lon="5.45993">
        <ele>376</ele>
        <time>2022-03-12T13:35:17Z</time>
      </trkpt>
      <trkpt lat="46.35643" lon="5.45988">
        <ele>374.4</ele>
        <time>2022-03-12T13:35:19Z</time>
      </trkpt>
      <trkpt lat="46.35654" lon="5.45983">
        <ele>374.2</ele>
        <time>2022-03-12T13:35:20Z</time>
      </trkpt>
      <trkpt lat="46.35663" lon="5.4598">
        <ele>372.6</ele>
        <time>2022-03-12T13:35:21Z</time>
      </trkpt>
      <trkpt lat="46.35682" lon="5.45976">
        <ele>370.4</ele>
        <time>2022-03-12T13:35:23Z</time>
      </trkpt>
      <trkpt lat="46.3569" lon="5.45976">
        <ele>369.6</ele>
        <time>2022-03-12T13:35:24Z</time>
      </trkpt>
      <trkpt lat="46.35699" lon="5.45976">
        <ele>369.4</ele>
        <time>2022-03-12T13:35:25Z</time>
      </trkpt>
      <trkpt lat="46.35721" lon="5.45979">
        <ele>368.4</ele>
        <time>2022-03-12T13:35:28Z</time>
      </trkpt>
      <trkpt lat="46.35729" lon="5.4598">
        <ele>368.2</ele>
        <time>2022-03-12T13:35:29Z</time>
      </trkpt>
      <trkpt lat="46.35756" lon="5.45986">
        <ele>367.6</ele>
        <time>2022-03-12T13:35:33Z</time>
      </trkpt>
      <trkpt lat="46.35769" lon="5.4598">
        <ele>367.6</ele>
        <time>2022-03-12T13:35:35Z</time>
      </trkpt>
      <trkpt lat="46.35774" lon="5.45974">
        <ele>367.6</ele>
        <time>2022-03-12T13:35:36Z</time>
      </trkpt>
      <trkpt lat="46.35777" lon="5.45967">
        <ele>367.6</ele>
        <time>2022-03-12T13:35:37Z</time>
      </trkpt>
      <trkpt lat="46.3578" lon="5.45954">
        <ele>367.8</ele>
        <time>2022-03-12T13:35:39Z</time>
      </trkpt>
      <trkpt lat="46.35791" lon="5.45908">
        <ele>368.8</ele>
        <time>2022-03-12T13:35:45Z</time>
      </trkpt>
      <trkpt lat="46.35797" lon="5.45876">
        <ele>369.4</ele>
        <time>2022-03-12T13:35:49Z</time>
      </trkpt>
      <trkpt lat="46.35798" lon="5.45859">
        <ele>369.8</ele>
        <time>2022-03-12T13:35:51Z</time>
      </trkpt>
      <trkpt lat="46.35798" lon="5.45851">
        <ele>369.8</ele>
        <time>2022-03-12T13:35:52Z</time>
      </trkpt>
      <trkpt lat="46.35795" lon="5.45806">
        <ele>370.2</ele>
        <time>2022-03-12T13:35:57Z</time>
      </trkpt>
      <trkpt lat="46.35792" lon="5.45783">
        <ele>370.4</ele>
        <time>2022-03-12T13:36:00Z</time>
      </trkpt>
      <trkpt lat="46.35785" lon="5.45753">
        <ele>370.8</ele>
        <time>2022-03-12T13:36:04Z</time>
      </trkpt>
      <trkpt lat="46.35779" lon="5.45725">
        <ele>371.2</ele>
        <time>2022-03-12T13:36:08Z</time>
      </trkpt>
      <trkpt lat="46.35777" lon="5.45709">
        <ele>371.4</ele>
        <time>2022-03-12T13:36:10Z</time>
      </trkpt>
      <trkpt lat="46.35777" lon="5.45692">
        <ele>371.4</ele>
        <time>2022-03-12T13:36:12Z</time>
      </trkpt>
      <trkpt lat="46.3578" lon="5.45684">
        <ele>371.4</ele>
        <time>2022-03-12T13:36:13Z</time>
      </trkpt>
      <trkpt lat="46.35784" lon="5.45678">
        <ele>371.4</ele>
        <time>2022-03-12T13:36:14Z</time>
      </trkpt>
      <trkpt lat="46.35793" lon="5.45672">
        <ele>371.4</ele>
        <time>2022-03-12T13:36:16Z</time>
      </trkpt>
      <trkpt lat="46.35819" lon="5.45672">
        <ele>371.4</ele>
        <time>2022-03-12T13:36:21Z</time>
      </trkpt>
      <trkpt lat="46.3583" lon="5.45671">
        <ele>371.6</ele>
        <time>2022-03-12T13:36:23Z</time>
      </trkpt>
      <trkpt lat="46.35853" lon="5.45666">
        <ele>372.8</ele>
        <time>2022-03-12T13:36:28Z</time>
      </trkpt>
      <trkpt lat="46.35857" lon="5.45665">
        <ele>373</ele>
        <time>2022-03-12T13:36:29Z</time>
      </trkpt>
      <trkpt lat="46.35869" lon="5.4566">
        <ele>374</ele>
        <time>2022-03-12T13:36:32Z</time>
      </trkpt>
      <trkpt lat="46.35882" lon="5.45654">
        <ele>374.6</ele>
        <time>2022-03-12T13:36:35Z</time>
      </trkpt>
      <trkpt lat="46.3589" lon="5.4565">
        <ele>375.2</ele>
        <time>2022-03-12T13:36:37Z</time>
      </trkpt>
      <trkpt lat="46.35919" lon="5.45642">
        <ele>376.2</ele>
        <time>2022-03-12T13:36:43Z</time>
      </trkpt>
      <trkpt lat="46.35929" lon="5.4564">
        <ele>376.4</ele>
        <time>2022-03-12T13:36:45Z</time>
      </trkpt>
      <trkpt lat="46.35971" lon="5.45637">
        <ele>377</ele>
        <time>2022-03-12T13:36:53Z</time>
      </trkpt>
      <trkpt lat="46.36004" lon="5.4564">
        <ele>377.2</ele>
        <time>2022-03-12T13:36:59Z</time>
      </trkpt>
      <trkpt lat="46.36015" lon="5.45641">
        <ele>377.2</ele>
        <time>2022-03-12T13:37:01Z</time>
      </trkpt>
      <trkpt lat="46.36062" lon="5.45645">
        <ele>377.4</ele>
        <time>2022-03-12T13:37:09Z</time>
      </trkpt>
      <trkpt lat="46.36118" lon="5.45645">
        <ele>377.4</ele>
        <time>2022-03-12T13:37:18Z</time>
      </trkpt>
      <trkpt lat="46.3617" lon="5.45645">
        <ele>377.6</ele>
        <time>2022-03-12T13:37:27Z</time>
      </trkpt>
      <trkpt lat="46.36186" lon="5.45645">
        <ele>378.4</ele>
        <time>2022-03-12T13:37:30Z</time>
      </trkpt>
      <trkpt lat="46.3622" lon="5.45645">
        <ele>378.8</ele>
        <time>2022-03-12T13:37:36Z</time>
      </trkpt>
      <trkpt lat="46.36275" lon="5.45649">
        <ele>379.4</ele>
        <time>2022-03-12T13:37:46Z</time>
      </trkpt>
      <trkpt lat="46.36281" lon="5.4565">
        <ele>379.6</ele>
        <time>2022-03-12T13:37:47Z</time>
      </trkpt>
      <trkpt lat="46.36336" lon="5.45653">
        <ele>380.4</ele>
        <time>2022-03-12T13:37:57Z</time>
      </trkpt>
      <trkpt lat="46.36341" lon="5.45654">
        <ele>380.6</ele>
        <time>2022-03-12T13:37:58Z</time>
      </trkpt>
      <trkpt lat="46.36394" lon="5.45646">
        <ele>381.2</ele>
        <time>2022-03-12T13:38:07Z</time>
      </trkpt>
      <trkpt lat="46.36437" lon="5.45626">
        <ele>381.2</ele>
        <time>2022-03-12T13:38:14Z</time>
      </trkpt>
      <trkpt lat="46.36495" lon="5.45613">
        <ele>381</ele>
        <time>2022-03-12T13:38:23Z</time>
      </trkpt>
      <trkpt lat="46.36537" lon="5.45616">
        <ele>381.2</ele>
        <time>2022-03-12T13:38:30Z</time>
      </trkpt>
      <trkpt lat="46.36584" lon="5.4562">
        <ele>381.6</ele>
        <time>2022-03-12T13:38:38Z</time>
      </trkpt>
      <trkpt lat="46.36622" lon="5.45615">
        <ele>382.2</ele>
        <time>2022-03-12T13:38:45Z</time>
      </trkpt>
      <trkpt lat="46.36648" lon="5.4561">
        <ele>382.8</ele>
        <time>2022-03-12T13:38:50Z</time>
      </trkpt>
      <trkpt lat="46.36665" lon="5.45607">
        <ele>383.2</ele>
        <time>2022-03-12T13:38:53Z</time>
      </trkpt>
      <trkpt lat="46.36702" lon="5.45603">
        <ele>383.8</ele>
        <time>2022-03-12T13:39:01Z</time>
      </trkpt>
      <trkpt lat="46.36711" lon="5.456">
        <ele>384.6</ele>
        <time>2022-03-12T13:39:03Z</time>
      </trkpt>
      <trkpt lat="46.36716" lon="5.45599">
        <ele>385</ele>
        <time>2022-03-12T13:39:04Z</time>
      </trkpt>
      <trkpt lat="46.36744" lon="5.45596">
        <ele>386</ele>
        <time>2022-03-12T13:39:10Z</time>
      </trkpt>
      <trkpt lat="46.36753" lon="5.45595">
        <ele>386.4</ele>
        <time>2022-03-12T13:39:12Z</time>
      </trkpt>
      <trkpt lat="46.36791" lon="5.45594">
        <ele>387</ele>
        <time>2022-03-12T13:39:20Z</time>
      </trkpt>
      <trkpt lat="46.3684" lon="5.45595">
        <ele>387.6</ele>
        <time>2022-03-12T13:39:30Z</time>
      </trkpt>
      <trkpt lat="46.36869" lon="5.45598">
        <ele>388</ele>
        <time>2022-03-12T13:39:36Z</time>
      </trkpt>
      <trkpt lat="46.36881" lon="5.45598">
        <ele>388.2</ele>
        <time>2022-03-12T13:39:38Z</time>
      </trkpt>
      <trkpt lat="46.3693" lon="5.45604">
        <ele>388.2</ele>
        <time>2022-03-12T13:39:47Z</time>
      </trkpt>
      <trkpt lat="46.36975" lon="5.45615">
        <ele>388.6</ele>
        <time>2022-03-12T13:39:55Z</time>
      </trkpt>
      <trkpt lat="46.3701" lon="5.45633">
        <ele>388.6</ele>
        <time>2022-03-12T13:40:02Z</time>
      </trkpt>
      <trkpt lat="46.37034" lon="5.45643">
        <ele>389</ele>
        <time>2022-03-12T13:40:07Z</time>
      </trkpt>
      <trkpt lat="46.37038" lon="5.45644">
        <ele>389</ele>
        <time>2022-03-12T13:40:08Z</time>
      </trkpt>
      <trkpt lat="46.37088" lon="5.45649">
        <ele>390</ele>
        <time>2022-03-12T13:40:18Z</time>
      </trkpt>
      <trkpt lat="46.37123" lon="5.45649">
        <ele>390.8</ele>
        <time>2022-03-12T13:40:25Z</time>
      </trkpt>
      <trkpt lat="46.37156" lon="5.45647">
        <ele>391.2</ele>
        <time>2022-03-12T13:40:32Z</time>
      </trkpt>
      <trkpt lat="46.37166" lon="5.45646">
        <ele>391.4</ele>
        <time>2022-03-12T13:40:34Z</time>
      </trkpt>
      <trkpt lat="46.37204" lon="5.45644">
        <ele>392.2</ele>
        <time>2022-03-12T13:40:42Z</time>
      </trkpt>
      <trkpt lat="46.37209" lon="5.45643">
        <ele>392.2</ele>
        <time>2022-03-12T13:40:43Z</time>
      </trkpt>
      <trkpt lat="46.37213" lon="5.45643">
        <ele>392.4</ele>
        <time>2022-03-12T13:40:44Z</time>
      </trkpt>
      <trkpt lat="46.37259" lon="5.4564">
        <ele>393.2</ele>
        <time>2022-03-12T13:40:54Z</time>
      </trkpt>
      <trkpt lat="46.37296" lon="5.45638">
        <ele>394</ele>
        <time>2022-03-12T13:41:02Z</time>
      </trkpt>
      <trkpt lat="46.37304" lon="5.45638">
        <ele>394.4</ele>
        <time>2022-03-12T13:41:04Z</time>
      </trkpt>
      <trkpt lat="46.37325" lon="5.45637">
        <ele>395.4</ele>
        <time>2022-03-12T13:41:09Z</time>
      </trkpt>
      <trkpt lat="46.37329" lon="5.45637">
        <ele>395.4</ele>
        <time>2022-03-12T13:41:10Z</time>
      </trkpt>
      <trkpt lat="46.37337" lon="5.45636">
        <ele>395.8</ele>
        <time>2022-03-12T13:41:12Z</time>
      </trkpt>
      <trkpt lat="46.37367" lon="5.45637">
        <ele>396.6</ele>
        <time>2022-03-12T13:41:19Z</time>
      </trkpt>
      <trkpt lat="46.37376" lon="5.45637">
        <ele>397</ele>
        <time>2022-03-12T13:41:21Z</time>
      </trkpt>
      <trkpt lat="46.3738" lon="5.45638">
        <ele>397</ele>
        <time>2022-03-12T13:41:22Z</time>
      </trkpt>
      <trkpt lat="46.37414" lon="5.45641">
        <ele>397.4</ele>
        <time>2022-03-12T13:41:30Z</time>
      </trkpt>
      <trkpt lat="46.37423" lon="5.45641">
        <ele>397.8</ele>
        <time>2022-03-12T13:41:32Z</time>
      </trkpt>
      <trkpt lat="46.37428" lon="5.45641">
        <ele>397.8</ele>
        <time>2022-03-12T13:41:33Z</time>
      </trkpt>
      <trkpt lat="46.37445" lon="5.45637">
        <ele>398.4</ele>
        <time>2022-03-12T13:41:37Z</time>
      </trkpt>
      <trkpt lat="46.37449" lon="5.45636">
        <ele>398.6</ele>
        <time>2022-03-12T13:41:38Z</time>
      </trkpt>
      <trkpt lat="46.37472" lon="5.45628">
        <ele>399.6</ele>
        <time>2022-03-12T13:41:44Z</time>
      </trkpt>
      <trkpt lat="46.37493" lon="5.45616">
        <ele>400.4</ele>
        <time>2022-03-12T13:41:50Z</time>
      </trkpt>
      <trkpt lat="46.375" lon="5.45612">
        <ele>400.6</ele>
        <time>2022-03-12T13:41:52Z</time>
      </trkpt>
      <trkpt lat="46.37518" lon="5.45601">
        <ele>401.4</ele>
        <time>2022-03-12T13:41:57Z</time>
      </trkpt>
      <trkpt lat="46.37521" lon="5.45599">
        <ele>401.6</ele>
        <time>2022-03-12T13:41:58Z</time>
      </trkpt>
      <trkpt lat="46.37543" lon="5.45593">
        <ele>402.6</ele>
        <time>2022-03-12T13:42:04Z</time>
      </trkpt>
      <trkpt lat="46.37546" lon="5.45593">
        <ele>403</ele>
        <time>2022-03-12T13:42:05Z</time>
      </trkpt>
      <trkpt lat="46.37555" lon="5.45591">
        <ele>403.8</ele>
        <time>2022-03-12T13:42:08Z</time>
      </trkpt>
      <trkpt lat="46.37571" lon="5.4559">
        <ele>404.8</ele>
        <time>2022-03-12T13:42:13Z</time>
      </trkpt>
      <trkpt lat="46.37585" lon="5.45589">
        <ele>406</ele>
        <time>2022-03-12T13:42:18Z</time>
      </trkpt>
      <trkpt lat="46.37588" lon="5.45589">
        <ele>406.2</ele>
        <time>2022-03-12T13:42:19Z</time>
      </trkpt>
      <trkpt lat="46.37608" lon="5.45589">
        <ele>407.2</ele>
        <time>2022-03-12T13:42:25Z</time>
      </trkpt>
      <trkpt lat="46.37612" lon="5.45589">
        <ele>407.2</ele>
        <time>2022-03-12T13:42:26Z</time>
      </trkpt>
      <trkpt lat="46.37637" lon="5.45589">
        <ele>408.2</ele>
        <time>2022-03-12T13:42:33Z</time>
      </trkpt>
      <trkpt lat="46.37641" lon="5.45589">
        <ele>408.2</ele>
        <time>2022-03-12T13:42:34Z</time>
      </trkpt>
      <trkpt lat="46.37676" lon="5.4559">
        <ele>409.4</ele>
        <time>2022-03-12T13:42:43Z</time>
      </trkpt>
      <trkpt lat="46.37719" lon="5.45592">
        <ele>409.8</ele>
        <time>2022-03-12T13:42:54Z</time>
      </trkpt>
      <trkpt lat="46.37726" lon="5.45592">
        <ele>410.2</ele>
        <time>2022-03-12T13:42:56Z</time>
      </trkpt>
      <trkpt lat="46.37745" lon="5.45593">
        <ele>411.2</ele>
        <time>2022-03-12T13:43:01Z</time>
      </trkpt>
      <trkpt lat="46.37749" lon="5.45593">
        <ele>411.4</ele>
        <time>2022-03-12T13:43:02Z</time>
      </trkpt>
      <trkpt lat="46.37773" lon="5.45594">
        <ele>412.2</ele>
        <time>2022-03-12T13:43:09Z</time>
      </trkpt>
      <trkpt lat="46.37776" lon="5.45594">
        <ele>412.4</ele>
        <time>2022-03-12T13:43:10Z</time>
      </trkpt>
      <trkpt lat="46.37793" lon="5.45595">
        <ele>413.4</ele>
        <time>2022-03-12T13:43:16Z</time>
      </trkpt>
      <trkpt lat="46.37799" lon="5.45595">
        <ele>413.8</ele>
        <time>2022-03-12T13:43:18Z</time>
      </trkpt>
      <trkpt lat="46.37812" lon="5.45595">
        <ele>414.6</ele>
        <time>2022-03-12T13:43:22Z</time>
      </trkpt>
      <trkpt lat="46.37828" lon="5.45597">
        <ele>416</ele>
        <time>2022-03-12T13:43:27Z</time>
      </trkpt>
      <trkpt lat="46.37838" lon="5.45597">
        <ele>416.4</ele>
        <time>2022-03-12T13:43:30Z</time>
      </trkpt>
      <trkpt lat="46.37851" lon="5.45598">
        <ele>417</ele>
        <time>2022-03-12T13:43:34Z</time>
      </trkpt>
      <trkpt lat="46.3787" lon="5.45599">
        <ele>418</ele>
        <time>2022-03-12T13:43:40Z</time>
      </trkpt>
      <trkpt lat="46.37873" lon="5.45599">
        <ele>418.2</ele>
        <time>2022-03-12T13:43:41Z</time>
      </trkpt>
      <trkpt lat="46.37886" lon="5.45598">
        <ele>419</ele>
        <time>2022-03-12T13:43:45Z</time>
      </trkpt>
      <trkpt lat="46.37901" lon="5.45594">
        <ele>420.2</ele>
        <time>2022-03-12T13:43:50Z</time>
      </trkpt>
      <trkpt lat="46.37931" lon="5.45588">
        <ele>421</ele>
        <time>2022-03-12T13:43:58Z</time>
      </trkpt>
      <trkpt lat="46.37957" lon="5.45583">
        <ele>421</ele>
        <time>2022-03-12T13:44:04Z</time>
      </trkpt>
      <trkpt lat="46.37972" lon="5.45584">
        <ele>421.2</ele>
        <time>2022-03-12T13:44:07Z</time>
      </trkpt>
      <trkpt lat="46.37988" lon="5.45584">
        <ele>421</ele>
        <time>2022-03-12T13:44:10Z</time>
      </trkpt>
      <trkpt lat="46.38034" lon="5.45591">
        <ele>420.4</ele>
        <time>2022-03-12T13:44:18Z</time>
      </trkpt>
      <trkpt lat="46.38088" lon="5.45607">
        <ele>420</ele>
        <time>2022-03-12T13:44:28Z</time>
      </trkpt>
      <trkpt lat="46.38093" lon="5.45608">
        <ele>420</ele>
        <time>2022-03-12T13:44:29Z</time>
      </trkpt>
      <trkpt lat="46.38136" lon="5.45617">
        <ele>419.4</ele>
        <time>2022-03-12T13:44:36Z</time>
      </trkpt>
      <trkpt lat="46.38149" lon="5.45617">
        <ele>418.8</ele>
        <time>2022-03-12T13:44:38Z</time>
      </trkpt>
      <trkpt lat="46.38172" lon="5.4562">
        <ele>417.8</ele>
        <time>2022-03-12T13:44:41Z</time>
      </trkpt>
      <trkpt lat="46.38201" lon="5.45622">
        <ele>416.4</ele>
        <time>2022-03-12T13:44:45Z</time>
      </trkpt>
      <trkpt lat="46.38223" lon="5.45624">
        <ele>415.8</ele>
        <time>2022-03-12T13:44:48Z</time>
      </trkpt>
      <trkpt lat="46.3824" lon="5.45625">
        <ele>415.4</ele>
        <time>2022-03-12T13:44:50Z</time>
      </trkpt>
      <trkpt lat="46.38285" lon="5.4563">
        <ele>414</ele>
        <time>2022-03-12T13:44:56Z</time>
      </trkpt>
      <trkpt lat="46.38309" lon="5.45633">
        <ele>413</ele>
        <time>2022-03-12T13:44:59Z</time>
      </trkpt>
      <trkpt lat="46.38324" lon="5.45636">
        <ele>412.6</ele>
        <time>2022-03-12T13:45:01Z</time>
      </trkpt>
      <trkpt lat="46.38371" lon="5.45643">
        <ele>411.4</ele>
        <time>2022-03-12T13:45:07Z</time>
      </trkpt>
      <trkpt lat="46.38386" lon="5.45647">
        <ele>411</ele>
        <time>2022-03-12T13:45:09Z</time>
      </trkpt>
      <trkpt lat="46.38408" lon="5.45652">
        <ele>410</ele>
        <time>2022-03-12T13:45:12Z</time>
      </trkpt>
      <trkpt lat="46.38462" lon="5.45659">
        <ele>409.2</ele>
        <time>2022-03-12T13:45:19Z</time>
      </trkpt>
      <trkpt lat="46.3847" lon="5.4566">
        <ele>409</ele>
        <time>2022-03-12T13:45:20Z</time>
      </trkpt>
      <trkpt lat="46.38485" lon="5.4566">
        <ele>408</ele>
        <time>2022-03-12T13:45:22Z</time>
      </trkpt>
      <trkpt lat="46.38513" lon="5.45661">
        <ele>407</ele>
        <time>2022-03-12T13:45:25Z</time>
      </trkpt>
      <trkpt lat="46.3853" lon="5.4566">
        <ele>406.4</ele>
        <time>2022-03-12T13:45:27Z</time>
      </trkpt>
      <trkpt lat="46.38537" lon="5.45659">
        <ele>406</ele>
        <time>2022-03-12T13:45:28Z</time>
      </trkpt>
      <trkpt lat="46.38565" lon="5.45654">
        <ele>404.4</ele>
        <time>2022-03-12T13:45:31Z</time>
      </trkpt>
      <trkpt lat="46.38592" lon="5.45648">
        <ele>403.2</ele>
        <time>2022-03-12T13:45:34Z</time>
      </trkpt>
      <trkpt lat="46.38609" lon="5.45645">
        <ele>402.4</ele>
        <time>2022-03-12T13:45:36Z</time>
      </trkpt>
      <trkpt lat="46.38616" lon="5.45644">
        <ele>402.2</ele>
        <time>2022-03-12T13:45:37Z</time>
      </trkpt>
      <trkpt lat="46.38641" lon="5.45639">
        <ele>401</ele>
        <time>2022-03-12T13:45:41Z</time>
      </trkpt>
      <trkpt lat="46.38662" lon="5.45636">
        <ele>400.8</ele>
        <time>2022-03-12T13:45:44Z</time>
      </trkpt>
      <trkpt lat="46.38699" lon="5.45639">
        <ele>400.6</ele>
        <time>2022-03-12T13:45:49Z</time>
      </trkpt>
      <trkpt lat="46.38753" lon="5.45642">
        <ele>400.6</ele>
        <time>2022-03-12T13:45:56Z</time>
      </trkpt>
      <trkpt lat="46.38797" lon="5.45649">
        <ele>400.4</ele>
        <time>2022-03-12T13:46:02Z</time>
      </trkpt>
      <trkpt lat="46.38823" lon="5.45653">
        <ele>400.6</ele>
        <time>2022-03-12T13:46:06Z</time>
      </trkpt>
      <trkpt lat="46.38829" lon="5.45653">
        <ele>400.6</ele>
        <time>2022-03-12T13:46:07Z</time>
      </trkpt>
      <trkpt lat="46.38859" lon="5.4565">
        <ele>401.2</ele>
        <time>2022-03-12T13:46:12Z</time>
      </trkpt>
      <trkpt lat="46.38919" lon="5.45649">
        <ele>402</ele>
        <time>2022-03-12T13:46:22Z</time>
      </trkpt>
      <trkpt lat="46.38925" lon="5.4565">
        <ele>402</ele>
        <time>2022-03-12T13:46:23Z</time>
      </trkpt>
      <trkpt lat="46.38978" lon="5.45658">
        <ele>402.2</ele>
        <time>2022-03-12T13:46:31Z</time>
      </trkpt>
      <trkpt lat="46.39024" lon="5.45653">
        <ele>401.4</ele>
        <time>2022-03-12T13:46:38Z</time>
      </trkpt>
      <trkpt lat="46.39039" lon="5.45651">
        <ele>401</ele>
        <time>2022-03-12T13:46:40Z</time>
      </trkpt>
      <trkpt lat="46.39092" lon="5.45638">
        <ele>400</ele>
        <time>2022-03-12T13:46:48Z</time>
      </trkpt>
      <trkpt lat="46.39142" lon="5.45622">
        <ele>398.8</ele>
        <time>2022-03-12T13:46:55Z</time>
      </trkpt>
      <trkpt lat="46.39164" lon="5.45614">
        <ele>398.6</ele>
        <time>2022-03-12T13:46:58Z</time>
      </trkpt>
      <trkpt lat="46.39185" lon="5.45608">
        <ele>397.8</ele>
        <time>2022-03-12T13:47:01Z</time>
      </trkpt>
      <trkpt lat="46.39211" lon="5.456">
        <ele>397.2</ele>
        <time>2022-03-12T13:47:05Z</time>
      </trkpt>
      <trkpt lat="46.3925" lon="5.45584">
        <ele>397.2</ele>
        <time>2022-03-12T13:47:11Z</time>
      </trkpt>
      <trkpt lat="46.3929" lon="5.45567">
        <ele>396.8</ele>
        <time>2022-03-12T13:47:17Z</time>
      </trkpt>
      <trkpt lat="46.39301" lon="5.45562">
        <ele>396.6</ele>
        <time>2022-03-12T13:47:19Z</time>
      </trkpt>
      <trkpt lat="46.39321" lon="5.45551">
        <ele>396.6</ele>
        <time>2022-03-12T13:47:23Z</time>
      </trkpt>
      <trkpt lat="46.3933" lon="5.45552">
        <ele>396.6</ele>
        <time>2022-03-12T13:47:25Z</time>
      </trkpt>
      <trkpt lat="46.39332" lon="5.45557">
        <ele>396.6</ele>
        <time>2022-03-12T13:47:26Z</time>
      </trkpt>
      <trkpt lat="46.39333" lon="5.45565">
        <ele>396.6</ele>
        <time>2022-03-12T13:47:27Z</time>
      </trkpt>
      <trkpt lat="46.39332" lon="5.45577">
        <ele>396.6</ele>
        <time>2022-03-12T13:47:28Z</time>
      </trkpt>
      <trkpt lat="46.39326" lon="5.45634">
        <ele>395.8</ele>
        <time>2022-03-12T13:47:33Z</time>
      </trkpt>
      <trkpt lat="46.39323" lon="5.45669">
        <ele>394.6</ele>
        <time>2022-03-12T13:47:36Z</time>
      </trkpt>
      <trkpt lat="46.39323" lon="5.45695">
        <ele>394</ele>
        <time>2022-03-12T13:47:38Z</time>
      </trkpt>
      <trkpt lat="46.39327" lon="5.45714">
        <ele>393.4</ele>
        <time>2022-03-12T13:47:40Z</time>
      </trkpt>
      <trkpt lat="46.39331" lon="5.45723">
        <ele>393.2</ele>
        <time>2022-03-12T13:47:41Z</time>
      </trkpt>
      <trkpt lat="46.39336" lon="5.4573">
        <ele>392.8</ele>
        <time>2022-03-12T13:47:42Z</time>
      </trkpt>
      <trkpt lat="46.39349" lon="5.45736">
        <ele>392.4</ele>
        <time>2022-03-12T13:47:44Z</time>
      </trkpt>
      <trkpt lat="46.39388" lon="5.45741">
        <ele>391.6</ele>
        <time>2022-03-12T13:47:49Z</time>
      </trkpt>
      <trkpt lat="46.39449" lon="5.45753">
        <ele>391.6</ele>
        <time>2022-03-12T13:47:57Z</time>
      </trkpt>
      <trkpt lat="46.39457" lon="5.45755">
        <ele>391.6</ele>
        <time>2022-03-12T13:47:58Z</time>
      </trkpt>
      <trkpt lat="46.39513" lon="5.4577">
        <ele>392</ele>
        <time>2022-03-12T13:48:06Z</time>
      </trkpt>
      <trkpt lat="46.39546" lon="5.45786">
        <ele>392.6</ele>
        <time>2022-03-12T13:48:12Z</time>
      </trkpt>
      <trkpt lat="46.39583" lon="5.45792">
        <ele>393.2</ele>
        <time>2022-03-12T13:48:18Z</time>
      </trkpt>
      <trkpt lat="46.39623" lon="5.45793">
        <ele>392.8</ele>
        <time>2022-03-12T13:48:23Z</time>
      </trkpt>
      <trkpt lat="46.39647" lon="5.4579">
        <ele>391.6</ele>
        <time>2022-03-12T13:48:26Z</time>
      </trkpt>
      <trkpt lat="46.39663" lon="5.45785">
        <ele>390.8</ele>
        <time>2022-03-12T13:48:28Z</time>
      </trkpt>
      <trkpt lat="46.3968" lon="5.45779">
        <ele>390.6</ele>
        <time>2022-03-12T13:48:30Z</time>
      </trkpt>
      <trkpt lat="46.39713" lon="5.4577">
        <ele>389.4</ele>
        <time>2022-03-12T13:48:34Z</time>
      </trkpt>
      <trkpt lat="46.39721" lon="5.45768">
        <ele>389</ele>
        <time>2022-03-12T13:48:35Z</time>
      </trkpt>
      <trkpt lat="46.39745" lon="5.45762">
        <ele>388.2</ele>
        <time>2022-03-12T13:48:38Z</time>
      </trkpt>
      <trkpt lat="46.3977" lon="5.45752">
        <ele>387.2</ele>
        <time>2022-03-12T13:48:41Z</time>
      </trkpt>
      <trkpt lat="46.39779" lon="5.45748">
        <ele>387</ele>
        <time>2022-03-12T13:48:42Z</time>
      </trkpt>
      <trkpt lat="46.39812" lon="5.45733">
        <ele>385.8</ele>
        <time>2022-03-12T13:48:46Z</time>
      </trkpt>
      <trkpt lat="46.39823" lon="5.45729">
        <ele>384.8</ele>
        <time>2022-03-12T13:48:47Z</time>
      </trkpt>
      <trkpt lat="46.39833" lon="5.45726">
        <ele>384.6</ele>
        <time>2022-03-12T13:48:48Z</time>
      </trkpt>
      <trkpt lat="46.3985" lon="5.45722">
        <ele>383.4</ele>
        <time>2022-03-12T13:48:50Z</time>
      </trkpt>
      <trkpt lat="46.39869" lon="5.4572">
        <ele>382.6</ele>
        <time>2022-03-12T13:48:52Z</time>
      </trkpt>
      <trkpt lat="46.3988" lon="5.4572">
        <ele>381.8</ele>
        <time>2022-03-12T13:48:53Z</time>
      </trkpt>
      <trkpt lat="46.39907" lon="5.45721">
        <ele>380.8</ele>
        <time>2022-03-12T13:48:56Z</time>
      </trkpt>
      <trkpt lat="46.39934" lon="5.45723">
        <ele>380.4</ele>
        <time>2022-03-12T13:48:59Z</time>
      </trkpt>
      <trkpt lat="46.3996" lon="5.45725">
        <ele>379.6</ele>
        <time>2022-03-12T13:49:02Z</time>
      </trkpt>
      <trkpt lat="46.39986" lon="5.45727">
        <ele>379.2</ele>
        <time>2022-03-12T13:49:05Z</time>
      </trkpt>
      <trkpt lat="46.40002" lon="5.45724">
        <ele>379</ele>
        <time>2022-03-12T13:49:07Z</time>
      </trkpt>
      <trkpt lat="46.40018" lon="5.45718">
        <ele>378.6</ele>
        <time>2022-03-12T13:49:09Z</time>
      </trkpt>
      <trkpt lat="46.40051" lon="5.45707">
        <ele>377.4</ele>
        <time>2022-03-12T13:49:13Z</time>
      </trkpt>
      <trkpt lat="46.40069" lon="5.45707">
        <ele>376.8</ele>
        <time>2022-03-12T13:49:15Z</time>
      </trkpt>
      <trkpt lat="46.40096" lon="5.45715">
        <ele>376.2</ele>
        <time>2022-03-12T13:49:18Z</time>
      </trkpt>
      <trkpt lat="46.40113" lon="5.45722">
        <ele>375.8</ele>
        <time>2022-03-12T13:49:20Z</time>
      </trkpt>
      <trkpt lat="46.40123" lon="5.45726">
        <ele>375</ele>
        <time>2022-03-12T13:49:21Z</time>
      </trkpt>
      <trkpt lat="46.40141" lon="5.45731">
        <ele>374.2</ele>
        <time>2022-03-12T13:49:23Z</time>
      </trkpt>
      <trkpt lat="46.40149" lon="5.45732">
        <ele>373.8</ele>
        <time>2022-03-12T13:49:24Z</time>
      </trkpt>
      <trkpt lat="46.40157" lon="5.45729">
        <ele>373.2</ele>
        <time>2022-03-12T13:49:25Z</time>
      </trkpt>
      <trkpt lat="46.40163" lon="5.45722">
        <ele>372.6</ele>
        <time>2022-03-12T13:49:26Z</time>
      </trkpt>
      <trkpt lat="46.40166" lon="5.45711">
        <ele>372.4</ele>
        <time>2022-03-12T13:49:27Z</time>
      </trkpt>
      <trkpt lat="46.40167" lon="5.45701">
        <ele>371.2</ele>
        <time>2022-03-12T13:49:28Z</time>
      </trkpt>
      <trkpt lat="46.40167" lon="5.45673">
        <ele>370.4</ele>
        <time>2022-03-12T13:49:30Z</time>
      </trkpt>
      <trkpt lat="46.40167" lon="5.4565">
        <ele>369.8</ele>
        <time>2022-03-12T13:49:32Z</time>
      </trkpt>
      <trkpt lat="46.40164" lon="5.456">
        <ele>369</ele>
        <time>2022-03-12T13:49:36Z</time>
      </trkpt>
      <trkpt lat="46.40163" lon="5.45588">
        <ele>368.8</ele>
        <time>2022-03-12T13:49:37Z</time>
      </trkpt>
      <trkpt lat="46.40162" lon="5.45531">
        <ele>368</ele>
        <time>2022-03-12T13:49:42Z</time>
      </trkpt>
      <trkpt lat="46.40163" lon="5.4552">
        <ele>368</ele>
        <time>2022-03-12T13:49:43Z</time>
      </trkpt>
      <trkpt lat="46.40166" lon="5.45511">
        <ele>368</ele>
        <time>2022-03-12T13:49:44Z</time>
      </trkpt>
      <trkpt lat="46.40178" lon="5.45481">
        <ele>368</ele>
        <time>2022-03-12T13:49:47Z</time>
      </trkpt>
      <trkpt lat="46.40207" lon="5.45422">
        <ele>368.2</ele>
        <time>2022-03-12T13:49:54Z</time>
      </trkpt>
      <trkpt lat="46.40211" lon="5.45414">
        <ele>368.2</ele>
        <time>2022-03-12T13:49:55Z</time>
      </trkpt>
      <trkpt lat="46.40236" lon="5.45372">
        <ele>368</ele>
        <time>2022-03-12T13:50:01Z</time>
      </trkpt>
      <trkpt lat="46.40242" lon="5.45357">
        <ele>367.8</ele>
        <time>2022-03-12T13:50:03Z</time>
      </trkpt>
      <trkpt lat="46.40246" lon="5.45339">
        <ele>367.8</ele>
        <time>2022-03-12T13:50:05Z</time>
      </trkpt>
      <trkpt lat="46.40246" lon="5.4533">
        <ele>367.8</ele>
        <time>2022-03-12T13:50:06Z</time>
      </trkpt>
      <trkpt lat="46.40244" lon="5.45322">
        <ele>367.8</ele>
        <time>2022-03-12T13:50:07Z</time>
      </trkpt>
      <trkpt lat="46.40236" lon="5.45308">
        <ele>367.8</ele>
        <time>2022-03-12T13:50:09Z</time>
      </trkpt>
      <trkpt lat="46.40232" lon="5.45302">
        <ele>367.8</ele>
        <time>2022-03-12T13:50:10Z</time>
      </trkpt>
      <trkpt lat="46.40212" lon="5.45281">
        <ele>367.8</ele>
        <time>2022-03-12T13:50:14Z</time>
      </trkpt>
      <trkpt lat="46.40206" lon="5.45273">
        <ele>367.6</ele>
        <time>2022-03-12T13:50:15Z</time>
      </trkpt>
      <trkpt lat="46.40201" lon="5.45259">
        <ele>367.6</ele>
        <time>2022-03-12T13:50:17Z</time>
      </trkpt>
      <trkpt lat="46.40201" lon="5.45244">
        <ele>367.6</ele>
        <time>2022-03-12T13:50:19Z</time>
      </trkpt>
      <trkpt lat="46.40202" lon="5.4524">
        <ele>367.6</ele>
        <time>2022-03-12T13:50:20Z</time>
      </trkpt>
      <trkpt lat="46.40204" lon="5.45235">
        <ele>367.4</ele>
        <time>2022-03-12T13:50:21Z</time>
      </trkpt>
      <trkpt lat="46.40212" lon="5.45229">
        <ele>367.4</ele>
        <time>2022-03-12T13:50:23Z</time>
      </trkpt>
      <trkpt lat="46.40243" lon="5.45215">
        <ele>367.2</ele>
        <time>2022-03-12T13:50:29Z</time>
      </trkpt>
      <trkpt lat="46.40283" lon="5.45194">
        <ele>368</ele>
        <time>2022-03-12T13:50:36Z</time>
      </trkpt>
      <trkpt lat="46.40334" lon="5.45169">
        <ele>368.4</ele>
        <time>2022-03-12T13:50:44Z</time>
      </trkpt>
      <trkpt lat="46.4039" lon="5.4514">
        <ele>368.6</ele>
        <time>2022-03-12T13:50:53Z</time>
      </trkpt>
      <trkpt lat="46.40402" lon="5.45134">
        <ele>368.8</ele>
        <time>2022-03-12T13:50:55Z</time>
      </trkpt>
      <trkpt lat="46.40419" lon="5.45126">
        <ele>369</ele>
        <time>2022-03-12T13:50:58Z</time>
      </trkpt>
      <trkpt lat="46.40451" lon="5.45109">
        <ele>369.8</ele>
        <time>2022-03-12T13:51:04Z</time>
      </trkpt>
      <trkpt lat="46.40461" lon="5.45103">
        <ele>370</ele>
        <time>2022-03-12T13:51:06Z</time>
      </trkpt>
      <trkpt lat="46.40499" lon="5.45084">
        <ele>371.2</ele>
        <time>2022-03-12T13:51:13Z</time>
      </trkpt>
      <trkpt lat="46.40505" lon="5.45082">
        <ele>371.2</ele>
        <time>2022-03-12T13:51:14Z</time>
      </trkpt>
      <trkpt lat="46.40556" lon="5.45055">
        <ele>371.8</ele>
        <time>2022-03-12T13:51:23Z</time>
      </trkpt>
      <trkpt lat="46.40562" lon="5.45051">
        <ele>371.8</ele>
        <time>2022-03-12T13:51:24Z</time>
      </trkpt>
      <trkpt lat="46.40618" lon="5.45021">
        <ele>372</ele>
        <time>2022-03-12T13:51:33Z</time>
      </trkpt>
      <trkpt lat="46.40624" lon="5.45017">
        <ele>372</ele>
        <time>2022-03-12T13:51:34Z</time>
      </trkpt>
      <trkpt lat="46.40644" lon="5.45008">
        <ele>371.8</ele>
        <time>2022-03-12T13:51:37Z</time>
      </trkpt>
      <trkpt lat="46.40661" lon="5.45001">
        <ele>371.8</ele>
        <time>2022-03-12T13:51:40Z</time>
      </trkpt>
      <trkpt lat="46.40687" lon="5.44996">
        <ele>371.6</ele>
        <time>2022-03-12T13:51:44Z</time>
      </trkpt>
      <trkpt lat="46.40699" lon="5.44996">
        <ele>371.6</ele>
        <time>2022-03-12T13:51:46Z</time>
      </trkpt>
      <trkpt lat="46.40741" lon="5.45005">
        <ele>372</ele>
        <time>2022-03-12T13:51:53Z</time>
      </trkpt>
      <trkpt lat="46.40793" lon="5.45025">
        <ele>372.2</ele>
        <time>2022-03-12T13:52:02Z</time>
      </trkpt>
      <trkpt lat="46.40806" lon="5.45031">
        <ele>372.2</ele>
        <time>2022-03-12T13:52:04Z</time>
      </trkpt>
      <trkpt lat="46.4081" lon="5.45033">
        <ele>372.4</ele>
        <time>2022-03-12T13:52:05Z</time>
      </trkpt>
      <trkpt lat="46.40852" lon="5.45059">
        <ele>372.8</ele>
        <time>2022-03-12T13:52:13Z</time>
      </trkpt>
      <trkpt lat="46.40872" lon="5.45073">
        <ele>373.2</ele>
        <time>2022-03-12T13:52:17Z</time>
      </trkpt>
      <trkpt lat="46.40894" lon="5.45091">
        <ele>374.4</ele>
        <time>2022-03-12T13:52:22Z</time>
      </trkpt>
      <trkpt lat="46.40898" lon="5.45095">
        <ele>374.6</ele>
        <time>2022-03-12T13:52:23Z</time>
      </trkpt>
      <trkpt lat="46.40924" lon="5.45117">
        <ele>375.6</ele>
        <time>2022-03-12T13:52:29Z</time>
      </trkpt>
      <trkpt lat="46.40936" lon="5.45127">
        <ele>376.2</ele>
        <time>2022-03-12T13:52:32Z</time>
      </trkpt>
      <trkpt lat="46.4096" lon="5.45144">
        <ele>376.8</ele>
        <time>2022-03-12T13:52:37Z</time>
      </trkpt>
      <trkpt lat="46.40982" lon="5.45157">
        <ele>377.2</ele>
        <time>2022-03-12T13:52:41Z</time>
      </trkpt>
      <trkpt lat="46.41024" lon="5.45176">
        <ele>377.8</ele>
        <time>2022-03-12T13:52:49Z</time>
      </trkpt>
      <trkpt lat="46.4103" lon="5.45179">
        <ele>378</ele>
        <time>2022-03-12T13:52:50Z</time>
      </trkpt>
      <trkpt lat="46.41076" lon="5.45192">
        <ele>379.2</ele>
        <time>2022-03-12T13:52:59Z</time>
      </trkpt>
      <trkpt lat="46.41082" lon="5.45193">
        <ele>379.2</ele>
        <time>2022-03-12T13:53:00Z</time>
      </trkpt>
      <trkpt lat="46.41123" lon="5.45202">
        <ele>380.2</ele>
        <time>2022-03-12T13:53:08Z</time>
      </trkpt>
      <trkpt lat="46.41128" lon="5.45203">
        <ele>380.4</ele>
        <time>2022-03-12T13:53:09Z</time>
      </trkpt>
      <trkpt lat="46.41179" lon="5.45212">
        <ele>381.4</ele>
        <time>2022-03-12T13:53:18Z</time>
      </trkpt>
      <trkpt lat="46.41185" lon="5.45213">
        <ele>381.4</ele>
        <time>2022-03-12T13:53:19Z</time>
      </trkpt>
      <trkpt lat="46.41228" lon="5.45222">
        <ele>381.6</ele>
        <time>2022-03-12T13:53:26Z</time>
      </trkpt>
      <trkpt lat="46.41281" lon="5.45234">
        <ele>382</ele>
        <time>2022-03-12T13:53:35Z</time>
      </trkpt>
      <trkpt lat="46.41328" lon="5.45245">
        <ele>382</ele>
        <time>2022-03-12T13:53:42Z</time>
      </trkpt>
      <trkpt lat="46.41383" lon="5.45258">
        <ele>381.8</ele>
        <time>2022-03-12T13:53:51Z</time>
      </trkpt>
      <trkpt lat="46.4139" lon="5.45259">
        <ele>381.8</ele>
        <time>2022-03-12T13:53:52Z</time>
      </trkpt>
      <trkpt lat="46.41448" lon="5.45273">
        <ele>381.8</ele>
        <time>2022-03-12T13:54:01Z</time>
      </trkpt>
      <trkpt lat="46.41455" lon="5.45275">
        <ele>381.8</ele>
        <time>2022-03-12T13:54:02Z</time>
      </trkpt>
      <trkpt lat="46.41512" lon="5.45289">
        <ele>382</ele>
        <time>2022-03-12T13:54:11Z</time>
      </trkpt>
      <trkpt lat="46.41517" lon="5.45291">
        <ele>382</ele>
        <time>2022-03-12T13:54:12Z</time>
      </trkpt>
      <trkpt lat="46.41557" lon="5.453">
        <ele>382.6</ele>
        <time>2022-03-12T13:54:18Z</time>
      </trkpt>
      <trkpt lat="46.4158" lon="5.45306">
        <ele>382.8</ele>
        <time>2022-03-12T13:54:22Z</time>
      </trkpt>
      <trkpt lat="46.41626" lon="5.45317">
        <ele>383.6</ele>
        <time>2022-03-12T13:54:30Z</time>
      </trkpt>
      <trkpt lat="46.4163" lon="5.45318">
        <ele>383.6</ele>
        <time>2022-03-12T13:54:31Z</time>
      </trkpt>
      <trkpt lat="46.41671" lon="5.45328">
        <ele>384.6</ele>
        <time>2022-03-12T13:54:39Z</time>
      </trkpt>
      <trkpt lat="46.41676" lon="5.45329">
        <ele>384.6</ele>
        <time>2022-03-12T13:54:40Z</time>
      </trkpt>
      <trkpt lat="46.41726" lon="5.45342">
        <ele>385.6</ele>
        <time>2022-03-12T13:54:50Z</time>
      </trkpt>
      <trkpt lat="46.41732" lon="5.45343">
        <ele>385.8</ele>
        <time>2022-03-12T13:54:51Z</time>
      </trkpt>
      <trkpt lat="46.41769" lon="5.45351">
        <ele>386.2</ele>
        <time>2022-03-12T13:54:58Z</time>
      </trkpt>
      <trkpt lat="46.41822" lon="5.45363">
        <ele>386.2</ele>
        <time>2022-03-12T13:55:07Z</time>
      </trkpt>
      <trkpt lat="46.41872" lon="5.45375">
        <ele>386.4</ele>
        <time>2022-03-12T13:55:15Z</time>
      </trkpt>
      <trkpt lat="46.41923" lon="5.45389">
        <ele>386.8</ele>
        <time>2022-03-12T13:55:23Z</time>
      </trkpt>
      <trkpt lat="46.41942" lon="5.45394">
        <ele>386.8</ele>
        <time>2022-03-12T13:55:26Z</time>
      </trkpt>
      <trkpt lat="46.41993" lon="5.45414">
        <ele>387.8</ele>
        <time>2022-03-12T13:55:35Z</time>
      </trkpt>
      <trkpt lat="46.41998" lon="5.45417">
        <ele>387.8</ele>
        <time>2022-03-12T13:55:36Z</time>
      </trkpt>
      <trkpt lat="46.42055" lon="5.45441">
        <ele>388.8</ele>
        <time>2022-03-12T13:55:46Z</time>
      </trkpt>
      <trkpt lat="46.42108" lon="5.45462">
        <ele>388.8</ele>
        <time>2022-03-12T13:55:54Z</time>
      </trkpt>
      <trkpt lat="46.42163" lon="5.45483">
        <ele>388.6</ele>
        <time>2022-03-12T13:56:02Z</time>
      </trkpt>
      <trkpt lat="46.42177" lon="5.45488">
        <ele>388.4</ele>
        <time>2022-03-12T13:56:04Z</time>
      </trkpt>
      <trkpt lat="46.42235" lon="5.45509">
        <ele>388.2</ele>
        <time>2022-03-12T13:56:12Z</time>
      </trkpt>
      <trkpt lat="46.42248" lon="5.45513">
        <ele>388</ele>
        <time>2022-03-12T13:56:14Z</time>
      </trkpt>
      <trkpt lat="46.42296" lon="5.45529">
        <ele>388.2</ele>
        <time>2022-03-12T13:56:21Z</time>
      </trkpt>
      <trkpt lat="46.42351" lon="5.45545">
        <ele>388.4</ele>
        <time>2022-03-12T13:56:29Z</time>
      </trkpt>
      <trkpt lat="46.42375" lon="5.45553">
        <ele>388</ele>
        <time>2022-03-12T13:56:32Z</time>
      </trkpt>
      <trkpt lat="46.424" lon="5.4556">
        <ele>387.8</ele>
        <time>2022-03-12T13:56:35Z</time>
      </trkpt>
      <trkpt lat="46.42415" lon="5.45565">
        <ele>387.6</ele>
        <time>2022-03-12T13:56:37Z</time>
      </trkpt>
      <trkpt lat="46.42451" lon="5.45577">
        <ele>386.6</ele>
        <time>2022-03-12T13:56:41Z</time>
      </trkpt>
      <trkpt lat="46.42488" lon="5.45588">
        <ele>385.2</ele>
        <time>2022-03-12T13:56:45Z</time>
      </trkpt>
      <trkpt lat="46.42531" lon="5.45603">
        <ele>384.2</ele>
        <time>2022-03-12T13:56:50Z</time>
      </trkpt>
      <trkpt lat="46.42587" lon="5.45621">
        <ele>383.8</ele>
        <time>2022-03-12T13:56:57Z</time>
      </trkpt>
      <trkpt lat="46.42643" lon="5.45638">
        <ele>383.8</ele>
        <time>2022-03-12T13:57:05Z</time>
      </trkpt>
      <trkpt lat="46.42673" lon="5.45648">
        <ele>384.4</ele>
        <time>2022-03-12T13:57:10Z</time>
      </trkpt>
      <trkpt lat="46.4272" lon="5.45663">
        <ele>385.2</ele>
        <time>2022-03-12T13:57:18Z</time>
      </trkpt>
      <trkpt lat="46.42726" lon="5.45665">
        <ele>385.2</ele>
        <time>2022-03-12T13:57:19Z</time>
      </trkpt>
      <trkpt lat="46.42781" lon="5.45677">
        <ele>385.6</ele>
        <time>2022-03-12T13:57:29Z</time>
      </trkpt>
      <trkpt lat="46.42834" lon="5.45681">
        <ele>385.2</ele>
        <time>2022-03-12T13:57:37Z</time>
      </trkpt>
      <trkpt lat="46.42895" lon="5.45682">
        <ele>384.6</ele>
        <time>2022-03-12T13:57:46Z</time>
      </trkpt>
      <trkpt lat="46.42916" lon="5.45682">
        <ele>384</ele>
        <time>2022-03-12T13:57:49Z</time>
      </trkpt>
      <trkpt lat="46.42951" lon="5.45683">
        <ele>383</ele>
        <time>2022-03-12T13:57:54Z</time>
      </trkpt>
      <trkpt lat="46.42958" lon="5.45683">
        <ele>382.8</ele>
        <time>2022-03-12T13:57:55Z</time>
      </trkpt>
      <trkpt lat="46.43003" lon="5.45684">
        <ele>382</ele>
        <time>2022-03-12T13:58:01Z</time>
      </trkpt>
      <trkpt lat="46.43018" lon="5.45684">
        <ele>381.8</ele>
        <time>2022-03-12T13:58:03Z</time>
      </trkpt>
      <trkpt lat="46.43073" lon="5.45685">
        <ele>380.8</ele>
        <time>2022-03-12T13:58:10Z</time>
      </trkpt>
      <trkpt lat="46.43098" lon="5.45687">
        <ele>380.2</ele>
        <time>2022-03-12T13:58:13Z</time>
      </trkpt>
      <trkpt lat="46.43113" lon="5.45687">
        <ele>379.6</ele>
        <time>2022-03-12T13:58:15Z</time>
      </trkpt>
      <trkpt lat="46.43165" lon="5.45688">
        <ele>378.4</ele>
        <time>2022-03-12T13:58:21Z</time>
      </trkpt>
      <trkpt lat="46.43188" lon="5.45688">
        <ele>377.8</ele>
        <time>2022-03-12T13:58:24Z</time>
      </trkpt>
      <trkpt lat="46.43213" lon="5.45689">
        <ele>377.4</ele>
        <time>2022-03-12T13:58:27Z</time>
      </trkpt>
      <trkpt lat="46.43258" lon="5.4569">
        <ele>376.4</ele>
        <time>2022-03-12T13:58:33Z</time>
      </trkpt>
      <trkpt lat="46.43272" lon="5.45691">
        <ele>376.4</ele>
        <time>2022-03-12T13:58:35Z</time>
      </trkpt>
      <trkpt lat="46.43308" lon="5.45691">
        <ele>376.2</ele>
        <time>2022-03-12T13:58:40Z</time>
      </trkpt>
      <trkpt lat="46.43363" lon="5.45692">
        <ele>376.2</ele>
        <time>2022-03-12T13:58:48Z</time>
      </trkpt>
      <trkpt lat="46.43377" lon="5.45693">
        <ele>376.2</ele>
        <time>2022-03-12T13:58:50Z</time>
      </trkpt>
      <trkpt lat="46.43437" lon="5.45694">
        <ele>376</ele>
        <time>2022-03-12T13:58:59Z</time>
      </trkpt>
      <trkpt lat="46.4345" lon="5.45694">
        <ele>376.2</ele>
        <time>2022-03-12T13:59:01Z</time>
      </trkpt>
      <trkpt lat="46.43506" lon="5.45695">
        <ele>376.2</ele>
        <time>2022-03-12T13:59:10Z</time>
      </trkpt>
      <trkpt lat="46.43519" lon="5.45696">
        <ele>376.2</ele>
        <time>2022-03-12T13:59:12Z</time>
      </trkpt>
      <trkpt lat="46.43575" lon="5.45697">
        <ele>376</ele>
        <time>2022-03-12T13:59:21Z</time>
      </trkpt>
      <trkpt lat="46.43606" lon="5.45698">
        <ele>376</ele>
        <time>2022-03-12T13:59:26Z</time>
      </trkpt>
      <trkpt lat="46.43666" lon="5.45699">
        <ele>376.4</ele>
        <time>2022-03-12T13:59:36Z</time>
      </trkpt>
      <trkpt lat="46.43725" lon="5.457">
        <ele>376.4</ele>
        <time>2022-03-12T13:59:46Z</time>
      </trkpt>
      <trkpt lat="46.43783" lon="5.45701">
        <ele>376.8</ele>
        <time>2022-03-12T13:59:56Z</time>
      </trkpt>
      <trkpt lat="46.43796" lon="5.45702">
        <ele>377</ele>
        <time>2022-03-12T13:59:58Z</time>
      </trkpt>
      <trkpt lat="46.43855" lon="5.45701">
        <ele>377.2</ele>
        <time>2022-03-12T14:00:08Z</time>
      </trkpt>
      <trkpt lat="46.43877" lon="5.45698">
        <ele>377.6</ele>
        <time>2022-03-12T14:00:12Z</time>
      </trkpt>
      <trkpt lat="46.43921" lon="5.45691">
        <ele>377.6</ele>
        <time>2022-03-12T14:00:19Z</time>
      </trkpt>
      <trkpt lat="46.43968" lon="5.45683">
        <ele>377.6</ele>
        <time>2022-03-12T14:00:27Z</time>
      </trkpt>
      <trkpt lat="46.44026" lon="5.45673">
        <ele>377.6</ele>
        <time>2022-03-12T14:00:37Z</time>
      </trkpt>
      <trkpt lat="46.44031" lon="5.45672">
        <ele>377.6</ele>
        <time>2022-03-12T14:00:38Z</time>
      </trkpt>
      <trkpt lat="46.44085" lon="5.45662">
        <ele>378.2</ele>
        <time>2022-03-12T14:00:48Z</time>
      </trkpt>
      <trkpt lat="46.44107" lon="5.45658">
        <ele>378.6</ele>
        <time>2022-03-12T14:00:52Z</time>
      </trkpt>
      <trkpt lat="46.44161" lon="5.45648">
        <ele>379</ele>
        <time>2022-03-12T14:01:02Z</time>
      </trkpt>
      <trkpt lat="46.44166" lon="5.45647">
        <ele>379</ele>
        <time>2022-03-12T14:01:03Z</time>
      </trkpt>
      <trkpt lat="46.4421" lon="5.45638">
        <ele>379.2</ele>
        <time>2022-03-12T14:01:11Z</time>
      </trkpt>
      <trkpt lat="46.44234" lon="5.45634">
        <ele>379.6</ele>
        <time>2022-03-12T14:01:16Z</time>
      </trkpt>
      <trkpt lat="46.44254" lon="5.45631">
        <ele>379.8</ele>
        <time>2022-03-12T14:01:20Z</time>
      </trkpt>
      <trkpt lat="46.44311" lon="5.45633">
        <ele>380.8</ele>
        <time>2022-03-12T14:01:31Z</time>
      </trkpt>
      <trkpt lat="46.44321" lon="5.45634">
        <ele>381</ele>
        <time>2022-03-12T14:01:33Z</time>
      </trkpt>
      <trkpt lat="46.44362" lon="5.45638">
        <ele>381.6</ele>
        <time>2022-03-12T14:01:41Z</time>
      </trkpt>
      <trkpt lat="46.44382" lon="5.45641">
        <ele>382</ele>
        <time>2022-03-12T14:01:45Z</time>
      </trkpt>
      <trkpt lat="46.4441" lon="5.45644">
        <ele>383</ele>
        <time>2022-03-12T14:01:51Z</time>
      </trkpt>
      <trkpt lat="46.44415" lon="5.45645">
        <ele>383.2</ele>
        <time>2022-03-12T14:01:52Z</time>
      </trkpt>
      <trkpt lat="46.44443" lon="5.45647">
        <ele>384.2</ele>
        <time>2022-03-12T14:01:58Z</time>
      </trkpt>
      <trkpt lat="46.44458" lon="5.45649">
        <ele>384.4</ele>
        <time>2022-03-12T14:02:01Z</time>
      </trkpt>
      <trkpt lat="46.44479" lon="5.45651">
        <ele>385.2</ele>
        <time>2022-03-12T14:02:05Z</time>
      </trkpt>
      <trkpt lat="46.44509" lon="5.45657">
        <ele>385.8</ele>
        <time>2022-03-12T14:02:11Z</time>
      </trkpt>
      <trkpt lat="46.44549" lon="5.45668">
        <ele>385.8</ele>
        <time>2022-03-12T14:02:18Z</time>
      </trkpt>
      <trkpt lat="46.44594" lon="5.45682">
        <ele>385.6</ele>
        <time>2022-03-12T14:02:25Z</time>
      </trkpt>
      <trkpt lat="46.44643" lon="5.45699">
        <ele>385.2</ele>
        <time>2022-03-12T14:02:33Z</time>
      </trkpt>
      <trkpt lat="46.447" lon="5.4572">
        <ele>385.4</ele>
        <time>2022-03-12T14:02:43Z</time>
      </trkpt>
      <trkpt lat="46.44722" lon="5.4573">
        <ele>385.4</ele>
        <time>2022-03-12T14:02:47Z</time>
      </trkpt>
      <trkpt lat="46.44734" lon="5.45736">
        <ele>385.4</ele>
        <time>2022-03-12T14:02:49Z</time>
      </trkpt>
      <trkpt lat="46.44769" lon="5.45754">
        <ele>385.8</ele>
        <time>2022-03-12T14:02:56Z</time>
      </trkpt>
      <trkpt lat="46.44794" lon="5.45769">
        <ele>386.2</ele>
        <time>2022-03-12T14:03:01Z</time>
      </trkpt>
      <trkpt lat="46.4481" lon="5.45778">
        <ele>386.4</ele>
        <time>2022-03-12T14:03:04Z</time>
      </trkpt>
      <trkpt lat="46.44863" lon="5.45809">
        <ele>386.8</ele>
        <time>2022-03-12T14:03:14Z</time>
      </trkpt>
      <trkpt lat="46.44912" lon="5.45837">
        <ele>387</ele>
        <time>2022-03-12T14:03:23Z</time>
      </trkpt>
      <trkpt lat="46.44968" lon="5.45868">
        <ele>386.2</ele>
        <time>2022-03-12T14:03:32Z</time>
      </trkpt>
      <trkpt lat="46.44973" lon="5.45871">
        <ele>386</ele>
        <time>2022-03-12T14:03:33Z</time>
      </trkpt>
      <trkpt lat="46.4501" lon="5.45894">
        <ele>385</ele>
        <time>2022-03-12T14:03:39Z</time>
      </trkpt>
      <trkpt lat="46.45017" lon="5.45898">
        <ele>384.8</ele>
        <time>2022-03-12T14:03:40Z</time>
      </trkpt>
      <trkpt lat="46.45062" lon="5.45926">
        <ele>384</ele>
        <time>2022-03-12T14:03:47Z</time>
      </trkpt>
      <trkpt lat="46.4508" lon="5.45935">
        <ele>383.6</ele>
        <time>2022-03-12T14:03:50Z</time>
      </trkpt>
      <trkpt lat="46.45127" lon="5.45961">
        <ele>383.2</ele>
        <time>2022-03-12T14:03:58Z</time>
      </trkpt>
      <trkpt lat="46.45156" lon="5.45983">
        <ele>383.8</ele>
        <time>2022-03-12T14:04:04Z</time>
      </trkpt>
      <trkpt lat="46.45169" lon="5.45994">
        <ele>384.2</ele>
        <time>2022-03-12T14:04:07Z</time>
      </trkpt>
      <trkpt lat="46.45179" lon="5.46001">
        <ele>384.4</ele>
        <time>2022-03-12T14:04:09Z</time>
      </trkpt>
      <trkpt lat="46.45184" lon="5.46004">
        <ele>384.4</ele>
        <time>2022-03-12T14:04:10Z</time>
      </trkpt>
      <trkpt lat="46.45196" lon="5.46009">
        <ele>384.6</ele>
        <time>2022-03-12T14:04:12Z</time>
      </trkpt>
      <trkpt lat="46.45205" lon="5.46017">
        <ele>384.8</ele>
        <time>2022-03-12T14:04:14Z</time>
      </trkpt>
      <trkpt lat="46.45209" lon="5.46021">
        <ele>385</ele>
        <time>2022-03-12T14:04:15Z</time>
      </trkpt>
      <trkpt lat="46.45221" lon="5.46033">
        <ele>385.2</ele>
        <time>2022-03-12T14:04:18Z</time>
      </trkpt>
      <trkpt lat="46.45224" lon="5.46037">
        <ele>385.4</ele>
        <time>2022-03-12T14:04:19Z</time>
      </trkpt>
      <trkpt lat="46.45227" lon="5.4604">
        <ele>385.6</ele>
        <time>2022-03-12T14:04:20Z</time>
      </trkpt>
      <trkpt lat="46.45234" lon="5.46044">
        <ele>386</ele>
        <time>2022-03-12T14:04:22Z</time>
      </trkpt>
      <trkpt lat="46.45238" lon="5.46045">
        <ele>386.4</ele>
        <time>2022-03-12T14:04:23Z</time>
      </trkpt>
      <trkpt lat="46.45242" lon="5.46042">
        <ele>386.6</ele>
        <time>2022-03-12T14:04:24Z</time>
      </trkpt>
      <trkpt lat="46.45247" lon="5.46034">
        <ele>387</ele>
        <time>2022-03-12T14:04:26Z</time>
      </trkpt>
      <trkpt lat="46.45253" lon="5.4602">
        <ele>387.4</ele>
        <time>2022-03-12T14:04:28Z</time>
      </trkpt>
      <trkpt lat="46.45263" lon="5.45997">
        <ele>387.4</ele>
        <time>2022-03-12T14:04:31Z</time>
      </trkpt>
      <trkpt lat="46.45265" lon="5.45989">
        <ele>387.4</ele>
        <time>2022-03-12T14:04:32Z</time>
      </trkpt>
      <trkpt lat="46.45271" lon="5.45968">
        <ele>387.4</ele>
        <time>2022-03-12T14:04:34Z</time>
      </trkpt>
      <trkpt lat="46.45276" lon="5.45946">
        <ele>386.8</ele>
        <time>2022-03-12T14:04:36Z</time>
      </trkpt>
      <trkpt lat="46.45287" lon="5.45901">
        <ele>385.2</ele>
        <time>2022-03-12T14:04:40Z</time>
      </trkpt>
      <trkpt lat="46.45294" lon="5.45878">
        <ele>384.6</ele>
        <time>2022-03-12T14:04:42Z</time>
      </trkpt>
      <trkpt lat="46.45298" lon="5.45866">
        <ele>384.2</ele>
        <time>2022-03-12T14:04:43Z</time>
      </trkpt>
      <trkpt lat="46.4531" lon="5.45831">
        <ele>382.6</ele>
        <time>2022-03-12T14:04:46Z</time>
      </trkpt>
      <trkpt lat="46.45319" lon="5.45806">
        <ele>382</ele>
        <time>2022-03-12T14:04:49Z</time>
      </trkpt>
      <trkpt lat="46.45324" lon="5.45785">
        <ele>381.6</ele>
        <time>2022-03-12T14:04:51Z</time>
      </trkpt>
      <trkpt lat="46.45329" lon="5.45751">
        <ele>381.2</ele>
        <time>2022-03-12T14:04:55Z</time>
      </trkpt>
      <trkpt lat="46.45338" lon="5.45688">
        <ele>381</ele>
        <time>2022-03-12T14:05:02Z</time>
      </trkpt>
      <trkpt lat="46.45347" lon="5.45642">
        <ele>381</ele>
        <time>2022-03-12T14:05:07Z</time>
      </trkpt>
      <trkpt lat="46.45353" lon="5.45626">
        <ele>381</ele>
        <time>2022-03-12T14:05:09Z</time>
      </trkpt>
      <trkpt lat="46.45363" lon="5.45613">
        <ele>380.8</ele>
        <time>2022-03-12T14:05:11Z</time>
      </trkpt>
      <trkpt lat="46.45368" lon="5.45609">
        <ele>380.8</ele>
        <time>2022-03-12T14:05:12Z</time>
      </trkpt>
      <trkpt lat="46.45379" lon="5.45602">
        <ele>380.8</ele>
        <time>2022-03-12T14:05:14Z</time>
      </trkpt>
      <trkpt lat="46.45391" lon="5.45599">
        <ele>380.8</ele>
        <time>2022-03-12T14:05:16Z</time>
      </trkpt>
      <trkpt lat="46.45403" lon="5.456">
        <ele>380.8</ele>
        <time>2022-03-12T14:05:18Z</time>
      </trkpt>
      <trkpt lat="46.45414" lon="5.45604">
        <ele>381</ele>
        <time>2022-03-12T14:05:20Z</time>
      </trkpt>
      <trkpt lat="46.4542" lon="5.45607">
        <ele>381</ele>
        <time>2022-03-12T14:05:21Z</time>
      </trkpt>
      <trkpt lat="46.45438" lon="5.45621">
        <ele>381.4</ele>
        <time>2022-03-12T14:05:25Z</time>
      </trkpt>
      <trkpt lat="46.45476" lon="5.45652">
        <ele>383</ele>
        <time>2022-03-12T14:05:33Z</time>
      </trkpt>
      <trkpt lat="46.45509" lon="5.45671">
        <ele>383.8</ele>
        <time>2022-03-12T14:05:41Z</time>
      </trkpt>
      <trkpt lat="46.45513" lon="5.45674">
        <ele>384.2</ele>
        <time>2022-03-12T14:05:42Z</time>
      </trkpt>
      <trkpt lat="46.45542" lon="5.45687">
        <ele>385.2</ele>
        <time>2022-03-12T14:05:49Z</time>
      </trkpt>
      <trkpt lat="46.45549" lon="5.45691">
        <ele>385.6</ele>
        <time>2022-03-12T14:05:51Z</time>
      </trkpt>
      <trkpt lat="46.4556" lon="5.45696">
        <ele>386.6</ele>
        <time>2022-03-12T14:05:54Z</time>
      </trkpt>
      <trkpt lat="46.45572" lon="5.457">
        <ele>387.6</ele>
        <time>2022-03-12T14:05:58Z</time>
      </trkpt>
      <trkpt lat="46.45601" lon="5.45701">
        <ele>388.6</ele>
        <time>2022-03-12T14:06:05Z</time>
      </trkpt>
      <trkpt lat="46.45605" lon="5.457">
        <ele>388.8</ele>
        <time>2022-03-12T14:06:06Z</time>
      </trkpt>
      <trkpt lat="46.45621" lon="5.45696">
        <ele>389.6</ele>
        <time>2022-03-12T14:06:10Z</time>
      </trkpt>
      <trkpt lat="46.45637" lon="5.45689">
        <ele>390.2</ele>
        <time>2022-03-12T14:06:14Z</time>
      </trkpt>
      <trkpt lat="46.45646" lon="5.45684">
        <ele>390.8</ele>
        <time>2022-03-12T14:06:16Z</time>
      </trkpt>
      <trkpt lat="46.45668" lon="5.45671">
        <ele>391.8</ele>
        <time>2022-03-12T14:06:22Z</time>
      </trkpt>
      <trkpt lat="46.45683" lon="5.45661">
        <ele>392.4</ele>
        <time>2022-03-12T14:06:26Z</time>
      </trkpt>
      <trkpt lat="46.45698" lon="5.45652">
        <ele>393</ele>
        <time>2022-03-12T14:06:30Z</time>
      </trkpt>
      <trkpt lat="46.45711" lon="5.45645">
        <ele>393.2</ele>
        <time>2022-03-12T14:06:33Z</time>
      </trkpt>
      <trkpt lat="46.4576" lon="5.45617">
        <ele>394</ele>
        <time>2022-03-12T14:06:44Z</time>
      </trkpt>
      <trkpt lat="46.45814" lon="5.45587">
        <ele>394.2</ele>
        <time>2022-03-12T14:06:55Z</time>
      </trkpt>
      <trkpt lat="46.45818" lon="5.45584">
        <ele>394.2</ele>
        <time>2022-03-12T14:06:56Z</time>
      </trkpt>
      <trkpt lat="46.45855" lon="5.45564">
        <ele>393.8</ele>
        <time>2022-03-12T14:07:02Z</time>
      </trkpt>
      <trkpt lat="46.4589" lon="5.45544">
        <ele>392.8</ele>
        <time>2022-03-12T14:07:07Z</time>
      </trkpt>
      <trkpt lat="46.45907" lon="5.45535">
        <ele>392.6</ele>
        <time>2022-03-12T14:07:09Z</time>
      </trkpt>
      <trkpt lat="46.45935" lon="5.45519">
        <ele>391.8</ele>
        <time>2022-03-12T14:07:13Z</time>
      </trkpt>
      <trkpt lat="46.45965" lon="5.45502">
        <ele>391.2</ele>
        <time>2022-03-12T14:07:17Z</time>
      </trkpt>
      <trkpt lat="46.45981" lon="5.45493">
        <ele>390.8</ele>
        <time>2022-03-12T14:07:19Z</time>
      </trkpt>
      <trkpt lat="46.46036" lon="5.45461">
        <ele>390.2</ele>
        <time>2022-03-12T14:07:27Z</time>
      </trkpt>
      <trkpt lat="46.4605" lon="5.45453">
        <ele>389.8</ele>
        <time>2022-03-12T14:07:29Z</time>
      </trkpt>
      <trkpt lat="46.46092" lon="5.45427">
        <ele>388.6</ele>
        <time>2022-03-12T14:07:35Z</time>
      </trkpt>
      <trkpt lat="46.46099" lon="5.45423">
        <ele>388.6</ele>
        <time>2022-03-12T14:07:36Z</time>
      </trkpt>
      <trkpt lat="46.46139" lon="5.45397">
        <ele>387.6</ele>
        <time>2022-03-12T14:07:42Z</time>
      </trkpt>
      <trkpt lat="46.46179" lon="5.45369">
        <ele>386.6</ele>
        <time>2022-03-12T14:07:48Z</time>
      </trkpt>
      <trkpt lat="46.46184" lon="5.45365">
        <ele>386.4</ele>
        <time>2022-03-12T14:07:49Z</time>
      </trkpt>
      <trkpt lat="46.46234" lon="5.45328">
        <ele>385.8</ele>
        <time>2022-03-12T14:07:57Z</time>
      </trkpt>
      <trkpt lat="46.46281" lon="5.45291">
        <ele>385.4</ele>
        <time>2022-03-12T14:08:05Z</time>
      </trkpt>
      <trkpt lat="46.46286" lon="5.45287">
        <ele>385.4</ele>
        <time>2022-03-12T14:08:06Z</time>
      </trkpt>
      <trkpt lat="46.46292" lon="5.45282">
        <ele>385.2</ele>
        <time>2022-03-12T14:08:07Z</time>
      </trkpt>
      <trkpt lat="46.46342" lon="5.45242">
        <ele>385</ele>
        <time>2022-03-12T14:08:15Z</time>
      </trkpt>
      <trkpt lat="46.46348" lon="5.45238">
        <ele>385</ele>
        <time>2022-03-12T14:08:16Z</time>
      </trkpt>
      <trkpt lat="46.46399" lon="5.45208">
        <ele>384.8</ele>
        <time>2022-03-12T14:08:24Z</time>
      </trkpt>
      <trkpt lat="46.46417" lon="5.45186">
        <ele>384.8</ele>
        <time>2022-03-12T14:08:28Z</time>
      </trkpt>
      <trkpt lat="46.46425" lon="5.45173">
        <ele>385</ele>
        <time>2022-03-12T14:08:30Z</time>
      </trkpt>
      <trkpt lat="46.4643" lon="5.45159">
        <ele>385.2</ele>
        <time>2022-03-12T14:08:32Z</time>
      </trkpt>
      <trkpt lat="46.46432" lon="5.45144">
        <ele>385.4</ele>
        <time>2022-03-12T14:08:34Z</time>
      </trkpt>
      <trkpt lat="46.46433" lon="5.45131">
        <ele>385.6</ele>
        <time>2022-03-12T14:08:36Z</time>
      </trkpt>
      <trkpt lat="46.46433" lon="5.45123">
        <ele>385.8</ele>
        <time>2022-03-12T14:08:37Z</time>
      </trkpt>
      <trkpt lat="46.4643" lon="5.45095">
        <ele>386.6</ele>
        <time>2022-03-12T14:08:41Z</time>
      </trkpt>
      <trkpt lat="46.46427" lon="5.45081">
        <ele>386.8</ele>
        <time>2022-03-12T14:08:43Z</time>
      </trkpt>
      <trkpt lat="46.46416" lon="5.45035">
        <ele>387</ele>
        <time>2022-03-12T14:08:49Z</time>
      </trkpt>
      <trkpt lat="46.46402" lon="5.44982">
        <ele>387</ele>
        <time>2022-03-12T14:08:55Z</time>
      </trkpt>
      <trkpt lat="46.4639" lon="5.44932">
        <ele>386.8</ele>
        <time>2022-03-12T14:09:01Z</time>
      </trkpt>
      <trkpt lat="46.46388" lon="5.44925">
        <ele>386.8</ele>
        <time>2022-03-12T14:09:02Z</time>
      </trkpt>
      <trkpt lat="46.46374" lon="5.44899">
        <ele>387.4</ele>
        <time>2022-03-12T14:09:06Z</time>
      </trkpt>
      <trkpt lat="46.46368" lon="5.44888">
        <ele>387.6</ele>
        <time>2022-03-12T14:09:08Z</time>
      </trkpt>
      <trkpt lat="46.46365" lon="5.4488">
        <ele>387.8</ele>
        <time>2022-03-12T14:09:09Z</time>
      </trkpt>
      <trkpt lat="46.4636" lon="5.44864">
        <ele>388.2</ele>
        <time>2022-03-12T14:09:11Z</time>
      </trkpt>
      <trkpt lat="46.46358" lon="5.44856">
        <ele>388.2</ele>
        <time>2022-03-12T14:09:12Z</time>
      </trkpt>
      <trkpt lat="46.46354" lon="5.44802">
        <ele>388.4</ele>
        <time>2022-03-12T14:09:18Z</time>
      </trkpt>
      <trkpt lat="46.46354" lon="5.44774">
        <ele>388.8</ele>
        <time>2022-03-12T14:09:22Z</time>
      </trkpt>
      <trkpt lat="46.46354" lon="5.44769">
        <ele>388.8</ele>
        <time>2022-03-12T14:09:23Z</time>
      </trkpt>
      <trkpt lat="46.46355" lon="5.44752">
        <ele>390</ele>
        <time>2022-03-12T14:09:26Z</time>
      </trkpt>
      <trkpt lat="46.46355" lon="5.44736">
        <ele>391.2</ele>
        <time>2022-03-12T14:09:29Z</time>
      </trkpt>
      <trkpt lat="46.46351" lon="5.44714">
        <ele>392.2</ele>
        <time>2022-03-12T14:09:34Z</time>
      </trkpt>
      <trkpt lat="46.46335" lon="5.44703">
        <ele>393.2</ele>
        <time>2022-03-12T14:09:38Z</time>
      </trkpt>
      <trkpt lat="46.46312" lon="5.44692">
        <ele>394.4</ele>
        <time>2022-03-12T14:09:44Z</time>
      </trkpt>
      <trkpt lat="46.46301" lon="5.44687">
        <ele>394.8</ele>
        <time>2022-03-12T14:09:47Z</time>
      </trkpt>
      <trkpt lat="46.46288" lon="5.44681">
        <ele>395.6</ele>
        <time>2022-03-12T14:09:51Z</time>
      </trkpt>
      <trkpt lat="46.46271" lon="5.44673">
        <ele>396.4</ele>
        <time>2022-03-12T14:09:56Z</time>
      </trkpt>
      <trkpt lat="46.46268" lon="5.44672">
        <ele>396.6</ele>
        <time>2022-03-12T14:09:57Z</time>
      </trkpt>
      <trkpt lat="46.46251" lon="5.44662">
        <ele>397.6</ele>
        <time>2022-03-12T14:10:02Z</time>
      </trkpt>
      <trkpt lat="46.46232" lon="5.4465">
        <ele>398.8</ele>
        <time>2022-03-12T14:10:08Z</time>
      </trkpt>
      <trkpt lat="46.46214" lon="5.44632">
        <ele>400</ele>
        <time>2022-03-12T14:10:14Z</time>
      </trkpt>
      <trkpt lat="46.46208" lon="5.44621">
        <ele>400.6</ele>
        <time>2022-03-12T14:10:17Z</time>
      </trkpt>
      <trkpt lat="46.46205" lon="5.44612">
        <ele>401.2</ele>
        <time>2022-03-12T14:10:19Z</time>
      </trkpt>
      <trkpt lat="46.46198" lon="5.44588">
        <ele>402.2</ele>
        <time>2022-03-12T14:10:24Z</time>
      </trkpt>
      <trkpt lat="46.46198" lon="5.44583">
        <ele>402.4</ele>
        <time>2022-03-12T14:10:25Z</time>
      </trkpt>
      <trkpt lat="46.46195" lon="5.44558">
        <ele>403.4</ele>
        <time>2022-03-12T14:10:30Z</time>
      </trkpt>
      <trkpt lat="46.46194" lon="5.44523">
        <ele>404.6</ele>
        <time>2022-03-12T14:10:37Z</time>
      </trkpt>
      <trkpt lat="46.46193" lon="5.44499">
        <ele>405.8</ele>
        <time>2022-03-12T14:10:42Z</time>
      </trkpt>
      <trkpt lat="46.46192" lon="5.44474">
        <ele>407</ele>
        <time>2022-03-12T14:10:47Z</time>
      </trkpt>
      <trkpt lat="46.46192" lon="5.4447">
        <ele>407.2</ele>
        <time>2022-03-12T14:10:48Z</time>
      </trkpt>
      <trkpt lat="46.46192" lon="5.4445">
        <ele>408</ele>
        <time>2022-03-12T14:10:52Z</time>
      </trkpt>
      <trkpt lat="46.46191" lon="5.44419">
        <ele>409.2</ele>
        <time>2022-03-12T14:10:58Z</time>
      </trkpt>
      <trkpt lat="46.46191" lon="5.44409">
        <ele>409.4</ele>
        <time>2022-03-12T14:11:00Z</time>
      </trkpt>
      <trkpt lat="46.46191" lon="5.44384">
        <ele>410.2</ele>
        <time>2022-03-12T14:11:05Z</time>
      </trkpt>
      <trkpt lat="46.46192" lon="5.44363">
        <ele>411.4</ele>
        <time>2022-03-12T14:11:09Z</time>
      </trkpt>
      <trkpt lat="46.46192" lon="5.4433">
        <ele>412.4</ele>
        <time>2022-03-12T14:11:16Z</time>
      </trkpt>
      <trkpt lat="46.46192" lon="5.44307">
        <ele>413.6</ele>
        <time>2022-03-12T14:11:21Z</time>
      </trkpt>
      <trkpt lat="46.46192" lon="5.44292">
        <ele>414.2</ele>
        <time>2022-03-12T14:11:24Z</time>
      </trkpt>
      <trkpt lat="46.4619" lon="5.44277">
        <ele>414.6</ele>
        <time>2022-03-12T14:11:27Z</time>
      </trkpt>
      <trkpt lat="46.46185" lon="5.44253">
        <ele>415.6</ele>
        <time>2022-03-12T14:11:32Z</time>
      </trkpt>
      <trkpt lat="46.46183" lon="5.44248">
        <ele>415.6</ele>
        <time>2022-03-12T14:11:33Z</time>
      </trkpt>
      <trkpt lat="46.46176" lon="5.4422">
        <ele>416.8</ele>
        <time>2022-03-12T14:11:39Z</time>
      </trkpt>
      <trkpt lat="46.46172" lon="5.44207">
        <ele>417.2</ele>
        <time>2022-03-12T14:11:42Z</time>
      </trkpt>
      <trkpt lat="46.46165" lon="5.4419">
        <ele>417.8</ele>
        <time>2022-03-12T14:11:46Z</time>
      </trkpt>
      <trkpt lat="46.46159" lon="5.44169">
        <ele>419</ele>
        <time>2022-03-12T14:11:51Z</time>
      </trkpt>
      <trkpt lat="46.46157" lon="5.44164">
        <ele>419.2</ele>
        <time>2022-03-12T14:11:52Z</time>
      </trkpt>
      <trkpt lat="46.46149" lon="5.44142">
        <ele>420</ele>
        <time>2022-03-12T14:11:57Z</time>
      </trkpt>
      <trkpt lat="46.46143" lon="5.44123">
        <ele>420.8</ele>
        <time>2022-03-12T14:12:01Z</time>
      </trkpt>
      <trkpt lat="46.4614" lon="5.44109">
        <ele>421.2</ele>
        <time>2022-03-12T14:12:04Z</time>
      </trkpt>
      <trkpt lat="46.46138" lon="5.44091">
        <ele>422</ele>
        <time>2022-03-12T14:12:08Z</time>
      </trkpt>
      <trkpt lat="46.46137" lon="5.44087">
        <ele>422.4</ele>
        <time>2022-03-12T14:12:09Z</time>
      </trkpt>
      <trkpt lat="46.46132" lon="5.4406">
        <ele>423.4</ele>
        <time>2022-03-12T14:12:15Z</time>
      </trkpt>
      <trkpt lat="46.46131" lon="5.44056">
        <ele>423.6</ele>
        <time>2022-03-12T14:12:16Z</time>
      </trkpt>
      <trkpt lat="46.46128" lon="5.44031">
        <ele>424.4</ele>
        <time>2022-03-12T14:12:21Z</time>
      </trkpt>
      <trkpt lat="46.46128" lon="5.44011">
        <ele>425.2</ele>
        <time>2022-03-12T14:12:25Z</time>
      </trkpt>
      <trkpt lat="46.46128" lon="5.44007">
        <ele>425.4</ele>
        <time>2022-03-12T14:12:26Z</time>
      </trkpt>
      <trkpt lat="46.46131" lon="5.43979">
        <ele>426.6</ele>
        <time>2022-03-12T14:12:32Z</time>
      </trkpt>
      <trkpt lat="46.46132" lon="5.43975">
        <ele>426.8</ele>
        <time>2022-03-12T14:12:33Z</time>
      </trkpt>
      <trkpt lat="46.46137" lon="5.43954">
        <ele>427.8</ele>
        <time>2022-03-12T14:12:38Z</time>
      </trkpt>
      <trkpt lat="46.46143" lon="5.43931">
        <ele>428.8</ele>
        <time>2022-03-12T14:12:43Z</time>
      </trkpt>
      <trkpt lat="46.46151" lon="5.43904">
        <ele>429.8</ele>
        <time>2022-03-12T14:12:49Z</time>
      </trkpt>
      <trkpt lat="46.46157" lon="5.43882">
        <ele>430.8</ele>
        <time>2022-03-12T14:12:54Z</time>
      </trkpt>
      <trkpt lat="46.46159" lon="5.43874">
        <ele>431</ele>
        <time>2022-03-12T14:12:56Z</time>
      </trkpt>
      <trkpt lat="46.46167" lon="5.43847">
        <ele>432.2</ele>
        <time>2022-03-12T14:13:02Z</time>
      </trkpt>
      <trkpt lat="46.46173" lon="5.43826">
        <ele>433</ele>
        <time>2022-03-12T14:13:07Z</time>
      </trkpt>
      <trkpt lat="46.46174" lon="5.43822">
        <ele>433.4</ele>
        <time>2022-03-12T14:13:08Z</time>
      </trkpt>
      <trkpt lat="46.4618" lon="5.438">
        <ele>434.6</ele>
        <time>2022-03-12T14:13:13Z</time>
      </trkpt>
      <trkpt lat="46.46182" lon="5.43795">
        <ele>434.6</ele>
        <time>2022-03-12T14:13:14Z</time>
      </trkpt>
      <trkpt lat="46.46188" lon="5.43768">
        <ele>435.6</ele>
        <time>2022-03-12T14:13:20Z</time>
      </trkpt>
      <trkpt lat="46.46191" lon="5.43736">
        <ele>436.8</ele>
        <time>2022-03-12T14:13:27Z</time>
      </trkpt>
      <trkpt lat="46.46192" lon="5.43732">
        <ele>437</ele>
        <time>2022-03-12T14:13:28Z</time>
      </trkpt>
      <trkpt lat="46.46191" lon="5.43713">
        <ele>437.8</ele>
        <time>2022-03-12T14:13:32Z</time>
      </trkpt>
      <trkpt lat="46.46188" lon="5.43688">
        <ele>438.8</ele>
        <time>2022-03-12T14:13:37Z</time>
      </trkpt>
      <trkpt lat="46.46187" lon="5.43684">
        <ele>439</ele>
        <time>2022-03-12T14:13:38Z</time>
      </trkpt>
      <trkpt lat="46.46178" lon="5.43651">
        <ele>439.6</ele>
        <time>2022-03-12T14:13:45Z</time>
      </trkpt>
      <trkpt lat="46.4617" lon="5.43633">
        <ele>440</ele>
        <time>2022-03-12T14:13:49Z</time>
      </trkpt>
      <trkpt lat="46.46159" lon="5.43614">
        <ele>440.2</ele>
        <time>2022-03-12T14:13:53Z</time>
      </trkpt>
      <trkpt lat="46.46133" lon="5.43587">
        <ele>440.4</ele>
        <time>2022-03-12T14:14:00Z</time>
      </trkpt>
      <trkpt lat="46.4613" lon="5.43584">
        <ele>440.4</ele>
        <time>2022-03-12T14:14:01Z</time>
      </trkpt>
      <trkpt lat="46.46106" lon="5.43571">
        <ele>440.2</ele>
        <time>2022-03-12T14:14:06Z</time>
      </trkpt>
      <trkpt lat="46.46085" lon="5.43567">
        <ele>439.8</ele>
        <time>2022-03-12T14:14:10Z</time>
      </trkpt>
      <trkpt lat="46.46074" lon="5.43567">
        <ele>439.8</ele>
        <time>2022-03-12T14:14:12Z</time>
      </trkpt>
      <trkpt lat="46.46039" lon="5.43564">
        <ele>438.8</ele>
        <time>2022-03-12T14:14:17Z</time>
      </trkpt>
      <trkpt lat="46.4603" lon="5.43562">
        <ele>438.6</ele>
        <time>2022-03-12T14:14:18Z</time>
      </trkpt>
      <trkpt lat="46.46" lon="5.43551">
        <ele>437.8</ele>
        <time>2022-03-12T14:14:22Z</time>
      </trkpt>
      <trkpt lat="46.45994" lon="5.43547">
        <ele>437.2</ele>
        <time>2022-03-12T14:14:23Z</time>
      </trkpt>
      <trkpt lat="46.45979" lon="5.43537">
        <ele>436.6</ele>
        <time>2022-03-12T14:14:25Z</time>
      </trkpt>
      <trkpt lat="46.4595" lon="5.43516">
        <ele>435.6</ele>
        <time>2022-03-12T14:14:29Z</time>
      </trkpt>
      <trkpt lat="46.45929" lon="5.435">
        <ele>434.8</ele>
        <time>2022-03-12T14:14:32Z</time>
      </trkpt>
      <trkpt lat="46.4592" lon="5.43492">
        <ele>434.2</ele>
        <time>2022-03-12T14:14:33Z</time>
      </trkpt>
      <trkpt lat="46.45883" lon="5.43464">
        <ele>432.8</ele>
        <time>2022-03-12T14:14:38Z</time>
      </trkpt>
      <trkpt lat="46.45857" lon="5.43445">
        <ele>431.8</ele>
        <time>2022-03-12T14:14:41Z</time>
      </trkpt>
      <trkpt lat="46.45834" lon="5.43427">
        <ele>430.2</ele>
        <time>2022-03-12T14:14:44Z</time>
      </trkpt>
      <trkpt lat="46.4581" lon="5.43409">
        <ele>428.6</ele>
        <time>2022-03-12T14:14:47Z</time>
      </trkpt>
      <trkpt lat="46.45786" lon="5.4339">
        <ele>427.4</ele>
        <time>2022-03-12T14:14:50Z</time>
      </trkpt>
      <trkpt lat="46.45776" lon="5.43382">
        <ele>427.2</ele>
        <time>2022-03-12T14:14:51Z</time>
      </trkpt>
      <trkpt lat="46.45761" lon="5.43368">
        <ele>426.4</ele>
        <time>2022-03-12T14:14:53Z</time>
      </trkpt>
      <trkpt lat="46.45736" lon="5.4334">
        <ele>424.8</ele>
        <time>2022-03-12T14:14:56Z</time>
      </trkpt>
      <trkpt lat="46.45731" lon="5.43333">
        <ele>424.6</ele>
        <time>2022-03-12T14:14:57Z</time>
      </trkpt>
      <trkpt lat="46.45711" lon="5.43299">
        <ele>423.8</ele>
        <time>2022-03-12T14:15:00Z</time>
      </trkpt>
      <trkpt lat="46.45702" lon="5.4328">
        <ele>423.2</ele>
        <time>2022-03-12T14:15:02Z</time>
      </trkpt>
      <trkpt lat="46.45697" lon="5.43269">
        <ele>422.8</ele>
        <time>2022-03-12T14:15:03Z</time>
      </trkpt>
      <trkpt lat="46.45672" lon="5.43213">
        <ele>421.8</ele>
        <time>2022-03-12T14:15:08Z</time>
      </trkpt>
      <trkpt lat="46.45669" lon="5.43205">
        <ele>421.4</ele>
        <time>2022-03-12T14:15:09Z</time>
      </trkpt>
      <trkpt lat="46.45658" lon="5.43182">
        <ele>420.6</ele>
        <time>2022-03-12T14:15:11Z</time>
      </trkpt>
      <trkpt lat="46.45632" lon="5.43124">
        <ele>420</ele>
        <time>2022-03-12T14:15:17Z</time>
      </trkpt>
      <trkpt lat="46.45619" lon="5.43095">
        <ele>419.8</ele>
        <time>2022-03-12T14:15:20Z</time>
      </trkpt>
      <trkpt lat="46.45595" lon="5.43041">
        <ele>419.4</ele>
        <time>2022-03-12T14:15:26Z</time>
      </trkpt>
      <trkpt lat="46.45574" lon="5.43003">
        <ele>419.6</ele>
        <time>2022-03-12T14:15:31Z</time>
      </trkpt>
      <trkpt lat="46.45549" lon="5.42967">
        <ele>420.2</ele>
        <time>2022-03-12T14:15:37Z</time>
      </trkpt>
      <trkpt lat="46.45526" lon="5.42938">
        <ele>420.8</ele>
        <time>2022-03-12T14:15:43Z</time>
      </trkpt>
      <trkpt lat="46.45516" lon="5.42926">
        <ele>421.4</ele>
        <time>2022-03-12T14:15:46Z</time>
      </trkpt>
      <trkpt lat="46.45502" lon="5.42908">
        <ele>422</ele>
        <time>2022-03-12T14:15:50Z</time>
      </trkpt>
      <trkpt lat="46.45492" lon="5.42895">
        <ele>422.8</ele>
        <time>2022-03-12T14:15:53Z</time>
      </trkpt>
      <trkpt lat="46.45475" lon="5.42874">
        <ele>423.2</ele>
        <time>2022-03-12T14:15:58Z</time>
      </trkpt>
      <trkpt lat="46.45457" lon="5.42855">
        <ele>423.8</ele>
        <time>2022-03-12T14:16:03Z</time>
      </trkpt>
      <trkpt lat="46.45447" lon="5.42844">
        <ele>424.6</ele>
        <time>2022-03-12T14:16:06Z</time>
      </trkpt>
      <trkpt lat="46.45421" lon="5.4282">
        <ele>425.8</ele>
        <time>2022-03-12T14:16:13Z</time>
      </trkpt>
      <trkpt lat="46.45417" lon="5.42817">
        <ele>425.8</ele>
        <time>2022-03-12T14:16:14Z</time>
      </trkpt>
      <trkpt lat="46.45386" lon="5.42782">
        <ele>426.8</ele>
        <time>2022-03-12T14:16:23Z</time>
      </trkpt>
      <trkpt lat="46.45377" lon="5.4277">
        <ele>427</ele>
        <time>2022-03-12T14:16:26Z</time>
      </trkpt>
      <trkpt lat="46.45362" lon="5.42747">
        <ele>428</ele>
        <time>2022-03-12T14:16:31Z</time>
      </trkpt>
      <trkpt lat="46.45346" lon="5.42719">
        <ele>428.8</ele>
        <time>2022-03-12T14:16:37Z</time>
      </trkpt>
      <trkpt lat="46.4534" lon="5.4271">
        <ele>429</ele>
        <time>2022-03-12T14:16:39Z</time>
      </trkpt>
      <trkpt lat="46.45327" lon="5.42686">
        <ele>430</ele>
        <time>2022-03-12T14:16:44Z</time>
      </trkpt>
      <trkpt lat="46.4532" lon="5.42673">
        <ele>430.6</ele>
        <time>2022-03-12T14:16:47Z</time>
      </trkpt>
      <trkpt lat="46.45311" lon="5.42658">
        <ele>431.2</ele>
        <time>2022-03-12T14:16:50Z</time>
      </trkpt>
      <trkpt lat="46.45295" lon="5.42629">
        <ele>432</ele>
        <time>2022-03-12T14:16:56Z</time>
      </trkpt>
      <trkpt lat="46.45292" lon="5.42624">
        <ele>432.2</ele>
        <time>2022-03-12T14:16:57Z</time>
      </trkpt>
      <trkpt lat="46.45272" lon="5.42585">
        <ele>433.2</ele>
        <time>2022-03-12T14:17:05Z</time>
      </trkpt>
      <trkpt lat="46.45269" lon="5.4258">
        <ele>433.4</ele>
        <time>2022-03-12T14:17:06Z</time>
      </trkpt>
      <trkpt lat="46.45257" lon="5.42557">
        <ele>434.4</ele>
        <time>2022-03-12T14:17:11Z</time>
      </trkpt>
      <trkpt lat="46.45244" lon="5.42534">
        <ele>435</ele>
        <time>2022-03-12T14:17:16Z</time>
      </trkpt>
      <trkpt lat="46.45234" lon="5.42515">
        <ele>435.4</ele>
        <time>2022-03-12T14:17:20Z</time>
      </trkpt>
      <trkpt lat="46.45225" lon="5.425">
        <ele>435.6</ele>
        <time>2022-03-12T14:17:23Z</time>
      </trkpt>
      <trkpt lat="46.45218" lon="5.42487">
        <ele>436</ele>
        <time>2022-03-12T14:17:26Z</time>
      </trkpt>
      <trkpt lat="46.45209" lon="5.4247">
        <ele>436.4</ele>
        <time>2022-03-12T14:17:29Z</time>
      </trkpt>
      <trkpt lat="46.45196" lon="5.42446">
        <ele>437</ele>
        <time>2022-03-12T14:17:34Z</time>
      </trkpt>
      <trkpt lat="46.45187" lon="5.42432">
        <ele>437.6</ele>
        <time>2022-03-12T14:17:37Z</time>
      </trkpt>
      <trkpt lat="46.45174" lon="5.42408">
        <ele>438</ele>
        <time>2022-03-12T14:17:42Z</time>
      </trkpt>
      <trkpt lat="46.45166" lon="5.42394">
        <ele>438.6</ele>
        <time>2022-03-12T14:17:45Z</time>
      </trkpt>
      <trkpt lat="46.45151" lon="5.42373">
        <ele>439.4</ele>
        <time>2022-03-12T14:17:50Z</time>
      </trkpt>
      <trkpt lat="46.45141" lon="5.42361">
        <ele>439.8</ele>
        <time>2022-03-12T14:17:53Z</time>
      </trkpt>
      <trkpt lat="46.45121" lon="5.42335">
        <ele>440.6</ele>
        <time>2022-03-12T14:17:59Z</time>
      </trkpt>
      <trkpt lat="46.45116" lon="5.42326">
        <ele>441</ele>
        <time>2022-03-12T14:18:01Z</time>
      </trkpt>
      <trkpt lat="46.45113" lon="5.42322">
        <ele>441.2</ele>
        <time>2022-03-12T14:18:02Z</time>
      </trkpt>
      <trkpt lat="46.45099" lon="5.42305">
        <ele>442.2</ele>
        <time>2022-03-12T14:18:06Z</time>
      </trkpt>
      <trkpt lat="46.45096" lon="5.42301">
        <ele>442.4</ele>
        <time>2022-03-12T14:18:07Z</time>
      </trkpt>
      <trkpt lat="46.45093" lon="5.42295">
        <ele>442.8</ele>
        <time>2022-03-12T14:18:08Z</time>
      </trkpt>
      <trkpt lat="46.45088" lon="5.42283">
        <ele>443</ele>
        <time>2022-03-12T14:18:10Z</time>
      </trkpt>
      <trkpt lat="46.45087" lon="5.42277">
        <ele>443</ele>
        <time>2022-03-12T14:18:11Z</time>
      </trkpt>
      <trkpt lat="46.45086" lon="5.42271">
        <ele>443.2</ele>
        <time>2022-03-12T14:18:12Z</time>
      </trkpt>
      <trkpt lat="46.45081" lon="5.42233">
        <ele>444.2</ele>
        <time>2022-03-12T14:18:18Z</time>
      </trkpt>
      <trkpt lat="46.45081" lon="5.42226">
        <ele>444.4</ele>
        <time>2022-03-12T14:18:19Z</time>
      </trkpt>
      <trkpt lat="46.4508" lon="5.42221">
        <ele>444.4</ele>
        <time>2022-03-12T14:18:20Z</time>
      </trkpt>
      <trkpt lat="46.45079" lon="5.42211">
        <ele>445</ele>
        <time>2022-03-12T14:18:22Z</time>
      </trkpt>
      <trkpt lat="46.45078" lon="5.42205">
        <ele>445.2</ele>
        <time>2022-03-12T14:18:23Z</time>
      </trkpt>
      <trkpt lat="46.45077" lon="5.42199">
        <ele>445.4</ele>
        <time>2022-03-12T14:18:24Z</time>
      </trkpt>
      <trkpt lat="46.4507" lon="5.42167">
        <ele>446.4</ele>
        <time>2022-03-12T14:18:30Z</time>
      </trkpt>
      <trkpt lat="46.45069" lon="5.42161">
        <ele>446.8</ele>
        <time>2022-03-12T14:18:31Z</time>
      </trkpt>
      <trkpt lat="46.45053" lon="5.4212">
        <ele>447.4</ele>
        <time>2022-03-12T14:18:38Z</time>
      </trkpt>
      <trkpt lat="46.45049" lon="5.42108">
        <ele>447.4</ele>
        <time>2022-03-12T14:18:40Z</time>
      </trkpt>
      <trkpt lat="46.45046" lon="5.42103">
        <ele>447.4</ele>
        <time>2022-03-12T14:18:41Z</time>
      </trkpt>
      <trkpt lat="46.45035" lon="5.42079">
        <ele>447.6</ele>
        <time>2022-03-12T14:18:45Z</time>
      </trkpt>
      <trkpt lat="46.45029" lon="5.42067">
        <ele>447.6</ele>
        <time>2022-03-12T14:18:47Z</time>
      </trkpt>
      <trkpt lat="46.45013" lon="5.42042">
        <ele>447.8</ele>
        <time>2022-03-12T14:18:52Z</time>
      </trkpt>
      <trkpt lat="46.44995" lon="5.42012">
        <ele>448.4</ele>
        <time>2022-03-12T14:18:58Z</time>
      </trkpt>
      <trkpt lat="46.44982" lon="5.41993">
        <ele>449.2</ele>
        <time>2022-03-12T14:19:02Z</time>
      </trkpt>
      <trkpt lat="46.44974" lon="5.4198">
        <ele>449.8</ele>
        <time>2022-03-12T14:19:05Z</time>
      </trkpt>
      <trkpt lat="46.4496" lon="5.41951">
        <ele>450.4</ele>
        <time>2022-03-12T14:19:11Z</time>
      </trkpt>
      <trkpt lat="46.44957" lon="5.41941">
        <ele>450.6</ele>
        <time>2022-03-12T14:19:13Z</time>
      </trkpt>
      <trkpt lat="46.44956" lon="5.41934">
        <ele>450.8</ele>
        <time>2022-03-12T14:19:14Z</time>
      </trkpt>
      <trkpt lat="46.44956" lon="5.41924">
        <ele>451</ele>
        <time>2022-03-12T14:19:16Z</time>
      </trkpt>
      <trkpt lat="46.4496" lon="5.41897">
        <ele>451.8</ele>
        <time>2022-03-12T14:19:20Z</time>
      </trkpt>
      <trkpt lat="46.44963" lon="5.41883">
        <ele>452.4</ele>
        <time>2022-03-12T14:19:22Z</time>
      </trkpt>
      <trkpt lat="46.44971" lon="5.41859">
        <ele>452.8</ele>
        <time>2022-03-12T14:19:26Z</time>
      </trkpt>
      <trkpt lat="46.44976" lon="5.41848">
        <ele>453</ele>
        <time>2022-03-12T14:19:28Z</time>
      </trkpt>
      <trkpt lat="46.44979" lon="5.41843">
        <ele>453</ele>
        <time>2022-03-12T14:19:29Z</time>
      </trkpt>
      <trkpt lat="46.44989" lon="5.41827">
        <ele>453.4</ele>
        <time>2022-03-12T14:19:32Z</time>
      </trkpt>
      <trkpt lat="46.44995" lon="5.4182">
        <ele>453.6</ele>
        <time>2022-03-12T14:19:34Z</time>
      </trkpt>
      <trkpt lat="46.44999" lon="5.41816">
        <ele>453.8</ele>
        <time>2022-03-12T14:19:35Z</time>
      </trkpt>
      <trkpt lat="46.45004" lon="5.41813">
        <ele>453.8</ele>
        <time>2022-03-12T14:19:36Z</time>
      </trkpt>
      <trkpt lat="46.45008" lon="5.4181">
        <ele>454</ele>
        <time>2022-03-12T14:19:37Z</time>
      </trkpt>
      <trkpt lat="46.45017" lon="5.41807">
        <ele>454</ele>
        <time>2022-03-12T14:19:39Z</time>
      </trkpt>
      <trkpt lat="46.45022" lon="5.41807">
        <ele>454.2</ele>
        <time>2022-03-12T14:19:40Z</time>
      </trkpt>
      <trkpt lat="46.45032" lon="5.41807">
        <ele>454.4</ele>
        <time>2022-03-12T14:19:42Z</time>
      </trkpt>
      <trkpt lat="46.45051" lon="5.41812">
        <ele>454.6</ele>
        <time>2022-03-12T14:19:46Z</time>
      </trkpt>
      <trkpt lat="46.4508" lon="5.41817">
        <ele>455</ele>
        <time>2022-03-12T14:19:51Z</time>
      </trkpt>
      <trkpt lat="46.45118" lon="5.41811">
        <ele>454.4</ele>
        <time>2022-03-12T14:19:57Z</time>
      </trkpt>
      <trkpt lat="46.45158" lon="5.41791">
        <ele>454.2</ele>
        <time>2022-03-12T14:20:04Z</time>
      </trkpt>
      <trkpt lat="46.45181" lon="5.41767">
        <ele>454.2</ele>
        <time>2022-03-12T14:20:09Z</time>
      </trkpt>
      <trkpt lat="46.45199" lon="5.41736">
        <ele>454.6</ele>
        <time>2022-03-12T14:20:14Z</time>
      </trkpt>
      <trkpt lat="46.45202" lon="5.41729">
        <ele>454.6</ele>
        <time>2022-03-12T14:20:15Z</time>
      </trkpt>
      <trkpt lat="46.45217" lon="5.41687">
        <ele>455</ele>
        <time>2022-03-12T14:20:21Z</time>
      </trkpt>
      <trkpt lat="46.45225" lon="5.41665">
        <ele>455</ele>
        <time>2022-03-12T14:20:24Z</time>
      </trkpt>
      <trkpt lat="46.45236" lon="5.41613">
        <ele>456</ele>
        <time>2022-03-12T14:20:32Z</time>
      </trkpt>
      <trkpt lat="46.45242" lon="5.41586">
        <ele>457.2</ele>
        <time>2022-03-12T14:20:36Z</time>
      </trkpt>
      <trkpt lat="46.45244" lon="5.41579">
        <ele>457.4</ele>
        <time>2022-03-12T14:20:37Z</time>
      </trkpt>
      <trkpt lat="46.45247" lon="5.41572">
        <ele>457.6</ele>
        <time>2022-03-12T14:20:38Z</time>
      </trkpt>
      <trkpt lat="46.4525" lon="5.41566">
        <ele>457.8</ele>
        <time>2022-03-12T14:20:39Z</time>
      </trkpt>
      <trkpt lat="46.45257" lon="5.41554">
        <ele>458.2</ele>
        <time>2022-03-12T14:20:41Z</time>
      </trkpt>
      <trkpt lat="46.45261" lon="5.41549">
        <ele>458.2</ele>
        <time>2022-03-12T14:20:42Z</time>
      </trkpt>
      <trkpt lat="46.45265" lon="5.41544">
        <ele>458.4</ele>
        <time>2022-03-12T14:20:43Z</time>
      </trkpt>
      <trkpt lat="46.45269" lon="5.4154">
        <ele>458.4</ele>
        <time>2022-03-12T14:20:44Z</time>
      </trkpt>
      <trkpt lat="46.45273" lon="5.41537">
        <ele>458.4</ele>
        <time>2022-03-12T14:20:45Z</time>
      </trkpt>
      <trkpt lat="46.45287" lon="5.41531">
        <ele>458.6</ele>
        <time>2022-03-12T14:20:48Z</time>
      </trkpt>
      <trkpt lat="46.45297" lon="5.4153">
        <ele>458.8</ele>
        <time>2022-03-12T14:20:50Z</time>
      </trkpt>
      <trkpt lat="46.4531" lon="5.41531">
        <ele>459</ele>
        <time>2022-03-12T14:20:53Z</time>
      </trkpt>
      <trkpt lat="46.45318" lon="5.41533">
        <ele>459.2</ele>
        <time>2022-03-12T14:20:55Z</time>
      </trkpt>
      <trkpt lat="46.45326" lon="5.41534">
        <ele>459.4</ele>
        <time>2022-03-12T14:20:57Z</time>
      </trkpt>
      <trkpt lat="46.45335" lon="5.41536">
        <ele>459.8</ele>
        <time>2022-03-12T14:20:59Z</time>
      </trkpt>
      <trkpt lat="46.45352" lon="5.41539">
        <ele>460.4</ele>
        <time>2022-03-12T14:21:03Z</time>
      </trkpt>
      <trkpt lat="46.4537" lon="5.41538">
        <ele>460.8</ele>
        <time>2022-03-12T14:21:07Z</time>
      </trkpt>
      <trkpt lat="46.45392" lon="5.41534">
        <ele>461.4</ele>
        <time>2022-03-12T14:21:12Z</time>
      </trkpt>
      <trkpt lat="46.45401" lon="5.41531">
        <ele>461.8</ele>
        <time>2022-03-12T14:21:14Z</time>
      </trkpt>
      <trkpt lat="46.45405" lon="5.41529">
        <ele>461.8</ele>
        <time>2022-03-12T14:21:15Z</time>
      </trkpt>
      <trkpt lat="46.45426" lon="5.41523">
        <ele>462.4</ele>
        <time>2022-03-12T14:21:20Z</time>
      </trkpt>
      <trkpt lat="46.4543" lon="5.41521">
        <ele>462.4</ele>
        <time>2022-03-12T14:21:21Z</time>
      </trkpt>
      <trkpt lat="46.45451" lon="5.41512">
        <ele>463.6</ele>
        <time>2022-03-12T14:21:27Z</time>
      </trkpt>
      <trkpt lat="46.45458" lon="5.41509">
        <ele>464</ele>
        <time>2022-03-12T14:21:29Z</time>
      </trkpt>
      <trkpt lat="46.45471" lon="5.41503">
        <ele>464.6</ele>
        <time>2022-03-12T14:21:33Z</time>
      </trkpt>
      <trkpt lat="46.45496" lon="5.41491">
        <ele>465.2</ele>
        <time>2022-03-12T14:21:40Z</time>
      </trkpt>
      <trkpt lat="46.45515" lon="5.41483">
        <ele>465.6</ele>
        <time>2022-03-12T14:21:45Z</time>
      </trkpt>
      <trkpt lat="46.45535" lon="5.41472">
        <ele>466.2</ele>
        <time>2022-03-12T14:21:50Z</time>
      </trkpt>
      <trkpt lat="46.45567" lon="5.41451">
        <ele>466.6</ele>
        <time>2022-03-12T14:21:58Z</time>
      </trkpt>
      <trkpt lat="46.45597" lon="5.41418">
        <ele>466.6</ele>
        <time>2022-03-12T14:22:06Z</time>
      </trkpt>
      <trkpt lat="46.45614" lon="5.41386">
        <ele>466.6</ele>
        <time>2022-03-12T14:22:12Z</time>
      </trkpt>
      <trkpt lat="46.45621" lon="5.4137">
        <ele>466.8</ele>
        <time>2022-03-12T14:22:15Z</time>
      </trkpt>
      <trkpt lat="46.45644" lon="5.41327">
        <ele>467.6</ele>
        <time>2022-03-12T14:22:24Z</time>
      </trkpt>
      <trkpt lat="46.45647" lon="5.41322">
        <ele>467.8</ele>
        <time>2022-03-12T14:22:25Z</time>
      </trkpt>
      <trkpt lat="46.45673" lon="5.41287">
        <ele>468.2</ele>
        <time>2022-03-12T14:22:32Z</time>
      </trkpt>
      <trkpt lat="46.45703" lon="5.41251">
        <ele>468</ele>
        <time>2022-03-12T14:22:39Z</time>
      </trkpt>
      <trkpt lat="46.45743" lon="5.41205">
        <ele>467.8</ele>
        <time>2022-03-12T14:22:48Z</time>
      </trkpt>
      <trkpt lat="46.45763" lon="5.41169">
        <ele>467.8</ele>
        <time>2022-03-12T14:22:54Z</time>
      </trkpt>
      <trkpt lat="46.45767" lon="5.41156">
        <ele>467.8</ele>
        <time>2022-03-12T14:22:56Z</time>
      </trkpt>
      <trkpt lat="46.45774" lon="5.41129">
        <ele>468</ele>
        <time>2022-03-12T14:23:00Z</time>
      </trkpt>
      <trkpt lat="46.45789" lon="5.41066">
        <ele>468.8</ele>
        <time>2022-03-12T14:23:09Z</time>
      </trkpt>
      <trkpt lat="46.45794" lon="5.41044">
        <ele>468.8</ele>
        <time>2022-03-12T14:23:12Z</time>
      </trkpt>
      <trkpt lat="46.45812" lon="5.40984">
        <ele>469.2</ele>
        <time>2022-03-12T14:23:21Z</time>
      </trkpt>
      <trkpt lat="46.45819" lon="5.40957">
        <ele>470</ele>
        <time>2022-03-12T14:23:25Z</time>
      </trkpt>
      <trkpt lat="46.45825" lon="5.40932">
        <ele>470.8</ele>
        <time>2022-03-12T14:23:29Z</time>
      </trkpt>
      <trkpt lat="46.45833" lon="5.40885">
        <ele>471</ele>
        <time>2022-03-12T14:23:36Z</time>
      </trkpt>
      <trkpt lat="46.45837" lon="5.40864">
        <ele>471.2</ele>
        <time>2022-03-12T14:23:39Z</time>
      </trkpt>
      <trkpt lat="46.45844" lon="5.40796">
        <ele>471</ele>
        <time>2022-03-12T14:23:48Z</time>
      </trkpt>
      <trkpt lat="46.45849" lon="5.4075">
        <ele>470.8</ele>
        <time>2022-03-12T14:23:54Z</time>
      </trkpt>
      <trkpt lat="46.45852" lon="5.40728">
        <ele>471</ele>
        <time>2022-03-12T14:23:57Z</time>
      </trkpt>
      <trkpt lat="46.45862" lon="5.4069">
        <ele>471.8</ele>
        <time>2022-03-12T14:24:03Z</time>
      </trkpt>
      <trkpt lat="46.4587" lon="5.4067">
        <ele>472.2</ele>
        <time>2022-03-12T14:24:07Z</time>
      </trkpt>
      <trkpt lat="46.45876" lon="5.40657">
        <ele>472.8</ele>
        <time>2022-03-12T14:24:10Z</time>
      </trkpt>
      <trkpt lat="46.4588" lon="5.40648">
        <ele>473.2</ele>
        <time>2022-03-12T14:24:12Z</time>
      </trkpt>
      <trkpt lat="46.45888" lon="5.40633">
        <ele>474.4</ele>
        <time>2022-03-12T14:24:16Z</time>
      </trkpt>
      <trkpt lat="46.4589" lon="5.40626">
        <ele>475</ele>
        <time>2022-03-12T14:24:18Z</time>
      </trkpt>
      <trkpt lat="46.45893" lon="5.40619">
        <ele>475.6</ele>
        <time>2022-03-12T14:24:20Z</time>
      </trkpt>
      <trkpt lat="46.45898" lon="5.40612">
        <ele>476.4</ele>
        <time>2022-03-12T14:24:23Z</time>
      </trkpt>
      <trkpt lat="46.459" lon="5.40609">
        <ele>477</ele>
        <time>2022-03-12T14:24:24Z</time>
      </trkpt>
      <trkpt lat="46.45906" lon="5.40595">
        <ele>478</ele>
        <time>2022-03-12T14:24:28Z</time>
      </trkpt>
      <trkpt lat="46.45907" lon="5.40591">
        <ele>478.2</ele>
        <time>2022-03-12T14:24:29Z</time>
      </trkpt>
      <trkpt lat="46.45911" lon="5.4058">
        <ele>479.2</ele>
        <time>2022-03-12T14:24:32Z</time>
      </trkpt>
      <trkpt lat="46.45917" lon="5.40565">
        <ele>479.8</ele>
        <time>2022-03-12T14:24:36Z</time>
      </trkpt>
      <trkpt lat="46.4592" lon="5.40558">
        <ele>480.2</ele>
        <time>2022-03-12T14:24:38Z</time>
      </trkpt>
      <trkpt lat="46.45928" lon="5.40543">
        <ele>481.2</ele>
        <time>2022-03-12T14:24:42Z</time>
      </trkpt>
      <trkpt lat="46.45931" lon="5.40536">
        <ele>481.6</ele>
        <time>2022-03-12T14:24:44Z</time>
      </trkpt>
      <trkpt lat="46.45942" lon="5.4052">
        <ele>482.6</ele>
        <time>2022-03-12T14:24:49Z</time>
      </trkpt>
      <trkpt lat="46.45947" lon="5.40513">
        <ele>483.2</ele>
        <time>2022-03-12T14:24:52Z</time>
      </trkpt>
      <trkpt lat="46.45951" lon="5.40507">
        <ele>483.8</ele>
        <time>2022-03-12T14:24:54Z</time>
      </trkpt>
      <trkpt lat="46.45959" lon="5.40494">
        <ele>485</ele>
        <time>2022-03-12T14:24:59Z</time>
      </trkpt>
      <trkpt lat="46.45966" lon="5.40484">
        <ele>486.2</ele>
        <time>2022-03-12T14:25:03Z</time>
      </trkpt>
      <trkpt lat="46.45972" lon="5.40474">
        <ele>486.4</ele>
        <time>2022-03-12T14:25:06Z</time>
      </trkpt>
      <trkpt lat="46.45977" lon="5.40464">
        <ele>487.2</ele>
        <time>2022-03-12T14:25:09Z</time>
      </trkpt>
      <trkpt lat="46.45985" lon="5.40451">
        <ele>488.2</ele>
        <time>2022-03-12T14:25:14Z</time>
      </trkpt>
      <trkpt lat="46.45996" lon="5.40428">
        <ele>489.4</ele>
        <time>2022-03-12T14:25:21Z</time>
      </trkpt>
      <trkpt lat="46.46001" lon="5.40418">
        <ele>489.8</ele>
        <time>2022-03-12T14:25:24Z</time>
      </trkpt>
      <trkpt lat="46.46008" lon="5.40406">
        <ele>490.8</ele>
        <time>2022-03-12T14:25:28Z</time>
      </trkpt>
      <trkpt lat="46.46011" lon="5.404">
        <ele>491</ele>
        <time>2022-03-12T14:25:30Z</time>
      </trkpt>
      <trkpt lat="46.46015" lon="5.40387">
        <ele>491.8</ele>
        <time>2022-03-12T14:25:34Z</time>
      </trkpt>
      <trkpt lat="46.46019" lon="5.4038">
        <ele>492.4</ele>
        <time>2022-03-12T14:25:37Z</time>
      </trkpt>
      <trkpt lat="46.46023" lon="5.4037">
        <ele>492.8</ele>
        <time>2022-03-12T14:25:40Z</time>
      </trkpt>
      <trkpt lat="46.46029" lon="5.40357">
        <ele>494</ele>
        <time>2022-03-12T14:25:44Z</time>
      </trkpt>
      <trkpt lat="46.46031" lon="5.40354">
        <ele>494.2</ele>
        <time>2022-03-12T14:25:45Z</time>
      </trkpt>
      <trkpt lat="46.46042" lon="5.40339">
        <ele>495</ele>
        <time>2022-03-12T14:25:50Z</time>
      </trkpt>
      <trkpt lat="46.46046" lon="5.40335">
        <ele>495.4</ele>
        <time>2022-03-12T14:25:52Z</time>
      </trkpt>
      <trkpt lat="46.46057" lon="5.40328">
        <ele>496.2</ele>
        <time>2022-03-12T14:25:56Z</time>
      </trkpt>
      <trkpt lat="46.46072" lon="5.4032">
        <ele>497.4</ele>
        <time>2022-03-12T14:26:02Z</time>
      </trkpt>
      <trkpt lat="46.46087" lon="5.40313">
        <ele>498.4</ele>
        <time>2022-03-12T14:26:08Z</time>
      </trkpt>
      <trkpt lat="46.46092" lon="5.4031">
        <ele>498.8</ele>
        <time>2022-03-12T14:26:10Z</time>
      </trkpt>
      <trkpt lat="46.46097" lon="5.40309">
        <ele>499.6</ele>
        <time>2022-03-12T14:26:12Z</time>
      </trkpt>
      <trkpt lat="46.46111" lon="5.40301">
        <ele>500.6</ele>
        <time>2022-03-12T14:26:18Z</time>
      </trkpt>
      <trkpt lat="46.46119" lon="5.40295">
        <ele>501.2</ele>
        <time>2022-03-12T14:26:21Z</time>
      </trkpt>
      <trkpt lat="46.46128" lon="5.40283">
        <ele>501.8</ele>
        <time>2022-03-12T14:26:25Z</time>
      </trkpt>
      <trkpt lat="46.46136" lon="5.40272">
        <ele>502</ele>
        <time>2022-03-12T14:26:28Z</time>
      </trkpt>
      <trkpt lat="46.46154" lon="5.4024">
        <ele>502.8</ele>
        <time>2022-03-12T14:26:36Z</time>
      </trkpt>
      <trkpt lat="46.46156" lon="5.40237">
        <ele>503</ele>
        <time>2022-03-12T14:26:37Z</time>
      </trkpt>
      <trkpt lat="46.46172" lon="5.40208">
        <ele>503.8</ele>
        <time>2022-03-12T14:26:45Z</time>
      </trkpt>
      <trkpt lat="46.46174" lon="5.40205">
        <ele>504.2</ele>
        <time>2022-03-12T14:26:46Z</time>
      </trkpt>
      <trkpt lat="46.46181" lon="5.4019">
        <ele>505</ele>
        <time>2022-03-12T14:26:50Z</time>
      </trkpt>
      <trkpt lat="46.46189" lon="5.40174">
        <ele>505.4</ele>
        <time>2022-03-12T14:26:54Z</time>
      </trkpt>
      <trkpt lat="46.46195" lon="5.40162">
        <ele>506</ele>
        <time>2022-03-12T14:26:57Z</time>
      </trkpt>
      <trkpt lat="46.46211" lon="5.40138">
        <ele>507</ele>
        <time>2022-03-12T14:27:03Z</time>
      </trkpt>
      <trkpt lat="46.46217" lon="5.4013">
        <ele>507</ele>
        <time>2022-03-12T14:27:05Z</time>
      </trkpt>
      <trkpt lat="46.46228" lon="5.40118">
        <ele>507.2</ele>
        <time>2022-03-12T14:27:08Z</time>
      </trkpt>
      <trkpt lat="46.46235" lon="5.40113">
        <ele>507.4</ele>
        <time>2022-03-12T14:27:10Z</time>
      </trkpt>
      <trkpt lat="46.46245" lon="5.40104">
        <ele>507.4</ele>
        <time>2022-03-12T14:27:13Z</time>
      </trkpt>
      <trkpt lat="46.46257" lon="5.40098">
        <ele>507.6</ele>
        <time>2022-03-12T14:27:16Z</time>
      </trkpt>
      <trkpt lat="46.46265" lon="5.40095">
        <ele>507.8</ele>
        <time>2022-03-12T14:27:18Z</time>
      </trkpt>
      <trkpt lat="46.46276" lon="5.40095">
        <ele>508</ele>
        <time>2022-03-12T14:27:21Z</time>
      </trkpt>
      <trkpt lat="46.46283" lon="5.40095">
        <ele>508.2</ele>
        <time>2022-03-12T14:27:23Z</time>
      </trkpt>
      <trkpt lat="46.46304" lon="5.40097">
        <ele>509.4</ele>
        <time>2022-03-12T14:27:29Z</time>
      </trkpt>
      <trkpt lat="46.46322" lon="5.40096">
        <ele>510.6</ele>
        <time>2022-03-12T14:27:34Z</time>
      </trkpt>
      <trkpt lat="46.4633" lon="5.40096">
        <ele>511.2</ele>
        <time>2022-03-12T14:27:36Z</time>
      </trkpt>
      <trkpt lat="46.4634" lon="5.40094">
        <ele>511.8</ele>
        <time>2022-03-12T14:27:39Z</time>
      </trkpt>
      <trkpt lat="46.46363" lon="5.40091">
        <ele>512.8</ele>
        <time>2022-03-12T14:27:45Z</time>
      </trkpt>
      <trkpt lat="46.4637" lon="5.40089">
        <ele>513</ele>
        <time>2022-03-12T14:27:47Z</time>
      </trkpt>
      <trkpt lat="46.46392" lon="5.40085">
        <ele>514</ele>
        <time>2022-03-12T14:27:53Z</time>
      </trkpt>
      <trkpt lat="46.464" lon="5.40083">
        <ele>514.2</ele>
        <time>2022-03-12T14:27:55Z</time>
      </trkpt>
      <trkpt lat="46.46425" lon="5.40078">
        <ele>515.2</ele>
        <time>2022-03-12T14:28:02Z</time>
      </trkpt>
      <trkpt lat="46.46439" lon="5.40076">
        <ele>515.6</ele>
        <time>2022-03-12T14:28:06Z</time>
      </trkpt>
      <trkpt lat="46.46454" lon="5.40073">
        <ele>516.2</ele>
        <time>2022-03-12T14:28:10Z</time>
      </trkpt>
      <trkpt lat="46.46477" lon="5.40071">
        <ele>517</ele>
        <time>2022-03-12T14:28:16Z</time>
      </trkpt>
      <trkpt lat="46.46485" lon="5.40071">
        <ele>517.4</ele>
        <time>2022-03-12T14:28:18Z</time>
      </trkpt>
      <trkpt lat="46.46513" lon="5.40076">
        <ele>518.2</ele>
        <time>2022-03-12T14:28:25Z</time>
      </trkpt>
      <trkpt lat="46.46528" lon="5.40083">
        <ele>518.4</ele>
        <time>2022-03-12T14:28:29Z</time>
      </trkpt>
      <trkpt lat="46.46535" lon="5.40086">
        <ele>518.4</ele>
        <time>2022-03-12T14:28:31Z</time>
      </trkpt>
      <trkpt lat="46.46556" lon="5.40098">
        <ele>519.2</ele>
        <time>2022-03-12T14:28:37Z</time>
      </trkpt>
      <trkpt lat="46.4656" lon="5.401">
        <ele>519.4</ele>
        <time>2022-03-12T14:28:38Z</time>
      </trkpt>
      <trkpt lat="46.46592" lon="5.40117">
        <ele>520.8</ele>
        <time>2022-03-12T14:28:47Z</time>
      </trkpt>
      <trkpt lat="46.46599" lon="5.4012">
        <ele>521</ele>
        <time>2022-03-12T14:28:49Z</time>
      </trkpt>
      <trkpt lat="46.46612" lon="5.40126">
        <ele>521.8</ele>
        <time>2022-03-12T14:28:53Z</time>
      </trkpt>
      <trkpt lat="46.46624" lon="5.40132">
        <ele>522.4</ele>
        <time>2022-03-12T14:28:57Z</time>
      </trkpt>
      <trkpt lat="46.46632" lon="5.40138">
        <ele>522.8</ele>
        <time>2022-03-12T14:29:00Z</time>
      </trkpt>
      <trkpt lat="46.4665" lon="5.40147">
        <ele>524</ele>
        <time>2022-03-12T14:29:06Z</time>
      </trkpt>
      <trkpt lat="46.46653" lon="5.40148">
        <ele>524</ele>
        <time>2022-03-12T14:29:07Z</time>
      </trkpt>
      <trkpt lat="46.46669" lon="5.40157">
        <ele>525</ele>
        <time>2022-03-12T14:29:13Z</time>
      </trkpt>
      <trkpt lat="46.46682" lon="5.40163">
        <ele>526</ele>
        <time>2022-03-12T14:29:18Z</time>
      </trkpt>
      <trkpt lat="46.46701" lon="5.40173">
        <ele>527.2</ele>
        <time>2022-03-12T14:29:25Z</time>
      </trkpt>
      <trkpt lat="46.46706" lon="5.40175">
        <ele>527.6</ele>
        <time>2022-03-12T14:29:27Z</time>
      </trkpt>
      <trkpt lat="46.46709" lon="5.40176">
        <ele>527.8</ele>
        <time>2022-03-12T14:29:28Z</time>
      </trkpt>
      <trkpt lat="46.46717" lon="5.4018">
        <ele>528.4</ele>
        <time>2022-03-12T14:29:31Z</time>
      </trkpt>
      <trkpt lat="46.46728" lon="5.40184">
        <ele>529</ele>
        <time>2022-03-12T14:29:35Z</time>
      </trkpt>
      <trkpt lat="46.46737" lon="5.40188">
        <ele>529.4</ele>
        <time>2022-03-12T14:29:38Z</time>
      </trkpt>
      <trkpt lat="46.46748" lon="5.40194">
        <ele>530</ele>
        <time>2022-03-12T14:29:42Z</time>
      </trkpt>
      <trkpt lat="46.46752" lon="5.40197">
        <ele>530.4</ele>
        <time>2022-03-12T14:29:44Z</time>
      </trkpt>
      <trkpt lat="46.46766" lon="5.40205">
        <ele>531.4</ele>
        <time>2022-03-12T14:29:49Z</time>
      </trkpt>
      <trkpt lat="46.46769" lon="5.40206">
        <ele>531.6</ele>
        <time>2022-03-12T14:29:50Z</time>
      </trkpt>
      <trkpt lat="46.46784" lon="5.40216">
        <ele>532.6</ele>
        <time>2022-03-12T14:29:56Z</time>
      </trkpt>
      <trkpt lat="46.46792" lon="5.40221">
        <ele>533.2</ele>
        <time>2022-03-12T14:29:59Z</time>
      </trkpt>
      <trkpt lat="46.46803" lon="5.40227">
        <ele>533.6</ele>
        <time>2022-03-12T14:30:03Z</time>
      </trkpt>
      <trkpt lat="46.46819" lon="5.40235">
        <ele>534.8</ele>
        <time>2022-03-12T14:30:09Z</time>
      </trkpt>
      <trkpt lat="46.46832" lon="5.40241">
        <ele>536</ele>
        <time>2022-03-12T14:30:14Z</time>
      </trkpt>
      <trkpt lat="46.46849" lon="5.40249">
        <ele>536.8</ele>
        <time>2022-03-12T14:30:20Z</time>
      </trkpt>
      <trkpt lat="46.46855" lon="5.40251">
        <ele>537</ele>
        <time>2022-03-12T14:30:22Z</time>
      </trkpt>
      <trkpt lat="46.46876" lon="5.40261">
        <ele>538.2</ele>
        <time>2022-03-12T14:30:29Z</time>
      </trkpt>
      <trkpt lat="46.46879" lon="5.40262">
        <ele>538.4</ele>
        <time>2022-03-12T14:30:30Z</time>
      </trkpt>
      <trkpt lat="46.46897" lon="5.40273">
        <ele>539.2</ele>
        <time>2022-03-12T14:30:36Z</time>
      </trkpt>
      <trkpt lat="46.46904" lon="5.40276">
        <ele>539.4</ele>
        <time>2022-03-12T14:30:38Z</time>
      </trkpt>
      <trkpt lat="46.46934" lon="5.40291">
        <ele>540.4</ele>
        <time>2022-03-12T14:30:47Z</time>
      </trkpt>
      <trkpt lat="46.46937" lon="5.40293">
        <ele>540.4</ele>
        <time>2022-03-12T14:30:48Z</time>
      </trkpt>
      <trkpt lat="46.46958" lon="5.40304">
        <ele>541.4</ele>
        <time>2022-03-12T14:30:55Z</time>
      </trkpt>
      <trkpt lat="46.46967" lon="5.40308">
        <ele>542.2</ele>
        <time>2022-03-12T14:30:58Z</time>
      </trkpt>
      <trkpt lat="46.46973" lon="5.4031">
        <ele>542.6</ele>
        <time>2022-03-12T14:31:00Z</time>
      </trkpt>
      <trkpt lat="46.46996" lon="5.40318">
        <ele>543.6</ele>
        <time>2022-03-12T14:31:07Z</time>
      </trkpt>
      <trkpt lat="46.47" lon="5.40319">
        <ele>543.6</ele>
        <time>2022-03-12T14:31:08Z</time>
      </trkpt>
      <trkpt lat="46.47019" lon="5.40323">
        <ele>544.4</ele>
        <time>2022-03-12T14:31:14Z</time>
      </trkpt>
      <trkpt lat="46.47035" lon="5.40324">
        <ele>544.6</ele>
        <time>2022-03-12T14:31:18Z</time>
      </trkpt>
      <trkpt lat="46.47049" lon="5.40325">
        <ele>544.8</ele>
        <time>2022-03-12T14:31:21Z</time>
      </trkpt>
      <trkpt lat="46.4709" lon="5.40329">
        <ele>544.2</ele>
        <time>2022-03-12T14:31:28Z</time>
      </trkpt>
      <trkpt lat="46.47102" lon="5.40332">
        <ele>543.2</ele>
        <time>2022-03-12T14:31:30Z</time>
      </trkpt>
      <trkpt lat="46.47123" lon="5.40335">
        <ele>542</ele>
        <time>2022-03-12T14:31:33Z</time>
      </trkpt>
      <trkpt lat="46.47152" lon="5.4034">
        <ele>540.6</ele>
        <time>2022-03-12T14:31:37Z</time>
      </trkpt>
      <trkpt lat="46.47161" lon="5.40343">
        <ele>540.2</ele>
        <time>2022-03-12T14:31:38Z</time>
      </trkpt>
      <trkpt lat="46.47168" lon="5.40346">
        <ele>539.8</ele>
        <time>2022-03-12T14:31:39Z</time>
      </trkpt>
      <trkpt lat="46.47175" lon="5.40349">
        <ele>539.4</ele>
        <time>2022-03-12T14:31:40Z</time>
      </trkpt>
      <trkpt lat="46.47192" lon="5.40359">
        <ele>539</ele>
        <time>2022-03-12T14:31:42Z</time>
      </trkpt>
      <trkpt lat="46.47206" lon="5.40374">
        <ele>538.2</ele>
        <time>2022-03-12T14:31:44Z</time>
      </trkpt>
      <trkpt lat="46.47232" lon="5.40407">
        <ele>536.8</ele>
        <time>2022-03-12T14:31:48Z</time>
      </trkpt>
      <trkpt lat="46.47249" lon="5.40419">
        <ele>535.8</ele>
        <time>2022-03-12T14:31:50Z</time>
      </trkpt>
      <trkpt lat="46.47258" lon="5.40423">
        <ele>534.8</ele>
        <time>2022-03-12T14:31:51Z</time>
      </trkpt>
      <trkpt lat="46.47266" lon="5.40427">
        <ele>534.4</ele>
        <time>2022-03-12T14:31:52Z</time>
      </trkpt>
      <trkpt lat="46.47276" lon="5.40431">
        <ele>533.8</ele>
        <time>2022-03-12T14:31:53Z</time>
      </trkpt>
      <trkpt lat="46.47285" lon="5.40433">
        <ele>533.4</ele>
        <time>2022-03-12T14:31:54Z</time>
      </trkpt>
      <trkpt lat="46.47305" lon="5.40438">
        <ele>532.6</ele>
        <time>2022-03-12T14:31:56Z</time>
      </trkpt>
      <trkpt lat="46.47314" lon="5.40441">
        <ele>532.2</ele>
        <time>2022-03-12T14:31:57Z</time>
      </trkpt>
      <trkpt lat="46.47334" lon="5.40444">
        <ele>531</ele>
        <time>2022-03-12T14:31:59Z</time>
      </trkpt>
      <trkpt lat="46.47363" lon="5.40447">
        <ele>530</ele>
        <time>2022-03-12T14:32:02Z</time>
      </trkpt>
      <trkpt lat="46.47373" lon="5.40447">
        <ele>529.8</ele>
        <time>2022-03-12T14:32:03Z</time>
      </trkpt>
      <trkpt lat="46.47403" lon="5.40442">
        <ele>528.4</ele>
        <time>2022-03-12T14:32:06Z</time>
      </trkpt>
      <trkpt lat="46.47424" lon="5.40439">
        <ele>527.6</ele>
        <time>2022-03-12T14:32:08Z</time>
      </trkpt>
      <trkpt lat="46.47434" lon="5.40439">
        <ele>527.4</ele>
        <time>2022-03-12T14:32:09Z</time>
      </trkpt>
      <trkpt lat="46.47462" lon="5.40442">
        <ele>526.2</ele>
        <time>2022-03-12T14:32:12Z</time>
      </trkpt>
      <trkpt lat="46.4747" lon="5.40444">
        <ele>525.4</ele>
        <time>2022-03-12T14:32:13Z</time>
      </trkpt>
      <trkpt lat="46.47478" lon="5.40446">
        <ele>525</ele>
        <time>2022-03-12T14:32:14Z</time>
      </trkpt>
      <trkpt lat="46.47491" lon="5.4045">
        <ele>523.4</ele>
        <time>2022-03-12T14:32:16Z</time>
      </trkpt>
      <trkpt lat="46.47499" lon="5.40453">
        <ele>523.2</ele>
        <time>2022-03-12T14:32:17Z</time>
      </trkpt>
      <trkpt lat="46.47505" lon="5.40458">
        <ele>522.2</ele>
        <time>2022-03-12T14:32:18Z</time>
      </trkpt>
      <trkpt lat="46.47511" lon="5.40465">
        <ele>522</ele>
        <time>2022-03-12T14:32:19Z</time>
      </trkpt>
      <trkpt lat="46.47516" lon="5.40471">
        <ele>521.2</ele>
        <time>2022-03-12T14:32:20Z</time>
      </trkpt>
      <trkpt lat="46.47522" lon="5.40473">
        <ele>520.8</ele>
        <time>2022-03-12T14:32:21Z</time>
      </trkpt>
      <trkpt lat="46.47528" lon="5.40473">
        <ele>520.4</ele>
        <time>2022-03-12T14:32:22Z</time>
      </trkpt>
      <trkpt lat="46.47534" lon="5.40469">
        <ele>519.8</ele>
        <time>2022-03-12T14:32:23Z</time>
      </trkpt>
      <trkpt lat="46.47539" lon="5.40458">
        <ele>519.4</ele>
        <time>2022-03-12T14:32:24Z</time>
      </trkpt>
      <trkpt lat="46.47542" lon="5.40431">
        <ele>518.4</ele>
        <time>2022-03-12T14:32:26Z</time>
      </trkpt>
      <trkpt lat="46.4754" lon="5.40416">
        <ele>517.4</ele>
        <time>2022-03-12T14:32:27Z</time>
      </trkpt>
      <trkpt lat="46.47536" lon="5.40403">
        <ele>516.8</ele>
        <time>2022-03-12T14:32:28Z</time>
      </trkpt>
      <trkpt lat="46.47532" lon="5.4039">
        <ele>516.2</ele>
        <time>2022-03-12T14:32:29Z</time>
      </trkpt>
      <trkpt lat="46.47524" lon="5.40364">
        <ele>515.6</ele>
        <time>2022-03-12T14:32:31Z</time>
      </trkpt>
      <trkpt lat="46.47522" lon="5.40351">
        <ele>515.2</ele>
        <time>2022-03-12T14:32:32Z</time>
      </trkpt>
      <trkpt lat="46.47523" lon="5.40337">
        <ele>515</ele>
        <time>2022-03-12T14:32:33Z</time>
      </trkpt>
      <trkpt lat="46.47528" lon="5.40322">
        <ele>514.6</ele>
        <time>2022-03-12T14:32:34Z</time>
      </trkpt>
      <trkpt lat="46.47533" lon="5.4031">
        <ele>514</ele>
        <time>2022-03-12T14:32:35Z</time>
      </trkpt>
      <trkpt lat="46.47549" lon="5.40287">
        <ele>513</ele>
        <time>2022-03-12T14:32:37Z</time>
      </trkpt>
      <trkpt lat="46.47557" lon="5.40278">
        <ele>512.6</ele>
        <time>2022-03-12T14:32:38Z</time>
      </trkpt>
      <trkpt lat="46.47566" lon="5.4027">
        <ele>511.6</ele>
        <time>2022-03-12T14:32:39Z</time>
      </trkpt>
      <trkpt lat="46.47577" lon="5.40265">
        <ele>511.2</ele>
        <time>2022-03-12T14:32:40Z</time>
      </trkpt>
      <trkpt lat="46.47588" lon="5.40261">
        <ele>510</ele>
        <time>2022-03-12T14:32:41Z</time>
      </trkpt>
      <trkpt lat="46.47609" lon="5.40256">
        <ele>508.4</ele>
        <time>2022-03-12T14:32:43Z</time>
      </trkpt>
      <trkpt lat="46.47619" lon="5.40252">
        <ele>508</ele>
        <time>2022-03-12T14:32:44Z</time>
      </trkpt>
      <trkpt lat="46.47641" lon="5.40246">
        <ele>507.2</ele>
        <time>2022-03-12T14:32:46Z</time>
      </trkpt>
      <trkpt lat="46.47651" lon="5.40244">
        <ele>506.8</ele>
        <time>2022-03-12T14:32:47Z</time>
      </trkpt>
      <trkpt lat="46.47672" lon="5.40244">
        <ele>506</ele>
        <time>2022-03-12T14:32:49Z</time>
      </trkpt>
      <trkpt lat="46.47681" lon="5.40243">
        <ele>505.6</ele>
        <time>2022-03-12T14:32:50Z</time>
      </trkpt>
      <trkpt lat="46.47698" lon="5.40234">
        <ele>504.6</ele>
        <time>2022-03-12T14:32:52Z</time>
      </trkpt>
      <trkpt lat="46.47709" lon="5.40213">
        <ele>503.4</ele>
        <time>2022-03-12T14:32:54Z</time>
      </trkpt>
      <trkpt lat="46.47721" lon="5.40173">
        <ele>502</ele>
        <time>2022-03-12T14:32:57Z</time>
      </trkpt>
      <trkpt lat="46.47728" lon="5.40162">
        <ele>501.6</ele>
        <time>2022-03-12T14:32:58Z</time>
      </trkpt>
      <trkpt lat="46.47737" lon="5.40152">
        <ele>501.2</ele>
        <time>2022-03-12T14:32:59Z</time>
      </trkpt>
      <trkpt lat="46.47746" lon="5.40143">
        <ele>500.8</ele>
        <time>2022-03-12T14:33:00Z</time>
      </trkpt>
      <trkpt lat="46.47752" lon="5.40132">
        <ele>500.4</ele>
        <time>2022-03-12T14:33:01Z</time>
      </trkpt>
      <trkpt lat="46.47761" lon="5.40104">
        <ele>499.2</ele>
        <time>2022-03-12T14:33:03Z</time>
      </trkpt>
      <trkpt lat="46.47763" lon="5.4009">
        <ele>498.4</ele>
        <time>2022-03-12T14:33:04Z</time>
      </trkpt>
      <trkpt lat="46.47765" lon="5.40074">
        <ele>498.2</ele>
        <time>2022-03-12T14:33:05Z</time>
      </trkpt>
      <trkpt lat="46.47765" lon="5.40058">
        <ele>497.8</ele>
        <time>2022-03-12T14:33:06Z</time>
      </trkpt>
      <trkpt lat="46.47764" lon="5.40044">
        <ele>497.4</ele>
        <time>2022-03-12T14:33:07Z</time>
      </trkpt>
      <trkpt lat="46.47764" lon="5.40031">
        <ele>497</ele>
        <time>2022-03-12T14:33:08Z</time>
      </trkpt>
      <trkpt lat="46.47766" lon="5.40019">
        <ele>496.4</ele>
        <time>2022-03-12T14:33:09Z</time>
      </trkpt>
      <trkpt lat="46.47769" lon="5.40007">
        <ele>495.4</ele>
        <time>2022-03-12T14:33:10Z</time>
      </trkpt>
      <trkpt lat="46.47774" lon="5.39999">
        <ele>494.8</ele>
        <time>2022-03-12T14:33:11Z</time>
      </trkpt>
      <trkpt lat="46.47782" lon="5.39993">
        <ele>494.6</ele>
        <time>2022-03-12T14:33:12Z</time>
      </trkpt>
      <trkpt lat="46.47806" lon="5.39982">
        <ele>492.8</ele>
        <time>2022-03-12T14:33:15Z</time>
      </trkpt>
      <trkpt lat="46.47816" lon="5.39978">
        <ele>492.4</ele>
        <time>2022-03-12T14:33:16Z</time>
      </trkpt>
      <trkpt lat="46.47827" lon="5.39972">
        <ele>491.8</ele>
        <time>2022-03-12T14:33:17Z</time>
      </trkpt>
      <trkpt lat="46.47844" lon="5.39964">
        <ele>490.4</ele>
        <time>2022-03-12T14:33:19Z</time>
      </trkpt>
      <trkpt lat="46.47863" lon="5.39954">
        <ele>489.2</ele>
        <time>2022-03-12T14:33:21Z</time>
      </trkpt>
      <trkpt lat="46.47883" lon="5.39943">
        <ele>488</ele>
        <time>2022-03-12T14:33:23Z</time>
      </trkpt>
      <trkpt lat="46.47902" lon="5.39932">
        <ele>487</ele>
        <time>2022-03-12T14:33:25Z</time>
      </trkpt>
      <trkpt lat="46.47924" lon="5.39921">
        <ele>485.4</ele>
        <time>2022-03-12T14:33:27Z</time>
      </trkpt>
      <trkpt lat="46.47943" lon="5.3991">
        <ele>484.4</ele>
        <time>2022-03-12T14:33:29Z</time>
      </trkpt>
      <trkpt lat="46.47951" lon="5.39907">
        <ele>484.2</ele>
        <time>2022-03-12T14:33:30Z</time>
      </trkpt>
      <trkpt lat="46.4798" lon="5.39892">
        <ele>483</ele>
        <time>2022-03-12T14:33:33Z</time>
      </trkpt>
      <trkpt lat="46.47996" lon="5.39886">
        <ele>482.2</ele>
        <time>2022-03-12T14:33:35Z</time>
      </trkpt>
      <trkpt lat="46.48005" lon="5.39883">
        <ele>481.8</ele>
        <time>2022-03-12T14:33:36Z</time>
      </trkpt>
      <trkpt lat="46.48013" lon="5.39881">
        <ele>481.6</ele>
        <time>2022-03-12T14:33:37Z</time>
      </trkpt>
      <trkpt lat="46.48028" lon="5.39883">
        <ele>481.2</ele>
        <time>2022-03-12T14:33:39Z</time>
      </trkpt>
      <trkpt lat="46.48055" lon="5.39899">
        <ele>481</ele>
        <time>2022-03-12T14:33:43Z</time>
      </trkpt>
      <trkpt lat="46.48074" lon="5.39908">
        <ele>481</ele>
        <time>2022-03-12T14:33:46Z</time>
      </trkpt>
      <trkpt lat="46.4808" lon="5.39909">
        <ele>481</ele>
        <time>2022-03-12T14:33:47Z</time>
      </trkpt>
      <trkpt lat="46.48116" lon="5.39907">
        <ele>481.2</ele>
        <time>2022-03-12T14:33:53Z</time>
      </trkpt>
      <trkpt lat="46.48154" lon="5.39892">
        <ele>481.2</ele>
        <time>2022-03-12T14:33:59Z</time>
      </trkpt>
      <trkpt lat="46.48187" lon="5.39867">
        <ele>480.8</ele>
        <time>2022-03-12T14:34:05Z</time>
      </trkpt>
      <trkpt lat="46.48193" lon="5.39859">
        <ele>480.6</ele>
        <time>2022-03-12T14:34:06Z</time>
      </trkpt>
      <trkpt lat="46.48197" lon="5.3985">
        <ele>480.6</ele>
        <time>2022-03-12T14:34:07Z</time>
      </trkpt>
      <trkpt lat="46.48199" lon="5.39832">
        <ele>480.2</ele>
        <time>2022-03-12T14:34:09Z</time>
      </trkpt>
      <trkpt lat="46.48192" lon="5.39795">
        <ele>480</ele>
        <time>2022-03-12T14:34:13Z</time>
      </trkpt>
      <trkpt lat="46.48186" lon="5.39758">
        <ele>479.6</ele>
        <time>2022-03-12T14:34:17Z</time>
      </trkpt>
      <trkpt lat="46.48183" lon="5.39739">
        <ele>479.4</ele>
        <time>2022-03-12T14:34:19Z</time>
      </trkpt>
      <trkpt lat="46.48178" lon="5.39702">
        <ele>479</ele>
        <time>2022-03-12T14:34:23Z</time>
      </trkpt>
      <trkpt lat="46.48179" lon="5.39673">
        <ele>478.8</ele>
        <time>2022-03-12T14:34:26Z</time>
      </trkpt>
      <trkpt lat="46.4818" lon="5.3966">
        <ele>478.6</ele>
        <time>2022-03-12T14:34:27Z</time>
      </trkpt>
      <trkpt lat="46.48182" lon="5.39649">
        <ele>478</ele>
        <time>2022-03-12T14:34:28Z</time>
      </trkpt>
      <trkpt lat="46.48188" lon="5.39629">
        <ele>477.4</ele>
        <time>2022-03-12T14:34:30Z</time>
      </trkpt>
      <trkpt lat="46.48204" lon="5.39591">
        <ele>476.2</ele>
        <time>2022-03-12T14:34:33Z</time>
      </trkpt>
      <trkpt lat="46.48212" lon="5.39565">
        <ele>474.6</ele>
        <time>2022-03-12T14:34:35Z</time>
      </trkpt>
      <trkpt lat="46.48221" lon="5.39525">
        <ele>472.8</ele>
        <time>2022-03-12T14:34:38Z</time>
      </trkpt>
      <trkpt lat="46.48227" lon="5.39504">
        <ele>471</ele>
        <time>2022-03-12T14:34:40Z</time>
      </trkpt>
      <trkpt lat="46.48238" lon="5.39483">
        <ele>469.6</ele>
        <time>2022-03-12T14:34:42Z</time>
      </trkpt>
      <trkpt lat="46.48244" lon="5.39476">
        <ele>468.8</ele>
        <time>2022-03-12T14:34:43Z</time>
      </trkpt>
      <trkpt lat="46.48251" lon="5.39472">
        <ele>468</ele>
        <time>2022-03-12T14:34:44Z</time>
      </trkpt>
      <trkpt lat="46.48266" lon="5.39468">
        <ele>466</ele>
        <time>2022-03-12T14:34:46Z</time>
      </trkpt>
      <trkpt lat="46.48282" lon="5.39467">
        <ele>464.8</ele>
        <time>2022-03-12T14:34:48Z</time>
      </trkpt>
      <trkpt lat="46.4829" lon="5.39463">
        <ele>464</ele>
        <time>2022-03-12T14:34:49Z</time>
      </trkpt>
      <trkpt lat="46.48295" lon="5.39456">
        <ele>463.6</ele>
        <time>2022-03-12T14:34:50Z</time>
      </trkpt>
      <trkpt lat="46.483" lon="5.39448">
        <ele>462.4</ele>
        <time>2022-03-12T14:34:51Z</time>
      </trkpt>
      <trkpt lat="46.48303" lon="5.39437">
        <ele>462</ele>
        <time>2022-03-12T14:34:52Z</time>
      </trkpt>
      <trkpt lat="46.48306" lon="5.39425">
        <ele>461.2</ele>
        <time>2022-03-12T14:34:53Z</time>
      </trkpt>
      <trkpt lat="46.4831" lon="5.39413">
        <ele>460.6</ele>
        <time>2022-03-12T14:34:54Z</time>
      </trkpt>
      <trkpt lat="46.48319" lon="5.39388">
        <ele>459.2</ele>
        <time>2022-03-12T14:34:56Z</time>
      </trkpt>
      <trkpt lat="46.48325" lon="5.39376">
        <ele>458.6</ele>
        <time>2022-03-12T14:34:57Z</time>
      </trkpt>
      <trkpt lat="46.48331" lon="5.39365">
        <ele>457.6</ele>
        <time>2022-03-12T14:34:58Z</time>
      </trkpt>
      <trkpt lat="46.48339" lon="5.39355">
        <ele>457.2</ele>
        <time>2022-03-12T14:34:59Z</time>
      </trkpt>
      <trkpt lat="46.48345" lon="5.39348">
        <ele>456</ele>
        <time>2022-03-12T14:35:00Z</time>
      </trkpt>
      <trkpt lat="46.48353" lon="5.3934">
        <ele>455.6</ele>
        <time>2022-03-12T14:35:01Z</time>
      </trkpt>
      <trkpt lat="46.48363" lon="5.39332">
        <ele>454.8</ele>
        <time>2022-03-12T14:35:02Z</time>
      </trkpt>
      <trkpt lat="46.48372" lon="5.39328">
        <ele>453.8</ele>
        <time>2022-03-12T14:35:03Z</time>
      </trkpt>
      <trkpt lat="46.48382" lon="5.39326">
        <ele>453.2</ele>
        <time>2022-03-12T14:35:04Z</time>
      </trkpt>
      <trkpt lat="46.4839" lon="5.39326">
        <ele>452</ele>
        <time>2022-03-12T14:35:05Z</time>
      </trkpt>
      <trkpt lat="46.48401" lon="5.39328">
        <ele>451.4</ele>
        <time>2022-03-12T14:35:06Z</time>
      </trkpt>
      <trkpt lat="46.48411" lon="5.39329">
        <ele>449.8</ele>
        <time>2022-03-12T14:35:07Z</time>
      </trkpt>
      <trkpt lat="46.48422" lon="5.39329">
        <ele>449.4</ele>
        <time>2022-03-12T14:35:08Z</time>
      </trkpt>
      <trkpt lat="46.48441" lon="5.39325">
        <ele>448</ele>
        <time>2022-03-12T14:35:10Z</time>
      </trkpt>
      <trkpt lat="46.48465" lon="5.39317">
        <ele>446.4</ele>
        <time>2022-03-12T14:35:12Z</time>
      </trkpt>
      <trkpt lat="46.48487" lon="5.39311">
        <ele>444.8</ele>
        <time>2022-03-12T14:35:14Z</time>
      </trkpt>
      <trkpt lat="46.48508" lon="5.39306">
        <ele>443.2</ele>
        <time>2022-03-12T14:35:16Z</time>
      </trkpt>
      <trkpt lat="46.48531" lon="5.39299">
        <ele>442.2</ele>
        <time>2022-03-12T14:35:18Z</time>
      </trkpt>
      <trkpt lat="46.48542" lon="5.39296">
        <ele>440.8</ele>
        <time>2022-03-12T14:35:19Z</time>
      </trkpt>
      <trkpt lat="46.48567" lon="5.3929">
        <ele>439.4</ele>
        <time>2022-03-12T14:35:21Z</time>
      </trkpt>
      <trkpt lat="46.4858" lon="5.39287">
        <ele>438.6</ele>
        <time>2022-03-12T14:35:22Z</time>
      </trkpt>
      <trkpt lat="46.48594" lon="5.39283">
        <ele>437.6</ele>
        <time>2022-03-12T14:35:23Z</time>
      </trkpt>
      <trkpt lat="46.48616" lon="5.39279">
        <ele>435.6</ele>
        <time>2022-03-12T14:35:25Z</time>
      </trkpt>
      <trkpt lat="46.48628" lon="5.39277">
        <ele>434.6</ele>
        <time>2022-03-12T14:35:26Z</time>
      </trkpt>
      <trkpt lat="46.48642" lon="5.39275">
        <ele>434</ele>
        <time>2022-03-12T14:35:27Z</time>
      </trkpt>
      <trkpt lat="46.48654" lon="5.39275">
        <ele>433.2</ele>
        <time>2022-03-12T14:35:28Z</time>
      </trkpt>
      <trkpt lat="46.48674" lon="5.39278">
        <ele>432</ele>
        <time>2022-03-12T14:35:30Z</time>
      </trkpt>
      <trkpt lat="46.48684" lon="5.3928">
        <ele>430.6</ele>
        <time>2022-03-12T14:35:31Z</time>
      </trkpt>
      <trkpt lat="46.48693" lon="5.39284">
        <ele>429</ele>
        <time>2022-03-12T14:35:32Z</time>
      </trkpt>
      <trkpt lat="46.48711" lon="5.39296">
        <ele>427.2</ele>
        <time>2022-03-12T14:35:34Z</time>
      </trkpt>
      <trkpt lat="46.48724" lon="5.39304">
        <ele>425.6</ele>
        <time>2022-03-12T14:35:36Z</time>
      </trkpt>
      <trkpt lat="46.48732" lon="5.39306">
        <ele>424.4</ele>
        <time>2022-03-12T14:35:37Z</time>
      </trkpt>
      <trkpt lat="46.48744" lon="5.39303">
        <ele>422.6</ele>
        <time>2022-03-12T14:35:39Z</time>
      </trkpt>
      <trkpt lat="46.48745" lon="5.39298">
        <ele>422</ele>
        <time>2022-03-12T14:35:40Z</time>
      </trkpt>
      <trkpt lat="46.48746" lon="5.39293">
        <ele>421.4</ele>
        <time>2022-03-12T14:35:41Z</time>
      </trkpt>
      <trkpt lat="46.48744" lon="5.39287">
        <ele>420.2</ele>
        <time>2022-03-12T14:35:42Z</time>
      </trkpt>
      <trkpt lat="46.48739" lon="5.3928">
        <ele>419.6</ele>
        <time>2022-03-12T14:35:43Z</time>
      </trkpt>
      <trkpt lat="46.48731" lon="5.39273">
        <ele>418.6</ele>
        <time>2022-03-12T14:35:44Z</time>
      </trkpt>
      <trkpt lat="46.48712" lon="5.3925">
        <ele>416.6</ele>
        <time>2022-03-12T14:35:46Z</time>
      </trkpt>
      <trkpt lat="46.48692" lon="5.39224">
        <ele>415.4</ele>
        <time>2022-03-12T14:35:48Z</time>
      </trkpt>
      <trkpt lat="46.48676" lon="5.392">
        <ele>413.4</ele>
        <time>2022-03-12T14:35:50Z</time>
      </trkpt>
      <trkpt lat="46.48655" lon="5.39174">
        <ele>412.4</ele>
        <time>2022-03-12T14:35:52Z</time>
      </trkpt>
      <trkpt lat="46.48644" lon="5.39162">
        <ele>411.2</ele>
        <time>2022-03-12T14:35:53Z</time>
      </trkpt>
      <trkpt lat="46.48622" lon="5.39141">
        <ele>409.4</ele>
        <time>2022-03-12T14:35:55Z</time>
      </trkpt>
      <trkpt lat="46.48608" lon="5.39129">
        <ele>409</ele>
        <time>2022-03-12T14:35:56Z</time>
      </trkpt>
      <trkpt lat="46.48595" lon="5.39119">
        <ele>408</ele>
        <time>2022-03-12T14:35:57Z</time>
      </trkpt>
      <trkpt lat="46.48585" lon="5.39111">
        <ele>407</ele>
        <time>2022-03-12T14:35:58Z</time>
      </trkpt>
      <trkpt lat="46.4856" lon="5.39093">
        <ele>404.6</ele>
        <time>2022-03-12T14:36:00Z</time>
      </trkpt>
      <trkpt lat="46.48547" lon="5.39085">
        <ele>404</ele>
        <time>2022-03-12T14:36:01Z</time>
      </trkpt>
      <trkpt lat="46.48532" lon="5.39075">
        <ele>403</ele>
        <time>2022-03-12T14:36:02Z</time>
      </trkpt>
      <trkpt lat="46.48514" lon="5.39052">
        <ele>400.8</ele>
        <time>2022-03-12T14:36:04Z</time>
      </trkpt>
      <trkpt lat="46.48499" lon="5.39015">
        <ele>398.2</ele>
        <time>2022-03-12T14:36:06Z</time>
      </trkpt>
      <trkpt lat="46.48493" lon="5.38995">
        <ele>396.8</ele>
        <time>2022-03-12T14:36:07Z</time>
      </trkpt>
      <trkpt lat="46.48487" lon="5.38977">
        <ele>396.2</ele>
        <time>2022-03-12T14:36:08Z</time>
      </trkpt>
      <trkpt lat="46.48482" lon="5.38964">
        <ele>394.6</ele>
        <time>2022-03-12T14:36:09Z</time>
      </trkpt>
      <trkpt lat="46.48467" lon="5.38936">
        <ele>393</ele>
        <time>2022-03-12T14:36:11Z</time>
      </trkpt>
      <trkpt lat="46.4846" lon="5.38922">
        <ele>392.4</ele>
        <time>2022-03-12T14:36:12Z</time>
      </trkpt>
      <trkpt lat="46.48456" lon="5.38908">
        <ele>391</ele>
        <time>2022-03-12T14:36:13Z</time>
      </trkpt>
      <trkpt lat="46.48454" lon="5.38894">
        <ele>389.6</ele>
        <time>2022-03-12T14:36:14Z</time>
      </trkpt>
      <trkpt lat="46.4846" lon="5.38867">
        <ele>388</ele>
        <time>2022-03-12T14:36:16Z</time>
      </trkpt>
      <trkpt lat="46.48474" lon="5.38848">
        <ele>387</ele>
        <time>2022-03-12T14:36:18Z</time>
      </trkpt>
      <trkpt lat="46.48482" lon="5.38842">
        <ele>386.6</ele>
        <time>2022-03-12T14:36:19Z</time>
      </trkpt>
      <trkpt lat="46.485" lon="5.38831">
        <ele>385.4</ele>
        <time>2022-03-12T14:36:21Z</time>
      </trkpt>
      <trkpt lat="46.48509" lon="5.38825">
        <ele>384.4</ele>
        <time>2022-03-12T14:36:22Z</time>
      </trkpt>
      <trkpt lat="46.48518" lon="5.38819">
        <ele>383.8</ele>
        <time>2022-03-12T14:36:23Z</time>
      </trkpt>
      <trkpt lat="46.48537" lon="5.38807">
        <ele>382.4</ele>
        <time>2022-03-12T14:36:25Z</time>
      </trkpt>
      <trkpt lat="46.48558" lon="5.38792">
        <ele>381.2</ele>
        <time>2022-03-12T14:36:27Z</time>
      </trkpt>
      <trkpt lat="46.48567" lon="5.38786">
        <ele>380.8</ele>
        <time>2022-03-12T14:36:28Z</time>
      </trkpt>
      <trkpt lat="46.48574" lon="5.38781">
        <ele>379.8</ele>
        <time>2022-03-12T14:36:29Z</time>
      </trkpt>
      <trkpt lat="46.48582" lon="5.38776">
        <ele>379.2</ele>
        <time>2022-03-12T14:36:30Z</time>
      </trkpt>
      <trkpt lat="46.4859" lon="5.38773">
        <ele>378.6</ele>
        <time>2022-03-12T14:36:31Z</time>
      </trkpt>
      <trkpt lat="46.48597" lon="5.38773">
        <ele>377.2</ele>
        <time>2022-03-12T14:36:32Z</time>
      </trkpt>
      <trkpt lat="46.48607" lon="5.38775">
        <ele>375.8</ele>
        <time>2022-03-12T14:36:34Z</time>
      </trkpt>
      <trkpt lat="46.48611" lon="5.38775">
        <ele>375.4</ele>
        <time>2022-03-12T14:36:35Z</time>
      </trkpt>
      <trkpt lat="46.48615" lon="5.38773">
        <ele>374.4</ele>
        <time>2022-03-12T14:36:36Z</time>
      </trkpt>
      <trkpt lat="46.48623" lon="5.38763">
        <ele>372.6</ele>
        <time>2022-03-12T14:36:38Z</time>
      </trkpt>
      <trkpt lat="46.48626" lon="5.38756">
        <ele>371.6</ele>
        <time>2022-03-12T14:36:39Z</time>
      </trkpt>
      <trkpt lat="46.48634" lon="5.38739">
        <ele>370.4</ele>
        <time>2022-03-12T14:36:41Z</time>
      </trkpt>
      <trkpt lat="46.48637" lon="5.38729">
        <ele>370</ele>
        <time>2022-03-12T14:36:42Z</time>
      </trkpt>
      <trkpt lat="46.48641" lon="5.38717">
        <ele>369.4</ele>
        <time>2022-03-12T14:36:43Z</time>
      </trkpt>
      <trkpt lat="46.48643" lon="5.38707">
        <ele>369.2</ele>
        <time>2022-03-12T14:36:44Z</time>
      </trkpt>
      <trkpt lat="46.48644" lon="5.38695">
        <ele>368.6</ele>
        <time>2022-03-12T14:36:45Z</time>
      </trkpt>
      <trkpt lat="46.48644" lon="5.38679">
        <ele>368</ele>
        <time>2022-03-12T14:36:46Z</time>
      </trkpt>
      <trkpt lat="46.48643" lon="5.38666">
        <ele>367.8</ele>
        <time>2022-03-12T14:36:47Z</time>
      </trkpt>
      <trkpt lat="46.48639" lon="5.38643">
        <ele>367</ele>
        <time>2022-03-12T14:36:49Z</time>
      </trkpt>
      <trkpt lat="46.48636" lon="5.38629">
        <ele>366.6</ele>
        <time>2022-03-12T14:36:50Z</time>
      </trkpt>
      <trkpt lat="46.4863" lon="5.38603">
        <ele>365.2</ele>
        <time>2022-03-12T14:36:52Z</time>
      </trkpt>
      <trkpt lat="46.48622" lon="5.38576">
        <ele>364.2</ele>
        <time>2022-03-12T14:36:54Z</time>
      </trkpt>
      <trkpt lat="46.48619" lon="5.38562">
        <ele>363.6</ele>
        <time>2022-03-12T14:36:55Z</time>
      </trkpt>
      <trkpt lat="46.48611" lon="5.38534">
        <ele>362.6</ele>
        <time>2022-03-12T14:36:57Z</time>
      </trkpt>
      <trkpt lat="46.48603" lon="5.38505">
        <ele>361.4</ele>
        <time>2022-03-12T14:36:59Z</time>
      </trkpt>
    </trkseg>
  </trk>
</gpx>